ECMWFFLT2_sfc_thetae_000.txt.gz
Theta_e
338 336 334 336 340 340 340 342 342 344 343 345 348 351 351 351 351 351 348 347 344 345 343 344 348 346 346 341 337 342 343 343 348 348 348 348 347 346 345 344 342 340 339 339 338 338 337 337 339 340 340 341 340 332 330 331 331 333 332 334 335 334
332 337 337 339 337 340 339 340 338 339 341 341 349 350 349 347 349 347 349 346 342 344 341 342 341 347 344 343 341 341 340 342 346 347 348 347 346 346 345 343 342 339 339 339 334 325 327 334 338 340 340 341 333 329 330 331 331 332 333 333 334 336
320 332 338 338 334 337 339 337 337 338 340 340 348 349 346 347 344 345 346 343 343 341 342 342 337 342 345 345 341 341 343 344 345 348 347 346 345 345 344 343 341 339 339 334 325 322 320 321 330 341 341 333 329 329 330 331 332 332 333 332 332 338
318 322 332 337 338 336 338 336 337 337 336 337 343 346 346 345 345 345 346 344 342 343 343 343 343 346 347 344 343 342 344 343 347 347 346 345 344 344 343 342 340 338 332 327 322 321 320 320 323 325 327 328 328 329 330 331 332 332 332 333 330 338
315 317 322 331 334 337 338 336 336 337 336 335 338 340 347 345 344 346 347 345 346 345 344 343 342 343 341 340 336 338 340 342 342 342 343 337 337 337 334 333 333 329 323 324 322 321 320 320 323 324 325 327 328 329 330 331 331 331 331 332 332 338
314 314 317 320 326 333 339 339 338 337 337 337 337 336 340 343 345 344 347 347 346 346 345 344 340 339 339 338 339 340 338 339 339 339 339 336 335 333 331 331 329 325 323 322 321 321 322 320 321 323 324 326 327 329 329 330 331 331 331 331 333 337
313 313 314 316 320 326 332 339 338 337 337 336 338 336 336 338 346 346 345 347 345 345 345 342 340 339 338 337 340 340 340 339 338 336 336 337 335 333 331 330 327 324 321 322 321 321 320 319 320 323 324 326 327 328 328 329 329 330 330 330 333 337
313 312 313 315 316 320 325 332 338 341 336 335 337 335 334 336 342 346 344 345 345 345 344 344 341 339 341 342 341 341 341 340 339 338 337 337 336 334 332 328 325 322 322 321 322 321 320 319 318 321 325 326 327 327 327 327 328 328 329 330 331 337
310 310 311 314 314 316 320 323 327 331 334 336 336 335 334 335 335 339 345 344 344 343 344 344 342 341 342 341 342 341 341 340 340 338 337 335 335 333 332 328 325 324 321 320 320 320 320 319 319 320 324 326 327 326 326 326 327 327 328 329 329 334
310 311 311 313 313 314 316 318 321 323 328 332 334 335 336 335 337 337 340 343 345 343 343 342 342 341 342 340 341 341 341 340 339 338 336 334 334 334 331 329 325 323 322 320 320 321 321 319 319 321 323 326 326 327 326 326 326 327 328 329 329 332
309 316 310 311 313 313 315 316 319 321 322 323 327 333 334 335 335 336 336 338 341 343 341 342 341 340 340 342 341 340 340 340 338 337 336 335 333 333 331 329 325 324 323 321 320 321 319 319 319 321 324 326 326 326 326 326 326 327 328 328 328 330
308 311 311 310 313 311 312 314 317 318 319 321 324 325 330 332 334 336 336 334 336 341 340 342 341 339 338 340 339 338 339 339 338 337 335 334 331 331 330 328 324 324 324 324 320 320 319 318 319 321 323 326 325 325 325 326 326 326 327 327 327 329
307 307 307 309 308 309 310 313 314 315 318 320 321 322 325 329 332 333 334 335 336 337 340 339 341 340 339 339 339 338 338 337 337 337 335 333 331 328 327 324 323 325 324 323 320 319 319 318 319 320 323 325 325 325 325 325 326 326 326 327 326 328
309 309 311 309 310 308 309 311 314 312 317 317 318 321 322 325 328 330 333 333 334 336 335 338 338 338 339 338 336 337 337 337 338 337 335 332 328 327 326 324 323 323 327 323 320 318 318 318 320 320 322 325 325 325 325 325 325 326 326 326 326 326
311 304 306 306 307 309 310 309 309 311 312 313 317 319 321 322 326 327 330 333 334 334 335 335 337 338 339 338 337 336 338 338 338 336 334 331 328 326 325 324 323 323 322 323 321 320 318 319 319 319 321 324 324 324 325 325 325 325 325 325 324 326
305 304 304 309 305 306 307 307 308 315 310 311 313 315 319 321 322 325 325 326 332 333 334 336 335 336 338 338 337 337 338 338 337 335 334 330 328 326 325 323 322 323 321 322 322 320 319 318 319 319 320 323 324 324 324 324 324 324 324 324 325 324
305 304 304 304 303 305 305 307 307 308 309 310 311 312 315 318 321 324 327 327 329 333 334 334 335 335 334 337 337 337 338 338 337 335 333 330 327 326 325 323 321 323 323 322 323 321 319 319 319 319 319 322 323 324 323 323 323 324 323 323 323 323
305 304 304 304 306 305 306 306 306 306 312 309 309 311 313 316 317 320 324 326 329 329 331 333 333 333 333 334 337 337 337 337 336 334 332 330 327 326 325 324 321 322 323 324 323 322 320 319 319 318 318 320 321 322 323 323 323 325 323 322 323 323
308 303 303 303 304 305 304 305 304 305 306 307 308 309 311 312 313 316 319 321 324 327 326 326 329 331 331 332 332 336 336 335 335 333 332 329 326 325 325 324 322 321 324 325 325 324 322 320 319 319 318 319 320 321 322 323 324 324 322 323 323 324
303 302 302 303 304 304 304 305 304 304 304 306 306 310 310 310 312 313 315 317 319 323 326 326 326 326 325 325 328 333 334 335 334 332 330 328 326 324 324 323 322 322 322 324 326 325 323 320 320 319 319 319 319 320 321 323 323 323 323 322 323 325
302 301 304 303 304 304 303 304 301 302 303 304 307 309 309 309 310 311 313 314 315 319 321 325 327 326 324 327 330 333 333 333 333 332 330 328 327 326 325 325 324 324 323 322 323 325 323 322 319 318 317 317 317 319 321 323 322 322 322 322 322 323
301 301 301 302 302 304 302 303 303 304 304 305 306 306 307 308 310 312 313 313 314 315 318 322 325 326 328 330 331 332 332 332 331 331 330 329 328 328 326 325 325 323 324 323 322 324 323 321 316 316 314 314 315 317 320 321 321 322 322 322 322 322
300 301 302 304 305 304 303 304 304 304 304 306 307 309 308 310 311 311 311 311 313 313 314 317 322 326 326 327 330 332 333 333 331 331 329 328 328 327 326 325 325 324 323 324 323 325 323 323 318 317 316 314 312 311 315 319 320 321 322 322 322 321
300 300 301 304 310 306 308 308 307 307 307 306 307 311 310 310 309 309 309 311 312 313 314 316 319 322 327 327 328 329 331 333 332 332 330 328 327 327 327 325 325 325 325 322 322 322 325 323 322 316 312 312 311 311 308 311 315 318 322 322 322 322
299 300 301 305 304 305 307 305 305 306 306 306 306 306 305 306 307 310 312 311 312 314 314 315 317 320 324 327 328 330 331 331 332 332 332 330 329 328 328 327 326 325 325 323 322 322 323 323 322 322 318 313 311 309 309 311 314 315 319 320 321 322
298 299 300 301 303 305 305 305 304 304 303 303 302 301 302 304 306 307 308 310 311 313 314 315 317 320 323 328 328 329 331 331 331 332 332 332 331 330 329 328 327 327 326 326 324 322 321 323 323 321 321 321 318 313 312 314 313 309 318 321 322 322
298 299 301 301 302 306 304 304 303 303 304 303 303 303 304 305 306 308 310 310 311 312 313 314 316 318 321 325 328 331 332 333 332 332 332 332 331 330 330 329 328 327 326 326 326 321 322 321 321 321 321 321 321 317 318 316 312 312 312 317 320 321
299 303 301 301 301 303 303 302 303 302 305 304 304 304 305 306 308 312 311 311 311 311 313 314 314 315 317 319 322 326 331 332 333 332 332 331 331 331 331 331 330 328 327 327 327 323 322 322 319 319 320 320 320 320 320 320 319 316 314 312 314 319
297 298 299 299 303 301 305 306 306 305 304 304 304 306 307 308 309 310 310 310 310 311 312 313 314 315 316 318 320 322 325 329 332 333 332 332 332 332 331 329 328 328 327 327 328 327 324 322 321 320 318 319 319 321 319 320 319 318 315 312 312 314
296 297 298 298 299 300 301 304 303 302 302 302 303 304 305 306 307 309 309 310 311 310 310 311 313 314 315 317 318 320 323 326 328 331 332 333 332 331 331 330 329 328 328 326 328 327 325 324 323 323 320 320 318 318 320 318 318 318 318 317 313 314
296 296 298 299 299 300 300 301 301 301 301 301 302 302 302 303 305 306 307 308 309 309 310 310 311 313 314 316 317 320 322 324 327 329 331 332 332 332 331 331 330 329 328 327 327 327 325 325 324 323 321 320 319 319 319 318 317 318 318 316 315 315
295 296 296 298 299 299 299 300 301 301 301 301 301 302 302 302 303 304 306 306 307 309 309 310 311 311 312 314 315 317 320 322 324 327 329 331 331 332 332 331 330 329 328 328 327 326 326 325 324 323 322 321 320 321 321 321 321 320 319 319 318 316
295 295 296 296 297 298 298 299 300 300 301 302 302 302 302 303 304 304 305 305 306 306 307 308 310 311 311 312 313 314 316 319 322 323 327 330 331 330 331 331 329 329 328 327 327 326 326 325 325 323 323 323 322 321 322 324 324 322 322 321 320 317
295 295 296 296 297 297 298 299 299 300 302 303 302 302 302 303 304 305 305 305 305 305 306 307 309 310 312 312 313 314 315 317 320 323 325 327 329 330 330 331 329 329 328 328 328 327 326 325 326 326 326 324 323 323 323 325 325 324 322 320 319 318
294 295 295 295 296 296 297 298 299 300 301 302 302 302 302 303 303 303 305 305 306 307 307 308 309 311 312 312 313 314 314 315 317 319 322 324 327 329 329 330 329 328 328 329 327 327 326 325 325 325 325 325 325 324 324 325 326 325 325 323 322 321
294 295 295 297 296 296 297 298 298 299 299 301 303 303 302 303 303 304 304 304 304 305 306 307 308 309 310 312 313 314 314 314 315 317 319 321 324 326 327 328 328 328 328 329 327 326 326 326 325 326 325 326 326 325 326 326 327 326 326 325 325 323
294 294 294 296 295 296 296 296 297 298 299 299 299 300 301 302 302 303 303 303 303 304 305 306 308 311 312 312 313 313 313 314 314 315 316 318 321 324 326 327 327 327 327 329 328 327 327 326 326 327 326 326 325 325 326 327 327 327 327 326 326 325

ECMWFFLT2_sfc_thetae_003.txt.gz
Theta_e
341 343 344 344 345 345 344 342 343 343 342 340 350 351 352 352 350 350 351 350 346 353 351 351 350 348 345 346 341 342 346 349 348 348 347 347 346 345 344 341 340 340 340 339 338 338 339 340 341 341 341 342 340 340 340 339 338 337 337 336 337 336
338 341 344 344 343 344 345 344 345 344 344 345 345 351 352 352 352 352 350 352 353 352 347 348 352 345 348 345 345 343 345 346 348 348 347 347 346 344 342 340 339 339 339 338 336 337 339 340 341 341 342 341 340 340 341 340 339 337 337 338 338 339
330 339 343 344 343 343 344 345 344 343 343 341 346 350 350 351 349 351 348 349 352 351 346 349 350 347 346 343 346 344 343 345 348 348 347 346 346 344 342 341 340 339 336 334 333 336 338 339 342 342 342 342 341 340 340 340 340 339 338 339 339 340
326 332 340 342 345 345 343 343 343 342 342 342 341 346 350 349 348 352 349 351 351 352 348 352 346 346 346 346 346 343 344 344 347 347 346 346 345 343 341 339 338 335 333 335 333 333 336 338 341 342 342 342 340 340 340 340 338 338 339 339 337 338
325 328 333 339 343 345 344 343 343 342 341 342 341 341 346 349 350 349 350 350 347 351 350 351 350 349 347 348 348 347 347 347 348 347 345 345 344 343 342 339 337 334 335 333 332 334 338 340 343 342 341 340 340 340 340 340 338 338 339 340 340 336
325 326 329 335 340 341 343 340 340 341 341 341 340 341 342 346 350 351 348 348 349 350 351 351 350 347 348 348 346 347 347 347 346 345 346 344 343 344 343 341 338 336 335 335 333 333 337 340 340 341 340 340 339 339 339 339 339 340 340 340 340 336
323 325 327 329 334 337 338 340 340 341 340 341 343 341 342 342 344 347 346 349 349 349 349 349 348 347 346 346 345 346 345 345 345 344 345 343 344 344 342 341 340 338 336 334 333 332 332 338 340 339 339 338 338 337 339 339 339 340 340 340 339 336
323 324 325 324 327 328 330 332 335 336 337 339 341 339 341 342 341 343 346 347 348 349 346 345 346 346 346 346 345 346 346 343 344 343 344 344 342 342 342 341 340 337 335 334 333 332 329 331 337 339 338 338 337 338 338 338 339 341 340 340 339 338
322 322 323 325 324 324 326 327 329 329 330 332 337 340 341 341 342 343 344 344 346 348 350 343 345 345 344 346 346 345 345 343 343 343 343 343 341 341 340 340 339 337 337 335 334 333 330 328 333 338 338 337 337 337 338 338 339 339 339 339 339 338
321 320 323 323 323 324 325 325 326 327 328 328 329 334 337 340 340 341 342 342 343 343 347 347 346 344 344 346 346 347 346 344 342 342 342 342 341 341 339 338 339 338 335 335 334 334 331 329 327 334 337 336 335 337 338 338 338 338 339 340 340 338
320 322 322 320 322 323 325 324 325 326 327 326 328 330 333 335 338 341 341 340 340 342 342 346 347 345 343 344 346 344 343 344 341 341 341 342 342 341 339 338 338 338 336 335 334 333 331 330 327 328 334 335 336 338 338 339 338 338 337 338 338 338
321 323 322 319 321 321 322 322 323 325 326 325 328 328 331 330 333 336 339 339 340 341 342 344 348 346 345 346 345 344 343 342 340 341 340 340 340 340 338 336 336 337 337 336 334 333 333 330 327 327 331 334 336 336 336 338 337 338 337 338 337 336
321 322 321 319 319 320 321 320 321 323 324 324 326 327 327 330 329 331 336 337 339 340 340 341 341 348 345 346 345 344 341 341 341 342 340 339 339 338 337 335 333 335 335 334 332 332 331 331 328 328 330 334 336 335 335 336 337 338 337 337 335 334
321 321 321 321 320 319 319 320 322 322 323 324 325 326 326 328 330 330 331 334 336 337 338 339 338 341 347 345 344 345 342 341 341 341 341 340 337 336 335 334 333 333 332 332 330 331 329 328 326 327 330 333 336 336 336 335 336 337 338 336 335 336
321 319 319 319 319 318 319 318 318 321 321 322 324 324 326 327 328 329 327 327 328 333 335 337 338 337 339 344 343 343 343 342 341 341 338 339 338 337 336 334 333 332 331 331 331 329 327 327 325 325 330 334 333 335 337 336 337 336 336 337 338 336
320 319 319 319 318 319 318 319 318 318 320 321 322 323 324 324 325 328 330 327 324 324 330 336 336 337 337 339 339 341 343 343 342 341 339 337 336 335 336 335 335 333 331 330 329 327 326 325 326 326 331 334 335 335 336 336 336 335 335 336 335 336
318 318 318 318 318 318 318 318 317 318 318 319 320 321 323 324 324 325 326 328 329 329 333 332 335 336 337 336 338 337 339 340 340 341 339 337 335 336 336 334 334 334 334 330 326 324 324 325 325 329 330 333 334 335 335 335 335 335 334 335 335 335
318 318 317 317 317 317 317 317 317 316 318 317 318 319 321 322 323 324 324 322 323 327 327 324 332 332 334 333 334 333 335 338 338 338 339 337 335 335 336 336 333 334 332 329 326 324 323 324 325 327 330 332 334 334 334 336 336 334 334 333 334 334
318 317 317 317 317 318 318 318 317 316 316 316 317 317 319 319 321 323 323 322 322 325 326 326 325 326 329 331 330 330 331 331 338 340 338 336 334 333 333 334 334 332 332 329 327 325 325 326 326 327 327 330 333 334 335 335 335 333 334 334 333 333
317 316 317 316 316 316 316 315 314 315 316 316 316 316 318 318 320 320 321 321 321 322 322 325 326 324 324 325 326 326 326 328 333 336 336 334 333 331 330 331 332 331 330 329 330 327 329 327 327 328 327 329 331 332 332 332 333 333 333 334 334 334
317 317 317 316 315 314 312 312 314 314 314 315 315 316 317 318 318 319 320 320 320 321 321 322 323 326 327 325 324 326 326 328 332 335 333 334 334 333 332 332 331 330 328 328 328 327 326 328 326 325 328 327 328 329 331 331 331 331 331 333 334 333
316 316 315 316 315 315 314 313 312 312 313 314 314 314 315 317 317 318 320 320 321 321 321 322 322 323 326 328 327 327 330 333 334 334 334 335 335 334 332 331 331 328 328 327 327 328 326 327 323 321 321 322 324 327 328 330 329 330 331 332 333 333
315 315 315 316 315 314 314 315 314 313 313 313 316 317 315 315 317 317 319 320 321 321 320 321 322 322 323 326 329 329 329 332 332 332 331 332 333 332 331 331 331 328 325 327 328 330 331 328 320 322 322 319 315 316 324 325 329 329 330 331 331 330
315 315 316 316 314 314 314 315 315 314 314 313 313 315 316 316 317 318 317 319 321 321 321 321 321 321 323 324 327 329 330 331 332 333 331 330 330 331 331 331 330 329 327 324 326 328 332 330 324 320 317 316 318 317 314 319 323 327 330 330 330 329
314 314 315 314 314 314 314 315 315 315 315 313 314 314 315 316 316 316 316 317 318 320 320 320 321 322 322 323 325 329 329 331 331 333 332 330 330 330 331 331 330 329 327 326 324 327 329 330 327 328 322 318 318 316 316 320 323 324 328 326 328 329
313 313 313 313 313 313 313 313 312 311 310 310 309 310 310 311 312 312 313 316 317 318 319 320 320 320 321 322 324 327 331 332 331 332 333 331 330 330 329 329 330 331 329 329 328 327 327 331 329 329 328 327 326 319 318 320 319 315 326 327 327 326
313 313 312 312 312 312 313 313 312 311 310 308 307 310 311 312 312 313 315 315 316 318 317 318 320 321 321 322 322 323 325 329 332 332 333 332 331 330 329 330 330 329 331 330 331 326 327 328 329 330 328 330 329 328 327 322 317 319 316 322 325 325
312 313 312 312 311 311 312 312 311 311 310 309 309 309 310 311 313 313 312 314 314 315 317 317 318 319 321 321 321 322 323 324 326 331 333 331 331 331 331 331 330 330 331 330 329 327 329 329 326 326 329 328 328 328 326 325 323 319 316 315 316 322
311 311 311 311 311 311 311 311 311 310 309 310 310 310 311 311 311 312 312 313 313 314 315 316 317 317 319 320 321 321 322 322 323 325 330 331 332 333 332 330 330 330 329 330 330 330 330 329 328 327 326 327 327 326 325 325 324 323 317 316 315 316
310 310 310 310 310 310 310 310 309 309 308 308 309 309 309 309 310 311 310 311 312 312 313 314 316 317 317 319 320 321 321 322 323 325 327 327 331 332 332 331 331 331 331 329 330 330 328 331 330 329 328 327 325 325 325 324 323 323 322 321 316 317
310 309 309 309 309 309 310 309 309 308 308 307 307 307 307 307 308 309 309 310 310 311 312 312 313 315 316 317 319 320 321 321 322 325 325 325 328 330 332 332 333 335 331 329 329 330 327 328 330 329 329 328 326 326 324 322 322 323 323 321 318 318
309 308 308 309 309 309 309 309 308 308 307 307 306 306 306 305 306 307 307 308 309 310 311 312 313 313 315 317 317 318 319 320 321 322 323 326 328 330 332 332 334 335 334 332 330 329 329 327 328 330 329 329 328 329 328 327 327 326 324 323 322 320
309 307 308 307 308 308 308 308 308 307 307 307 307 306 306 305 306 305 306 307 307 307 309 309 310 311 313 315 316 316 317 318 319 321 323 323 325 327 330 332 333 333 334 332 330 328 328 328 329 329 329 329 329 328 328 329 329 328 327 327 325 320
310 307 307 307 308 308 308 308 307 307 307 306 306 306 305 305 306 305 306 305 306 306 307 308 309 310 312 313 314 316 317 317 318 319 320 321 323 325 327 329 332 331 331 333 332 330 328 329 330 330 331 329 328 328 329 330 329 329 328 326 325 322
308 306 306 307 307 307 307 307 307 307 306 306 305 305 305 306 306 305 305 305 305 305 305 307 308 309 311 311 312 313 315 316 316 317 319 320 321 323 325 327 329 330 330 332 333 332 329 329 329 330 330 329 329 331 329 329 329 330 328 328 327 325
308 307 306 307 306 306 307 307 306 306 306 306 305 305 305 305 305 305 305 304 304 305 305 305 307 307 308 310 310 311 312 314 316 317 318 319 320 321 323 324 326 328 329 332 328 331 332 330 330 331 331 331 329 329 330 330 330 330 328 329 329 328
305 305 305 306 306 306 306 306 306 306 306 305 304 304 303 304 304 305 305 305 304 305 305 305 306 307 307 308 310 312 312 313 314 316 317 318 319 320 322 322 323 325 328 330 330 330 331 330 331 331 331 331 329 329 331 330 330 330 330 330 329 329

ECMWFFLT2_sfc_thetae_006.txt.gz
Theta_e
345 349 349 350 351 352 349 346 345 343 343 344 347 351 351 352 351 351 352 351 347 352 351 347 348 344 346 348 344 342 346 348 348 347 346 345 344 344 344 344 342 342 342 341 341 340 342 343 342 342 342 341 341 338 339 339 335 336 338 335 335 338
343 345 349 349 349 350 349 346 352 350 350 348 346 346 353 352 352 348 348 352 348 345 345 348 349 345 348 348 348 345 346 348 347 347 347 346 345 345 343 342 341 340 339 339 338 337 342 343 342 342 342 341 340 339 340 339 338 335 337 338 339 336
336 344 344 348 348 350 349 351 351 350 352 347 350 349 343 345 345 342 341 343 343 345 344 346 350 348 348 344 345 346 346 347 347 347 346 346 345 343 342 341 340 339 338 336 335 335 336 339 344 342 342 342 340 338 340 341 338 339 335 339 341 338
335 341 342 344 350 348 349 349 349 350 350 351 351 349 346 344 343 344 341 342 344 343 341 347 344 348 347 345 348 345 347 348 347 347 346 345 344 342 341 339 339 337 335 336 335 333 333 336 340 343 343 341 339 337 339 339 336 338 339 335 338 340
331 337 340 342 346 348 347 347 348 348 348 349 350 350 348 344 347 347 343 344 343 344 340 348 342 348 350 349 344 349 348 348 347 344 344 342 341 341 339 337 335 333 336 334 333 333 336 337 342 341 341 341 340 340 339 340 339 339 340 340 341 341
330 332 338 341 344 345 348 345 346 347 348 348 349 349 347 348 346 349 349 342 343 347 344 346 349 350 349 349 345 345 346 341 345 342 340 340 337 339 337 337 335 334 336 336 335 335 336 337 339 340 341 342 341 340 338 337 338 339 341 340 342 340
328 331 334 334 340 341 346 345 345 346 347 348 348 347 346 345 348 349 348 346 344 345 345 346 349 350 346 349 346 342 340 342 341 340 338 340 339 339 338 338 337 338 337 336 335 335 335 337 338 337 340 339 340 338 338 338 339 338 340 339 340 339
326 328 332 331 335 338 340 342 343 344 344 343 345 345 345 345 347 347 348 348 347 346 345 346 347 347 346 349 348 347 344 343 344 342 340 341 339 339 338 338 340 339 336 336 335 335 334 333 337 339 339 339 340 339 339 337 339 339 339 339 339 339
325 325 328 330 331 332 334 338 339 339 340 339 342 345 345 347 347 345 347 349 349 347 345 346 347 347 349 347 347 347 345 343 342 342 343 339 338 338 338 338 340 339 338 337 335 336 333 333 337 339 338 338 339 338 339 340 340 340 339 338 339 341
324 324 325 326 328 330 331 332 334 335 337 340 341 340 340 345 346 347 346 347 347 346 346 347 344 346 346 346 346 348 347 344 342 343 344 341 338 338 338 339 339 337 335 336 335 335 334 334 332 336 337 337 338 338 339 338 339 337 338 338 339 342
322 326 324 323 327 328 329 328 329 331 331 333 334 339 339 339 341 344 346 348 348 347 345 346 343 346 341 343 346 346 345 344 343 343 344 342 341 339 338 337 338 337 336 335 335 334 333 333 332 331 335 334 335 338 338 339 339 337 336 336 337 339
325 327 326 323 325 326 326 326 328 328 328 329 333 332 334 337 339 339 342 345 346 347 346 345 343 342 346 347 344 344 344 343 343 343 343 341 340 340 338 337 339 340 341 338 336 336 335 333 332 329 332 333 335 337 336 338 337 337 335 336 336 336
326 327 326 325 324 324 326 325 326 327 328 330 330 329 328 333 334 335 339 342 344 345 347 345 347 345 344 343 344 345 343 344 342 342 344 343 343 342 339 339 340 340 340 339 338 336 334 334 332 330 331 332 335 335 336 336 337 336 335 335 334 332
326 324 325 324 325 323 323 325 326 326 327 329 329 327 328 329 332 333 336 339 341 344 344 346 345 346 347 343 343 341 341 342 339 343 344 345 343 344 338 338 337 338 337 336 335 334 333 332 329 329 330 332 336 337 336 335 336 335 335 334 333 335
326 326 325 324 324 324 325 323 322 324 326 326 328 329 328 329 328 331 332 334 337 340 342 343 344 345 344 345 344 341 340 339 341 343 344 343 342 343 341 337 336 335 337 335 333 333 333 331 328 327 329 332 332 335 337 335 335 335 334 336 336 335
327 326 325 324 325 326 325 325 325 322 325 326 325 328 328 328 328 327 331 332 333 335 337 340 342 343 344 342 343 344 344 346 343 341 341 342 341 339 340 338 339 337 335 334 333 332 333 329 329 327 328 332 334 335 336 335 335 334 333 335 333 335
326 325 326 325 326 325 325 324 324 326 325 325 324 325 326 328 328 328 327 329 333 334 334 338 340 342 343 343 341 341 341 343 346 343 341 341 340 339 339 339 340 337 337 334 333 331 332 330 328 328 327 331 333 336 335 334 335 335 332 334 333 333
326 325 325 325 326 325 324 325 324 323 325 324 325 324 324 325 327 328 328 326 328 332 334 335 334 337 340 341 341 341 341 342 342 343 343 341 341 341 340 340 339 337 336 335 333 331 330 329 326 325 327 331 332 333 334 334 334 333 332 331 332 331
326 325 325 326 326 327 328 327 327 326 324 324 325 325 324 323 325 327 328 328 327 329 330 332 332 334 336 337 338 339 339 340 339 341 343 342 342 341 341 339 335 334 337 337 337 334 332 330 325 324 325 330 331 332 334 334 334 333 332 331 330 331
324 323 324 324 324 319 318 317 318 319 320 324 324 322 326 323 325 326 327 326 327 328 327 330 330 331 331 332 335 337 337 337 336 336 336 335 335 337 337 337 337 334 335 336 337 334 332 329 326 326 328 330 331 331 332 333 334 332 332 331 332 333
325 323 324 322 319 317 314 315 318 318 316 319 321 323 325 326 325 324 325 325 326 325 327 328 328 330 331 329 329 330 330 330 329 331 334 334 336 337 338 338 337 336 332 333 333 334 332 330 325 324 329 329 330 331 331 332 332 331 330 330 331 330
324 323 321 322 321 321 319 315 316 314 317 315 317 318 320 324 324 324 325 326 327 327 327 327 328 329 330 330 330 330 331 329 327 331 333 334 337 335 335 337 337 334 333 331 330 332 331 329 323 323 323 324 325 328 330 330 329 329 328 330 331 330
323 322 322 323 323 321 322 322 320 318 316 316 322 323 322 322 324 322 325 324 325 326 326 326 328 328 328 329 329 330 332 333 332 334 333 333 335 338 335 336 338 334 332 332 330 332 331 330 323 324 327 323 319 319 324 325 329 327 327 329 329 329
323 323 323 322 321 324 323 324 324 322 322 319 317 322 324 323 322 322 321 323 323 324 324 325 326 325 327 328 329 329 331 331 332 334 331 332 332 332 334 335 335 334 333 329 329 328 330 330 327 325 319 320 321 320 317 320 323 327 329 329 329 330
323 322 321 321 324 324 325 325 324 324 324 321 322 320 319 319 319 319 319 321 321 322 322 323 324 326 325 326 328 328 329 330 330 332 333 332 330 329 330 335 336 335 332 330 327 329 328 329 327 329 325 321 319 319 318 320 324 324 327 325 328 329
323 321 321 322 322 323 322 319 316 314 313 314 313 314 313 315 316 317 317 320 321 321 321 322 322 323 324 325 327 328 329 331 331 331 332 333 334 336 335 336 335 335 332 332 330 328 326 329 329 328 326 327 327 320 320 321 324 319 328 330 329 329
322 321 321 321 321 321 322 319 319 317 316 316 313 315 317 317 317 317 319 319 319 320 320 321 322 323 323 323 325 327 328 328 328 332 333 333 332 335 336 335 336 335 335 334 331 327 328 326 329 327 324 326 328 327 329 325 321 324 319 325 327 328
322 320 321 321 321 321 321 319 319 318 317 316 315 315 316 317 318 318 317 318 319 319 320 320 321 321 322 323 323 324 326 327 326 327 328 331 331 333 335 335 335 335 334 333 331 327 328 331 325 325 325 324 327 328 329 328 327 324 321 320 322 327
321 320 320 321 320 320 320 319 318 317 316 317 317 316 316 317 316 317 316 317 318 318 318 320 320 320 322 322 323 323 324 325 325 326 326 327 331 333 333 334 336 335 331 330 331 331 329 330 330 329 325 325 326 326 327 327 327 327 321 320 319 322
320 319 320 319 319 320 320 318 317 317 316 316 316 316 316 315 316 316 315 316 317 317 317 318 319 320 320 321 322 323 322 323 324 325 325 326 328 331 333 333 334 334 334 331 332 330 329 329 332 335 328 327 325 326 327 326 325 325 324 325 318 318
320 318 318 318 318 319 319 318 317 317 316 315 316 316 315 315 314 314 313 314 315 316 316 316 318 318 319 319 321 322 321 323 324 324 324 324 326 328 330 332 333 334 333 332 331 331 328 328 332 334 331 330 328 327 326 325 325 325 325 323 321 321
320 318 317 317 317 318 317 317 317 316 315 315 315 315 315 314 313 313 313 313 313 314 315 316 317 316 317 318 319 319 321 321 321 323 323 324 325 327 329 330 332 334 332 332 333 331 329 327 328 330 332 332 331 330 329 329 328 327 325 324 324 321
319 318 316 316 316 317 317 317 316 315 315 315 314 314 313 313 314 313 313 313 313 312 313 314 315 315 316 317 317 317 319 319 320 321 322 323 324 325 327 328 329 331 331 332 332 332 329 329 328 328 329 332 333 331 330 330 332 330 330 328 325 322
319 317 316 315 316 316 316 316 315 315 314 314 314 314 313 313 314 313 313 313 312 312 312 313 313 313 315 316 316 317 318 318 319 320 320 322 323 324 325 324 326 327 330 332 333 331 330 330 331 331 331 329 331 331 332 332 331 331 327 328 325 323
318 316 314 314 315 315 315 315 315 314 314 314 313 312 312 313 313 313 313 313 312 312 312 313 312 314 313 314 314 315 316 316 317 319 320 320 321 323 323 323 324 325 327 330 331 329 330 329 330 331 331 328 328 330 331 332 333 331 329 330 328 325
318 316 314 314 314 314 314 315 314 313 313 312 311 312 312 312 312 313 313 312 312 312 313 312 313 313 313 313 312 312 313 315 316 317 318 319 321 321 322 322 322 323 324 326 329 330 329 328 328 328 331 331 328 328 331 332 333 333 332 330 331 329
317 316 313 313 313 313 314 314 314 313 313 313 312 311 311 311 312 312 312 312 311 312 313 313 312 313 312 312 312 312 312 313 315 316 317 318 319 320 321 322 321 322 323 325 326 326 328 329 332 333 333 333 331 329 328 331 332 332 332 330 330 329

ECMWFFLT2_sfc_thetae_009.txt.gz
Theta_e
349 351 352 352 351 347 349 348 347 346 345 349 351 351 351 351 352 352 352 351 349 350 351 349 349 345 348 348 345 346 348 348 347 346 345 346 345 344 343 342 343 343 344 345 344 343 343 342 342 343 342 341 341 338 336 339 335 336 337 334 334 333
341 349 351 352 349 347 348 346 347 352 351 350 349 351 352 349 350 349 351 351 349 347 344 347 349 345 347 343 346 347 348 348 347 346 345 345 345 344 343 343 343 342 342 340 341 340 343 343 342 342 342 341 339 336 340 338 335 334 337 334 336 336
332 341 347 349 350 348 350 350 350 346 351 347 351 350 346 345 344 343 343 345 343 343 345 342 344 345 345 344 346 346 348 347 347 346 345 345 345 344 344 343 342 340 340 340 337 335 335 339 340 342 342 343 336 337 340 336 335 338 331 337 334 337
331 334 340 345 347 349 350 349 349 350 348 346 349 348 345 342 339 341 341 341 342 343 343 345 343 346 345 344 346 344 347 347 347 347 346 346 345 344 343 341 339 339 339 337 337 333 333 338 339 340 340 338 336 338 339 337 333 336 336 337 333 339
331 333 334 340 347 348 348 346 347 348 347 346 345 347 345 342 343 343 341 341 339 345 341 346 344 343 343 346 344 347 348 347 347 346 345 341 341 342 342 339 339 336 336 335 333 333 335 335 341 337 337 338 337 339 338 339 334 337 338 337 334 338
331 331 333 334 340 345 346 343 343 344 344 343 342 342 344 343 343 345 347 340 341 343 340 343 344 344 344 344 347 345 344 341 341 342 342 339 337 338 337 336 335 335 335 336 335 335 334 335 337 338 338 338 339 339 338 336 335 339 341 340 336 340
328 329 331 332 337 341 342 343 343 342 341 342 343 341 342 345 344 349 349 347 342 342 340 343 344 343 344 344 342 346 344 345 343 340 339 338 337 337 336 335 334 336 335 335 334 335 333 335 336 336 336 336 337 337 337 337 337 337 339 340 338 341
325 328 330 329 332 334 340 342 342 344 340 343 340 338 342 342 346 348 346 345 344 345 343 347 344 345 342 343 341 343 344 344 343 340 338 338 338 338 334 337 336 335 333 333 333 334 333 333 335 337 335 335 337 337 337 337 339 339 337 340 338 340
326 326 327 329 331 332 334 337 340 340 340 335 338 341 342 342 346 346 344 343 344 345 346 343 341 341 343 344 344 346 344 341 343 340 339 338 339 339 338 337 338 335 336 334 333 334 333 333 336 335 335 335 335 335 336 337 339 337 337 338 341 338
326 326 326 328 330 330 331 333 333 335 338 340 342 342 341 344 345 346 346 344 344 345 343 343 342 345 344 343 345 343 343 344 344 341 342 339 340 339 338 338 337 337 334 334 332 333 333 335 333 334 333 334 335 335 337 336 336 337 336 339 340 337
324 328 326 324 327 328 329 329 328 331 334 334 339 341 342 343 343 344 341 340 343 342 342 340 341 343 345 346 346 344 340 342 340 341 341 340 342 338 338 338 337 337 336 334 332 333 332 334 333 331 333 333 333 335 335 336 336 335 336 337 338 340
325 327 327 324 326 326 327 326 328 329 329 329 332 334 335 338 341 342 343 343 344 342 342 340 342 343 345 344 345 344 341 340 342 342 341 343 343 342 339 337 337 338 338 336 335 335 336 333 333 330 331 331 333 334 334 335 334 336 335 337 337 341
324 326 324 324 324 323 325 324 326 327 329 328 330 329 328 334 336 340 341 344 342 341 341 342 342 343 344 343 344 344 340 340 340 337 341 341 342 344 342 338 338 338 337 337 337 336 334 335 333 332 331 331 332 332 333 334 335 336 335 335 335 336
324 323 324 323 324 320 323 323 324 324 326 328 330 327 328 329 328 330 337 341 343 344 343 345 340 343 345 344 342 341 341 342 343 343 342 342 341 340 341 338 337 337 336 336 334 335 333 333 332 331 331 330 333 334 334 333 334 334 335 335 335 336
326 324 323 324 324 322 323 323 321 322 324 322 327 329 326 329 327 329 331 332 338 339 341 341 343 341 344 344 342 340 339 340 345 341 339 342 341 343 343 339 338 335 336 335 334 334 333 333 332 329 331 331 329 332 335 334 334 334 333 335 336 335
325 325 325 325 325 326 325 325 323 320 324 326 323 326 327 328 326 327 328 329 331 336 337 340 341 343 340 342 341 339 339 339 338 341 341 341 342 341 341 337 337 337 333 332 333 332 333 332 332 330 330 331 330 333 334 334 333 332 332 333 333 335
326 326 327 327 327 327 325 324 324 325 325 324 323 323 324 326 328 328 330 327 333 335 336 336 339 342 343 341 340 339 340 340 341 342 340 343 342 341 338 336 338 337 335 332 332 330 331 332 331 331 330 329 331 331 333 333 333 333 330 332 333 332
328 328 327 326 327 324 326 326 325 326 328 326 326 323 322 323 327 326 328 328 330 330 332 334 337 338 340 339 339 340 338 343 342 342 340 339 339 340 339 338 337 340 338 334 332 331 330 331 329 328 330 328 330 330 331 334 333 332 331 330 331 332
329 328 327 328 328 330 330 326 325 323 323 323 325 325 323 324 325 326 328 330 330 331 331 332 332 334 336 338 339 340 336 338 341 341 339 340 337 339 339 339 339 337 340 336 334 333 333 332 328 327 327 328 328 331 333 333 333 332 330 331 329 330
327 326 325 327 323 318 318 316 317 317 318 319 323 321 326 324 324 325 328 327 329 330 329 330 331 332 334 334 335 338 339 339 340 341 341 340 339 339 338 337 337 336 339 335 335 337 335 333 330 329 328 328 329 331 330 332 332 331 331 332 331 331
325 325 327 322 318 317 315 315 317 315 315 316 317 321 326 327 324 327 327 326 328 328 330 330 330 330 332 332 332 332 336 337 337 336 336 338 341 337 338 338 339 338 336 334 336 336 336 335 328 326 328 327 331 332 333 332 330 330 330 330 330 328
326 324 322 323 320 318 317 316 315 313 314 316 315 314 317 325 324 326 327 327 328 329 329 328 329 330 330 331 332 331 332 331 333 334 334 335 338 338 340 341 341 337 337 334 332 336 336 333 327 324 322 323 327 329 331 331 329 329 329 329 331 329
326 324 321 324 324 319 319 321 321 321 317 315 320 321 321 323 325 323 326 326 325 327 326 327 328 329 329 330 330 330 331 331 333 332 330 329 332 335 337 339 339 336 334 334 333 334 333 333 326 327 326 323 321 321 325 326 330 330 329 329 329 328
327 326 323 323 321 320 323 325 327 325 324 321 320 324 327 326 325 324 323 324 324 324 324 325 326 326 328 328 329 329 331 331 331 333 331 331 332 333 335 337 338 336 335 330 331 332 336 335 331 329 319 319 321 321 317 321 324 327 329 329 329 328
327 326 324 320 323 325 324 328 326 326 326 326 322 319 317 316 319 320 322 323 322 323 322 323 324 325 325 326 328 328 328 330 330 331 331 330 330 331 332 335 336 336 335 331 330 333 334 335 332 334 327 320 319 317 318 321 325 325 328 326 327 328
327 325 324 322 325 326 325 321 320 317 315 314 314 314 312 313 315 318 318 321 321 321 321 322 322 323 324 324 326 327 327 328 329 330 329 330 331 331 331 332 332 335 336 335 332 330 330 334 335 335 335 330 327 321 319 322 321 319 328 329 329 328
327 325 325 323 324 323 322 320 318 316 315 314 314 316 319 319 318 318 320 321 321 322 321 321 322 323 323 324 324 325 326 327 327 329 330 330 329 330 332 333 333 333 333 334 333 330 329 331 333 333 332 331 328 328 325 322 319 321 318 325 328 328
327 325 324 324 320 323 321 320 320 319 319 317 316 317 319 320 320 320 318 321 321 322 322 321 321 320 321 322 323 323 324 325 325 326 326 326 327 330 332 332 334 335 334 333 333 330 329 330 327 328 333 330 329 330 327 325 325 323 320 319 322 328
326 325 323 323 320 321 322 321 320 319 317 318 320 319 319 318 318 319 318 319 320 320 321 322 321 320 321 321 321 322 323 323 323 324 325 325 327 327 329 332 332 332 334 336 335 335 333 330 331 329 331 330 331 331 330 324 323 325 321 319 319 323
326 324 325 323 322 320 321 319 319 319 317 318 317 318 318 317 318 319 318 318 318 318 319 320 321 321 322 320 321 322 321 322 322 323 323 323 325 326 329 330 332 332 334 335 337 337 334 333 333 334 334 331 328 328 325 323 322 323 323 324 319 320
326 324 325 322 321 322 322 320 320 320 319 320 317 319 317 318 318 317 316 317 317 317 318 318 319 321 322 321 321 321 321 322 322 323 321 321 323 324 326 327 329 331 333 333 334 334 334 334 335 335 335 336 329 325 323 323 323 323 323 322 321 321
326 325 324 323 321 321 320 320 321 320 320 320 320 319 318 317 317 317 316 316 316 316 317 317 319 318 319 321 321 320 321 321 321 322 321 322 322 323 325 326 327 328 330 332 334 334 334 333 334 333 334 335 333 332 330 326 325 325 324 324 323 321
325 325 323 322 321 321 320 320 319 319 319 320 319 319 318 318 318 316 317 316 315 314 314 315 316 317 317 318 318 319 320 319 319 321 321 322 322 323 324 325 326 327 328 329 332 333 333 333 332 332 331 334 335 333 332 333 331 329 332 331 327 325
324 325 323 321 320 320 319 320 320 319 319 318 318 319 318 317 318 317 315 315 316 315 314 315 315 315 317 317 317 318 319 319 319 319 320 321 322 323 323 322 324 325 325 327 329 332 334 332 332 332 333 332 332 330 332 333 332 331 329 329 327 326
323 324 323 321 319 319 319 320 319 318 318 317 318 316 316 317 317 317 316 316 316 315 315 315 314 317 317 318 317 317 317 317 317 319 319 319 320 322 322 321 321 323 324 325 326 328 331 332 331 331 330 330 331 332 332 334 333 330 329 327 328 328
323 324 322 320 319 319 318 320 318 318 318 317 316 316 316 316 315 317 316 316 316 316 316 315 317 317 317 317 316 316 316 317 317 317 318 318 318 319 320 321 321 323 323 325 325 326 327 331 332 333 331 331 329 328 330 332 333 333 332 332 333 332
323 324 322 320 319 319 319 318 318 318 317 316 315 314 314 315 316 317 317 316 315 316 317 317 316 316 316 316 316 316 315 315 316 316 317 317 318 319 320 321 320 321 321 323 324 324 325 326 329 332 333 332 331 329 330 332 331 332 332 332 333 333

ECMWFFLT2_sfc_thetae_012.txt.gz
Theta_e
346 345 347 346 346 346 347 348 348 347 349 350 351 352 352 352 351 352 351 351 349 348 349 349 350 348 350 347 346 347 348 348 348 348 347 346 345 345 345 345 345 344 344 344 343 343 342 341 341 341 341 341 341 336 333 333 336 336 334 334 333 334
344 346 347 346 346 345 346 348 349 348 348 348 350 351 351 350 352 349 350 350 350 348 348 346 349 345 348 347 347 347 348 347 347 347 347 346 344 344 344 344 344 345 344 344 344 340 341 342 342 341 342 341 339 332 333 336 336 328 332 331 334 337
343 344 346 345 346 346 346 347 346 347 347 347 347 347 349 345 345 344 346 346 346 346 344 342 346 345 347 346 346 347 348 348 347 347 346 346 344 344 343 343 343 343 343 343 341 338 338 338 338 342 341 339 336 333 333 336 337 332 332 331 332 339
333 343 343 344 346 346 346 347 345 346 345 347 345 346 344 343 342 341 340 344 344 342 343 349 344 345 346 342 345 347 347 348 347 346 346 345 344 344 343 342 340 341 339 338 335 332 334 335 335 338 338 336 335 334 335 333 334 331 331 334 335 340
329 339 342 343 343 344 343 345 344 344 344 345 345 346 346 346 343 341 342 343 340 345 343 347 344 346 342 342 344 343 342 345 344 343 345 342 342 340 339 335 336 336 333 332 332 331 332 335 334 335 334 335 334 334 336 335 333 334 330 332 336 340
332 329 335 344 345 345 342 342 344 346 345 344 343 344 344 348 345 347 344 338 344 344 343 340 340 339 340 338 341 341 342 339 342 341 342 338 338 339 337 334 332 332 332 331 333 333 335 335 334 333 334 333 334 334 338 334 332 337 331 333 337 339
330 337 333 343 344 343 342 344 343 344 343 343 344 343 342 344 346 345 345 343 342 340 342 344 339 339 340 339 340 341 341 340 339 339 339 336 335 337 336 333 332 331 331 332 332 332 333 335 335 334 334 334 334 334 336 336 337 335 331 333 337 340
329 331 332 330 342 342 343 342 343 342 342 345 342 342 341 341 342 344 344 341 344 340 340 339 339 338 339 339 339 339 339 341 339 338 337 336 333 334 333 333 332 331 331 332 333 331 330 331 335 334 332 333 333 334 333 332 334 334 333 333 335 339
327 331 330 335 333 339 339 342 342 343 342 342 341 341 342 342 341 341 342 341 342 343 343 341 338 339 339 339 340 339 338 340 342 340 336 336 335 332 331 334 333 332 332 332 331 330 328 331 334 336 334 333 332 332 333 332 337 332 334 332 332 337
328 326 331 331 334 332 337 340 339 341 341 342 339 339 340 341 343 340 342 344 344 344 343 341 341 340 339 338 338 340 338 340 340 340 338 335 338 336 333 336 336 334 330 332 331 331 330 329 329 332 332 331 333 332 333 332 333 334 334 334 333 337
325 331 328 324 331 334 335 329 335 340 339 338 340 340 339 341 341 341 343 342 341 343 343 340 340 341 341 339 339 339 338 340 341 340 337 339 341 337 338 342 339 335 335 333 331 331 329 331 332 328 329 329 330 335 334 333 331 333 332 336 334 334
325 330 330 323 331 331 331 330 331 333 329 329 342 339 339 342 343 341 342 341 341 343 341 340 340 339 338 339 339 339 341 340 339 341 340 340 341 345 338 336 336 336 336 337 335 334 329 332 332 328 329 328 328 333 330 333 331 331 333 335 335 331
325 329 328 327 327 331 330 326 330 329 330 333 340 338 336 337 340 341 343 340 341 339 340 339 339 341 338 341 338 337 336 338 341 342 344 341 340 340 337 336 335 336 337 335 335 336 331 330 331 331 330 328 329 328 329 329 331 332 331 333 335 334
326 323 327 326 328 325 330 329 328 328 328 328 334 338 333 330 333 340 342 340 339 338 338 338 339 340 342 341 338 337 338 337 341 341 340 339 338 338 338 336 335 336 336 334 335 336 336 331 329 331 329 328 332 328 330 329 331 331 334 331 333 335
326 326 326 327 327 326 326 320 320 326 326 328 336 336 330 339 334 332 333 337 339 337 336 337 337 340 340 342 339 340 341 342 342 340 339 341 339 337 338 336 336 335 337 336 333 332 334 333 331 328 328 328 326 329 329 330 334 332 332 332 335 335
326 327 328 329 330 331 329 331 327 325 329 332 330 326 335 329 325 334 328 335 341 340 340 339 338 340 340 340 340 340 341 341 338 341 340 340 341 340 339 336 334 333 335 331 330 329 330 329 330 329 331 332 327 327 332 331 332 330 330 331 330 333
326 327 328 329 328 331 331 330 328 331 330 329 328 327 336 334 333 338 329 332 335 337 335 336 340 339 341 339 339 337 339 342 343 344 342 342 341 340 339 337 336 333 332 331 328 328 327 328 328 329 327 329 330 327 326 332 330 333 330 330 329 330
328 329 331 331 331 330 331 331 329 331 332 327 329 327 325 326 332 332 336 329 332 336 336 333 334 341 340 339 340 340 340 340 339 342 343 343 341 342 342 337 336 337 336 332 329 327 326 329 328 327 327 326 327 329 328 329 333 330 328 329 330 329
328 329 330 331 332 333 332 332 331 331 327 330 328 329 331 334 323 327 334 330 332 334 334 333 335 334 338 340 339 340 340 339 338 336 338 338 340 337 338 339 337 338 338 334 336 334 331 332 329 328 327 326 326 328 329 329 332 330 328 328 327 330
329 330 330 331 329 328 327 323 321 326 321 324 323 325 330 327 331 333 328 334 334 335 332 334 333 333 335 336 335 339 339 339 339 336 335 335 335 336 337 335 336 336 337 338 337 335 333 331 332 330 329 332 326 325 327 329 329 328 329 328 328 330
328 329 327 327 326 321 324 320 321 327 328 323 318 327 328 327 325 326 329 326 331 332 333 333 331 333 333 336 335 333 335 339 338 336 334 333 335 337 337 337 334 336 335 335 334 334 335 335 331 327 331 327 332 328 328 328 327 327 326 328 328 327
327 327 331 329 325 329 323 324 324 319 325 317 316 320 321 324 330 327 331 332 334 333 333 333 335 333 335 332 330 332 334 334 335 335 335 335 336 334 334 335 335 333 334 332 332 335 341 335 328 326 325 324 324 329 329 329 327 326 326 325 328 329
326 327 330 328 327 321 325 327 326 325 322 323 321 329 323 324 328 323 326 327 328 333 330 328 331 332 334 333 332 332 330 332 334 334 332 331 329 328 334 332 333 333 334 333 333 335 336 332 329 328 327 324 319 318 323 324 328 326 326 325 325 326
327 326 325 326 329 326 327 328 331 330 328 328 323 327 328 328 326 325 325 325 331 327 329 328 327 324 328 329 332 332 334 332 331 334 334 332 331 329 330 332 334 333 333 327 328 330 334 334 329 328 320 321 320 320 315 318 321 324 326 326 326 326
327 327 324 326 325 325 325 327 328 327 329 327 327 323 321 321 322 324 327 326 325 327 325 325 328 328 324 327 329 329 329 330 331 331 330 331 331 331 330 330 332 333 332 329 326 330 333 337 333 334 327 323 319 317 316 321 320 321 325 324 326 326
327 327 323 324 325 325 324 327 325 324 322 322 319 318 318 319 321 321 322 328 326 325 327 326 326 325 326 327 327 327 329 326 327 330 330 329 329 331 330 329 329 330 332 332 330 329 329 333 335 334 333 330 329 323 322 322 321 317 324 325 325 325
327 326 324 321 325 325 326 325 325 322 322 323 321 318 323 326 325 326 326 324 324 329 323 322 326 327 327 328 328 328 327 327 324 325 328 328 327 327 329 331 330 329 329 332 332 329 328 329 332 331 331 331 329 329 328 322 318 320 317 322 324 324
327 325 325 323 323 326 323 324 323 323 324 323 324 318 322 321 325 327 325 323 327 328 328 326 327 321 325 325 326 327 327 326 325 323 324 324 325 326 328 329 331 332 331 330 332 330 329 330 326 326 329 328 327 328 328 327 324 320 318 316 320 325
327 326 325 324 322 323 325 324 323 322 321 321 320 321 320 320 321 323 322 325 325 323 325 324 324 326 326 325 324 324 326 326 325 324 322 322 323 324 325 327 328 329 330 331 331 331 330 329 329 326 326 325 326 326 327 328 328 327 319 316 317 320
326 325 325 323 321 322 325 324 322 322 321 321 321 320 321 319 322 321 322 323 324 323 325 328 325 324 325 323 325 325 324 324 324 323 323 320 321 322 323 322 323 325 329 329 331 331 330 330 330 329 328 327 325 326 325 325 325 323 323 320 316 317
327 325 325 323 321 320 323 322 320 322 321 321 320 321 321 318 321 320 320 321 322 324 326 322 326 325 324 322 324 324 323 321 321 322 321 320 320 320 321 323 325 326 325 326 327 329 330 330 330 329 328 328 327 327 325 323 322 322 320 318 321 319
327 325 324 323 322 320 321 320 321 322 320 322 320 321 320 319 320 320 321 319 322 321 320 321 321 322 323 323 323 323 323 322 321 321 320 320 320 320 321 322 322 323 323 325 327 328 330 330 330 330 329 330 330 329 328 326 325 323 322 320 320 322
325 325 324 323 321 322 320 319 320 321 321 321 321 320 319 321 321 320 320 319 320 319 319 319 321 321 322 321 321 320 321 321 320 320 320 320 320 320 321 321 320 321 322 323 324 326 328 330 329 328 329 331 331 330 329 329 327 325 324 328 325 320
325 325 325 323 321 321 320 320 321 320 320 321 319 320 321 319 320 320 320 320 320 319 318 318 318 318 320 321 320 321 320 320 319 318 317 317 318 318 318 318 319 319 320 322 323 323 324 328 330 329 330 330 331 330 330 330 329 328 327 328 325 323
325 325 324 323 321 321 320 320 321 320 320 319 319 319 319 319 320 319 321 320 320 320 319 318 318 320 321 320 320 320 318 317 316 316 316 316 317 317 318 318 318 318 319 320 320 321 322 323 326 328 329 328 329 329 330 330 331 330 329 328 327 326
325 324 324 322 321 320 320 320 320 319 319 319 318 318 318 318 320 321 320 320 319 319 319 319 319 319 319 319 318 317 316 316 316 316 315 315 315 315 316 317 317 317 318 320 320 320 320 321 323 326 328 329 328 328 329 330 330 330 330 330 329 327
325 325 324 322 321 320 320 319 319 319 318 318 318 317 316 317 318 320 320 319 319 319 319 319 319 319 318 317 316 316 315 315 315 315 315 315 315 315 315 315 315 316 316 317 318 319 320 320 321 323 326 329 328 328 328 329 329 329 329 329 329 328

ECMWFFLT2_sfc_thetae_015.txt.gz
Theta_e
343 345 345 345 344 344 347 349 350 351 351 352 351 351 351 351 351 350 350 350 347 347 345 345 347 346 349 346 346 347 349 349 348 347 347 347 347 346 346 345 345 345 344 343 343 342 342 341 341 341 341 341 342 334 330 330 332 333 332 333 334 334
342 344 344 344 344 345 346 347 344 344 345 348 350 350 348 346 350 345 350 348 345 346 344 344 345 350 345 346 347 347 348 348 348 347 346 346 346 346 345 345 345 345 344 343 343 337 337 341 341 341 341 342 336 331 330 330 330 332 332 332 333 337
343 343 343 343 344 345 344 343 344 344 346 349 349 349 346 348 344 346 345 347 345 342 344 345 345 346 346 347 346 348 348 348 348 347 346 346 346 345 345 345 345 344 343 343 338 332 332 333 333 341 342 336 333 333 332 331 329 330 330 332 333 340
343 343 342 341 343 342 342 341 342 343 342 341 340 345 344 343 341 342 345 344 343 342 341 340 348 345 347 343 345 346 348 348 347 347 346 344 344 345 344 344 344 344 342 341 333 332 332 332 332 334 333 331 331 332 332 331 328 328 330 336 334 341
342 341 341 343 342 341 341 342 340 340 340 338 338 340 340 341 340 338 340 341 343 341 341 340 340 339 339 339 341 341 341 343 343 343 345 339 338 340 338 337 336 337 330 331 331 331 329 331 331 333 331 331 332 332 331 331 328 329 330 333 335 340
330 340 340 339 339 342 341 337 338 340 340 339 340 341 342 341 341 342 341 342 341 338 338 338 337 336 336 336 337 338 338 339 340 341 341 339 337 336 333 331 331 330 329 329 329 329 329 331 331 332 330 330 331 331 331 330 329 329 330 332 336 341
320 326 339 342 341 340 337 338 339 339 339 338 340 339 339 338 340 339 337 338 338 336 337 337 335 336 336 336 336 336 338 337 338 339 339 337 336 336 334 331 328 328 328 328 328 329 329 331 331 332 329 329 330 331 331 329 328 329 330 332 337 340
323 322 326 342 339 338 338 338 340 342 340 342 342 338 337 338 339 337 335 337 340 336 336 336 336 335 336 335 336 337 335 337 338 337 338 335 335 335 334 332 329 329 327 327 328 328 328 332 332 331 330 329 330 331 331 330 329 329 331 332 335 339
321 322 326 336 337 338 338 339 338 337 338 341 337 337 338 338 336 337 336 337 338 335 337 336 335 333 335 336 337 336 336 337 338 337 336 334 333 334 333 331 329 328 327 327 327 328 326 332 332 331 330 330 330 330 331 329 328 329 330 332 333 337
321 323 322 326 330 334 335 335 335 336 338 341 336 336 337 337 337 335 337 339 338 338 338 338 335 335 336 336 336 336 335 336 336 337 336 334 336 334 331 331 330 329 328 328 327 328 326 326 328 329 328 329 330 330 329 328 329 328 330 331 331 335
320 326 320 321 323 323 328 332 336 337 338 335 336 338 336 337 338 337 336 337 338 337 337 338 338 335 336 335 335 336 335 336 337 335 335 335 339 338 333 331 331 329 329 328 328 327 325 324 324 326 326 326 326 329 330 327 330 330 329 330 331 333
320 322 319 317 319 318 320 325 330 331 331 335 337 335 335 336 340 337 337 337 338 338 336 335 336 335 336 336 336 336 337 336 336 337 337 336 337 337 336 335 334 333 332 331 331 328 325 324 324 324 325 325 326 326 329 330 329 330 330 329 331 332
317 318 318 319 317 317 318 318 318 318 320 327 334 334 334 336 336 336 337 337 338 336 335 335 335 335 336 336 336 335 336 336 337 337 337 338 338 335 335 334 334 334 332 331 330 329 328 325 325 324 324 325 325 325 327 328 329 330 331 330 330 331
318 319 321 319 317 314 316 317 318 316 321 317 323 328 333 331 335 336 338 337 337 336 335 336 336 336 336 337 335 335 335 335 337 337 337 336 336 336 333 333 333 333 334 332 329 330 327 324 325 324 324 325 324 325 325 326 328 329 332 330 329 329
320 316 318 318 318 319 315 315 316 317 317 320 325 322 323 329 326 327 337 336 336 336 335 336 337 337 337 335 333 334 335 335 338 337 337 337 335 335 334 332 332 332 331 330 330 330 328 324 324 324 324 324 323 324 326 325 328 329 332 331 329 329
317 317 317 320 318 316 317 317 319 329 317 319 317 320 319 317 318 324 328 334 335 335 335 334 335 336 333 334 335 334 336 338 339 338 337 337 336 334 334 334 334 333 329 328 329 328 327 325 325 325 324 324 324 323 324 325 327 329 331 332 330 330
317 317 317 318 317 318 318 316 317 317 318 317 314 313 314 319 325 323 324 325 328 330 331 335 335 336 333 334 334 335 337 338 338 338 336 335 336 335 335 335 333 333 332 329 329 327 326 325 325 325 324 324 325 323 321 323 327 328 329 330 331 331
319 320 319 318 318 318 319 319 319 318 325 316 317 316 318 319 316 321 323 323 324 327 330 328 333 336 335 335 336 336 335 334 336 336 334 333 334 336 335 333 331 333 333 332 331 329 327 327 328 326 324 324 323 322 321 322 326 329 326 327 328 332
319 319 319 320 321 320 320 320 319 318 318 319 317 319 318 315 319 320 319 323 324 323 327 325 327 332 334 336 335 335 334 334 334 333 333 335 334 336 336 334 331 333 335 333 331 331 332 330 330 332 328 323 322 322 323 322 325 326 325 325 326 329
317 319 319 320 320 320 319 313 310 312 311 314 315 320 319 317 319 317 321 322 323 325 324 325 323 325 327 329 330 334 334 335 333 333 331 331 331 332 333 333 332 333 333 334 334 332 332 331 329 328 327 327 324 323 323 322 322 324 326 326 325 326
317 318 318 318 319 317 316 309 310 314 308 309 314 320 319 317 319 319 320 321 321 324 322 323 324 324 323 326 325 326 329 333 334 333 330 329 332 332 332 332 330 330 333 333 333 334 333 332 327 324 323 326 324 323 323 323 322 323 324 325 325 324
318 318 318 317 315 313 313 311 308 309 309 309 312 315 315 315 317 321 320 320 323 323 320 320 324 323 325 324 322 323 324 326 331 330 331 330 329 331 331 331 332 329 331 331 330 333 334 331 326 322 321 320 319 320 322 322 322 323 323 323 325 325
317 316 318 316 311 312 314 315 312 313 311 312 316 317 314 317 321 319 317 320 321 319 318 317 318 321 323 324 323 323 322 324 325 328 328 329 330 331 330 329 329 329 329 331 330 333 334 331 326 326 324 321 316 317 316 320 322 323 323 323 323 323
317 316 316 317 315 315 317 317 316 316 316 314 314 322 317 318 317 316 315 316 320 317 316 316 319 319 318 319 320 322 323 323 322 324 326 325 325 324 324 328 329 329 329 326 327 327 332 332 328 325 319 320 318 315 311 314 317 321 324 323 323 323
317 317 315 320 316 317 318 316 315 316 317 316 316 313 310 309 313 317 316 315 315 315 316 316 316 316 319 317 318 319 320 320 320 321 323 323 324 326 326 327 330 329 329 327 326 326 329 331 329 329 323 319 316 315 313 315 317 317 322 321 322 322
318 316 315 316 317 317 318 315 314 313 312 312 310 307 306 308 310 309 311 315 317 317 317 316 316 316 317 320 317 318 318 319 318 319 321 321 321 321 323 324 325 329 329 329 327 325 325 328 330 330 328 328 322 317 316 320 318 311 320 322 322 323
318 316 316 315 317 318 317 317 316 316 315 313 309 309 309 312 311 312 313 312 315 318 315 315 316 317 316 318 318 318 317 318 319 318 320 319 319 319 321 321 325 324 325 327 327 324 324 325 327 328 328 328 328 326 326 322 318 318 314 317 321 321
319 318 315 316 316 317 317 319 317 316 315 314 309 310 311 311 312 316 313 314 315 315 317 317 316 315 315 315 317 315 315 315 316 316 320 318 317 318 320 322 323 324 325 325 326 326 325 325 324 324 326 327 326 326 327 326 324 321 317 314 316 320
319 318 314 316 316 317 319 317 313 312 311 313 312 312 313 314 311 314 312 314 313 313 315 314 314 315 316 316 317 315 316 316 316 316 319 318 316 317 317 317 317 317 317 320 324 326 326 325 325 325 323 323 324 324 325 324 324 325 320 317 316 316
318 318 314 315 316 315 317 316 311 311 311 310 313 313 312 311 311 310 311 311 312 312 313 313 314 314 314 314 314 315 314 314 314 316 318 315 315 315 316 316 317 317 317 317 320 323 324 325 326 326 326 325 322 322 322 322 322 322 323 322 317 316
319 318 315 315 315 314 315 314 312 312 312 309 312 311 310 309 310 309 310 309 311 312 314 314 316 315 313 313 313 317 315 314 315 316 316 314 314 315 315 315 316 317 316 316 317 319 321 323 325 325 325 325 324 322 321 320 320 322 322 320 318 318
319 318 316 316 314 314 314 314 313 313 312 311 311 310 310 307 311 309 310 310 310 311 310 312 312 312 313 314 314 313 316 315 314 312 313 314 314 315 315 315 315 316 317 317 318 319 319 320 322 325 325 327 327 326 324 323 323 323 322 321 320 318
319 317 316 315 313 313 313 313 313 313 312 313 311 310 310 308 311 309 309 308 309 309 309 310 310 310 312 312 312 311 311 312 312 312 313 313 314 314 314 314 314 314 314 315 316 316 316 317 321 323 324 326 326 326 326 326 326 324 322 321 320 318
319 318 317 315 313 312 313 312 312 313 312 314 311 311 310 311 311 311 311 309 310 309 308 308 308 308 310 311 312 313 313 312 312 311 312 311 311 312 313 313 313 313 313 314 315 315 315 316 317 320 324 324 325 326 327 328 327 326 323 320 319 318
319 317 316 315 314 312 313 312 313 314 313 314 312 312 311 312 312 311 311 311 311 309 308 308 308 309 312 311 311 312 312 311 311 310 310 310 313 311 311 312 312 313 314 314 314 315 315 315 316 316 318 322 324 325 326 327 327 327 327 324 323 322
320 318 317 315 315 314 313 313 313 313 313 314 314 313 312 312 312 311 311 309 309 308 308 308 309 309 310 310 310 310 311 310 310 310 310 310 310 310 310 310 311 312 311 316 315 314 314 314 314 315 316 318 322 324 325 326 327 327 327 326 325 324
320 319 317 316 314 315 314 313 313 313 313 312 312 311 311 309 310 311 311 309 308 309 308 308 309 311 310 310 309 309 309 309 309 310 309 310 310 309 309 309 310 309 309 311 312 313 314 313 313 315 316 317 319 322 324 325 326 327 326 326 325 325

ECMWFFLT2_sfc_thetae_018.txt.gz
Theta_e
342 343 342 342 342 344 349 351 351 351 351 351 351 351 350 351 350 350 350 350 347 345 344 344 346 346 349 346 346 347 348 348 347 347 347 347 347 346 346 345 344 344 344 343 343 342 341 342 340 341 341 341 339 329 329 329 329 330 329 331 334 331
342 343 343 343 343 344 346 347 344 346 346 349 350 350 348 347 350 343 350 347 343 346 343 342 343 349 343 345 347 348 348 347 347 346 347 347 346 346 345 345 344 344 343 343 342 334 335 339 340 340 341 341 331 328 329 329 329 329 331 331 332 335
342 342 341 342 343 344 343 342 342 344 346 349 348 348 344 346 343 344 344 344 342 343 342 343 342 345 344 347 346 348 348 347 347 347 346 346 346 345 345 344 344 344 343 342 334 329 327 330 328 338 337 331 328 329 329 329 328 329 330 330 330 339
341 341 340 339 342 341 340 341 341 342 343 342 342 345 341 341 343 343 344 342 341 341 341 342 348 348 349 344 345 347 348 347 347 346 346 344 345 345 345 345 344 343 342 339 328 328 328 327 327 326 328 327 328 329 329 329 328 329 329 334 332 341
340 339 339 340 341 339 339 340 340 339 338 336 338 338 337 336 336 340 342 342 342 339 339 340 339 339 338 340 340 341 343 342 342 340 344 337 338 341 341 338 337 337 331 330 329 328 327 326 327 327 329 327 328 328 329 329 328 328 330 332 333 341
337 337 338 338 338 341 341 337 337 337 337 336 337 337 338 338 337 337 339 340 339 336 336 336 335 335 336 338 338 338 338 339 338 339 339 336 335 336 335 335 333 332 328 330 331 331 328 328 327 326 328 326 327 328 328 326 327 328 330 331 334 341
332 334 334 338 337 337 334 335 336 337 336 335 336 336 335 336 335 334 336 339 336 335 334 334 333 333 334 336 336 335 336 337 338 338 337 336 334 334 332 331 329 329 326 327 329 329 327 327 326 328 328 328 327 328 328 326 326 326 329 331 336 341
324 334 335 338 336 334 333 336 338 343 337 344 339 335 334 336 335 334 335 337 338 335 334 333 333 333 333 333 334 334 333 334 336 337 337 337 334 332 331 329 327 326 326 327 327 327 326 327 327 328 328 329 327 327 328 326 326 327 328 331 334 340
324 333 336 336 335 333 334 334 335 335 335 340 334 335 336 336 333 333 334 335 337 334 334 333 332 332 332 333 334 334 334 334 334 335 336 333 335 333 331 330 328 326 325 325 325 325 326 326 326 328 328 328 327 327 328 326 326 327 329 330 332 337
323 331 333 335 334 333 333 333 332 333 337 336 333 335 335 333 333 333 334 336 336 334 333 333 332 332 332 333 334 334 333 334 334 334 334 332 331 331 332 330 329 327 326 325 325 325 325 325 325 327 328 328 328 329 328 326 326 328 329 330 331 334
322 326 322 325 327 332 333 332 333 335 336 334 335 335 334 334 334 334 334 334 334 336 335 334 332 332 333 334 334 333 333 334 334 333 333 333 336 335 331 328 328 328 327 326 326 326 327 324 325 327 328 328 328 328 327 327 327 328 329 329 331 332
317 320 317 317 323 325 328 331 332 331 331 333 336 334 334 335 337 334 335 334 333 334 334 333 333 333 334 334 334 334 333 333 334 334 334 334 334 335 334 333 332 331 329 328 327 326 326 324 323 326 328 328 327 326 326 327 326 327 328 329 330 331
314 315 314 314 315 317 320 322 322 321 325 335 334 333 333 335 334 334 333 334 334 334 333 332 333 333 335 333 334 333 333 333 333 334 334 334 334 333 333 333 332 333 330 329 328 329 329 324 322 323 325 326 323 324 326 327 327 327 327 329 329 330
318 318 317 314 314 313 314 315 316 316 322 327 331 331 334 333 335 334 333 333 333 333 332 333 333 332 333 333 333 333 334 334 335 335 335 335 334 333 331 331 331 330 332 328 328 329 328 324 322 321 321 322 322 323 323 327 327 327 328 328 329 330
316 313 314 314 314 313 314 314 313 314 317 321 323 324 325 324 330 333 334 334 332 332 331 332 333 333 333 333 332 332 333 334 336 336 335 335 334 333 332 331 332 330 329 328 328 329 329 326 322 322 322 322 322 322 322 324 327 328 328 328 328 329
314 314 313 314 312 313 314 315 320 322 314 313 313 315 315 317 323 329 332 329 331 332 333 333 333 333 332 331 331 332 333 333 335 335 334 334 334 332 332 331 332 331 329 328 327 327 326 324 323 323 322 322 321 322 321 321 325 328 329 328 328 328
313 313 314 313 312 313 313 313 312 313 313 314 313 314 316 320 324 326 325 326 328 331 332 332 332 332 330 330 332 331 332 334 336 334 333 333 332 333 332 332 331 332 330 328 328 327 326 325 324 323 322 321 322 322 320 321 322 327 330 327 327 327
313 313 313 313 313 313 314 315 314 317 321 314 314 314 316 318 320 320 321 321 323 326 327 325 329 332 330 331 332 332 332 334 335 335 333 332 332 333 333 332 331 330 332 331 329 328 329 330 328 325 323 323 322 320 320 319 320 327 328 328 326 326
314 313 314 314 317 315 315 314 312 313 314 314 314 315 316 317 317 319 320 320 323 323 324 321 323 328 329 332 332 332 331 331 332 331 331 330 329 332 333 331 330 330 332 333 331 330 330 329 329 329 327 322 322 321 321 319 321 322 326 328 328 329
314 314 314 315 315 314 312 311 310 311 310 312 314 317 315 315 316 317 320 320 320 319 321 323 321 321 324 327 328 331 331 332 332 331 329 329 328 330 333 332 330 330 330 331 333 333 332 330 328 326 324 326 326 323 321 321 319 321 323 326 328 329
314 314 314 314 313 312 311 305 307 306 307 309 315 314 314 313 316 316 317 319 320 319 318 320 323 320 321 325 322 325 329 332 332 331 329 328 329 331 331 330 330 330 330 329 331 333 332 331 327 324 321 322 323 323 324 323 320 320 321 322 324 328
313 315 314 314 314 311 308 303 305 306 306 311 313 311 311 311 314 318 317 317 318 316 315 316 320 320 320 321 320 320 322 326 331 329 328 328 329 329 329 330 331 329 329 328 327 331 332 329 322 321 319 319 319 323 321 320 320 320 320 321 322 324
314 315 314 314 312 310 311 310 308 308 309 311 312 312 310 315 319 314 314 316 315 314 314 315 316 319 318 319 319 318 320 320 323 329 326 324 326 327 328 328 328 328 327 328 327 331 331 329 324 323 320 319 315 317 317 317 319 320 320 320 320 321
315 315 315 314 314 310 312 310 311 311 310 310 311 319 311 310 312 312 312 315 314 312 314 314 314 316 316 316 317 317 317 317 319 322 323 323 323 325 326 327 327 327 328 325 326 325 330 330 328 326 317 318 317 315 312 315 316 319 321 321 320 320
315 314 313 315 314 315 315 312 313 313 313 313 313 309 307 307 309 315 312 311 312 312 314 313 313 314 318 314 315 316 316 316 316 317 318 319 319 321 323 324 327 326 326 326 325 324 327 329 329 329 325 319 315 314 313 314 315 316 318 319 321 321
313 313 313 313 314 314 313 312 311 309 308 307 307 307 305 304 307 308 308 309 313 313 313 312 312 313 315 318 313 314 314 316 316 316 319 316 316 316 318 319 323 326 325 326 326 323 322 325 328 328 328 326 322 316 316 319 316 311 317 320 321 322
314 313 314 313 313 315 311 311 311 310 309 309 307 305 304 304 306 307 309 309 311 313 312 312 313 312 312 315 313 313 313 314 315 315 319 314 314 315 316 318 320 320 322 324 325 324 323 321 324 326 328 327 326 325 326 321 316 316 314 316 318 319
314 314 314 313 313 313 311 311 311 310 311 309 305 305 307 308 307 310 308 309 312 311 313 313 312 313 311 314 313 311 312 313 314 316 317 313 313 314 315 315 316 316 317 318 320 322 321 321 320 321 323 324 324 326 326 325 324 320 317 315 317 320
314 313 313 313 313 312 314 313 313 313 312 311 307 308 309 312 310 310 308 310 309 309 312 309 311 312 312 313 316 312 310 310 310 313 316 314 313 313 313 312 313 313 314 315 316 318 319 320 320 322 323 321 322 322 323 323 324 324 318 316 316 317
314 312 313 313 313 312 314 316 313 312 312 311 309 308 308 307 307 307 307 307 308 308 309 310 310 310 310 310 310 312 310 310 309 312 315 310 310 310 311 312 312 312 314 313 314 315 316 318 320 321 321 322 321 320 322 323 323 322 321 321 317 318
315 313 313 313 312 312 313 314 313 310 310 310 309 309 307 305 307 306 306 306 306 308 308 311 310 311 309 310 310 316 310 311 313 314 312 310 310 310 310 310 312 312 312 312 313 313 314 316 317 319 320 320 320 321 321 320 321 320 320 319 319 319
315 313 311 313 312 312 314 313 311 309 309 310 309 310 308 307 307 306 306 307 306 307 307 308 309 309 309 310 312 310 312 308 311 308 309 310 311 311 311 310 310 309 310 310 311 313 312 313 313 315 317 320 321 322 321 321 322 322 320 319 319 318
315 314 311 312 312 311 312 313 311 309 309 309 310 310 309 307 308 306 307 307 306 306 306 307 306 306 307 309 311 309 308 309 307 309 309 308 308 308 308 309 309 309 308 308 309 309 310 311 312 313 313 318 321 322 322 323 324 324 324 322 321 318
316 315 312 312 312 311 311 313 311 310 310 309 309 309 309 307 308 307 308 308 307 307 306 306 305 306 307 308 309 309 310 308 307 307 309 308 308 308 308 308 308 308 308 309 309 309 309 309 311 312 313 314 316 318 321 323 323 323 322 322 320 318
317 315 313 312 312 311 311 312 311 311 310 310 309 308 308 308 308 308 307 308 308 307 307 306 306 305 308 307 307 307 307 307 307 307 308 307 309 307 307 309 308 308 308 310 310 310 308 308 311 310 311 311 313 314 317 320 322 323 323 323 322 322
317 316 314 313 312 311 310 311 310 310 310 311 311 310 309 310 309 309 309 308 308 307 307 306 305 306 307 306 306 306 307 307 307 307 308 308 307 307 307 307 307 307 306 310 308 307 308 308 309 309 309 311 311 312 315 317 321 322 324 323 323 323
317 317 315 314 312 311 310 310 309 311 310 310 310 309 309 309 309 309 309 308 308 307 306 306 308 306 306 305 305 305 306 306 306 306 306 307 307 306 306 306 306 306 306 306 307 307 307 308 309 309 309 310 311 312 314 316 318 321 323 323 323 323

ECMWFFLT2_sfc_thetae_021.txt.gz
Theta_e
339 340 342 344 346 347 349 351 350 351 350 350 349 350 349 350 350 350 348 348 346 343 342 342 344 345 347 346 346 347 348 347 346 346 345 347 347 346 346 344 344 343 343 343 343 342 341 341 340 340 340 337 336 326 327 327 327 330 328 331 333 329
339 340 340 343 344 345 345 348 344 345 347 348 348 349 348 344 349 341 346 346 342 345 341 338 342 346 343 345 346 347 348 346 346 345 347 346 345 345 345 344 344 343 343 343 343 330 328 336 339 339 338 337 327 325 327 327 327 328 329 330 332 332
340 340 340 341 343 345 344 345 345 344 346 349 349 347 343 347 342 342 342 341 341 343 340 341 341 344 343 347 345 348 348 345 345 345 347 345 346 345 345 344 344 343 343 343 333 325 322 322 327 336 335 327 324 324 326 327 327 328 329 329 329 336
341 340 339 339 342 343 342 344 345 344 343 342 341 343 339 341 341 341 341 340 339 340 340 339 348 345 346 344 344 346 347 343 343 346 346 344 345 345 345 344 344 343 342 336 327 326 325 322 323 324 324 325 325 324 325 326 326 327 328 332 329 337
339 338 338 341 342 340 340 341 342 343 342 337 338 340 339 337 339 339 339 339 339 339 338 338 337 340 337 339 337 341 341 341 340 339 344 335 337 340 340 337 336 338 330 329 327 325 325 323 321 325 325 324 325 324 324 327 327 327 328 331 330 339
337 336 337 341 340 341 342 339 339 340 338 336 337 337 337 335 335 336 337 339 337 333 334 337 334 334 337 337 337 337 337 338 337 338 340 336 334 335 333 336 337 334 329 327 328 327 326 326 322 322 324 324 324 324 323 325 326 327 328 329 331 339
334 334 335 339 338 339 338 338 338 338 335 334 334 334 332 332 331 333 336 339 335 332 332 333 332 332 334 336 337 337 337 337 337 337 336 335 334 334 332 334 333 331 324 325 328 327 325 325 322 323 323 325 324 325 323 325 326 326 327 329 333 340
331 333 333 337 338 338 337 336 336 338 335 340 337 333 332 332 333 333 334 337 339 334 333 331 331 332 333 334 336 336 335 337 338 338 335 334 333 331 330 330 327 324 325 325 327 327 325 326 323 322 324 324 324 323 323 324 325 326 327 329 330 339
330 332 332 334 335 336 337 338 338 337 335 340 333 333 332 333 332 332 333 335 338 333 332 331 331 332 332 334 333 332 332 335 338 337 334 332 332 331 329 327 326 324 322 323 323 325 324 324 322 321 322 324 324 323 323 323 324 325 326 328 330 335
329 332 332 332 332 333 335 336 336 336 336 339 331 333 333 331 330 331 332 333 334 333 332 332 331 331 331 332 333 332 332 332 332 331 334 332 330 330 329 326 325 326 325 323 324 324 324 323 323 322 323 324 325 325 325 324 324 325 327 328 329 332
328 330 328 330 328 331 332 333 335 336 335 333 335 336 333 331 331 331 331 333 332 334 332 332 331 331 331 331 332 332 333 332 331 330 333 332 332 329 328 328 327 326 325 324 324 324 324 324 323 323 323 324 325 325 326 325 324 326 327 328 329 330
317 322 324 326 330 329 328 330 332 332 331 332 334 331 333 332 334 331 333 331 331 333 334 331 331 330 331 331 331 332 332 331 332 333 333 333 333 333 331 329 329 328 327 326 326 325 325 324 323 324 324 324 325 326 325 325 325 326 327 327 328 329
312 313 316 319 323 321 323 328 326 326 330 333 333 332 332 333 334 332 331 330 330 332 332 331 330 329 333 330 332 332 331 332 333 334 331 332 333 333 332 330 328 329 327 326 325 325 326 325 323 324 324 325 325 325 325 324 325 325 326 327 328 329
313 312 314 315 317 317 315 315 317 316 328 329 328 328 333 333 333 331 331 333 331 331 330 330 331 331 331 328 330 332 333 332 331 332 331 332 331 331 330 330 329 328 332 325 324 325 325 325 324 323 322 323 324 324 323 324 324 325 325 326 328 329
316 314 315 314 313 313 313 314 312 314 318 323 323 325 323 326 329 331 332 333 332 331 330 330 333 334 332 331 331 332 333 334 334 333 332 331 331 330 331 331 331 329 327 326 325 326 326 326 325 325 323 321 322 322 321 324 324 324 325 325 327 328
311 311 311 313 311 313 313 313 314 318 313 314 314 313 314 317 328 328 332 334 333 332 331 329 331 333 330 330 331 331 332 332 333 335 334 333 332 330 331 330 331 331 328 327 327 326 325 324 324 323 323 321 321 321 319 322 324 324 325 324 326 327
310 311 312 312 310 310 310 311 311 312 312 313 313 314 317 322 328 327 328 328 327 332 330 329 329 332 332 331 331 331 333 331 331 332 333 334 333 331 330 331 330 330 330 327 328 328 327 325 326 324 322 320 320 320 319 320 323 324 325 324 324 326
311 312 311 311 310 311 312 313 312 315 319 313 313 314 317 320 320 319 320 320 322 323 324 324 328 331 330 331 332 331 330 330 331 333 332 334 332 332 330 329 329 329 331 330 328 327 326 327 328 328 324 322 322 321 319 318 321 325 324 324 324 325
311 310 311 313 314 312 311 311 310 312 313 313 314 314 315 317 316 318 319 318 320 321 321 320 322 328 329 331 331 331 330 330 331 331 331 332 331 332 330 328 328 329 331 331 330 329 328 327 328 328 327 326 323 322 321 318 320 322 324 325 325 326
310 310 311 312 312 310 308 309 309 309 311 312 312 316 314 313 314 317 319 318 317 317 319 320 317 319 321 323 325 328 330 330 329 329 328 329 328 328 329 330 329 329 328 329 331 330 330 328 327 326 324 325 325 326 325 321 318 321 323 325 325 325
310 310 313 312 310 309 306 305 305 305 307 308 312 311 312 311 313 315 315 317 316 315 315 318 318 317 317 322 318 319 324 330 331 329 328 326 328 328 329 328 328 329 328 327 327 329 331 330 326 324 320 320 321 323 324 324 320 319 321 324 325 325
310 311 311 312 313 309 303 304 304 305 304 308 310 309 309 310 312 315 315 314 314 313 314 315 317 316 316 316 316 317 321 326 331 329 328 327 328 329 328 327 328 327 329 327 326 329 329 328 324 321 319 319 318 322 322 321 320 320 319 321 323 325
311 312 311 311 311 310 307 307 305 304 308 308 308 310 308 313 315 311 311 312 312 312 313 313 314 317 315 315 314 315 318 322 327 329 326 324 324 324 325 326 327 326 324 327 327 329 329 329 323 323 321 319 313 314 315 316 318 320 319 319 321 323
311 311 311 312 314 308 309 306 307 308 307 307 310 314 307 308 308 310 311 311 311 310 312 311 313 315 313 312 313 314 314 315 318 323 323 323 323 324 324 326 327 326 326 322 324 324 328 329 327 324 316 317 315 313 311 314 314 317 319 319 319 321
311 312 311 314 311 311 312 310 310 310 311 310 310 307 307 306 306 314 311 309 310 310 311 310 311 314 315 311 311 312 314 314 315 315 317 316 316 318 320 322 325 325 325 323 323 324 326 328 328 328 324 318 315 313 313 313 316 315 317 318 319 319
311 310 311 310 311 312 312 310 309 308 306 307 307 306 305 304 306 307 307 307 310 310 311 309 310 311 315 314 311 311 312 313 314 315 315 313 313 314 315 316 318 321 321 324 324 323 323 325 326 327 326 325 322 317 316 319 317 311 319 318 319 320
312 311 310 310 311 313 308 309 309 308 307 308 307 305 302 301 304 304 307 307 309 309 310 309 309 308 310 312 309 310 311 312 314 314 315 312 312 312 313 315 316 315 316 318 321 320 320 322 323 324 325 326 325 324 325 320 316 317 314 316 320 318
312 313 310 311 311 310 309 308 307 306 309 307 308 308 304 304 303 308 305 307 308 308 308 309 309 309 309 313 309 309 309 310 312 314 313 310 310 310 312 313 314 313 314 315 315 315 315 317 317 319 323 323 324 325 326 326 325 320 318 315 318 323
312 312 310 310 311 308 310 309 308 308 308 307 306 305 306 311 307 309 305 307 306 305 306 306 308 309 309 312 314 308 307 308 309 311 314 310 310 310 310 310 310 311 310 311 313 313 311 311 314 315 318 318 321 322 324 325 325 324 319 316 316 317
311 311 311 310 311 308 308 311 308 308 308 308 307 305 305 306 305 304 305 306 305 305 305 306 306 307 307 309 309 309 307 306 307 312 312 308 308 309 309 309 308 309 308 308 309 310 311 311 311 313 315 318 318 319 321 323 323 322 321 321 315 316
312 311 311 310 310 309 309 310 309 309 308 308 306 306 305 303 304 304 304 304 305 304 304 307 306 308 307 307 309 312 308 309 309 312 310 308 307 308 307 307 307 307 307 307 307 308 308 309 310 310 311 313 314 316 316 315 318 320 319 318 318 318
311 311 310 310 309 308 310 310 309 310 309 309 308 307 306 305 305 305 304 304 304 304 304 304 304 306 306 306 309 306 308 307 309 306 306 306 306 307 307 307 306 307 306 306 306 309 306 307 307 308 309 310 312 313 314 315 319 320 319 319 319 317
312 311 310 310 309 308 309 310 310 309 309 310 308 307 306 304 305 305 304 303 303 303 303 306 304 304 304 305 309 306 305 305 305 308 306 306 306 305 305 306 306 305 305 305 306 305 306 305 306 307 308 310 311 311 312 314 316 318 320 320 319 315
313 312 310 310 310 308 308 310 310 310 309 310 309 307 306 305 305 305 305 305 305 304 304 303 303 304 303 305 306 307 307 306 305 306 307 306 306 306 305 306 305 305 305 306 306 305 306 306 306 306 307 308 308 309 310 311 314 315 317 316 315 315
313 313 310 310 310 309 309 309 310 309 309 308 308 308 307 307 306 305 304 306 306 303 304 304 303 304 306 304 305 305 305 304 305 304 305 305 306 304 304 305 305 305 306 305 305 305 304 304 306 305 305 306 307 308 309 311 312 313 316 317 317 317
314 314 312 310 310 310 309 310 310 309 308 308 310 308 308 307 306 306 306 306 306 305 305 303 302 304 305 304 304 305 305 303 303 303 305 305 304 304 304 304 304 303 304 307 304 303 304 303 304 304 304 305 305 306 307 310 311 313 315 316 317 318
315 315 313 311 310 310 309 308 310 310 308 308 308 307 307 307 306 306 306 306 305 306 304 303 305 304 304 302 302 302 302 302 303 303 303 303 304 303 304 303 303 302 303 303 304 303 303 304 305 304 304 304 305 306 307 308 309 311 313 315 316 317

ECMWFFLT2_sfc_thetae_024.txt.gz
Theta_e
344 345 348 349 349 347 348 349 349 349 349 348 349 349 349 349 349 348 347 347 344 343 341 341 342 344 346 347 346 346 348 347 346 346 346 347 347 346 346 345 345 344 344 343 342 341 340 340 340 340 337 336 336 331 330 329 329 332 331 333 335 330
343 344 347 348 348 347 345 347 344 345 346 347 347 347 347 344 347 343 347 343 340 343 340 339 342 344 342 347 345 347 348 348 346 345 345 346 346 346 345 344 345 344 343 343 341 333 335 339 338 338 337 335 328 327 328 329 329 330 331 333 333 333
342 343 345 346 346 348 346 345 344 344 346 348 348 347 342 345 340 340 341 340 341 340 340 340 341 342 343 347 346 347 348 347 345 344 343 346 346 345 345 344 344 343 342 341 330 326 325 326 329 336 334 328 326 327 328 329 329 330 331 332 331 336
341 342 343 343 345 345 345 346 345 344 342 342 342 343 341 341 340 340 339 338 339 341 340 338 346 345 348 344 345 346 347 345 343 342 341 343 346 345 345 344 343 343 340 336 329 328 327 325 324 322 324 327 328 327 327 328 329 329 330 334 330 337
341 340 341 343 344 343 343 344 345 345 343 339 339 341 342 340 339 339 339 339 340 341 341 339 338 339 339 338 339 342 341 340 340 339 341 338 338 341 342 338 338 338 334 334 331 327 328 326 326 325 325 326 328 327 328 329 329 329 330 333 332 337
340 338 337 342 341 343 343 341 341 343 341 340 341 342 341 340 339 340 341 340 340 339 338 339 336 335 337 338 340 340 338 338 338 338 340 337 337 337 336 338 339 337 334 332 332 330 330 328 325 326 326 327 328 327 326 328 329 329 330 331 333 337
337 336 338 341 341 342 340 340 340 341 338 335 339 340 339 337 336 338 341 342 339 335 336 338 335 332 335 335 339 340 338 336 337 337 338 338 337 337 338 337 336 335 333 332 331 330 326 325 324 326 326 327 327 328 326 326 328 329 329 331 333 337
334 336 338 340 339 339 338 337 338 341 336 339 338 336 335 332 332 333 338 341 341 333 334 335 335 334 334 334 337 339 338 337 338 339 338 337 336 336 336 336 335 332 333 331 330 329 327 326 323 324 326 326 326 327 326 326 327 328 329 330 332 336
335 336 337 340 339 338 338 338 337 335 333 340 333 333 333 330 330 332 334 338 340 332 331 332 333 334 333 336 338 336 333 334 335 339 337 335 335 335 334 333 332 331 327 326 325 326 326 326 323 323 324 326 327 326 325 325 326 327 328 329 331 333
334 335 336 338 337 337 338 337 337 335 332 339 330 331 333 330 329 329 332 334 336 334 333 332 332 332 332 335 334 330 329 330 333 335 335 334 333 334 333 331 328 326 326 324 326 326 327 325 324 324 324 326 326 327 327 326 325 326 328 329 330 332
334 336 335 335 334 335 337 336 336 336 336 335 336 335 333 331 330 329 330 331 332 334 333 332 332 330 330 330 331 330 329 330 331 330 333 334 332 332 330 329 328 327 325 325 326 325 326 325 324 324 324 326 326 327 327 327 326 326 327 329 330 331
330 332 332 332 334 333 334 335 336 335 335 334 334 331 330 329 333 330 331 331 331 332 334 332 329 328 329 329 330 332 331 329 329 331 332 332 333 332 331 330 329 328 327 327 326 326 326 326 325 325 324 324 326 327 327 327 327 326 327 329 329 331
321 324 327 330 330 329 330 333 332 331 331 334 334 331 329 328 329 331 331 332 332 333 333 330 329 330 331 330 330 330 330 332 330 331 331 332 334 333 332 330 330 330 327 327 326 326 327 326 325 325 325 325 325 326 327 327 327 327 327 328 329 330
315 318 320 322 324 325 325 326 326 325 333 333 333 330 330 332 332 332 333 332 332 332 332 330 331 331 331 330 330 332 332 333 331 331 331 330 330 331 330 330 329 329 332 327 326 326 327 326 327 326 326 325 325 326 326 326 327 327 327 327 329 330
317 317 321 320 319 315 313 313 312 316 326 330 331 330 330 333 333 330 331 332 333 333 332 330 331 331 331 331 330 330 331 334 333 331 330 330 330 329 330 330 330 329 329 328 327 327 328 326 326 326 327 327 325 324 325 326 326 326 326 327 328 329
312 314 313 315 311 312 311 312 316 322 317 318 318 318 316 326 332 333 334 333 334 334 334 332 333 332 330 330 331 331 331 332 332 333 333 332 331 329 329 330 330 330 329 329 328 328 326 326 327 327 328 326 324 324 323 324 325 326 326 327 327 328
310 311 311 310 309 309 310 310 311 312 313 313 313 315 318 326 332 331 331 329 329 332 329 331 332 333 331 331 331 330 332 332 332 332 332 333 331 330 329 329 329 330 330 328 328 328 328 327 328 328 329 328 325 323 322 323 324 326 326 325 326 327
310 310 310 310 309 310 311 312 313 316 319 314 313 315 320 326 325 323 321 321 322 326 327 326 330 333 332 332 332 331 331 330 330 331 331 331 331 331 330 329 327 329 330 328 327 328 327 327 328 328 329 328 328 323 322 322 323 328 326 325 325 326
310 309 309 311 312 310 310 311 311 312 313 313 314 313 316 318 317 318 318 319 321 321 322 320 322 325 327 331 331 331 329 329 330 330 329 329 329 329 329 329 328 328 330 330 330 329 329 328 328 326 326 327 328 328 324 322 323 325 325 326 326 326
308 309 310 311 310 309 309 311 312 311 312 312 312 316 314 314 316 318 319 317 316 317 319 320 317 319 322 325 327 329 330 330 329 328 327 327 327 328 328 328 327 328 328 329 330 329 330 328 327 326 326 327 327 327 325 323 321 322 325 326 326 327
308 310 312 310 308 307 307 305 305 307 308 308 311 312 312 312 314 316 314 315 315 315 316 318 318 317 316 321 319 324 329 330 330 328 327 327 328 328 328 327 328 328 328 326 327 330 330 329 326 324 322 323 325 325 326 324 321 321 323 325 327 327
308 309 310 310 310 305 303 306 306 308 306 309 308 308 310 312 313 315 314 313 314 314 314 316 318 316 316 316 320 323 326 329 329 329 328 328 328 328 326 326 327 326 328 327 325 328 329 327 322 321 319 317 320 323 323 324 323 321 321 323 326 326
309 310 309 311 309 308 305 305 304 305 309 307 306 308 308 312 313 311 310 311 312 312 313 314 316 318 315 315 316 319 321 324 325 326 325 325 325 325 325 325 326 325 324 327 326 329 328 328 321 322 321 319 315 315 320 321 321 322 322 322 324 325
309 309 310 312 313 306 307 305 306 308 306 306 308 313 308 308 309 310 310 309 311 309 311 313 314 315 314 314 314 314 315 316 318 320 319 317 318 319 322 324 325 325 325 321 324 324 328 328 326 323 316 317 316 313 313 316 317 322 321 321 321 322
309 310 309 314 310 310 311 309 309 309 309 309 309 306 307 307 308 315 310 309 309 310 310 311 312 314 316 313 313 314 314 314 314 314 315 314 314 315 316 318 320 321 322 321 320 324 325 328 328 328 323 318 315 313 314 316 318 319 321 323 321 321
308 309 310 310 309 310 311 310 308 307 305 304 305 305 304 306 307 307 308 307 309 309 310 310 310 312 316 314 312 312 313 313 313 313 313 313 313 314 314 314 315 316 317 320 321 319 318 322 325 327 327 325 323 318 317 320 319 314 321 321 324 323
310 310 310 309 309 311 307 309 309 308 306 306 305 304 302 302 306 305 306 308 308 308 309 309 310 309 312 313 311 311 312 313 313 313 315 312 311 312 313 313 315 314 314 316 317 314 315 317 321 322 322 325 325 325 325 320 316 318 315 320 322 324
310 312 310 309 309 309 308 307 306 304 307 305 306 307 304 303 302 307 306 307 307 306 307 308 309 309 310 313 310 309 310 311 312 312 313 310 310 310 311 312 313 312 313 314 314 313 312 314 314 315 319 320 323 325 326 325 324 320 318 315 318 325
310 311 309 309 310 308 309 308 306 306 307 306 305 306 307 310 307 309 306 305 305 306 306 307 308 309 309 314 315 309 309 309 310 311 313 309 309 309 308 308 309 309 310 311 313 313 312 312 313 314 315 315 319 319 321 324 325 324 319 316 316 317
310 310 309 308 310 307 307 309 305 305 306 306 307 304 305 305 305 303 305 304 304 305 305 306 306 307 308 308 309 310 309 310 310 312 312 308 308 308 308 308 308 309 309 309 310 312 312 311 313 313 314 315 313 314 315 319 319 317 319 321 315 315
310 310 310 309 309 307 306 307 306 306 306 306 304 305 304 304 303 303 305 304 304 304 305 306 304 306 306 308 312 313 310 310 312 314 310 308 308 308 308 308 308 308 308 308 308 309 310 310 311 311 312 313 313 314 313 312 313 315 315 314 313 314
309 310 309 308 308 307 306 307 306 306 306 307 306 306 305 305 304 305 304 304 303 304 305 305 305 306 306 308 310 309 311 309 309 307 308 308 308 308 308 308 308 309 308 308 309 309 307 308 308 309 310 311 312 313 314 314 314 315 314 313 313 312
309 309 309 308 308 307 306 307 306 306 306 308 306 306 306 305 304 305 303 303 303 304 303 306 306 307 306 306 309 307 307 308 308 309 307 307 307 307 307 308 308 307 307 308 308 307 307 307 307 308 309 310 312 313 313 314 315 315 316 316 314 312
309 310 309 308 308 307 306 307 307 307 307 309 307 306 305 305 305 305 304 305 305 305 305 306 304 306 305 306 308 309 308 307 307 309 309 307 308 308 307 307 307 307 306 307 307 307 307 307 307 307 308 309 309 310 311 313 314 314 314 314 312 311
309 309 309 309 308 307 307 307 307 308 308 308 308 307 305 306 305 305 304 305 305 304 305 304 304 305 307 307 307 306 307 306 306 307 307 307 307 306 307 307 308 306 307 306 306 307 305 306 306 306 307 307 309 309 309 310 312 313 314 314 314 313
309 309 309 309 309 308 307 307 307 307 308 308 310 309 307 307 305 306 305 306 306 305 305 304 303 306 306 307 307 308 308 305 305 306 307 306 305 306 306 307 305 305 305 309 306 305 305 305 306 306 306 307 307 307 308 309 311 312 313 315 315 316
309 309 309 310 309 309 308 306 307 308 307 307 308 308 308 306 305 306 305 305 306 306 305 304 304 306 306 305 306 306 305 305 305 304 304 305 305 305 305 305 305 304 304 304 307 305 305 305 306 306 306 306 306 307 308 309 310 311 312 313 315 315

ECMWFFLT2_sfc_thetae_027.txt.gz
Theta_e
350 351 353 353 353 352 351 348 347 346 348 348 349 350 349 350 350 348 349 349 345 351 352 352 348 346 345 346 343 344 348 347 348 348 347 347 347 347 345 344 344 342 343 342 341 340 340 340 340 338 337 337 337 339 343 340 339 339 337 336 338 336
348 349 350 352 352 352 352 349 353 350 350 349 349 348 350 352 348 353 348 350 351 350 351 350 344 345 350 348 345 346 348 347 347 347 347 347 347 347 345 345 344 342 340 341 341 340 341 340 338 338 337 336 339 341 343 340 339 338 337 338 338 338
346 349 349 348 349 351 352 353 352 348 352 349 350 349 352 350 349 350 350 349 350 351 349 347 349 348 346 344 345 345 346 345 346 345 346 346 347 346 345 344 344 343 340 338 340 339 337 335 338 336 336 338 338 339 340 339 339 340 338 338 337 338
346 347 347 347 349 350 351 352 352 352 353 353 351 351 351 350 349 349 348 350 350 350 350 350 343 343 341 341 344 345 342 341 342 342 345 344 345 346 345 344 343 342 340 340 340 337 334 334 335 336 338 336 336 339 338 338 337 339 339 337 335 338
346 346 346 347 347 347 348 349 351 351 351 351 350 350 350 350 349 348 350 351 348 349 349 349 349 347 348 346 349 348 347 345 346 347 344 346 345 341 343 338 341 340 340 340 339 339 337 334 335 335 336 336 336 338 338 338 338 337 339 340 339 338
344 344 346 347 346 347 347 346 347 348 350 349 348 347 348 348 348 349 349 348 349 349 347 347 349 348 348 348 347 347 347 348 347 346 345 343 344 342 342 339 340 339 339 340 339 339 339 336 333 334 334 337 336 336 338 338 337 338 339 339 341 337
342 343 344 344 344 345 345 346 345 346 346 345 346 344 345 347 347 348 348 349 347 346 346 347 347 347 346 347 347 347 346 346 346 345 346 345 343 342 341 339 337 338 337 337 338 339 337 337 336 332 334 334 335 335 336 338 338 338 339 339 339 336
342 344 344 343 343 343 344 344 343 346 343 344 343 342 345 345 345 346 347 348 347 345 345 345 347 345 345 346 346 346 345 345 345 345 345 345 342 340 339 338 338 336 335 336 336 337 336 334 334 335 333 334 334 336 336 336 339 339 339 339 339 338
342 342 343 343 343 343 344 344 345 342 342 341 343 343 341 342 343 344 345 346 346 344 345 343 344 343 345 343 342 339 338 336 334 339 342 342 341 339 338 337 336 336 335 336 335 335 334 333 333 334 332 332 333 333 336 336 338 337 338 339 340 338
341 341 342 342 342 342 343 343 342 342 340 343 340 338 339 340 341 341 342 344 345 345 344 343 342 343 341 337 337 337 336 334 334 336 337 339 340 340 337 337 336 336 335 336 334 334 333 332 330 332 332 332 332 332 335 335 335 336 337 339 341 340
340 342 342 340 341 341 342 340 341 342 341 341 341 339 338 339 340 340 340 339 340 340 335 335 338 336 334 335 335 335 336 335 334 334 336 337 340 339 339 337 338 338 335 333 334 332 331 332 331 330 332 331 332 334 333 337 336 335 336 338 339 341
339 341 341 338 339 339 340 340 341 341 340 340 340 339 340 339 340 338 338 339 337 336 336 336 334 333 333 334 333 334 335 333 333 335 335 337 337 339 339 338 338 339 339 337 335 334 333 333 333 332 334 333 333 334 333 335 335 335 335 338 338 340
339 339 339 338 338 338 339 339 339 339 340 341 340 340 339 339 337 337 338 338 336 335 334 335 337 335 334 335 334 335 335 334 335 335 335 335 337 339 337 338 338 338 338 337 336 336 334 334 334 335 336 335 336 334 334 334 337 337 336 337 338 339
337 337 337 337 337 337 337 338 339 339 340 339 340 338 338 338 337 336 335 334 337 335 334 336 336 335 334 335 336 335 335 336 336 334 334 335 334 336 337 337 338 337 335 335 333 334 334 334 335 333 335 336 337 337 337 335 336 337 339 338 337 340
335 335 335 335 335 336 335 337 336 337 338 337 337 336 337 338 338 337 336 336 336 336 336 335 335 337 337 337 336 335 336 336 336 335 335 334 333 333 335 335 336 336 336 335 334 334 334 333 333 334 335 337 335 334 336 336 338 338 336 339 340 339
335 334 335 334 334 334 334 334 336 335 335 335 335 335 335 337 336 337 337 336 337 337 337 336 336 337 336 335 336 335 336 337 337 337 336 335 334 333 332 334 336 335 334 333 333 333 334 334 335 335 336 336 336 335 335 335 336 336 336 338 337 339
334 334 331 328 326 326 327 329 331 333 332 332 333 333 334 336 336 337 337 335 336 337 337 336 337 336 337 336 335 335 336 336 337 336 336 337 334 334 331 330 333 334 335 333 333 333 333 334 333 334 335 335 335 336 336 335 335 337 335 336 337 337
331 329 327 325 326 326 328 329 330 330 330 330 331 332 333 335 335 335 334 335 337 337 337 336 336 336 336 335 335 335 335 335 336 336 336 335 334 334 332 330 330 332 333 333 332 332 332 333 333 332 334 334 337 335 336 337 336 334 335 335 337 336
326 325 325 325 326 326 327 328 328 329 330 331 332 331 332 333 331 332 331 332 333 334 335 336 336 335 335 335 334 336 335 334 334 335 334 332 332 332 333 330 329 329 332 334 334 333 334 334 332 331 332 333 334 335 336 337 336 334 334 336 334 336
324 324 325 325 325 325 327 327 326 327 327 328 330 329 330 329 331 329 330 331 331 332 331 333 335 337 336 333 333 334 334 334 334 333 333 331 331 332 331 331 330 329 330 331 334 333 333 333 334 332 331 332 332 333 333 334 336 334 335 337 337 337
322 325 324 322 323 324 323 324 325 327 325 326 327 328 328 329 329 328 328 327 328 329 330 331 331 333 335 331 332 333 333 334 334 333 332 333 333 333 333 332 331 331 329 329 330 333 333 333 330 328 328 328 330 332 332 333 334 334 333 335 337 337
321 323 325 325 324 324 325 325 324 324 325 325 325 325 325 327 327 327 328 328 329 328 329 330 331 334 334 333 331 331 332 332 332 332 332 331 331 331 330 330 331 329 331 331 330 332 331 331 325 323 321 321 324 327 329 332 332 331 333 333 335 336
322 323 323 325 324 322 323 323 325 324 324 320 322 326 326 326 326 323 327 326 327 328 327 327 329 330 330 332 332 330 329 329 331 331 329 329 330 330 330 329 330 329 327 329 330 331 330 331 325 324 324 321 318 318 325 326 329 330 330 331 332 332
322 323 323 325 324 325 323 323 325 325 323 324 322 324 325 325 325 324 322 325 325 326 326 326 326 325 327 328 329 328 328 327 327 328 327 326 326 326 329 330 330 329 329 325 327 327 332 332 331 325 318 320 319 318 315 318 322 328 330 329 329 329
322 323 325 325 325 325 324 324 323 323 323 322 323 322 322 321 324 322 322 322 322 325 325 325 326 327 325 326 327 327 325 325 325 326 325 324 323 324 323 325 328 329 329 327 325 326 325 330 331 332 326 318 317 315 318 320 322 324 330 329 328 328
322 323 325 326 325 324 324 323 322 319 317 318 317 318 318 319 320 320 319 323 322 323 323 325 325 325 325 324 325 325 325 323 323 323 323 322 322 322 322 322 324 326 326 328 326 325 324 325 325 326 328 328 325 320 318 321 322 318 327 328 330 329
322 323 325 324 324 324 324 324 324 322 319 319 318 320 323 324 323 321 322 322 321 324 322 323 324 325 325 324 324 324 324 323 322 321 321 320 319 319 318 319 321 322 322 324 326 322 322 322 326 325 326 327 328 327 327 322 319 321 320 325 327 330
322 323 324 324 323 325 324 324 323 322 320 320 320 319 321 322 324 323 321 321 322 322 323 322 322 323 323 322 322 322 323 322 319 318 316 316 316 317 317 318 320 320 320 321 322 321 320 321 321 320 323 324 324 326 328 327 326 322 320 319 322 329
321 323 323 324 323 323 325 324 323 322 319 320 320 322 321 322 321 323 321 321 322 321 323 324 323 323 323 321 321 321 322 320 319 317 316 316 317 316 317 317 317 317 317 318 319 320 320 319 320 319 321 321 323 323 324 325 324 324 320 317 319 321
320 322 323 323 323 322 323 323 322 321 321 320 319 320 321 321 321 321 320 321 321 321 321 322 323 323 322 321 321 322 320 319 319 318 316 316 317 317 317 317 317 317 317 316 317 317 317 317 318 319 320 320 319 319 319 320 320 319 320 321 315 317
320 322 323 323 323 321 321 322 322 321 321 321 320 320 319 319 320 320 320 320 319 319 321 321 322 322 323 321 323 322 321 320 320 319 316 316 316 315 316 317 317 317 317 316 315 315 316 316 316 316 317 317 317 317 315 315 315 317 317 316 315 315
320 321 322 322 322 322 320 321 322 322 321 322 321 320 319 318 319 319 320 319 319 319 319 320 321 320 321 323 323 321 322 320 318 318 317 317 316 316 316 316 316 316 316 316 316 315 315 315 315 314 315 315 315 316 315 315 316 316 316 315 315 313
319 321 321 322 322 321 320 320 320 321 322 322 322 321 321 320 320 319 318 319 319 317 318 318 318 319 321 322 322 321 320 318 318 318 318 316 316 316 315 314 314 314 314 314 314 315 313 315 315 314 313 315 314 313 313 315 316 315 316 317 316 312
319 320 321 321 321 321 320 321 321 320 321 321 321 322 321 320 320 320 319 319 319 318 318 319 319 319 321 322 321 321 321 320 318 318 318 318 317 316 315 312 313 312 313 314 314 314 313 313 314 315 315 313 312 312 313 314 315 315 315 315 313 313
318 319 320 320 321 321 320 320 320 320 321 321 321 320 320 321 321 320 320 320 321 321 319 321 320 323 322 323 322 322 321 319 318 318 318 318 317 317 315 313 313 314 314 313 313 312 311 311 310 311 312 311 312 312 312 312 313 313 314 315 315 314
317 319 319 320 320 321 321 320 320 319 319 320 320 321 320 319 320 321 321 320 320 321 321 322 323 323 323 322 321 321 320 319 318 317 318 317 316 314 314 313 312 313 312 313 312 312 311 311 311 311 311 311 310 310 312 312 312 312 312 314 315 315
316 317 319 320 320 320 321 320 319 319 319 319 320 320 320 320 319 320 321 321 320 320 322 321 321 323 322 322 321 321 319 318 318 318 317 316 315 315 315 313 312 312 312 313 312 311 311 311 311 311 310 310 309 310 310 312 312 312 312 313 313 314

ECMWFFLT2_sfc_thetae_030.txt.gz
Theta_e
349 350 351 349 351 349 347 347 347 346 350 351 351 351 350 351 350 349 347 347 346 350 346 350 347 347 343 347 342 343 345 346 347 347 347 347 345 346 345 344 344 344 343 342 341 340 341 339 338 337 338 339 339 340 344 343 342 340 340 340 338 339
349 348 351 351 352 352 352 348 351 349 353 351 349 347 353 352 347 353 347 349 351 347 346 347 348 345 349 346 344 344 344 344 345 346 348 347 346 345 345 345 344 343 343 341 340 337 339 342 339 339 337 337 341 342 343 344 344 340 340 341 340 341
350 351 347 348 349 351 353 353 351 347 346 342 347 348 349 349 348 347 345 342 346 345 345 341 344 347 346 342 345 343 342 342 344 344 347 347 346 345 344 344 343 342 342 341 338 338 338 336 336 333 337 342 339 341 342 343 343 342 340 340 341 341
348 352 352 350 346 347 351 348 347 346 349 344 346 346 347 343 345 345 347 347 346 347 346 344 341 344 344 344 343 342 342 342 341 344 344 347 346 345 344 344 343 341 342 341 338 337 336 334 334 335 337 336 337 340 342 343 340 341 341 338 337 340
349 351 350 351 351 343 344 346 343 346 346 345 344 345 347 344 346 345 345 350 344 347 345 344 348 349 346 346 348 347 347 348 347 346 345 347 345 342 342 339 344 342 339 338 336 338 338 335 337 335 335 337 337 340 340 342 341 341 340 341 343 341
348 349 350 350 349 349 346 343 347 347 347 345 347 346 345 347 346 347 344 343 347 345 346 341 344 346 345 348 346 345 344 346 346 343 345 344 342 343 338 336 337 337 335 337 338 338 339 337 335 333 333 336 337 339 339 340 341 341 341 341 344 341
346 346 348 347 349 348 350 349 348 347 347 346 347 346 347 346 346 343 347 344 346 343 345 344 343 342 344 347 344 343 345 346 345 343 340 343 340 344 338 335 336 337 336 336 337 336 337 337 336 333 333 333 336 337 338 339 341 341 341 340 341 339
346 347 348 346 347 347 349 350 351 348 347 348 347 347 346 345 345 345 343 342 343 342 344 343 346 347 346 345 342 342 346 346 344 343 345 345 343 342 340 337 337 336 335 334 334 336 335 334 334 335 334 333 335 336 337 337 341 342 342 341 342 339
346 346 350 350 348 346 346 347 348 348 346 345 347 347 346 347 345 343 342 339 340 344 343 344 346 346 345 343 347 346 347 346 347 347 345 344 343 342 341 339 338 336 338 335 334 335 334 333 334 336 333 332 332 333 336 338 340 340 340 341 341 341
347 347 348 348 349 348 347 346 347 347 347 347 344 347 347 345 347 342 343 342 343 344 345 346 345 344 342 344 346 345 345 345 344 346 347 345 344 343 341 338 336 336 335 335 333 334 333 332 331 333 332 332 331 332 336 336 337 337 339 340 341 342
344 346 344 340 342 341 344 344 345 348 348 346 346 346 345 346 346 344 340 342 344 343 345 347 346 346 346 346 345 344 344 345 344 345 346 346 345 344 341 340 337 336 336 334 331 332 330 331 332 331 332 330 330 332 334 336 335 336 337 339 340 341
343 345 344 338 340 340 341 340 342 341 342 344 349 348 347 346 345 342 342 341 344 344 344 344 343 342 344 344 342 342 343 344 343 343 343 343 343 342 342 337 336 339 339 337 333 331 331 331 331 331 332 330 330 331 331 334 334 335 336 338 338 340
342 344 341 340 339 340 340 337 338 339 339 343 343 343 342 344 344 342 343 342 340 341 342 343 344 342 341 342 342 342 343 342 342 341 341 343 343 344 342 338 336 336 334 334 333 333 330 331 332 333 334 333 332 330 330 331 333 334 336 337 336 337
341 341 342 341 341 336 338 338 339 339 341 341 340 339 340 343 344 341 339 339 339 340 341 344 342 343 341 342 342 341 342 341 342 343 340 339 339 342 340 337 334 334 331 330 329 331 331 331 330 332 334 334 334 333 332 331 332 334 335 336 335 337
341 342 342 342 341 340 339 338 338 338 340 341 339 338 338 340 341 342 339 339 340 341 340 340 341 341 340 341 340 340 342 342 342 342 340 339 338 339 339 338 334 332 332 331 330 329 331 332 333 332 336 337 333 332 334 332 333 333 332 335 336 336
342 342 341 340 340 341 340 339 337 337 339 340 336 337 336 338 337 336 337 338 339 340 339 339 339 339 337 341 341 342 342 342 342 342 340 340 338 337 339 339 336 333 330 329 328 331 333 333 334 334 334 338 337 336 333 332 331 331 332 333 333 335
341 340 339 339 339 340 339 338 337 338 338 337 334 334 335 337 337 336 335 336 338 338 338 337 339 337 337 337 337 340 341 342 343 342 341 341 339 339 338 337 338 335 334 330 329 330 332 336 335 335 333 334 336 337 336 333 332 332 331 332 334 333
342 341 340 340 340 339 337 336 335 335 336 333 334 334 333 334 335 333 333 333 336 337 337 337 337 337 337 337 336 336 340 342 342 341 340 340 339 339 339 338 336 336 334 332 330 330 331 333 333 332 334 333 338 336 338 338 335 334 332 331 333 333
341 341 341 340 338 337 337 335 334 334 333 332 333 333 332 331 331 332 332 334 333 334 334 335 335 335 335 334 334 334 337 339 340 339 339 338 338 338 338 338 336 336 338 337 333 332 334 335 333 331 332 332 334 337 337 339 340 336 333 332 330 332
339 338 337 335 332 330 330 329 328 328 328 329 331 330 332 330 332 331 332 331 331 332 332 333 333 334 334 333 333 333 335 336 336 337 338 337 335 336 337 337 336 335 335 336 337 335 334 335 335 336 336 334 335 335 337 334 339 338 333 333 332 332
337 336 332 329 328 327 327 325 326 326 327 327 328 330 330 331 331 330 330 329 330 329 330 329 330 331 334 331 332 333 335 334 335 336 335 337 339 339 340 338 336 336 335 333 334 337 337 337 334 333 335 336 337 336 337 337 335 336 335 333 331 330
334 332 330 329 328 327 327 324 324 325 324 324 324 326 326 330 331 331 331 330 329 328 328 329 329 331 332 331 331 330 334 332 333 334 335 335 336 335 336 337 337 335 335 333 328 336 335 335 329 327 324 324 330 337 337 337 333 335 333 333 333 333
331 330 329 330 327 327 328 328 326 325 324 325 329 330 328 329 330 328 329 328 329 329 329 327 328 329 331 331 332 330 331 332 332 333 333 333 333 333 336 335 335 333 332 333 333 335 335 334 328 331 331 327 324 326 332 328 331 332 334 333 334 333
331 330 330 330 327 329 329 331 331 329 328 326 326 329 330 329 328 326 325 327 327 328 328 327 326 324 327 328 330 329 329 329 330 331 330 330 330 330 334 335 336 333 331 327 327 330 332 334 329 328 320 321 325 324 319 323 324 328 332 335 334 334
330 330 329 329 330 330 328 328 328 329 329 327 327 326 325 323 325 324 325 326 326 327 327 327 327 326 325 327 328 328 327 328 327 328 328 327 327 327 328 329 332 333 331 329 327 329 330 332 331 332 326 323 322 320 320 323 325 327 329 329 333 333
329 330 328 330 329 326 325 324 323 320 319 319 319 321 319 321 321 322 321 325 326 326 326 328 327 326 326 325 326 326 327 326 326 325 326 326 327 327 327 328 328 329 328 330 330 328 328 328 330 329 331 330 325 321 322 325 322 318 329 329 330 332
328 328 329 329 329 325 325 324 324 322 321 319 317 320 323 324 324 322 323 324 324 327 326 326 327 327 326 327 327 327 327 325 324 324 323 324 323 324 324 325 327 326 326 327 327 324 325 326 328 330 329 328 328 330 329 325 319 322 319 327 329 330
328 327 329 330 327 326 323 324 324 322 321 319 319 321 324 325 325 324 322 323 324 324 325 325 325 323 324 324 325 324 324 322 319 319 317 317 317 318 320 322 323 325 325 326 327 324 324 325 324 324 327 327 327 327 327 327 326 321 320 319 322 329
327 327 330 330 327 326 325 325 324 322 319 320 322 321 322 323 322 324 323 323 324 323 324 324 323 322 321 320 320 320 320 319 318 317 316 316 317 318 320 320 320 320 321 321 323 324 322 321 323 321 323 325 325 324 324 326 324 324 320 318 320 321
326 327 328 329 327 327 326 326 324 322 320 320 321 320 321 321 322 323 322 323 323 322 322 323 323 322 320 319 320 320 319 319 319 317 317 317 319 321 321 321 321 321 321 319 319 320 321 320 322 322 322 321 320 319 320 320 321 320 320 321 316 318
326 326 328 329 327 327 327 328 325 324 322 321 320 321 320 322 321 322 321 322 321 322 322 322 322 323 321 321 322 321 321 320 320 320 320 319 321 320 321 320 321 321 321 320 319 319 318 319 318 318 318 318 318 317 318 317 317 317 316 315 314 314
326 326 328 328 327 327 326 327 326 326 323 323 322 320 320 320 322 322 322 319 320 320 321 321 322 321 323 323 323 322 322 321 320 320 319 320 320 320 321 321 321 321 320 321 321 319 319 318 318 317 317 317 317 318 318 318 317 317 316 316 315 314
325 326 327 328 328 328 327 326 326 327 325 324 323 320 320 320 322 320 322 320 320 318 319 319 320 320 322 324 323 322 322 320 319 320 319 319 319 319 319 319 319 320 320 320 320 320 318 319 319 318 317 317 316 316 317 318 317 317 317 317 316 312
325 327 327 328 328 327 328 327 327 327 326 325 324 322 321 321 321 320 320 320 320 318 318 320 320 321 323 324 323 323 323 322 320 320 319 320 320 319 319 316 318 318 319 319 319 319 318 319 319 319 319 317 317 316 316 317 316 317 316 315 314 314
325 327 327 327 327 327 327 327 328 328 327 327 325 322 321 322 323 320 320 321 320 320 319 320 320 323 324 324 324 324 323 322 320 320 320 320 319 319 318 317 318 319 318 318 317 317 316 316 315 315 315 316 316 316 316 315 315 316 315 316 315 315
326 327 327 327 326 327 327 328 329 329 329 327 325 324 322 322 323 323 323 321 320 321 321 320 322 323 324 325 325 324 323 322 321 320 320 319 319 318 317 317 316 318 317 317 318 318 317 316 316 315 315 315 316 314 316 315 315 315 315 316 315 314
325 327 327 327 326 327 328 328 329 330 329 329 328 326 324 325 326 326 325 323 320 321 322 322 322 325 324 325 325 325 323 322 321 320 319 318 318 318 317 317 316 316 316 317 317 316 316 316 315 315 314 314 314 315 314 316 316 316 316 316 315 314

ECMWFFLT2_sfc_thetae_033.txt.gz
Theta_e
348 350 350 351 350 351 351 349 350 351 351 350 349 350 350 348 348 346 345 341 345 347 347 346 348 347 346 348 346 343 348 346 345 346 345 345 345 345 345 344 343 342 341 341 340 339 339 339 339 336 340 339 340 340 344 341 340 338 339 333 337 336
349 348 349 352 351 347 351 350 351 350 349 351 350 349 350 347 348 350 345 344 346 349 344 345 348 344 347 346 345 343 345 345 346 346 345 345 345 345 345 345 344 343 342 341 341 336 338 340 339 337 337 340 337 337 343 343 342 339 338 340 339 339
347 347 351 350 350 349 351 349 348 348 350 347 348 347 347 348 344 348 346 347 346 347 347 348 347 346 345 345 343 345 344 345 345 345 346 345 345 345 345 344 344 343 342 341 336 334 337 336 333 338 338 335 333 340 342 343 343 342 338 338 337 341
348 349 347 348 347 346 349 349 350 351 350 350 349 347 349 348 342 344 346 345 344 345 346 346 345 346 346 345 345 342 343 343 344 344 345 345 345 345 345 344 344 343 342 340 336 335 335 334 335 333 332 333 336 339 341 342 341 341 341 338 337 342
348 347 344 343 345 346 346 346 347 349 350 348 347 345 349 346 345 341 342 344 344 341 343 344 344 344 345 345 344 346 345 346 344 346 345 342 344 341 344 340 343 343 339 338 336 336 338 335 335 335 334 335 337 339 339 342 342 341 340 341 338 341
347 346 349 348 348 344 349 347 348 348 348 348 346 344 343 344 344 341 341 342 343 341 340 341 342 342 344 343 343 345 345 345 345 342 344 342 339 343 340 337 339 338 336 337 336 336 338 337 335 333 333 335 336 337 337 337 341 341 342 342 340 342
342 345 344 346 348 346 347 348 350 346 345 345 343 344 344 346 337 338 341 343 342 342 341 340 339 342 342 341 341 341 341 341 341 340 343 339 342 341 340 338 336 337 337 336 335 336 335 338 337 332 332 332 334 334 336 337 339 341 341 341 342 342
344 344 343 343 345 346 345 345 344 344 344 344 342 342 339 341 342 344 343 344 345 343 339 339 339 340 343 344 342 342 342 342 343 340 344 343 341 342 342 339 335 335 335 336 334 335 335 334 336 336 332 332 333 334 336 335 339 341 342 342 341 343
346 348 343 340 342 344 347 343 342 341 338 340 340 341 341 340 337 341 345 344 342 343 342 340 340 340 343 338 339 342 341 341 339 345 343 341 340 345 340 339 337 337 338 336 335 335 333 333 335 335 332 332 333 332 333 336 339 339 341 341 343 341
348 347 349 348 337 343 344 341 340 339 339 341 341 339 339 338 340 344 344 342 344 344 344 343 343 341 339 340 342 339 340 340 341 342 340 340 342 342 341 341 340 335 332 336 334 334 332 332 332 333 332 330 331 330 333 334 335 337 340 341 342 341
346 348 347 343 343 344 346 343 343 342 342 341 341 344 341 340 342 341 344 345 344 343 343 344 343 340 341 338 341 340 341 341 341 341 343 339 344 345 343 341 337 335 335 335 334 335 332 332 331 330 330 329 330 332 330 335 334 335 336 339 340 342
343 345 342 337 339 338 338 338 341 340 343 342 345 340 345 340 340 343 343 346 342 339 339 342 341 341 340 338 338 339 340 340 340 341 343 342 342 346 345 341 339 337 338 340 334 333 335 330 330 329 330 328 328 330 329 332 332 333 334 337 338 341
343 344 339 337 337 337 336 335 336 336 337 341 340 343 341 341 343 346 345 344 343 344 345 340 344 344 343 341 341 341 341 341 341 345 343 343 344 344 343 342 339 337 337 338 336 334 331 332 329 329 331 330 330 327 329 330 332 333 334 335 337 338
341 338 339 338 338 334 335 335 335 334 337 337 336 335 339 343 342 343 346 345 346 345 343 343 339 341 343 341 341 341 339 340 341 342 343 344 342 344 342 340 337 335 334 333 332 333 332 330 328 328 329 331 332 332 330 329 331 331 333 334 336 336
341 340 338 338 334 336 336 335 333 335 338 339 337 335 337 343 343 344 344 343 343 343 344 341 339 343 339 338 340 340 339 338 340 341 340 342 340 342 340 338 337 333 333 332 330 330 331 330 329 328 330 333 331 331 333 331 331 331 331 334 336 335
342 340 340 340 338 339 336 336 336 335 337 338 335 334 335 336 336 337 337 339 340 342 340 341 340 340 339 339 339 339 339 341 336 338 337 342 339 336 335 336 337 335 331 330 330 329 329 330 331 330 332 335 335 335 333 332 332 328 330 332 332 334
340 340 340 339 336 336 337 335 336 336 335 335 332 333 332 334 334 334 334 334 338 338 338 340 340 340 341 341 339 337 338 339 340 337 337 338 337 334 336 332 333 335 334 331 330 329 330 331 331 333 335 335 336 337 336 334 332 332 330 330 331 331
340 339 339 337 338 337 336 335 334 334 334 332 333 332 333 332 333 332 333 334 336 337 338 338 337 337 339 340 338 338 338 340 340 339 335 333 335 336 334 334 332 334 334 333 330 330 330 332 333 333 335 332 334 334 334 335 334 333 332 329 331 330
339 340 339 338 337 336 335 334 331 331 329 327 330 333 331 332 331 333 333 334 334 335 336 336 335 335 335 335 335 338 339 341 341 339 334 334 334 334 335 334 330 331 332 335 335 335 332 334 333 332 330 333 333 337 337 336 336 339 333 332 331 331
340 338 337 336 334 331 330 328 327 328 327 330 330 329 331 330 332 330 331 332 331 333 331 332 333 334 334 332 332 333 335 338 339 336 335 332 332 332 331 331 330 333 331 333 334 333 334 334 333 333 334 336 333 336 338 340 335 335 336 334 332 332
338 337 333 331 329 328 327 326 327 327 325 326 327 329 330 331 331 332 332 329 330 329 329 330 330 330 332 329 329 332 333 333 334 334 334 333 332 332 331 332 334 334 330 329 329 334 333 331 332 331 331 332 335 337 338 334 334 336 333 337 335 330
335 333 332 331 329 329 329 326 325 325 326 323 322 325 326 330 331 330 330 328 328 328 328 329 330 333 330 330 329 329 330 332 332 332 334 334 337 336 333 332 332 332 333 331 329 332 331 330 325 324 323 324 330 332 335 334 334 333 330 330 332 330
333 331 330 332 329 327 328 328 327 325 325 325 328 330 328 329 330 327 328 328 329 330 330 329 330 329 330 330 330 329 330 332 332 333 331 332 334 335 335 335 334 333 331 330 330 331 331 331 326 328 325 324 323 322 328 330 334 333 328 327 333 334
332 331 330 331 329 330 330 331 330 328 327 327 327 330 329 329 327 327 327 329 329 330 329 328 327 327 327 329 329 327 328 328 330 331 330 329 330 330 334 333 331 328 326 325 329 330 334 332 330 330 319 321 322 321 317 321 325 331 333 333 332 334
331 332 331 329 331 329 329 330 329 329 330 328 325 324 324 323 325 325 325 327 327 329 328 328 328 328 325 326 326 326 325 326 327 327 327 326 327 328 328 329 332 330 329 331 326 330 330 331 331 331 326 322 320 316 317 323 326 329 332 331 331 333
331 331 330 330 332 328 325 325 324 321 318 319 320 321 321 321 320 323 323 325 327 329 328 328 328 328 327 326 326 325 326 325 325 325 325 324 325 325 325 326 327 328 330 331 331 325 326 329 330 330 329 331 325 320 322 323 324 318 330 330 332 334
331 330 331 330 330 326 325 325 323 321 319 320 319 322 324 325 324 322 324 327 325 328 327 328 328 327 327 327 328 326 326 325 323 323 322 324 322 322 322 322 324 325 325 327 327 325 325 326 329 328 328 327 326 328 328 326 320 322 319 326 329 332
331 330 331 331 327 327 325 324 324 322 321 320 321 323 324 325 325 324 324 325 326 325 326 326 325 324 325 325 326 324 323 322 319 318 317 317 317 318 321 321 321 323 324 324 325 324 323 325 322 322 327 327 327 327 327 325 324 320 320 318 320 328
330 330 331 331 326 327 326 325 324 323 320 323 324 323 323 323 322 324 324 324 325 323 324 325 323 322 322 321 321 320 321 320 320 319 317 317 319 320 321 322 322 322 321 320 322 324 323 321 322 320 322 322 323 325 326 325 326 325 320 317 320 321
329 329 332 331 327 326 327 326 324 322 322 321 322 321 322 321 322 323 323 324 323 323 323 323 323 321 321 320 321 321 319 319 320 318 317 319 321 321 322 323 323 323 323 322 321 319 319 320 320 321 318 318 317 319 319 322 323 323 322 321 317 317
329 329 332 330 327 326 327 326 324 323 322 322 321 321 321 321 321 322 321 322 322 322 323 322 321 322 322 322 323 322 321 320 322 322 320 320 321 321 323 323 323 322 322 322 320 321 320 319 320 317 317 317 317 317 316 315 317 318 317 316 315 315
329 329 331 330 327 325 325 326 326 325 323 324 323 321 322 320 321 321 321 320 321 321 322 323 323 321 322 323 323 322 322 321 321 322 320 321 322 321 322 322 322 322 323 323 324 322 321 321 322 319 317 317 316 318 318 317 317 317 315 315 315 313
328 328 330 330 327 327 326 326 326 325 324 324 324 322 323 321 322 321 321 320 320 320 321 321 321 322 323 323 323 321 321 320 319 320 321 318 318 320 320 319 321 321 321 320 320 321 319 319 319 319 319 318 317 316 317 318 318 315 316 316 314 311
328 329 330 330 327 327 326 327 327 326 324 324 322 323 322 322 323 321 322 320 321 320 320 321 322 323 323 323 323 323 323 322 321 321 320 321 321 320 320 317 319 320 320 320 321 320 319 320 319 319 319 318 316 316 316 319 317 318 317 315 313 314
328 328 329 329 328 327 326 326 326 327 325 325 323 322 321 322 323 321 322 323 322 321 320 321 321 323 324 324 324 324 324 322 320 321 320 321 320 320 320 318 319 320 320 320 319 318 317 318 317 317 316 316 318 317 316 315 316 317 316 317 315 314
328 328 329 329 328 327 327 327 326 327 327 326 324 323 321 322 323 323 323 323 322 322 322 321 323 323 325 324 325 324 323 322 321 320 321 321 320 319 319 319 318 319 318 318 319 320 319 319 318 317 316 317 317 315 316 314 316 316 315 316 316 315
328 329 329 330 329 328 328 327 326 326 327 327 326 324 322 323 325 325 324 323 322 321 324 323 323 324 325 324 325 325 323 322 321 321 321 320 320 319 318 318 319 317 318 319 319 317 319 317 317 318 316 315 315 315 313 316 316 314 315 317 316 315

ECMWFFLT2_sfc_thetae_036.txt.gz
Theta_e
346 346 346 347 348 350 351 352 351 351 351 350 347 346 345 344 344 345 345 345 345 346 346 345 347 345 348 346 346 345 346 346 346 346 346 345 345 346 346 345 344 344 343 341 341 341 339 337 336 338 335 337 338 337 336 340 340 338 335 337 336 337
347 347 347 348 348 349 349 349 349 349 349 348 346 342 342 342 343 343 344 344 346 346 347 347 347 347 347 345 346 346 346 346 346 345 346 345 345 345 345 345 344 342 341 341 342 336 337 338 339 338 337 338 336 334 335 338 341 338 335 335 337 339
344 345 346 345 346 348 348 348 346 346 346 347 345 342 341 340 339 341 343 344 346 346 345 345 347 346 346 345 346 345 346 345 345 345 345 347 345 345 345 344 343 342 341 341 339 332 332 332 333 338 339 336 330 331 334 340 341 338 334 335 334 341
345 345 345 344 347 346 349 347 346 347 346 348 345 340 338 338 341 340 342 344 345 346 346 346 345 343 342 344 344 345 345 345 345 345 345 345 345 345 345 344 344 343 341 338 331 331 330 333 330 331 329 331 329 330 339 340 339 339 335 337 337 342
345 345 343 344 346 345 346 345 343 343 344 345 342 339 339 337 339 341 340 341 341 342 344 345 345 343 340 341 345 343 344 343 343 343 345 341 343 341 344 341 341 342 338 335 333 331 332 332 331 331 327 327 329 336 337 339 340 340 334 333 338 342
345 344 344 344 345 346 345 344 343 342 340 339 338 338 339 338 339 340 339 341 342 341 343 343 344 345 341 342 340 344 344 344 341 340 342 341 340 339 340 337 338 339 338 336 335 332 333 334 337 331 329 328 333 338 337 337 338 341 334 334 340 342
344 343 342 342 341 343 343 345 343 342 341 339 342 339 339 340 341 342 341 343 344 342 341 342 342 343 341 338 337 341 342 339 339 340 342 340 339 343 342 339 342 338 338 336 333 332 334 337 335 332 332 331 331 333 334 334 338 338 335 334 340 342
343 343 340 340 341 340 343 342 344 341 341 341 337 338 339 341 341 340 343 344 345 344 342 340 340 341 342 344 342 342 343 340 342 341 341 343 340 339 339 339 342 335 335 334 333 332 334 331 334 334 334 330 331 331 334 332 336 337 337 335 339 342
343 345 341 338 337 340 342 343 345 343 342 342 340 341 342 341 342 342 339 339 342 343 342 342 340 340 342 340 342 342 340 339 342 343 340 342 340 336 337 340 341 339 336 333 332 332 331 333 333 335 333 330 330 328 331 335 336 338 338 335 335 341
341 340 342 339 337 338 338 339 342 343 342 342 341 341 341 340 341 341 338 337 339 342 340 339 339 341 338 341 341 339 339 339 341 341 343 342 340 342 339 341 340 337 335 334 332 332 333 331 330 330 331 329 329 330 332 330 335 335 337 337 336 339
342 343 340 340 338 338 340 341 340 341 341 342 341 340 340 339 340 341 342 341 341 341 338 339 340 341 343 342 340 339 338 338 337 336 341 339 341 342 340 338 336 336 335 335 335 333 331 330 329 330 329 327 327 328 328 330 332 333 335 337 337 337
338 339 338 338 340 339 339 339 340 340 343 341 340 338 338 338 340 341 341 342 343 342 339 342 342 341 341 339 338 338 337 338 335 339 339 337 337 335 334 338 336 335 336 341 336 334 332 333 330 328 327 327 325 327 326 328 330 330 333 336 337 335
338 337 336 337 339 339 340 340 341 341 340 341 339 338 339 338 340 341 341 342 343 340 338 339 340 339 341 342 340 337 336 335 337 337 335 337 334 334 335 335 335 333 334 337 337 335 332 331 329 326 326 326 326 326 326 326 329 329 330 333 338 336
340 338 339 338 343 335 336 337 339 340 341 341 340 338 339 339 340 343 342 342 341 339 339 340 337 341 341 338 337 336 335 338 338 337 337 336 336 335 334 333 333 334 336 333 333 334 332 337 329 328 326 326 327 331 329 325 328 327 333 330 337 338
339 337 337 339 338 335 337 337 335 337 340 339 337 336 337 337 337 343 343 339 340 338 338 337 337 340 340 339 335 336 335 335 335 337 333 333 334 334 335 333 336 335 334 333 331 329 331 331 331 328 328 330 327 326 330 329 328 328 330 333 333 337
340 339 338 338 338 338 339 338 338 338 341 341 335 335 335 335 336 340 339 341 337 337 337 338 337 341 340 339 337 336 335 337 336 334 332 335 335 334 333 331 333 336 332 330 330 329 328 329 331 333 330 334 333 333 331 329 328 327 326 330 329 332
338 338 337 336 336 337 339 339 337 339 338 344 337 334 334 335 335 337 340 339 340 338 338 337 338 338 340 339 337 335 334 335 336 336 334 335 335 332 333 333 334 335 335 332 329 328 329 329 329 333 334 332 332 332 332 331 332 331 333 328 332 330
338 337 338 338 337 338 335 335 336 337 339 335 337 337 338 335 334 336 336 336 340 343 348 340 338 336 341 336 334 333 334 334 332 336 333 333 333 334 334 333 332 334 334 333 331 332 330 329 328 330 332 332 335 336 333 334 333 333 332 331 331 330
338 338 338 338 339 337 337 330 333 332 333 334 332 336 340 332 333 335 333 335 337 342 340 340 339 340 342 337 335 334 334 332 334 332 332 331 332 333 333 333 332 331 333 331 331 332 332 332 329 329 331 333 334 335 336 336 333 334 333 331 331 332
338 337 337 336 334 330 330 330 328 331 330 332 330 332 336 331 336 332 333 335 337 341 333 337 338 339 341 334 333 337 333 333 334 333 333 330 332 331 332 331 331 330 331 331 332 333 333 331 330 330 328 331 333 333 337 335 334 332 336 332 331 331
336 336 333 331 331 329 328 328 333 328 325 332 327 331 333 332 330 330 330 328 329 331 332 333 333 338 337 336 334 337 334 333 332 329 332 331 332 332 334 332 332 332 331 328 329 332 331 331 327 325 329 328 329 333 334 333 333 333 332 333 332 330
335 335 336 336 337 335 336 326 330 325 326 324 321 326 327 329 329 333 335 333 336 336 333 335 334 335 334 336 332 338 331 333 335 333 335 335 334 333 332 332 333 330 331 330 327 331 330 329 324 322 321 321 326 330 332 333 333 331 336 331 327 330
333 334 335 336 334 332 332 334 335 333 332 325 328 330 327 329 330 324 333 332 336 337 335 329 333 335 337 328 331 333 332 334 334 335 333 331 332 330 331 330 331 329 327 330 330 331 330 329 324 325 324 321 319 319 324 328 331 333 332 330 328 328
332 333 334 334 333 333 334 333 333 331 331 330 326 328 330 330 329 329 326 329 333 336 333 329 329 325 325 331 337 334 326 329 330 330 337 330 331 330 329 329 328 327 328 324 327 327 331 331 328 325 317 318 320 319 315 319 323 329 335 334 335 333
331 332 332 332 332 332 332 331 331 331 328 326 328 328 327 326 326 325 327 329 332 334 330 330 330 327 325 325 327 326 329 328 327 327 324 329 327 327 328 330 329 329 328 327 324 326 327 330 329 330 323 319 318 316 316 321 324 325 331 330 332 335
331 331 330 332 331 331 330 328 328 325 323 323 323 325 324 323 326 327 321 331 328 328 328 329 325 325 326 327 327 326 323 322 322 323 324 323 320 323 322 321 328 331 331 329 326 325 324 328 328 328 328 326 324 317 317 321 321 316 327 329 330 332
331 330 331 331 330 329 328 328 327 325 324 324 323 327 326 329 325 325 329 327 329 333 327 327 327 326 327 326 327 326 327 325 324 325 322 321 321 320 319 319 321 321 321 327 329 323 323 324 327 328 327 327 326 325 325 321 317 318 315 323 327 328
331 329 330 330 327 328 326 326 327 326 325 325 325 323 327 327 328 327 327 326 326 330 327 328 328 325 323 323 325 324 325 323 325 319 318 318 318 320 322 323 322 323 322 322 323 322 324 326 323 323 327 325 324 326 325 323 322 319 317 315 319 326
330 330 331 329 326 327 328 326 327 326 326 326 325 325 324 323 326 327 327 330 327 323 326 326 323 322 321 321 323 323 322 321 319 319 318 318 319 321 322 322 322 322 321 319 319 320 319 318 317 318 323 324 324 323 323 323 322 323 319 315 316 318
330 329 330 328 327 327 328 326 327 326 327 324 323 323 323 323 324 327 326 326 326 327 323 326 326 325 324 321 323 323 321 322 324 323 322 322 321 322 322 321 322 322 322 321 321 319 317 318 316 317 317 318 318 321 322 321 321 321 319 318 313 315
329 330 329 327 327 327 327 326 326 327 327 323 323 324 321 322 322 325 324 325 327 325 325 324 325 326 325 324 323 325 325 323 324 325 322 321 323 322 324 325 323 323 322 322 321 321 321 321 319 315 316 316 314 315 314 314 314 315 314 313 313 313
329 330 329 326 327 327 326 326 327 326 327 324 323 323 321 321 322 323 324 324 327 325 324 324 327 325 325 326 325 325 326 325 325 325 323 322 324 322 321 321 322 322 321 321 321 319 318 317 319 318 315 315 317 317 314 313 314 315 313 312 312 309
328 330 328 326 326 327 326 325 326 325 328 325 325 325 322 323 323 324 322 323 324 323 323 322 324 323 324 326 325 325 328 322 321 323 323 321 320 323 321 320 320 320 320 319 319 319 317 317 317 316 318 317 316 314 315 317 318 317 317 316 315 311
327 330 329 326 326 326 326 326 328 325 328 326 326 326 323 323 323 324 324 324 324 324 322 323 323 324 324 326 324 327 326 324 323 322 322 323 322 322 324 317 320 320 319 320 320 318 318 317 317 316 317 316 315 314 316 316 317 317 316 314 311 309
327 330 328 325 325 325 326 327 328 325 327 325 327 327 325 325 324 325 324 324 325 326 324 323 323 326 323 326 326 326 325 323 323 324 322 324 324 322 322 318 319 321 320 319 319 317 317 317 317 316 316 317 318 315 314 312 316 314 314 313 313 312
327 329 328 325 325 325 326 327 328 326 326 326 325 326 326 325 326 328 327 324 326 327 326 325 324 326 323 325 326 325 324 323 324 323 324 322 322 320 321 324 317 320 318 319 319 319 318 317 316 315 315 316 315 312 313 315 313 313 314 315 314 316
326 328 328 326 326 325 326 327 327 328 326 327 325 325 325 326 326 328 330 327 326 327 330 326 325 326 323 326 326 325 322 322 322 322 323 323 322 321 320 324 319 320 320 321 320 317 319 317 317 317 316 316 315 311 312 315 313 315 315 313 312 313

ECMWFFLT2_sfc_thetae_039.txt.gz
Theta_e
345 345 346 347 348 349 349 351 350 349 346 345 345 346 347 347 346 347 346 346 346 344 342 341 344 345 347 346 345 347 347 346 346 346 346 345 346 345 345 345 344 344 344 344 343 343 341 338 338 337 338 338 339 333 329 332 337 335 334 335 336 336
343 344 346 347 348 349 348 348 347 344 341 340 341 342 342 342 347 341 346 343 340 343 341 341 343 346 345 346 345 347 347 347 347 346 346 345 345 345 345 345 344 344 343 342 343 334 336 339 340 338 340 339 336 329 328 331 336 334 335 334 336 340
344 344 345 346 347 347 346 346 345 340 338 339 341 342 338 340 336 338 339 342 343 342 342 341 341 344 345 346 346 346 347 346 347 346 346 347 345 345 345 345 344 343 343 343 336 332 329 329 329 338 340 336 330 327 326 329 334 333 333 335 335 343
344 343 343 344 345 345 343 343 342 339 338 337 337 337 336 337 336 336 338 339 339 343 341 338 343 344 344 340 340 344 345 346 346 346 346 345 345 345 345 344 343 342 342 341 331 329 328 326 327 327 327 327 328 327 326 328 333 332 333 337 337 343
343 343 343 344 343 342 342 340 339 339 337 336 334 334 333 333 335 336 337 337 338 339 340 337 337 337 335 336 337 339 341 340 341 339 345 338 337 341 340 340 339 339 335 333 331 328 327 326 329 328 326 324 324 326 326 330 333 332 333 335 338 342
342 342 343 342 341 344 341 338 337 337 335 335 332 333 333 333 334 335 335 338 339 337 338 337 337 335 334 335 335 337 337 339 339 339 341 337 336 335 338 338 337 338 336 335 333 332 330 330 328 327 326 323 322 324 326 332 332 331 332 335 339 343
342 341 341 343 343 342 340 340 338 336 334 334 334 333 333 333 334 336 337 340 339 336 335 335 334 335 335 334 333 336 337 337 335 335 338 338 336 337 337 335 335 336 336 335 333 332 331 331 330 328 327 325 323 326 331 331 331 330 332 335 340 342
340 339 338 340 340 339 339 338 340 341 336 339 336 335 334 334 336 335 338 339 341 337 335 335 334 335 336 333 334 337 337 335 336 336 335 335 336 335 334 334 336 334 333 334 333 333 331 329 330 331 330 327 326 326 329 331 330 330 332 335 338 341
339 338 337 338 338 339 339 339 339 336 334 341 333 333 336 337 335 335 336 336 340 336 336 336 335 335 337 337 336 336 334 334 334 334 334 333 336 333 333 334 335 334 333 333 333 330 330 331 329 331 329 329 328 326 326 330 331 330 332 335 337 340
339 336 336 337 336 337 339 339 338 337 337 340 333 336 339 335 335 334 333 334 334 337 335 335 335 335 334 336 335 335 334 334 333 334 333 332 336 334 332 332 333 334 335 334 332 332 332 330 329 329 329 328 327 326 325 327 332 331 332 335 336 339
340 340 336 335 334 335 337 338 339 338 338 337 337 338 336 334 334 334 333 333 333 337 335 335 334 336 336 335 335 335 333 332 332 332 332 334 335 332 332 332 331 332 333 333 334 334 332 330 329 327 328 328 326 325 325 326 332 333 332 333 335 338
338 338 337 335 337 336 337 338 339 338 337 337 337 334 333 332 337 334 336 334 335 337 337 335 335 334 335 334 334 332 333 331 331 332 332 333 332 331 330 332 334 334 332 336 333 334 332 329 328 326 325 325 325 325 324 324 328 333 332 332 334 337
337 336 335 335 336 336 336 338 337 338 338 338 336 334 333 333 333 334 334 336 336 337 335 335 333 334 336 334 333 332 333 332 331 332 330 331 331 329 330 331 330 331 329 330 332 332 332 331 328 326 327 325 329 327 324 323 325 329 333 332 332 334
335 334 334 335 335 334 335 336 337 337 340 336 334 333 335 334 335 335 334 335 336 336 335 334 334 333 334 333 331 330 332 332 331 330 330 330 331 330 329 329 329 328 331 330 330 331 329 330 329 328 325 329 329 330 330 327 325 325 332 333 331 332
334 332 335 334 334 332 333 336 336 335 336 336 334 334 334 334 333 336 336 334 335 335 335 334 335 336 334 332 332 330 331 331 331 331 329 328 328 328 327 327 328 329 328 328 328 328 329 328 327 326 329 328 328 330 330 329 330 330 327 330 333 331
331 329 328 329 328 329 330 332 332 338 335 335 333 332 331 332 333 334 337 334 334 335 335 334 333 334 332 333 333 330 329 329 331 329 327 329 329 329 328 326 327 329 326 327 327 326 327 326 327 330 331 329 328 329 329 329 329 330 330 328 328 330
329 329 329 329 328 328 329 329 329 329 334 333 330 330 330 331 333 333 333 333 333 335 334 335 335 333 332 332 332 330 330 331 331 329 329 330 330 328 328 330 327 329 329 327 329 329 327 326 327 329 330 327 330 331 330 329 329 330 331 329 328 329
328 328 327 327 327 325 326 327 327 329 331 327 328 329 330 330 330 330 332 332 333 336 335 333 334 332 331 333 332 330 329 329 329 330 328 327 327 328 328 327 326 327 329 327 327 325 327 325 329 329 328 329 330 331 332 331 330 331 330 329 327 328
328 328 327 328 327 326 324 323 323 323 322 320 321 326 324 324 326 326 328 330 332 331 333 333 333 333 331 332 330 330 329 328 328 328 328 325 325 327 329 327 327 326 329 327 326 327 327 326 328 328 328 329 330 331 329 331 331 330 331 330 329 330
328 328 328 326 323 318 319 320 319 320 322 323 324 325 324 322 322 323 325 325 324 324 325 326 330 333 332 330 327 329 328 328 327 325 325 325 324 325 326 327 329 328 324 327 328 330 330 327 325 325 324 326 329 330 333 330 329 330 326 327 328 325
327 327 324 322 319 317 317 319 318 316 319 319 322 322 322 321 321 321 323 323 321 320 321 323 323 324 325 332 328 328 328 328 328 326 326 326 326 328 329 327 327 326 326 326 325 327 327 326 322 321 323 325 326 329 331 331 326 327 328 328 327 325
326 325 324 323 322 321 320 319 314 315 317 318 321 319 319 320 321 323 322 323 324 323 323 323 323 320 325 322 323 326 327 328 327 326 327 327 327 329 327 326 329 328 327 325 324 325 326 325 321 318 318 318 320 325 329 329 328 327 327 329 330 327
326 325 324 326 323 322 321 321 319 319 320 320 321 322 321 319 319 320 321 323 324 324 322 322 323 327 321 322 324 324 325 325 326 328 328 327 325 326 325 326 324 324 323 327 326 328 328 325 319 320 319 316 315 315 320 323 325 329 330 328 327 327
326 325 325 324 323 322 323 323 323 322 322 321 320 322 320 319 319 318 319 322 322 321 322 321 321 321 321 320 319 320 319 319 318 322 325 324 323 324 323 323 323 323 323 320 322 323 328 326 323 320 314 313 314 313 312 315 319 325 330 330 331 330
324 324 323 324 323 323 322 320 320 320 320 319 318 317 317 316 317 320 320 319 322 323 321 320 321 321 322 319 317 316 317 316 316 317 319 320 321 323 324 324 323 322 321 321 321 322 325 328 327 325 317 315 312 310 311 315 319 321 325 324 328 333
323 323 322 322 322 322 320 318 316 315 313 313 313 314 312 313 315 315 316 319 320 321 322 320 320 320 321 320 317 318 315 314 314 315 316 316 315 314 314 319 325 324 323 323 321 319 319 324 323 324 323 320 317 311 313 316 315 313 323 325 325 329
323 323 323 322 323 322 318 317 315 314 314 314 314 315 315 316 316 316 318 318 320 319 319 319 319 319 318 319 316 315 314 315 315 315 317 315 316 316 317 317 318 316 320 323 321 317 318 320 322 323 324 321 322 322 320 316 312 313 313 318 323 323
323 324 323 322 322 321 319 317 315 315 316 316 316 315 315 316 318 319 318 317 317 317 319 320 317 315 316 318 316 314 314 313 313 315 317 315 315 316 318 319 318 315 315 315 317 319 318 320 318 319 322 318 319 321 320 320 317 314 311 311 315 321
323 323 322 321 321 320 319 317 315 316 318 317 317 317 317 318 317 318 316 316 314 314 314 314 314 313 313 315 317 315 314 314 313 313 317 316 316 317 315 315 315 315 313 313 314 313 311 310 312 315 318 318 319 318 319 318 318 317 314 310 312 314
322 323 321 320 320 319 318 318 315 316 317 316 316 315 316 315 315 317 316 314 313 313 314 314 314 314 314 316 314 314 314 315 315 316 316 315 315 315 315 315 315 315 314 314 315 314 311 310 312 311 313 315 315 317 318 316 316 316 316 314 309 311
323 323 321 319 319 318 317 317 315 318 317 315 314 314 314 313 315 314 314 314 312 313 314 313 315 316 315 314 316 318 315 316 318 320 318 316 316 317 316 316 317 316 315 313 312 313 313 312 310 310 311 311 309 310 309 308 308 310 309 306 305 306
323 323 320 319 318 318 317 318 316 318 316 316 315 315 313 314 315 314 314 314 314 314 312 314 314 312 313 315 314 315 316 314 315 313 311 315 316 316 316 315 314 314 313 314 314 314 311 310 311 311 310 310 310 311 310 309 311 310 308 307 307 305
322 322 319 318 318 317 316 317 318 318 316 317 316 314 314 314 315 314 313 315 313 312 312 314 313 315 313 312 314 315 312 311 312 314 314 313 313 313 314 314 314 313 313 312 311 310 309 309 309 310 310 310 310 310 309 310 311 312 311 310 307 303
322 322 319 318 318 317 316 317 317 317 316 317 315 315 315 314 315 314 315 315 314 314 313 313 314 313 314 315 314 316 314 312 312 313 313 311 312 314 314 314 313 312 312 311 311 310 310 309 309 309 310 308 308 308 307 310 309 310 309 308 305 304
321 320 317 317 317 317 316 317 317 318 316 317 317 315 316 316 316 314 315 316 315 315 313 314 315 314 317 315 314 315 313 313 313 313 312 312 314 312 312 313 313 312 312 311 311 311 309 308 309 308 308 309 309 307 308 308 308 310 310 309 308 307
317 319 321 319 318 317 317 317 316 318 317 318 318 317 317 317 316 315 315 316 316 315 315 316 317 316 315 317 315 315 313 312 313 312 313 312 312 312 313 312 312 312 311 316 312 311 309 308 307 308 308 307 306 305 308 307 308 308 307 308 308 308
319 320 321 320 320 320 320 319 317 318 317 317 318 316 317 316 316 317 316 315 316 316 316 317 317 316 315 317 316 315 313 313 313 313 313 313 313 311 312 312 311 310 310 313 313 311 310 309 309 308 308 306 305 305 306 307 307 308 306 305 308 306

ECMWFFLT2_sfc_thetae_042.txt.gz
Theta_e
346 347 348 348 348 348 349 351 350 351 351 350 349 349 350 349 348 348 348 347 345 341 340 342 344 344 347 345 346 347 346 346 346 346 345 345 344 344 343 344 344 344 343 343 342 342 341 340 340 340 340 339 339 327 327 329 332 333 332 333 335 334
345 346 347 347 347 347 348 348 345 346 346 346 347 347 345 344 349 340 346 343 340 341 339 340 342 347 345 345 345 347 345 345 346 345 345 344 344 344 344 344 344 344 343 343 343 332 334 338 338 338 339 339 331 326 326 329 332 332 333 333 335 337
345 345 345 346 346 346 345 343 341 340 343 345 346 343 339 341 335 337 338 340 340 338 338 339 339 344 345 346 345 345 344 344 345 345 345 345 344 344 344 344 344 344 343 343 335 330 326 325 325 335 336 328 325 326 325 327 331 332 332 334 333 341
344 344 344 344 344 344 343 340 338 337 336 336 337 337 336 335 335 334 336 336 337 339 336 336 346 346 346 340 342 343 342 342 345 345 345 345 344 344 344 344 344 343 342 339 329 327 327 325 323 324 324 324 324 324 325 326 331 331 332 337 335 343
344 344 343 343 343 342 341 340 336 336 335 333 333 333 333 332 333 334 334 334 335 337 335 334 334 335 334 335 335 337 337 336 339 340 344 336 339 341 341 338 337 340 333 331 328 326 325 326 326 326 325 325 324 322 324 329 330 331 333 335 337 343
343 343 342 342 341 343 341 337 336 335 334 333 332 332 332 332 333 333 333 334 336 334 334 333 333 333 332 333 334 334 336 334 334 336 340 336 336 336 336 336 336 336 334 333 329 328 326 328 327 326 325 325 324 321 322 327 330 331 332 334 338 343
341 341 341 342 342 340 337 337 336 334 333 332 332 332 331 331 332 332 333 336 334 332 333 332 332 333 332 333 333 334 332 332 332 331 335 334 334 335 336 335 334 335 333 332 332 331 329 329 328 328 327 326 323 321 323 329 329 331 332 334 338 342
340 340 340 341 340 337 337 336 336 340 335 338 335 332 332 332 334 333 335 337 337 333 333 333 332 332 333 332 332 332 331 331 331 332 332 332 331 332 334 333 333 334 333 333 331 330 328 328 326 327 327 325 324 322 324 329 328 331 332 334 336 341
340 340 340 340 338 337 337 336 337 335 332 341 332 332 333 334 334 334 335 337 340 332 331 333 333 333 332 331 332 331 330 331 331 331 331 329 330 330 330 331 331 332 329 329 328 327 328 329 327 326 326 326 325 323 326 328 327 330 331 333 335 339
338 339 339 339 337 337 336 336 336 334 333 339 331 332 335 333 333 334 333 333 335 334 332 332 332 332 334 333 332 331 331 330 330 331 330 329 330 329 329 330 330 331 332 330 330 329 330 329 328 325 325 326 326 325 326 328 327 329 331 333 334 336
338 341 338 337 337 337 338 336 336 334 335 335 332 334 335 334 333 332 332 331 333 334 332 331 332 330 333 333 332 331 330 330 330 330 330 329 330 328 328 328 329 330 329 330 331 331 330 328 327 326 324 324 325 324 325 328 328 329 331 333 334 335
338 338 337 337 338 337 337 337 337 335 335 334 335 334 333 333 336 333 332 331 332 334 332 330 330 331 332 331 331 331 330 329 328 328 330 330 329 328 327 330 331 332 330 328 331 332 330 328 326 325 325 323 327 324 322 327 328 329 331 332 333 335
337 337 335 336 336 336 336 338 336 336 336 337 335 334 332 332 333 333 333 332 332 333 332 331 329 330 333 330 331 330 329 328 328 330 329 330 329 328 327 328 327 329 327 327 328 330 332 327 325 325 324 327 328 328 324 323 327 329 329 332 333 334
335 335 334 335 335 335 336 335 335 335 338 334 332 332 333 330 333 332 334 334 334 334 333 331 329 328 331 329 329 329 329 329 328 328 327 329 328 326 326 327 327 326 330 327 327 329 328 326 326 325 327 327 327 327 327 326 325 329 329 329 330 330
335 333 336 334 335 334 333 335 334 334 334 333 332 330 329 331 331 333 333 332 333 333 333 331 331 331 330 330 328 328 330 331 332 329 327 327 328 326 324 325 326 327 325 325 325 325 325 324 326 328 327 326 328 328 327 327 326 327 330 329 329 329
333 332 333 334 332 333 333 333 333 337 333 331 330 329 329 330 332 332 334 333 332 334 332 331 333 332 329 328 328 328 329 330 331 327 326 328 328 327 326 324 325 326 325 325 325 324 324 325 327 328 327 326 326 327 326 326 327 326 328 329 328 328
330 330 330 331 330 331 331 332 332 335 332 329 328 327 327 327 329 332 332 332 332 335 332 331 332 331 330 330 329 328 328 330 330 327 327 328 329 331 329 327 324 328 325 324 326 326 324 323 325 327 327 327 327 326 327 326 327 327 327 325 326 328
328 328 328 327 327 329 331 331 331 332 333 329 327 326 327 328 327 327 330 329 330 333 332 331 331 330 329 330 328 328 328 329 329 328 327 327 330 330 328 326 325 325 326 323 324 323 324 324 327 327 325 326 326 326 327 327 326 329 326 326 325 325
327 326 325 325 325 326 325 323 323 326 324 321 322 322 325 324 325 326 326 327 329 331 332 330 330 330 328 330 327 326 327 326 327 326 325 324 324 328 329 327 327 325 326 325 324 325 324 322 325 324 324 325 326 327 327 327 327 327 327 327 327 328
325 325 324 323 323 321 320 320 319 319 320 321 320 321 320 321 322 322 324 322 322 324 329 330 328 327 327 328 326 325 326 326 326 324 324 323 323 325 327 328 327 326 323 324 324 325 325 323 322 323 322 322 325 326 329 327 325 326 324 325 324 324
324 325 323 320 319 318 316 316 316 318 317 317 319 318 319 318 319 319 318 318 319 320 322 327 329 327 325 329 324 324 325 326 325 324 323 323 323 324 324 326 326 324 324 325 324 325 326 322 318 317 318 320 321 325 329 329 326 323 324 324 323 323
323 322 320 319 319 317 316 315 316 317 318 317 318 317 316 318 319 321 320 320 320 319 319 320 322 321 319 323 323 322 321 324 326 323 323 323 323 326 324 323 327 325 325 324 321 323 323 320 316 314 314 315 317 320 324 325 326 327 325 326 326 324
323 321 319 319 317 317 316 315 316 315 318 316 317 317 316 318 320 319 318 319 320 318 318 319 319 320 319 321 321 320 320 321 322 325 323 321 320 321 321 323 322 321 319 322 320 323 325 322 316 316 315 313 311 313 315 317 322 326 329 326 324 325
322 320 319 320 320 317 318 317 319 319 318 318 316 318 316 316 317 318 318 319 319 318 318 318 317 317 316 317 316 316 315 315 320 324 322 320 319 320 319 319 319 319 319 319 322 324 325 325 321 317 313 312 311 310 308 310 316 323 326 327 328 329
322 320 319 321 320 320 320 318 318 318 318 316 316 314 313 313 317 320 318 317 316 317 318 318 318 317 317 314 314 313 313 315 316 318 321 320 318 319 320 319 319 319 316 316 318 321 323 326 325 321 317 314 310 307 309 311 315 318 323 321 324 329
320 319 320 320 321 320 319 317 316 314 312 311 311 310 310 312 313 314 314 315 316 318 317 316 315 315 316 315 312 312 312 313 314 315 314 313 313 313 313 318 320 320 319 318 317 317 318 322 321 322 320 317 313 310 311 314 312 308 319 322 322 324
321 319 320 319 320 320 317 316 315 314 313 313 311 309 310 312 313 313 315 314 314 315 316 315 314 314 313 313 312 313 313 313 314 314 315 314 314 315 315 314 316 316 318 320 316 315 317 320 322 322 320 318 320 319 316 313 310 310 309 315 319 320
320 320 320 319 318 319 316 314 313 313 314 312 312 311 312 312 313 315 313 312 314 313 314 312 312 312 313 314 313 312 312 313 314 315 316 313 313 313 315 315 315 313 314 316 316 317 318 320 317 318 321 317 318 318 317 318 313 312 309 310 313 316
320 319 319 319 317 316 316 314 314 314 313 313 313 314 315 315 313 313 312 310 311 310 310 310 311 310 311 314 316 311 310 311 312 313 316 314 314 314 313 312 312 313 312 312 313 310 309 308 310 316 319 317 318 317 316 316 316 316 310 305 308 309
319 319 319 318 317 315 315 315 314 314 314 313 314 314 314 312 311 311 310 308 309 309 309 310 310 311 310 311 312 313 312 311 311 314 315 313 312 313 313 313 312 312 312 311 310 310 308 307 309 308 312 315 315 315 311 309 310 311 311 309 307 305
319 319 318 317 316 315 314 314 316 315 314 313 314 313 312 311 311 309 309 308 308 309 309 310 312 310 311 313 314 315 313 313 314 317 315 314 313 313 312 311 312 312 311 310 309 309 310 309 308 309 308 307 307 308 306 305 305 307 305 303 303 304
319 318 318 318 316 315 314 314 316 316 314 314 314 313 312 312 311 310 308 308 308 309 309 310 308 309 309 311 312 311 312 310 311 311 312 312 312 312 312 311 311 311 309 309 309 310 307 307 308 307 307 307 308 308 307 307 307 306 307 305 304 303
319 317 317 317 316 315 315 315 316 315 314 314 314 313 312 312 311 310 309 308 308 308 308 309 308 310 309 309 311 309 309 309 310 311 310 310 310 310 311 310 311 309 309 308 307 307 306 305 306 305 305 305 306 307 307 307 309 308 306 305 304 300
319 318 316 317 316 315 315 315 316 315 314 314 312 312 312 313 311 311 311 310 309 309 309 309 310 309 310 309 310 311 310 308 309 309 310 310 309 310 310 310 309 308 307 306 307 307 306 305 305 305 305 305 305 306 305 307 306 307 306 305 302 301
319 318 316 317 317 315 314 315 316 315 315 314 313 312 312 313 312 312 311 310 309 310 309 310 310 311 311 310 311 310 308 308 308 308 308 309 312 309 309 311 310 308 307 306 308 308 305 306 307 305 304 304 306 305 305 306 304 305 306 306 305 304
318 317 318 317 317 316 315 316 316 314 315 315 315 314 314 313 312 313 313 311 310 310 311 311 311 311 311 311 311 310 310 308 308 308 309 308 309 309 308 309 308 307 308 312 308 306 305 306 305 304 302 302 305 304 304 304 304 303 303 304 305 303
317 318 318 318 318 318 316 317 316 315 315 315 315 314 314 314 313 313 314 313 312 311 311 312 313 312 312 310 311 309 309 309 308 308 308 309 308 308 308 309 308 306 307 309 308 306 306 306 304 304 303 302 303 303 303 303 302 303 303 303 303 303

ECMWFFLT2_sfc_thetae_045.txt.gz
Theta_e
347 348 347 346 347 347 349 350 350 351 351 350 350 349 349 349 348 348 347 348 346 342 342 342 342 343 346 344 345 346 345 346 346 345 345 345 344 344 344 344 344 343 343 343 342 342 342 341 340 338 338 339 335 324 325 329 330 332 330 331 335 330
346 347 347 346 347 347 348 348 346 347 347 347 348 347 346 345 348 342 347 343 340 343 340 340 341 345 343 344 344 346 346 345 345 345 345 345 344 344 344 344 344 344 343 342 343 329 329 334 336 336 336 336 325 322 323 328 329 331 332 331 332 333
346 346 346 346 346 346 344 343 342 343 346 348 347 346 342 342 337 338 338 340 339 338 339 340 340 344 343 346 344 345 345 345 345 345 344 345 344 344 344 344 344 343 343 343 331 326 324 323 321 332 331 325 322 323 322 326 329 330 331 331 330 338
345 346 345 344 344 343 341 339 338 338 337 337 337 337 336 336 336 336 337 337 337 339 337 336 344 344 345 341 341 345 345 345 344 345 345 343 344 344 344 344 344 343 339 333 327 326 326 325 323 320 319 322 322 322 322 325 329 330 330 335 331 339
345 345 344 344 343 341 340 337 336 336 335 335 334 333 333 333 334 335 335 336 336 336 334 333 334 334 332 334 334 335 336 336 336 337 342 334 336 338 338 334 332 333 327 328 326 324 326 325 325 323 323 322 322 321 321 326 329 329 330 333 333 341
344 344 343 343 342 343 340 336 334 334 333 332 332 331 331 332 333 334 334 337 337 332 332 332 332 332 331 330 333 333 332 331 333 335 336 333 334 334 332 333 333 332 330 328 327 326 324 327 327 326 326 323 321 321 320 324 328 329 331 331 334 341
341 342 341 342 342 342 338 336 335 334 331 330 331 330 329 330 331 331 333 337 334 332 331 330 330 329 330 329 331 332 331 330 331 333 336 334 332 332 333 332 331 331 330 330 330 329 328 328 326 326 325 325 322 320 319 325 328 329 330 332 335 342
338 338 338 339 339 337 335 334 336 339 332 336 333 330 329 329 333 331 333 333 336 332 332 330 330 329 330 329 331 330 330 330 332 335 337 332 330 331 333 332 330 330 332 332 332 330 326 326 325 324 325 324 322 318 319 324 328 329 330 331 333 341
339 337 335 336 335 334 334 334 337 334 331 339 330 330 329 331 331 331 332 333 335 331 330 332 330 330 329 330 329 328 328 329 329 330 332 330 329 329 330 330 330 329 327 327 326 327 327 327 325 324 323 323 323 320 319 324 327 328 329 330 333 338
339 338 337 336 334 334 334 333 333 332 332 337 329 330 330 330 329 330 330 333 334 331 330 331 330 329 329 328 328 327 328 327 327 327 329 328 329 327 328 327 327 328 330 328 329 328 329 328 328 326 323 322 324 322 322 325 326 328 329 330 332 335
338 341 336 334 333 333 334 333 333 331 333 332 331 334 333 329 329 329 330 330 332 333 331 329 329 328 329 329 327 326 327 326 327 327 326 326 328 327 326 326 326 328 327 328 329 329 329 328 326 326 324 323 326 321 323 326 326 328 329 330 331 332
338 338 337 336 336 334 334 334 334 331 332 332 332 333 333 332 334 329 330 328 330 331 332 329 328 328 329 328 327 327 327 327 326 326 328 328 328 326 327 329 331 331 329 327 327 329 329 327 325 324 323 326 327 323 323 326 326 328 329 329 329 331
336 337 335 335 335 334 334 335 332 331 333 335 333 332 331 332 331 329 329 328 329 331 328 327 327 329 331 327 327 326 325 326 326 327 328 329 328 328 327 327 327 327 325 326 327 328 331 326 324 323 325 327 327 326 322 326 326 327 329 329 328 329
336 333 332 331 331 332 332 333 333 332 334 332 331 331 332 330 332 331 330 330 331 330 329 328 328 328 329 326 327 326 326 326 326 325 327 328 326 325 326 327 326 325 329 326 325 326 326 325 324 326 326 326 325 324 324 326 326 327 328 330 330 328
335 330 333 332 333 332 332 334 333 332 332 331 330 329 327 328 329 331 332 331 333 332 332 329 329 328 328 327 327 325 326 328 329 326 326 327 328 325 324 325 326 326 325 325 324 326 324 325 326 327 326 326 326 327 326 325 325 327 328 329 329 329
333 331 331 332 330 332 332 332 332 336 331 330 329 328 327 328 329 329 332 330 331 332 333 330 329 328 327 326 326 326 329 330 330 325 324 326 327 326 325 323 325 324 323 324 324 324 325 325 325 326 327 326 325 326 326 325 325 326 327 327 328 328
331 331 330 330 329 329 330 330 330 332 329 328 326 325 326 325 327 330 328 330 330 331 331 329 330 329 327 326 326 326 329 330 329 324 325 327 327 328 326 325 325 328 326 323 325 324 323 323 325 327 327 326 326 325 326 326 326 324 327 324 324 326
331 330 329 328 328 328 328 328 328 329 334 325 323 323 324 325 325 325 327 327 328 330 330 327 328 327 326 328 327 326 328 329 328 326 326 328 329 328 324 324 326 326 326 322 322 322 322 322 326 325 325 328 326 325 325 326 327 327 325 324 323 324
329 327 325 325 326 326 325 323 323 324 322 320 320 320 322 323 323 323 324 324 327 328 330 326 327 327 326 329 326 327 328 328 327 327 326 326 328 327 325 323 324 325 325 323 322 322 321 322 323 323 323 325 327 326 324 324 325 325 324 324 325 326
325 325 323 323 325 322 322 321 321 320 320 318 318 321 318 319 320 321 323 325 326 327 328 327 325 324 323 326 323 323 325 325 325 325 325 325 326 327 326 323 323 325 323 324 324 327 324 322 320 321 322 322 323 325 328 325 323 322 321 322 322 322
323 323 323 322 321 320 317 315 315 317 315 314 317 317 317 316 317 318 317 318 320 323 325 326 326 324 321 328 321 321 325 326 326 325 323 323 325 327 328 326 325 324 324 324 325 326 327 320 318 318 316 317 320 324 329 327 323 322 322 322 322 322
322 321 321 321 320 317 314 317 315 314 314 315 316 316 315 315 317 319 317 317 317 316 317 321 323 321 321 322 323 325 325 325 326 323 324 323 320 326 327 327 327 326 327 325 323 324 324 320 316 314 314 313 314 317 323 324 326 325 323 323 323 321
322 320 318 319 317 316 314 316 316 314 316 314 313 315 315 317 318 316 315 316 316 316 316 316 317 319 318 320 321 322 323 325 325 326 326 325 324 324 324 325 326 324 322 323 321 322 325 320 313 313 312 311 308 310 313 314 321 325 327 324 322 322
321 319 318 320 319 315 316 316 317 317 314 314 314 317 314 314 315 316 315 316 316 315 315 314 314 317 316 315 314 314 317 320 322 325 324 323 323 324 322 322 324 323 322 321 323 325 327 322 316 315 313 311 309 309 306 308 314 321 324 325 325 327
320 318 318 321 318 319 319 317 316 315 316 315 314 313 314 314 315 317 315 314 314 314 315 314 313 314 316 312 311 312 315 317 318 317 319 319 319 321 322 320 320 320 318 319 320 322 325 326 322 319 315 312 308 305 306 310 313 315 321 321 322 328
319 318 319 317 318 318 318 315 313 313 311 311 310 312 310 311 310 312 312 312 313 314 314 312 312 313 314 313 311 312 313 315 313 313 313 312 311 313 315 318 319 319 317 316 319 319 320 323 324 322 318 315 311 308 307 314 312 308 314 319 322 324
320 318 318 317 317 319 316 315 314 313 312 312 310 308 308 309 311 310 312 311 311 312 312 312 311 310 311 312 311 311 312 312 313 313 314 311 312 311 311 312 316 317 317 317 317 317 319 320 322 323 320 319 320 317 312 310 308 307 307 311 316 319
320 319 318 318 317 318 316 314 313 312 313 310 311 310 309 309 310 313 311 310 310 309 309 310 310 310 310 312 312 311 311 312 313 313 314 311 310 310 311 313 312 312 313 315 317 318 318 319 316 319 321 317 317 318 316 316 312 310 307 310 310 313
318 318 316 317 317 316 317 314 313 313 311 310 310 312 311 313 312 310 310 308 307 307 308 308 309 310 310 312 314 310 310 310 311 312 314 312 310 310 310 310 310 310 310 309 311 312 310 308 314 317 317 316 317 314 312 314 315 312 307 304 306 306
318 317 317 316 316 315 315 315 313 312 312 311 311 311 311 310 309 308 308 306 306 306 307 307 307 308 308 310 310 311 310 309 309 312 313 310 309 309 309 309 308 308 308 308 307 307 306 305 308 311 316 314 312 308 306 305 306 307 306 306 304 304
318 317 317 316 314 314 313 314 314 313 313 312 312 312 311 308 307 306 307 305 306 306 307 307 308 308 309 310 311 313 311 310 312 315 313 311 309 309 308 308 308 308 308 307 306 307 307 307 307 307 306 306 306 306 305 303 304 304 304 302 302 303
316 316 315 314 313 313 313 313 314 314 313 313 313 313 311 310 308 307 306 306 305 306 306 306 306 306 307 308 311 309 310 308 310 309 309 308 308 309 308 308 308 307 306 306 306 308 306 305 305 305 304 304 305 306 306 305 304 304 304 303 303 301
316 315 315 315 313 313 312 313 314 314 313 314 314 312 311 309 307 307 306 305 305 306 305 305 306 307 306 306 309 307 307 308 308 309 308 308 307 307 308 308 307 307 306 306 305 306 305 303 304 305 303 303 304 306 305 304 305 304 302 302 301 299
315 316 316 315 313 312 312 314 314 313 313 314 313 312 311 311 308 307 307 306 306 307 306 306 305 306 307 307 307 309 308 306 306 307 307 306 306 307 306 307 306 306 305 303 304 305 304 304 304 302 303 304 304 303 304 304 303 304 302 302 299 298
316 316 316 314 313 312 312 313 313 313 314 314 314 313 312 312 309 308 306 306 305 306 306 306 307 306 309 306 306 306 306 306 306 306 307 308 309 307 307 308 307 306 305 304 305 305 303 304 304 302 302 303 304 302 301 302 302 303 303 302 302 301
316 315 317 316 314 312 313 314 313 313 314 315 314 313 313 313 310 308 307 307 306 306 307 306 306 307 308 307 306 306 307 305 304 305 306 306 305 306 305 306 305 305 306 309 305 304 302 303 302 300 301 300 303 301 301 301 302 301 301 302 303 299
315 316 316 316 316 314 314 314 313 314 314 313 313 313 313 312 311 310 309 307 307 307 306 307 309 308 307 307 306 305 305 305 305 305 306 306 306 305 305 307 306 305 305 305 306 303 302 303 300 300 300 300 300 300 300 300 300 301 301 300 301 300

ECMWFFLT2_sfc_thetae_048.txt.gz
Theta_e
345 346 346 346 346 346 348 350 349 349 347 349 349 348 347 348 347 347 347 347 345 342 342 342 344 343 345 344 344 345 345 345 346 345 345 344 344 344 343 344 343 343 343 343 342 340 339 339 337 337 337 335 333 327 332 331 332 335 333 336 339 332
344 345 346 346 346 346 346 348 346 346 346 348 347 347 346 345 347 343 347 343 341 344 339 340 342 346 343 345 344 346 346 346 346 345 345 344 344 344 344 344 344 343 343 343 339 330 329 332 334 334 334 333 327 325 329 331 332 333 334 334 336 334
344 346 346 346 346 346 345 346 345 345 346 348 347 347 343 343 339 339 340 340 340 339 339 340 341 344 344 346 345 345 345 345 345 345 345 344 344 343 343 344 344 343 341 340 331 328 328 326 325 331 331 327 325 325 326 331 331 333 334 334 334 337
344 346 345 345 346 345 344 344 344 342 340 340 340 340 338 338 338 338 338 337 338 340 339 337 346 346 345 342 341 342 343 343 345 344 344 344 344 343 344 344 343 341 337 332 329 329 328 326 325 324 323 324 325 324 324 330 331 332 333 334 333 337
345 345 345 344 343 340 340 341 340 339 337 337 336 335 335 335 337 337 337 337 337 337 334 333 334 334 334 335 334 335 336 336 336 337 342 336 336 336 335 332 333 333 330 330 328 327 328 329 328 327 327 326 325 323 324 331 331 332 332 333 337 338
344 342 340 340 341 341 340 339 337 337 335 334 334 334 333 334 335 336 335 336 336 332 332 332 332 332 332 332 333 333 332 331 332 335 338 335 334 332 334 335 334 333 333 332 331 330 329 331 329 328 327 327 324 325 323 327 331 332 332 333 336 338
342 341 340 342 342 340 338 337 336 335 334 332 333 332 332 332 333 334 335 337 333 331 330 329 330 330 330 330 331 333 331 330 330 333 333 334 335 334 335 335 334 335 334 334 334 332 330 330 327 327 327 327 325 324 322 326 330 332 332 333 335 338
341 341 340 341 340 338 336 335 337 339 333 337 334 331 330 332 333 333 335 336 335 331 330 329 329 329 329 330 332 331 330 330 331 330 332 331 330 334 337 336 335 334 334 334 334 332 328 328 327 327 326 326 325 323 322 326 330 331 332 333 334 337
341 341 340 340 337 336 335 334 336 332 333 339 330 330 330 333 332 333 334 336 336 331 330 329 329 329 328 329 330 331 330 329 329 331 330 329 330 331 333 334 333 331 329 329 328 329 331 330 328 327 325 325 325 322 321 326 329 329 331 332 333 336
340 339 338 338 335 335 334 335 334 331 333 335 328 329 330 329 330 331 333 336 334 331 331 331 329 328 329 328 329 329 330 330 330 330 331 329 330 329 330 329 328 330 330 330 331 331 333 331 330 328 325 325 325 324 323 325 328 329 331 333 333 335
336 340 336 335 334 333 333 333 334 332 333 330 332 333 332 330 330 331 332 335 334 334 330 330 330 330 329 329 328 328 328 328 328 329 329 329 329 329 327 328 328 329 329 329 331 331 332 331 329 328 325 327 328 325 324 327 328 329 331 332 333 334
335 336 335 334 336 333 331 332 332 333 333 332 333 332 332 332 333 331 332 332 332 330 331 329 330 331 332 330 328 326 327 326 327 327 328 329 330 328 329 330 332 331 330 330 329 330 330 330 328 326 326 328 328 325 324 327 328 329 331 332 332 334
337 338 334 334 334 333 333 334 332 332 334 334 334 333 332 332 330 330 330 331 329 329 329 327 326 330 331 330 329 326 326 326 327 328 329 329 329 329 329 328 328 329 328 328 329 329 330 328 326 327 327 328 328 327 323 327 327 329 330 332 332 333
337 335 334 332 332 331 331 331 332 334 335 333 333 332 333 332 333 331 331 331 329 329 328 327 326 326 328 328 328 327 326 327 327 328 328 329 327 326 327 327 327 327 330 328 327 327 327 327 327 328 327 327 327 327 325 327 327 328 330 331 332 333
338 336 335 332 331 331 330 331 332 333 333 332 332 332 330 331 332 331 330 330 331 330 330 328 328 326 327 326 327 327 328 329 329 327 327 327 327 325 325 326 326 327 326 325 326 327 326 327 327 328 328 328 327 328 327 327 328 328 329 331 331 333
336 334 332 332 330 331 331 331 333 335 332 332 331 329 329 330 330 330 329 328 330 332 332 329 328 327 327 326 327 328 329 329 330 326 326 328 328 327 325 325 326 326 326 325 326 325 326 327 328 328 328 328 328 328 327 326 327 328 329 330 331 332
334 333 332 332 331 330 331 332 333 333 332 331 329 327 328 329 331 331 331 330 330 332 333 329 328 328 328 327 326 327 329 330 329 325 325 326 327 327 326 326 326 328 327 325 325 324 325 326 327 327 328 328 327 327 327 327 326 327 328 328 329 330
334 332 332 331 330 330 331 331 332 333 333 329 327 325 326 327 327 329 330 329 330 331 331 328 328 328 327 327 326 326 329 329 328 326 325 326 327 329 327 327 326 328 327 324 323 323 325 326 327 327 327 327 327 327 327 327 328 329 327 327 328 329
331 330 329 329 329 327 326 327 328 327 324 321 321 321 322 323 323 326 327 326 328 330 332 327 329 329 326 327 327 327 328 328 328 327 326 326 328 329 327 327 327 326 327 326 326 325 324 325 326 326 325 325 327 327 326 326 326 326 326 327 328 328
328 328 327 327 327 325 324 324 324 322 320 319 319 322 319 320 320 322 325 326 326 326 329 328 327 328 329 328 327 327 327 327 327 326 326 326 327 328 328 326 327 327 326 327 329 328 324 323 322 322 322 323 325 326 329 326 325 325 325 325 325 326
324 325 326 325 324 323 319 316 317 316 316 314 318 317 317 317 317 318 317 320 325 325 326 328 327 324 325 330 326 326 326 326 326 326 325 325 326 327 328 328 327 327 326 326 326 327 324 321 320 321 320 320 322 325 329 328 326 325 326 326 326 325
322 323 325 325 324 318 314 319 318 316 314 315 317 316 315 315 317 318 318 317 318 319 322 325 326 325 324 325 324 324 325 325 326 324 324 325 324 326 328 328 328 326 328 325 324 326 325 322 317 316 315 316 318 321 325 325 327 328 328 328 326 325
322 322 322 323 321 317 314 315 315 313 316 313 313 315 316 317 317 315 314 315 316 316 317 317 320 323 322 323 323 323 324 325 325 326 325 325 325 325 325 326 327 325 324 325 324 325 326 323 319 315 316 315 312 314 318 320 321 325 327 328 326 325
320 319 319 322 320 316 317 316 316 315 313 314 315 318 315 314 314 314 314 314 315 313 314 315 317 321 321 320 321 321 322 323 324 326 325 324 324 324 323 324 326 325 325 322 324 325 328 323 319 317 313 313 311 311 310 313 315 321 324 326 327 328
318 318 319 320 318 319 318 315 315 315 316 315 315 314 314 313 314 317 314 313 313 313 314 314 314 315 317 313 314 317 320 321 323 323 324 323 323 323 324 323 324 324 323 323 322 324 325 326 322 321 318 312 309 307 308 313 316 318 321 324 324 328
315 317 317 317 318 319 317 315 314 314 312 311 311 311 310 311 310 311 311 312 312 312 312 312 312 313 315 315 314 315 318 320 318 317 318 317 317 318 321 322 322 322 319 321 322 322 322 324 324 322 319 317 314 312 311 316 315 312 318 320 321 324
317 316 316 317 318 318 315 314 315 314 314 313 311 308 307 309 311 310 311 311 310 310 310 311 311 312 313 314 313 313 313 313 314 315 317 313 313 313 314 316 319 321 321 320 322 321 321 322 323 323 320 320 320 317 316 316 311 311 313 317 319 319
318 318 316 316 316 317 314 313 312 312 313 312 312 311 309 310 310 312 310 309 309 308 309 310 311 311 312 314 313 312 312 313 314 315 315 311 311 311 313 315 316 316 317 318 321 320 320 321 319 320 321 319 318 317 316 316 315 315 311 313 314 317
317 317 315 316 316 314 316 313 313 313 312 311 311 311 313 313 311 310 308 307 308 308 309 309 310 311 311 314 316 311 311 312 313 314 316 312 311 311 311 311 311 311 312 314 317 318 318 315 317 318 317 317 316 313 312 313 314 313 311 308 308 308
316 315 315 315 315 314 314 314 312 311 311 310 312 311 310 309 308 308 307 306 307 307 308 308 309 309 310 311 311 312 311 312 312 315 315 310 310 310 310 310 310 310 309 309 309 310 310 310 314 315 316 314 313 310 309 309 309 310 310 310 308 308
315 315 315 314 314 314 313 313 313 311 311 311 310 311 309 307 306 306 306 305 306 306 307 307 309 309 309 310 312 314 311 312 315 318 313 310 310 310 309 309 309 309 308 308 308 308 309 309 308 308 308 309 308 308 309 308 308 308 308 307 308 306
314 315 314 314 314 313 313 312 312 312 312 312 312 312 310 308 307 307 306 305 305 306 306 307 307 308 309 310 312 311 312 311 312 309 309 309 309 309 309 308 308 309 308 307 308 309 307 307 307 307 307 307 308 308 308 308 307 307 308 307 307 305
314 313 313 313 312 311 312 312 312 312 312 313 313 312 311 309 307 307 305 305 305 305 305 307 306 308 308 308 310 310 310 311 310 311 309 309 308 309 308 308 308 307 307 307 306 306 306 305 306 307 306 306 307 307 306 306 306 305 304 304 304 303
315 314 312 311 311 311 311 312 312 313 312 313 312 312 310 309 307 306 306 306 306 306 306 307 306 307 306 308 308 310 310 308 309 309 309 308 308 308 308 307 307 307 306 306 306 306 306 305 305 305 305 305 305 305 305 306 306 306 305 305 303 303
314 314 312 312 311 312 312 312 312 312 313 313 313 312 311 310 308 306 306 306 305 305 306 305 306 307 309 307 308 307 308 308 308 309 310 310 310 308 309 308 308 307 306 305 306 306 305 305 305 304 304 305 304 304 303 304 305 305 305 306 305 303
315 315 315 314 312 312 312 313 313 312 313 314 314 312 312 311 309 308 307 307 306 306 306 305 306 307 308 307 307 308 308 306 306 307 309 308 307 307 307 307 307 307 308 308 305 304 304 304 303 303 303 303 304 303 303 303 304 304 304 305 304 303
316 316 316 315 314 313 312 313 312 313 313 313 313 312 312 310 309 309 308 306 307 306 305 306 308 308 307 306 306 306 306 306 306 307 308 308 307 307 308 308 307 307 306 306 306 304 304 304 302 303 303 303 303 303 303 304 303 303 303 303 303 303

ECMWFFLT2_sfc_thetae_051.txt.gz
Theta_e
349 351 350 350 351 351 351 350 349 348 349 348 349 349 349 347 346 345 347 347 346 347 348 349 348 347 346 347 346 346 345 345 345 345 344 344 344 344 344 344 344 343 343 341 339 337 337 337 336 336 335 335 336 345 347 344 343 342 341 340 341 340
349 349 350 349 350 349 350 350 351 349 348 348 348 347 347 347 346 347 345 348 349 348 348 348 348 346 348 347 346 346 346 344 344 345 344 344 344 344 344 344 344 343 341 339 336 340 339 336 335 335 335 333 339 343 346 344 344 342 341 342 341 341
348 348 350 349 348 346 347 347 350 348 345 345 347 347 348 348 347 348 348 348 350 350 347 346 347 346 346 345 346 343 341 342 343 344 344 344 343 343 344 344 343 340 338 337 341 340 339 338 339 334 336 339 337 341 344 344 344 343 341 342 341 340
347 348 346 344 343 344 344 341 345 344 345 345 345 348 348 347 347 347 347 348 350 349 349 351 345 346 346 348 345 337 339 339 339 340 343 343 344 344 344 342 340 339 341 342 340 338 338 339 339 340 340 339 336 337 343 343 341 342 343 340 339 339
346 347 346 341 338 333 334 344 345 344 345 346 346 346 345 345 346 346 346 346 346 347 347 349 349 349 349 348 348 346 344 341 342 343 339 345 345 342 343 342 343 341 342 342 340 341 340 339 340 339 339 339 339 337 337 343 342 342 342 342 343 339
346 346 344 339 336 335 336 340 339 341 342 342 343 343 343 344 345 345 345 346 347 346 346 346 348 348 343 345 345 344 343 343 341 342 341 343 343 342 342 341 341 341 341 342 342 342 341 340 338 338 337 339 339 338 336 341 342 342 343 343 345 338
344 344 343 339 338 337 335 336 337 337 340 340 341 341 343 343 344 345 346 346 346 346 346 346 346 346 344 341 341 342 340 340 341 341 340 341 341 342 341 340 340 341 341 342 341 341 339 339 339 336 336 336 338 337 336 337 343 342 343 343 342 338
343 343 343 340 338 336 338 338 340 342 341 342 341 341 342 343 344 345 345 345 347 346 345 344 345 344 343 344 342 342 338 336 339 340 340 340 339 341 340 340 340 340 340 340 339 339 338 337 338 338 335 336 338 338 338 334 340 343 343 344 343 340
343 343 344 343 341 340 340 340 341 340 341 342 341 342 342 343 343 344 345 345 346 346 345 344 344 343 343 341 340 337 336 335 337 338 339 339 339 340 341 341 341 340 341 339 340 340 338 338 338 338 335 335 336 336 336 336 337 339 342 343 344 342
342 343 343 343 342 341 341 337 339 341 341 342 342 341 341 341 342 343 344 345 346 345 344 344 344 343 341 340 339 338 335 336 338 338 338 338 340 340 343 340 341 339 338 339 339 340 339 338 335 336 335 335 335 335 337 336 337 337 340 344 345 344
342 344 344 341 341 341 342 340 340 339 341 340 340 341 341 341 341 342 343 344 343 343 343 343 342 342 341 340 339 339 338 339 339 338 339 340 341 341 341 342 341 341 341 340 341 341 338 337 336 333 335 334 335 337 335 337 338 337 337 341 343 345
342 342 343 341 341 340 339 337 339 340 340 340 340 339 339 340 340 341 342 341 341 341 342 341 340 339 339 340 341 340 339 338 338 339 340 340 340 339 340 340 340 341 342 341 341 341 341 339 336 333 334 334 335 334 334 336 336 336 338 341 342 344
342 343 342 341 340 339 339 339 338 340 341 339 338 338 338 337 338 340 340 340 340 341 342 340 338 339 339 340 340 338 334 335 336 338 338 339 339 339 340 339 339 340 340 341 340 340 338 340 336 336 336 334 335 333 332 334 338 338 338 340 342 343
341 341 342 341 341 340 340 339 339 340 341 339 337 336 335 335 337 339 340 339 340 340 340 341 338 337 338 338 338 335 333 333 336 337 338 338 338 338 338 339 339 339 337 339 339 338 337 338 335 335 336 335 337 337 334 332 336 337 340 340 342 344
334 340 340 340 340 340 340 339 339 339 338 334 334 336 337 337 339 340 340 341 339 339 339 339 339 338 337 338 337 338 336 336 337 336 337 337 339 337 338 337 337 336 338 338 337 336 336 337 335 334 336 338 335 334 336 335 335 336 336 340 342 342
334 336 340 340 340 340 339 339 339 337 336 336 336 338 339 339 340 340 340 340 338 338 339 338 338 337 336 336 337 336 335 334 335 335 336 336 337 336 336 335 335 336 336 335 335 335 336 335 335 335 336 337 337 337 336 335 334 334 336 338 339 341
334 333 337 339 339 339 338 338 338 338 337 337 337 337 338 338 339 339 340 340 338 338 338 338 338 337 336 335 335 335 334 334 335 336 335 334 334 334 335 334 334 335 336 336 333 333 335 335 334 336 336 338 337 336 336 336 335 335 334 335 337 338
331 334 336 338 338 336 337 337 337 337 337 336 337 338 338 338 338 339 340 339 338 338 338 338 337 337 336 336 336 336 335 334 334 334 334 334 333 334 334 334 333 334 335 336 334 334 333 333 333 335 336 335 336 335 335 336 336 335 335 334 336 337
331 335 335 337 336 336 337 336 336 335 335 335 337 337 338 339 339 340 339 338 338 338 338 337 336 336 336 336 335 334 333 333 333 333 332 332 333 333 332 332 331 333 334 334 334 334 335 334 333 333 332 332 333 333 335 336 337 336 336 336 335 336
334 334 332 332 335 335 335 332 330 332 333 334 336 336 338 338 338 338 338 338 337 338 337 337 336 336 336 335 334 333 333 333 332 332 332 332 332 333 331 331 331 331 331 332 334 333 333 332 332 332 331 332 333 333 333 335 335 334 334 334 335 336
328 327 327 329 334 333 331 331 332 333 332 333 334 336 336 336 335 334 335 337 338 336 337 337 335 335 336 334 333 332 332 332 332 332 331 332 332 332 334 333 332 332 331 330 329 331 330 333 332 329 331 331 331 333 334 333 334 334 334 334 333 332
325 325 329 329 334 335 335 334 333 331 332 332 333 334 333 333 332 331 333 335 338 337 337 336 335 335 335 333 332 331 332 332 331 330 330 331 331 331 332 332 332 331 331 329 328 331 329 330 327 326 326 326 328 331 332 333 331 333 334 335 335 333
325 325 327 332 336 334 334 333 334 330 331 328 328 331 330 329 330 328 330 332 335 338 338 338 337 336 334 332 332 332 332 331 330 330 330 329 329 330 331 331 331 329 327 329 328 329 329 330 326 326 327 324 322 322 327 329 332 332 331 333 334 332
328 329 331 335 335 332 331 331 331 330 330 330 327 327 329 328 329 329 327 329 330 333 334 335 335 336 335 333 334 335 333 331 331 331 330 329 329 329 330 330 331 329 329 327 328 326 331 330 327 326 320 321 322 322 318 322 327 330 332 332 332 333
329 330 335 333 331 331 329 329 328 328 328 326 327 327 326 325 328 327 326 327 327 328 330 331 333 334 333 334 334 334 333 332 331 329 330 329 329 329 330 330 330 329 329 327 326 328 329 330 329 332 326 320 318 318 319 323 325 327 331 333 331 332
332 331 331 331 331 331 331 329 328 327 325 325 323 324 324 323 324 325 323 325 325 326 327 329 329 330 331 332 334 333 331 332 332 331 330 329 328 328 329 330 329 329 329 330 329 326 325 328 329 328 329 328 325 319 322 323 323 319 327 330 330 329
331 330 329 329 331 331 332 332 332 331 329 327 324 324 324 326 326 323 324 324 323 325 324 327 327 328 330 331 332 332 331 330 329 330 329 331 330 330 329 329 329 330 329 330 329 325 325 326 328 328 328 328 327 326 326 322 320 322 319 323 323 323
328 327 328 329 330 332 331 330 330 329 329 327 326 323 324 324 325 323 322 322 323 323 324 325 326 326 329 330 330 329 329 328 327 326 326 327 328 329 331 330 330 329 328 329 329 327 327 327 325 326 329 328 327 325 325 323 325 323 321 316 316 320
327 327 327 328 329 330 330 329 328 327 325 325 325 324 324 323 322 323 322 322 323 322 323 325 325 327 327 327 327 326 327 326 326 326 325 325 327 328 330 331 330 330 329 327 328 327 328 327 328 327 325 326 325 323 322 323 325 326 323 317 315 317
326 326 327 328 328 328 328 328 327 327 325 324 325 324 324 322 321 323 321 322 323 323 323 324 325 325 325 325 326 327 326 326 327 325 324 325 326 326 326 325 325 326 327 326 327 328 327 326 327 326 326 325 322 320 319 319 320 321 321 321 314 311
324 324 325 325 325 325 326 328 327 327 327 325 325 324 322 321 320 322 321 321 322 321 323 324 324 325 325 325 327 327 327 326 326 326 324 323 324 322 323 324 324 324 325 326 325 325 323 323 323 322 321 320 318 318 318 316 318 320 318 316 313 313
322 322 322 323 324 323 323 325 327 327 327 326 325 324 324 322 321 321 321 320 320 321 321 322 324 324 325 326 327 326 327 326 325 326 324 324 324 322 323 323 323 323 322 322 323 322 323 322 322 320 321 320 319 319 318 315 315 320 320 317 316 313
321 323 323 323 323 322 323 323 323 325 326 326 326 326 325 323 323 321 320 320 320 319 320 320 322 323 324 326 327 325 325 324 324 325 324 323 323 323 324 322 322 322 322 322 322 323 320 322 322 319 317 318 317 316 315 317 317 317 320 320 317 312
320 323 323 323 322 322 323 323 324 324 325 326 326 326 325 323 323 322 322 321 321 320 320 322 322 323 323 324 326 327 326 325 324 324 323 323 323 323 324 320 321 321 321 321 322 322 320 320 319 319 319 315 315 314 315 317 317 316 316 317 315 313
318 320 321 321 321 322 322 323 323 324 325 326 326 325 325 325 323 322 322 322 322 322 321 322 322 323 322 325 325 326 325 324 324 324 323 323 322 323 324 320 320 322 321 321 321 320 319 319 317 317 318 315 315 314 314 313 314 314 313 317 317 316
320 321 321 320 321 322 322 323 323 323 323 324 323 324 322 321 323 323 323 322 321 323 323 322 322 322 323 324 325 325 324 324 324 324 323 322 322 321 323 321 320 321 319 319 320 319 317 318 318 317 316 317 314 313 315 314 314 313 312 315 316 317
320 321 321 323 323 322 322 323 322 323 323 323 322 322 321 321 320 321 323 323 322 322 323 323 322 324 323 323 325 324 323 323 324 324 323 321 321 321 322 321 320 319 318 319 318 316 317 315 316 317 316 317 314 313 314 316 314 314 315 315 314 315

ECMWFFLT2_sfc_thetae_054.txt.gz
Theta_e
348 348 346 348 349 345 347 343 341 339 337 343 346 347 348 348 347 347 348 348 347 347 346 349 347 346 346 348 345 346 345 345 344 344 344 344 344 344 344 344 344 343 341 339 338 336 337 338 337 337 336 337 339 346 345 343 344 344 344 341 343 342
348 345 347 349 345 344 343 342 341 340 344 345 347 347 347 346 346 345 347 348 348 347 347 346 347 346 346 347 346 345 345 344 345 345 344 344 344 344 344 344 343 341 339 339 336 342 339 339 336 338 336 337 343 345 346 345 345 343 343 343 343 341
345 347 348 347 345 345 340 339 340 341 345 341 346 347 347 346 347 346 346 348 350 347 343 346 346 342 344 344 346 344 344 344 345 345 344 344 344 344 344 343 341 339 340 337 343 339 339 338 338 338 339 344 345 343 344 344 344 343 342 344 342 342
346 346 347 344 344 342 339 342 345 347 345 345 345 350 348 346 347 345 343 349 351 349 348 342 342 344 343 346 343 341 341 342 343 344 344 345 345 345 343 341 340 339 339 342 340 336 337 337 338 341 342 341 340 342 344 344 340 343 343 340 340 342
347 345 343 345 345 345 345 344 342 345 348 346 347 345 346 346 347 349 349 349 349 350 349 344 347 346 345 343 343 344 342 345 344 346 344 347 340 341 342 338 340 342 340 337 335 337 338 338 340 339 340 340 341 342 342 342 340 342 343 343 343 342
346 346 346 346 344 344 344 345 343 343 347 348 347 349 351 347 348 348 347 346 349 348 348 339 339 340 339 342 341 343 346 347 346 345 345 345 344 342 343 340 339 339 338 338 337 337 338 338 338 336 337 339 340 341 340 342 342 340 344 344 344 342
347 345 343 344 345 344 345 346 345 344 344 348 349 349 348 348 347 346 346 343 342 342 339 335 339 344 343 346 344 344 345 346 345 344 347 346 346 346 343 340 338 342 341 338 336 337 337 337 337 335 336 336 337 338 339 340 341 341 342 344 344 341
344 346 344 344 343 344 347 348 345 345 345 347 347 346 345 346 346 346 343 344 344 344 339 338 339 342 344 343 342 345 346 345 345 344 347 347 345 344 343 342 342 342 340 340 338 337 336 335 335 337 335 335 336 338 339 337 340 343 343 344 344 342
342 344 345 345 344 345 347 347 346 344 344 345 344 344 343 345 346 348 349 344 344 341 342 339 338 338 342 340 343 346 345 345 345 345 346 345 346 345 345 342 344 342 342 341 338 338 335 336 337 337 335 334 335 335 337 338 338 339 341 344 342 343
345 345 345 346 345 345 345 347 346 344 345 345 344 345 345 345 348 347 347 348 347 344 345 341 342 342 341 339 342 346 346 345 344 344 345 345 345 345 345 342 344 343 340 341 339 340 337 338 334 336 333 334 333 335 337 335 337 336 339 343 343 344
343 343 346 345 345 343 343 344 344 345 346 344 345 344 345 347 347 347 347 346 344 344 342 344 342 342 344 341 343 345 344 344 344 344 346 345 347 346 346 344 344 343 343 341 343 342 338 339 337 334 334 332 333 337 336 337 336 336 336 339 343 344
342 346 345 344 344 342 342 343 343 345 345 345 345 344 346 347 346 345 346 345 345 344 344 344 343 343 342 341 342 344 342 343 344 346 346 345 345 344 344 344 345 345 345 343 340 344 342 340 338 334 334 333 334 333 334 336 335 336 336 339 340 344
342 346 345 343 342 341 344 341 340 342 345 345 345 346 345 346 345 344 344 344 345 345 345 343 343 343 343 343 341 344 342 343 345 346 346 345 344 345 344 344 344 345 344 344 343 343 340 342 339 337 337 334 335 333 333 334 335 336 335 336 338 340
343 341 342 342 344 344 341 342 342 343 344 344 345 344 344 345 343 343 344 344 344 344 343 343 342 342 342 337 340 342 342 341 342 345 345 345 343 343 341 341 342 342 340 341 342 342 340 338 337 338 338 336 335 338 335 332 335 335 337 338 338 342
344 344 343 342 344 342 338 338 340 340 343 345 345 344 343 344 343 344 344 343 343 342 342 342 340 342 340 337 341 342 341 341 343 344 343 343 343 342 341 340 339 334 339 341 340 340 339 339 338 336 338 341 336 335 336 333 335 335 334 339 341 341
343 343 344 343 341 338 342 339 340 340 344 345 344 343 343 344 343 343 342 342 341 341 341 341 340 340 340 338 337 339 340 339 340 341 341 342 341 339 340 339 340 340 337 336 337 339 340 339 338 337 338 339 337 336 335 332 335 333 336 338 338 344
342 342 340 342 341 338 340 342 342 343 344 345 344 345 344 344 343 344 343 341 342 342 341 341 340 340 340 339 337 335 339 340 340 339 338 338 339 339 338 338 338 340 339 336 335 336 338 339 338 338 338 340 339 338 337 337 337 338 335 335 337 339
340 340 343 341 334 333 333 336 341 342 343 343 344 342 341 341 342 345 345 342 343 342 341 341 341 340 339 339 337 334 335 338 339 339 337 337 337 340 339 338 336 339 339 338 335 335 336 338 337 338 338 339 339 338 337 338 339 339 336 334 336 336
337 336 335 332 328 328 330 335 340 340 341 339 340 340 339 339 338 341 343 344 343 342 341 342 341 341 340 337 336 335 335 339 340 339 338 337 335 338 339 338 336 336 340 339 337 338 339 339 338 338 337 338 338 337 338 339 339 339 338 336 337 337
336 332 331 329 328 329 329 330 335 335 335 334 336 336 339 337 338 336 339 339 341 344 342 343 343 343 341 340 339 338 338 338 337 338 336 334 333 334 334 334 334 335 335 337 338 338 339 339 338 338 335 338 339 339 338 337 338 337 337 338 339 342
332 333 331 328 327 326 326 326 333 334 333 335 334 335 335 336 335 334 336 335 337 337 338 338 339 342 342 339 340 340 340 338 337 337 336 335 337 336 336 336 335 337 334 333 335 338 338 339 334 332 333 334 335 339 338 336 336 336 335 336 338 337
328 329 328 330 329 327 326 331 334 332 332 332 332 332 332 334 335 336 337 336 337 337 337 337 337 338 336 334 334 333 336 336 337 338 338 337 337 336 338 336 334 333 337 334 333 336 338 337 331 326 323 326 329 334 336 336 335 333 335 335 335 334
331 332 330 330 330 329 329 332 334 333 332 331 334 335 333 334 335 332 335 334 336 336 334 334 335 335 334 332 331 331 332 333 334 334 333 333 334 334 337 337 335 333 333 336 335 338 338 336 328 331 331 328 322 322 327 332 335 335 335 336 337 335
335 337 334 332 332 334 335 337 339 337 335 334 333 336 336 335 334 332 332 334 334 334 333 332 332 331 330 332 333 332 333 332 333 334 332 331 332 332 334 337 337 336 335 332 332 334 337 337 334 331 323 323 322 323 320 321 326 332 336 336 334 333
335 334 335 336 338 340 338 338 338 338 338 336 335 333 331 330 331 331 331 331 331 332 332 331 332 331 331 332 332 332 332 333 333 333 332 330 330 331 331 331 332 332 332 331 329 332 335 337 335 335 329 324 322 319 320 322 326 326 330 329 332 334
331 332 336 337 339 338 337 334 333 332 329 329 328 328 326 326 327 327 325 330 330 331 331 331 331 331 330 331 331 332 332 330 332 330 330 330 330 331 332 332 333 332 333 333 333 331 332 334 335 335 335 332 330 323 320 325 323 316 326 329 329 329
325 328 333 333 339 337 336 334 335 333 332 330 328 329 331 331 329 327 329 329 329 332 330 330 331 330 330 330 331 331 332 330 329 330 330 330 329 330 331 333 333 334 331 334 334 329 332 332 333 334 334 335 334 333 332 327 320 322 316 322 327 328
329 331 333 332 336 337 335 335 335 333 331 329 328 329 331 331 331 329 327 328 329 329 329 328 328 328 329 329 331 330 330 329 327 326 326 326 327 329 331 332 333 334 333 333 334 332 330 332 329 330 334 333 332 332 333 332 330 324 319 317 318 324
329 330 333 331 337 337 335 335 334 333 331 330 330 330 329 329 327 329 327 328 328 326 327 329 328 327 328 327 328 328 328 326 325 324 324 324 327 329 330 329 329 329 330 331 332 333 333 331 330 329 330 328 329 329 329 331 333 330 322 320 319 320
332 331 331 335 338 337 335 334 333 333 332 329 330 329 328 326 326 327 326 327 326 325 324 325 327 326 325 325 327 327 325 325 326 325 326 328 328 328 328 327 328 328 330 330 330 331 330 330 330 330 327 327 325 324 324 327 328 328 328 327 320 319
332 331 330 335 339 337 335 334 333 334 332 330 330 329 326 326 324 325 325 325 325 325 325 323 324 325 326 326 326 326 325 325 327 328 325 325 325 324 325 326 327 328 329 328 327 329 329 329 327 326 325 324 321 321 321 320 324 327 326 323 320 318
327 325 324 326 329 333 334 333 334 335 332 332 331 328 326 325 325 324 325 324 323 323 324 323 323 322 325 326 326 325 327 326 326 327 325 326 325 324 325 325 325 326 326 327 328 327 327 325 324 323 323 322 320 321 320 320 321 323 323 323 321 317
326 325 327 325 326 329 331 332 332 333 333 332 331 329 327 325 326 324 323 322 321 321 321 321 321 322 325 325 324 325 324 323 324 326 326 324 325 325 324 323 323 324 325 324 324 325 323 324 324 321 319 320 318 317 316 318 321 322 323 323 321 316
325 328 328 326 324 325 328 331 332 333 333 331 331 330 328 327 326 324 324 322 322 320 320 322 323 322 324 325 324 323 323 324 323 324 324 325 325 325 324 320 322 322 323 324 324 324 322 323 323 322 321 317 317 315 316 318 319 322 322 320 317 317
325 325 327 328 326 323 325 329 331 332 332 333 331 330 328 327 327 325 323 322 322 322 322 322 322 324 326 326 325 325 325 323 323 324 324 325 323 324 323 319 320 322 322 322 322 322 321 322 320 320 320 318 317 317 316 314 316 318 320 322 320 319
326 325 326 327 325 324 325 327 329 331 332 332 331 331 328 327 327 327 325 323 323 324 323 323 324 325 326 325 325 325 325 324 324 323 323 323 322 322 323 321 319 321 319 318 320 320 320 320 320 321 320 319 317 315 317 315 315 316 317 322 322 321
327 327 326 325 326 326 326 327 329 331 333 333 332 331 329 329 329 328 326 324 323 325 326 325 325 326 326 327 326 326 324 325 325 324 323 323 322 323 322 321 321 320 319 319 319 317 318 319 320 319 319 318 316 315 316 318 317 317 319 320 321 321

ECMWFFLT2_sfc_thetae_057.txt.gz
Theta_e
347 348 349 343 342 344 342 341 342 338 338 340 341 343 345 346 347 347 347 348 346 344 345 345 345 345 346 345 346 345 345 344 343 343 343 342 343 342 342 343 343 342 340 339 339 338 340 340 340 339 339 340 345 345 345 342 343 342 339 337 341 339
344 346 348 344 341 343 343 343 342 340 341 344 341 343 345 347 345 347 345 344 341 342 345 344 345 345 344 346 345 345 345 344 343 343 343 343 343 342 343 343 343 342 340 339 338 337 338 343 340 341 340 340 343 342 342 343 343 340 341 339 340 342
343 343 347 345 344 344 344 343 341 340 343 341 344 348 348 346 345 343 340 340 341 344 344 344 345 344 343 344 345 345 344 344 344 344 343 344 343 343 343 343 343 342 339 338 340 338 338 335 336 340 339 339 341 340 344 343 340 342 340 340 339 343
344 343 346 346 341 344 346 344 343 344 343 343 345 348 346 346 347 341 337 337 343 344 344 348 345 345 345 344 345 345 343 344 344 344 344 344 344 344 344 343 341 340 341 338 336 337 337 339 337 337 340 340 339 341 344 343 338 339 342 339 339 344
344 343 344 346 345 346 346 345 345 346 347 346 345 347 349 347 343 340 341 341 341 343 344 344 345 344 343 343 342 343 344 343 345 343 344 342 343 341 344 339 337 338 335 336 336 338 339 339 340 337 337 338 340 341 342 344 339 340 341 341 341 343
346 347 345 347 347 344 344 343 343 347 346 346 345 345 346 342 345 341 338 339 340 341 343 344 345 345 344 344 341 343 341 345 341 340 342 344 339 339 339 337 334 333 335 337 338 340 338 339 336 335 338 338 339 340 339 338 338 341 342 342 341 342
342 343 345 342 344 348 343 344 344 345 342 343 345 341 341 344 345 344 338 339 341 342 341 342 343 344 343 343 343 342 344 341 342 341 341 344 341 342 337 339 338 337 338 338 336 338 337 336 338 335 335 335 336 336 338 337 339 337 342 342 341 342
345 346 345 346 345 342 343 340 346 345 345 345 343 340 345 343 344 345 342 342 345 345 340 341 343 342 343 343 342 341 341 340 341 340 343 343 341 340 342 340 339 338 338 337 336 338 336 336 334 336 335 334 334 336 338 336 340 342 341 343 340 343
346 344 345 346 344 344 340 340 344 342 341 342 342 343 343 341 345 346 347 340 343 343 342 343 342 343 345 343 343 341 343 341 341 340 343 340 344 339 340 339 340 338 339 340 339 339 336 336 338 335 335 333 334 333 335 337 340 339 342 343 341 341
345 343 344 345 342 343 343 344 339 340 346 343 344 345 346 345 346 346 344 343 343 343 343 342 342 344 343 342 342 340 339 338 337 339 342 339 343 340 339 340 341 338 341 340 337 338 336 337 335 335 332 333 331 334 336 335 335 335 338 342 342 342
344 344 343 339 339 338 341 338 343 345 343 345 345 344 345 346 344 341 344 340 339 339 338 340 342 341 342 341 340 341 340 341 342 339 342 344 342 340 343 347 342 337 341 343 338 341 340 337 339 332 332 331 332 335 335 335 334 334 336 340 343 342
345 344 340 340 339 338 340 346 344 345 344 344 347 345 344 344 342 339 340 341 338 337 337 339 340 340 338 339 338 340 339 340 341 340 341 340 338 337 341 336 337 337 338 340 341 340 343 337 335 334 331 332 332 332 333 334 334 334 334 341 341 343
343 343 342 344 342 338 342 342 344 344 348 344 345 345 342 342 341 340 343 343 338 339 337 339 339 336 337 341 340 339 341 340 337 340 340 338 337 338 335 339 336 338 337 337 339 339 337 337 334 335 334 334 334 331 332 333 332 336 334 339 338 339
339 341 340 341 342 342 344 343 344 344 344 345 343 341 341 343 344 344 345 343 345 339 339 340 335 336 338 337 340 340 339 339 338 339 339 340 339 337 337 337 337 336 335 337 336 336 336 334 337 338 338 335 336 337 333 333 334 333 334 335 343 340
342 339 339 340 337 342 342 344 343 343 345 345 344 342 341 343 342 342 344 344 343 341 338 337 338 340 338 340 342 341 338 338 338 337 337 338 338 337 335 334 334 333 335 337 336 335 334 335 336 335 336 338 335 333 335 333 334 336 334 335 345 340
338 337 337 340 342 342 343 343 341 341 345 343 341 339 343 343 342 343 342 343 343 339 340 341 341 342 343 341 338 338 340 338 338 340 340 340 340 337 335 334 332 335 335 335 335 333 336 332 332 335 336 338 338 336 336 333 334 332 332 337 335 339
336 337 340 341 341 341 341 341 342 341 341 343 340 341 340 342 341 342 339 341 341 341 339 340 342 342 342 342 339 337 339 341 340 337 340 341 340 336 337 334 335 334 336 335 335 333 332 333 332 336 337 338 338 337 337 337 336 337 335 336 336 338
337 338 342 341 341 340 340 340 341 341 338 338 340 342 342 343 342 342 341 341 342 342 342 339 340 341 341 341 340 340 342 343 341 339 339 336 337 338 336 336 334 335 335 335 334 335 332 333 330 332 335 337 338 339 338 339 338 337 335 334 336 335
338 337 338 338 338 339 340 340 339 340 337 336 338 339 338 336 339 343 341 343 342 343 342 342 341 341 341 340 340 341 341 342 340 337 339 336 337 336 333 335 336 336 336 335 335 335 333 331 331 330 333 333 334 336 339 338 337 337 340 338 337 335
339 338 338 338 338 337 338 338 338 339 337 336 335 334 337 334 336 336 338 343 342 342 342 342 341 342 341 339 340 340 341 341 339 338 337 336 334 335 335 336 335 336 335 335 337 336 337 335 334 332 333 334 334 334 335 336 337 336 338 339 339 338
337 337 335 335 335 336 336 336 338 336 333 333 332 334 334 334 335 335 335 334 335 336 340 342 341 341 339 338 337 338 340 340 339 338 337 335 335 335 337 338 335 337 336 333 334 336 336 337 333 332 332 333 333 336 334 334 333 336 335 335 337 337
337 337 336 337 336 337 340 338 336 335 332 331 330 330 331 333 334 335 335 335 335 335 335 335 335 336 335 334 334 335 336 338 336 336 336 338 338 336 337 336 335 333 335 333 332 335 336 335 331 327 326 327 333 331 332 331 331 332 334 336 337 335
336 335 336 337 336 338 341 340 337 333 330 329 331 333 332 332 333 331 335 335 335 335 334 333 334 333 333 332 333 333 333 332 333 333 332 332 334 336 337 337 336 331 331 334 333 335 334 333 330 330 328 325 324 324 327 329 329 331 333 335 335 334
336 337 337 339 339 342 342 342 338 336 334 333 331 332 334 332 331 330 331 333 334 334 332 332 330 328 331 333 333 332 332 332 333 333 332 330 330 330 336 336 336 334 332 329 328 331 335 335 331 328 319 319 321 321 318 319 327 330 333 331 332 333
337 338 338 339 341 342 341 339 337 336 335 334 333 331 329 327 330 330 330 331 331 332 331 331 331 331 331 332 333 333 332 333 332 332 332 329 329 330 329 329 332 332 333 330 327 331 333 335 334 336 327 323 319 318 319 322 323 325 330 331 331 331
338 336 338 340 341 339 337 335 333 330 328 327 326 327 325 325 325 328 327 331 331 331 331 331 330 330 330 331 332 332 333 331 331 330 331 329 330 331 332 331 331 330 332 333 331 328 330 333 334 334 332 331 326 319 318 322 322 316 326 331 329 329
334 336 338 340 340 338 336 334 333 330 329 327 326 327 329 330 329 326 329 330 330 332 330 330 331 330 331 331 332 332 331 331 330 330 330 330 330 330 330 331 332 333 331 332 332 328 328 330 331 331 332 333 332 333 330 325 320 322 318 322 329 328
332 336 337 339 340 338 334 333 332 330 329 327 327 329 330 329 330 329 327 328 328 328 329 329 330 329 330 330 331 330 330 330 327 328 327 327 329 329 330 331 332 332 331 333 333 331 328 328 325 326 332 331 332 333 331 328 327 324 319 316 320 326
333 337 337 337 337 334 329 329 332 330 327 328 329 329 329 328 327 329 328 327 327 327 329 329 328 328 327 326 327 327 327 325 325 324 325 327 329 328 328 329 329 329 329 329 330 331 331 329 328 326 328 329 329 327 328 328 328 328 323 319 318 319
333 336 336 334 334 333 331 328 325 331 326 326 328 327 326 326 327 328 327 326 325 325 325 326 327 325 326 325 325 325 325 327 329 327 327 327 326 326 326 327 328 330 330 329 329 329 328 327 327 327 325 325 324 323 323 324 325 325 324 324 317 317
325 330 333 332 335 334 331 327 326 329 327 327 327 327 325 325 325 326 324 325 325 324 324 322 323 326 325 325 326 325 326 327 329 327 324 323 324 323 325 327 327 328 328 327 326 327 326 326 325 323 322 321 319 320 320 319 321 323 321 320 321 318
327 328 332 332 334 332 330 328 328 331 328 329 328 326 325 324 324 324 325 324 324 323 322 322 323 324 324 324 325 325 326 327 325 326 325 325 324 324 325 325 325 326 326 326 327 325 325 323 324 320 321 319 318 318 318 318 320 322 323 323 320 318
327 329 331 332 333 332 332 331 331 331 330 329 328 326 325 325 325 324 324 323 322 320 320 320 321 322 323 325 324 324 324 324 325 325 324 322 323 322 323 323 323 323 323 322 321 322 320 322 322 319 318 318 316 315 316 319 323 321 324 325 320 316
330 331 333 333 332 332 333 333 331 329 329 329 328 327 325 325 325 324 323 322 322 320 320 321 321 322 323 323 323 324 324 323 323 324 325 326 325 323 322 319 322 322 322 323 323 323 321 322 321 321 320 317 317 316 316 318 321 322 321 320 317 316
329 330 332 334 334 334 332 331 330 329 329 330 328 326 325 326 326 324 323 323 323 322 321 321 322 324 323 323 323 323 323 323 323 324 323 324 323 322 321 318 319 320 320 321 320 320 321 322 320 319 321 318 317 316 316 314 316 320 321 321 319 318
329 329 331 333 333 334 332 332 332 331 330 330 329 328 326 326 325 325 324 323 323 324 323 322 324 324 324 324 323 322 322 323 323 324 323 322 322 321 322 320 319 320 319 319 321 320 320 321 320 321 320 318 317 315 317 317 317 317 320 322 321 320
330 330 330 332 332 332 332 331 330 331 331 329 329 327 325 327 326 326 326 325 324 324 325 324 324 325 324 324 325 324 323 323 324 324 323 322 322 322 322 321 320 319 319 319 320 319 320 320 320 320 319 319 316 316 316 318 318 319 320 322 322 321

ECMWFFLT2_sfc_thetae_060.txt.gz
Theta_e
346 345 345 345 344 342 341 344 343 343 344 342 341 341 343 340 337 338 343 346 346 346 346 346 345 344 347 344 346 345 344 344 343 342 342 342 342 342 342 342 342 340 340 340 338 339 339 339 341 341 340 341 344 342 342 341 343 337 339 338 338 338
346 345 344 344 343 341 341 341 342 343 342 343 342 341 343 341 342 342 343 344 344 348 346 345 345 346 344 345 344 345 344 343 343 342 342 342 342 341 342 342 342 342 339 340 340 338 336 341 342 341 341 341 340 339 339 341 345 336 337 338 339 341
344 343 342 342 342 341 341 342 342 343 342 343 343 341 340 341 339 340 342 343 345 346 348 348 344 345 345 344 344 344 343 343 343 342 342 342 342 341 342 342 342 342 341 341 339 334 333 332 337 342 342 340 336 338 339 343 340 340 337 337 338 343
344 343 342 341 341 341 342 342 341 342 342 343 343 341 338 336 339 339 340 342 343 345 346 349 344 345 345 344 344 345 344 344 343 343 342 342 342 342 342 342 343 342 342 336 332 332 333 333 334 336 335 335 336 337 339 341 337 337 337 340 340 345
343 343 342 342 341 341 342 341 340 341 342 343 340 339 338 336 339 339 340 342 343 345 345 347 345 344 342 342 342 342 342 342 342 341 343 340 341 340 341 339 340 340 334 333 331 332 335 341 337 333 335 337 337 338 343 341 340 338 337 338 341 344
342 342 343 342 342 343 344 341 340 342 344 341 338 337 338 338 339 341 341 341 343 342 343 346 344 343 342 342 341 341 341 342 341 341 342 341 341 342 339 339 339 335 333 332 333 342 335 342 338 337 335 335 337 341 339 339 338 340 337 339 342 344
341 342 342 343 345 343 343 343 343 343 341 338 338 335 336 336 337 339 339 340 340 341 343 344 343 343 342 344 341 342 343 344 343 343 344 342 341 339 338 334 334 334 334 334 335 334 336 337 339 334 332 335 337 336 341 335 339 339 338 338 343 345
341 341 340 342 341 341 342 342 342 340 341 340 337 335 337 338 337 336 338 340 344 341 340 341 341 342 341 342 342 341 343 342 342 341 343 341 336 335 335 337 336 335 337 335 334 336 336 333 333 333 333 334 333 334 335 336 337 344 338 337 341 344
343 340 338 342 341 342 341 340 340 337 338 340 338 336 335 336 337 337 339 342 342 342 340 341 340 340 341 342 343 341 342 341 341 340 341 338 336 335 333 335 336 337 338 338 339 336 338 338 337 332 332 332 332 329 335 335 335 340 340 336 338 342
343 336 338 340 341 342 341 341 340 340 341 339 337 336 336 336 337 339 340 341 343 344 343 341 342 344 341 340 341 341 340 339 339 340 340 336 337 336 336 337 338 338 338 338 339 339 341 339 338 334 331 332 330 330 332 333 335 336 340 337 336 341
339 338 340 338 338 339 340 340 340 340 336 333 338 339 338 338 340 342 341 343 343 342 342 343 342 342 341 340 339 339 340 338 339 337 337 337 339 338 337 335 335 335 336 337 340 341 341 339 337 336 335 334 332 330 330 332 333 335 337 338 337 338
339 340 338 337 338 338 338 339 339 338 335 337 338 339 338 339 340 341 341 341 340 339 339 340 341 342 341 340 339 339 337 339 338 338 338 338 338 336 337 337 336 337 338 338 339 340 339 337 336 336 337 335 335 331 335 334 330 336 337 339 337 336
339 340 338 338 338 339 339 338 338 337 337 337 337 338 338 339 340 340 341 340 339 338 338 338 341 340 341 340 339 337 336 336 337 338 338 339 338 337 336 338 336 336 337 338 338 337 337 337 335 336 337 337 336 334 333 330 331 335 337 339 338 336
341 341 340 339 339 339 340 338 338 339 338 338 336 336 337 337 339 340 338 338 338 338 337 339 338 338 340 340 337 337 336 336 337 339 340 338 336 338 337 338 337 337 336 336 335 334 335 334 336 337 335 339 337 334 334 334 332 334 339 337 340 338
339 339 342 341 341 341 342 340 339 337 336 335 335 335 336 335 339 340 340 340 337 337 338 339 338 340 341 338 333 333 335 336 336 338 338 339 339 338 337 336 335 334 336 335 336 335 334 333 334 332 333 335 335 334 336 333 333 337 337 336 340 340
338 339 340 341 343 342 342 343 341 339 337 337 338 335 334 338 338 340 337 336 335 336 338 339 339 340 341 338 335 333 336 337 337 338 337 339 338 336 336 335 334 335 334 335 335 335 334 333 333 333 334 335 337 336 335 332 334 335 335 336 335 336
337 337 339 341 342 341 342 342 342 343 342 342 340 340 337 339 338 337 335 337 338 339 338 339 340 340 340 336 335 336 337 339 339 339 339 339 339 338 336 334 334 334 335 334 332 333 333 332 332 332 334 333 334 335 334 336 337 337 334 335 336 337
337 339 340 340 340 340 340 341 340 340 343 341 342 340 342 340 338 339 338 338 339 340 341 340 340 338 341 341 336 338 337 339 340 339 339 338 337 337 337 337 335 334 334 334 333 333 332 332 331 330 329 332 334 336 337 335 338 336 334 333 334 337
338 341 341 340 339 339 339 339 340 340 341 341 343 342 338 336 339 342 341 340 340 340 340 340 340 340 340 341 337 337 340 337 338 339 339 337 336 336 336 336 335 335 336 335 335 334 332 331 330 330 331 332 332 335 336 336 337 336 332 330 334 335
338 339 338 337 338 337 337 337 336 337 336 339 336 335 336 335 338 339 340 339 339 346 339 341 339 340 341 341 339 339 338 338 338 337 336 333 334 334 334 334 335 335 334 334 336 334 333 331 331 330 330 332 334 335 336 335 332 334 333 332 332 334
337 337 336 336 336 336 335 336 335 334 334 336 332 336 335 334 334 336 335 336 337 343 340 340 339 339 339 337 335 340 337 339 338 337 338 336 337 336 337 337 336 336 334 332 331 334 333 332 328 327 329 330 331 335 335 333 332 333 333 333 333 332
338 339 338 338 337 339 339 337 335 333 331 329 330 330 330 333 334 334 335 336 337 335 336 337 337 341 337 335 335 335 338 337 338 335 336 338 338 336 336 337 336 335 335 332 331 332 334 331 326 323 322 323 327 329 332 331 330 331 332 333 331 330
333 335 336 339 340 339 342 340 340 336 332 329 333 333 330 332 334 332 335 335 339 337 335 333 337 335 336 335 335 335 334 335 336 335 334 334 335 336 338 336 335 333 329 332 333 335 334 334 326 327 326 321 319 318 325 329 330 330 331 332 330 328
333 336 337 338 340 341 342 342 340 337 335 332 330 332 332 332 331 331 332 335 338 342 337 335 331 329 331 334 336 335 335 335 335 341 336 334 332 331 335 336 335 333 334 326 328 330 332 333 329 327 318 319 319 319 314 317 322 326 329 329 330 328
333 333 335 338 340 340 339 337 335 334 333 332 333 330 328 329 329 329 331 333 334 337 333 331 330 331 331 333 335 336 334 334 335 335 338 334 330 330 332 331 332 332 332 330 326 328 329 331 330 332 326 321 316 315 315 319 322 322 327 326 328 329
332 333 332 336 339 338 335 333 332 330 328 328 325 328 327 325 327 329 326 334 333 331 331 336 332 331 330 332 334 337 336 331 334 334 333 330 331 332 330 330 330 332 330 333 330 325 326 331 331 333 332 329 326 319 317 320 320 313 323 326 326 327
330 330 334 336 336 337 335 334 333 330 328 327 327 330 331 334 328 328 333 331 332 336 331 330 331 332 331 332 335 336 336 334 329 331 331 332 332 330 329 330 332 330 329 331 329 326 325 327 331 329 330 330 330 328 328 322 316 319 314 320 325 325
331 334 336 338 338 340 333 334 332 330 330 330 331 328 330 330 332 330 330 330 331 333 331 332 332 329 331 331 332 330 332 329 333 329 329 328 328 330 330 331 332 332 331 330 329 327 326 328 325 325 329 326 327 329 328 328 326 321 317 313 316 320
335 335 337 338 334 334 336 338 336 331 330 330 330 329 327 327 328 329 329 332 331 327 329 330 327 327 326 325 326 328 331 331 329 332 327 328 327 326 328 330 331 330 328 329 330 329 326 327 327 324 326 326 326 326 327 327 326 325 318 315 315 315
334 335 336 336 335 335 335 335 333 333 329 328 328 327 327 328 328 332 328 327 328 329 329 331 330 328 328 325 328 330 329 331 330 326 324 322 323 326 328 328 329 329 329 328 329 328 327 326 324 326 326 326 323 323 322 323 324 321 321 321 314 314
334 334 334 334 334 334 335 335 334 333 328 327 328 327 325 326 328 328 324 325 327 327 326 326 329 327 326 327 329 330 329 325 326 327 322 321 325 326 329 329 328 327 326 326 325 324 323 325 323 321 321 319 316 319 321 321 320 322 320 318 316 315
333 332 333 334 334 333 332 334 334 335 330 329 327 325 324 325 325 324 326 326 325 323 324 326 327 328 327 326 328 327 328 327 326 327 325 326 325 323 323 323 323 323 322 323 323 323 322 320 322 321 318 320 318 320 319 321 323 323 321 320 319 314
330 332 332 334 333 332 332 332 333 335 332 331 327 326 326 325 326 326 327 324 323 322 323 323 324 323 326 328 328 327 327 328 327 328 328 325 323 322 322 323 322 322 322 321 321 321 319 320 320 318 318 317 317 315 318 322 323 323 322 321 320 312
330 332 332 332 331 330 331 332 333 333 332 329 328 327 327 326 327 327 327 325 323 322 323 323 325 325 325 324 324 324 325 324 326 326 325 324 322 322 323 318 319 321 320 320 321 321 320 321 320 320 320 315 315 315 318 321 321 324 320 320 316 313
330 331 332 331 330 330 330 332 334 331 330 331 328 328 327 328 328 327 325 325 324 325 322 323 325 323 323 325 326 326 326 325 326 325 326 324 323 321 320 316 318 320 320 320 320 320 320 319 320 319 317 317 317 316 315 316 317 320 323 320 315 315
331 331 331 331 330 331 331 333 331 329 330 330 326 328 328 328 329 326 326 326 325 324 325 325 323 324 325 324 323 324 324 326 326 326 325 325 323 322 323 321 321 321 318 321 321 320 319 320 320 319 318 317 315 313 315 316 316 317 318 322 320 324
331 332 332 331 331 332 332 332 329 330 331 330 328 329 328 329 327 328 328 326 325 325 326 325 325 326 324 325 325 324 324 326 327 325 322 323 323 323 323 321 319 319 319 321 320 320 320 319 319 319 318 317 315 315 315 316 317 317 320 320 321 316

ECMWFFLT2_sfc_thetae_063.txt.gz
Theta_e
343 344 343 343 343 344 346 347 345 345 344 341 340 340 340 341 341 341 342 342 341 342 344 344 345 345 347 345 346 346 345 344 343 343 342 342 342 342 342 342 341 342 340 339 339 340 339 340 340 340 342 342 343 336 336 337 336 338 337 338 339 337
341 342 342 341 341 342 343 342 340 341 341 340 340 339 339 338 341 338 343 341 340 341 343 343 344 346 345 346 344 345 344 343 342 342 342 342 342 342 342 342 341 342 340 340 342 334 334 338 341 342 342 343 337 333 333 336 335 336 336 336 339 341
341 341 340 339 338 339 338 339 340 341 342 341 340 341 339 339 338 339 342 342 342 343 344 344 343 345 345 345 344 344 343 343 343 342 342 342 342 342 342 341 342 341 342 342 336 331 330 328 331 341 344 339 331 331 333 335 335 335 335 337 337 343
340 340 338 336 337 337 337 338 339 339 339 337 337 336 337 339 338 338 339 339 340 344 343 341 346 345 346 343 343 344 344 343 343 343 343 342 342 342 342 342 342 343 342 339 331 329 329 328 328 330 332 330 330 330 333 334 334 335 336 340 339 344
340 339 338 337 336 337 337 337 338 338 337 336 335 334 335 335 337 338 337 338 340 342 341 342 341 341 341 341 340 340 340 339 339 339 342 337 337 339 338 337 337 338 334 331 330 328 328 328 329 331 329 329 330 332 333 335 335 336 336 338 339 343
339 339 338 337 337 340 337 336 337 335 335 334 333 332 334 334 336 337 336 339 340 338 339 340 340 339 340 339 338 338 338 339 338 339 340 336 335 334 334 333 332 331 330 330 330 330 330 333 331 330 329 330 331 333 334 336 336 335 336 338 341 344
339 339 339 340 340 339 338 338 336 334 332 332 332 331 333 332 333 335 336 339 338 338 338 338 338 338 338 338 337 338 338 338 338 338 338 334 332 333 334 332 332 331 331 332 332 333 334 331 331 330 328 329 330 330 335 336 335 336 336 338 342 344
339 339 340 341 340 338 338 336 336 337 334 335 333 332 333 333 334 335 336 337 340 338 339 339 338 338 338 338 337 339 338 336 335 336 336 333 330 331 333 334 333 334 335 336 334 334 336 334 332 330 330 329 328 327 332 336 335 335 337 338 340 344
339 338 339 340 338 336 336 335 335 334 333 337 332 333 333 334 333 334 336 338 341 338 337 337 337 337 338 337 337 337 336 335 335 335 334 332 332 331 330 332 333 333 333 333 335 335 338 337 334 332 331 330 329 327 329 332 335 335 337 338 339 343
337 337 339 339 337 334 334 333 333 333 333 336 332 333 334 333 334 335 336 340 340 339 337 336 336 337 337 337 337 337 336 335 335 334 333 330 332 331 331 332 333 333 335 334 335 336 337 335 334 333 333 332 330 329 328 328 328 332 334 336 338 341
337 338 338 337 336 335 336 335 335 334 334 333 333 334 335 336 336 336 337 338 340 339 337 337 337 335 335 336 336 336 334 335 332 332 333 331 331 332 331 329 330 331 331 331 334 334 335 334 333 334 333 333 332 330 330 329 330 333 334 333 336 338
337 337 336 337 337 337 336 335 334 333 332 334 335 335 336 337 338 338 339 337 337 337 337 335 336 336 335 336 334 333 334 333 332 332 333 332 332 331 331 331 331 332 332 332 332 333 333 332 332 333 334 333 333 332 330 331 332 333 336 334 332 333
336 335 335 335 335 335 334 334 332 332 333 336 336 335 335 336 337 337 337 336 335 336 335 334 333 335 338 334 333 333 332 333 331 332 332 334 332 331 331 330 329 331 330 330 332 331 334 332 331 331 334 335 334 333 333 331 331 333 336 335 334 334
336 334 335 336 335 334 333 333 333 333 335 334 333 334 336 336 338 337 337 336 335 334 333 333 332 332 333 333 332 332 331 332 332 333 333 332 330 330 329 329 329 329 333 329 330 328 328 329 330 331 332 334 333 332 332 333 333 334 335 335 335 333
337 336 337 336 335 334 333 333 333 334 334 333 332 334 334 335 335 337 336 335 335 335 334 334 333 334 333 331 330 330 331 332 331 331 333 332 332 331 330 329 326 326 328 327 330 330 330 328 328 329 330 333 333 334 333 332 333 333 334 334 334 334
336 335 335 337 336 334 333 333 333 336 332 333 333 333 333 333 333 336 336 333 334 334 335 334 334 334 332 330 329 328 329 331 332 331 330 332 331 329 328 328 327 326 325 328 330 329 329 328 328 330 329 331 333 332 330 331 332 333 334 333 333 334
335 336 337 337 337 335 334 333 333 332 332 333 333 333 333 331 333 334 334 332 332 334 335 335 336 336 332 331 330 330 330 332 333 332 331 331 329 330 327 329 326 327 328 326 327 329 328 326 326 325 329 331 333 331 331 331 332 332 333 332 331 333
335 336 337 336 336 335 333 332 332 332 334 332 332 332 332 331 332 334 332 333 334 335 335 335 335 335 332 332 332 332 333 334 333 333 331 329 328 329 328 329 326 326 327 327 326 327 325 325 325 325 328 330 331 332 332 331 331 333 330 330 331 333
336 336 336 336 336 336 334 332 331 331 330 330 329 331 334 333 334 334 333 335 336 336 337 335 334 335 334 333 330 332 333 330 332 332 332 328 328 328 328 327 326 327 329 328 328 328 327 324 327 326 329 328 331 331 331 329 329 328 328 329 333 335
336 336 335 335 335 334 334 332 329 331 330 330 329 329 331 334 336 335 336 336 337 336 337 336 335 334 333 333 332 333 332 331 331 330 329 327 327 327 327 327 328 327 327 328 330 329 327 327 325 325 326 327 329 329 329 329 328 328 327 329 330 331
334 334 333 332 332 332 332 331 331 329 328 328 328 329 330 333 333 334 336 336 335 335 336 335 335 334 333 335 331 332 332 331 332 331 329 327 328 330 330 328 327 327 327 325 324 327 327 327 323 320 323 326 326 328 330 329 329 328 328 328 329 329
332 332 332 332 333 332 332 331 330 329 329 329 329 329 329 330 331 333 333 333 333 334 334 333 334 333 332 330 330 329 329 331 331 328 329 331 331 331 330 329 328 327 329 325 324 327 328 325 320 316 317 320 323 327 327 326 327 327 329 328 327 327
331 332 332 334 334 333 333 332 330 329 328 326 328 328 327 329 331 330 331 331 331 330 331 332 333 332 331 331 330 329 329 328 329 330 329 328 329 329 329 329 328 326 323 325 326 329 328 327 319 319 319 318 315 317 321 324 326 326 327 326 325 326
330 330 332 334 335 335 334 333 330 327 326 326 325 328 328 327 327 327 328 329 329 329 329 329 330 330 329 330 329 328 328 328 328 329 328 326 326 326 328 328 326 326 325 320 322 323 328 328 323 319 313 312 313 314 312 316 319 323 326 325 325 325
330 330 332 334 335 335 330 327 327 326 326 324 324 323 323 322 324 326 325 324 327 328 327 326 326 327 328 327 326 326 325 325 324 326 328 325 324 325 328 329 327 324 326 321 321 321 323 326 325 325 317 314 311 310 312 317 319 320 324 323 325 326
328 329 330 332 334 334 328 325 323 321 320 319 318 319 318 319 320 321 320 322 322 325 326 325 326 327 327 327 325 326 325 325 324 325 325 325 324 324 324 325 326 326 326 324 322 320 319 322 324 326 325 319 316 313 316 317 317 312 321 323 323 324
327 328 330 331 335 332 327 325 323 322 321 319 319 319 319 321 321 321 323 322 323 324 325 325 324 324 326 327 325 326 326 324 325 324 327 325 323 323 325 326 326 325 325 326 324 318 319 319 322 322 325 323 324 323 321 316 313 316 313 318 320 319
327 328 329 331 333 331 327 326 324 323 321 320 321 320 321 321 323 322 322 321 321 321 323 323 323 323 325 325 322 321 322 323 323 324 324 322 322 323 325 327 326 325 325 325 323 321 320 321 318 318 322 322 322 323 322 321 320 315 313 309 311 317
327 327 329 331 331 330 328 327 324 323 322 324 322 322 322 322 321 321 320 321 321 321 320 320 321 319 317 319 321 321 321 322 322 323 324 321 321 324 324 323 322 321 322 322 322 320 320 320 321 319 321 319 321 321 322 321 321 318 312 310 310 312
327 330 331 330 329 329 329 328 324 324 323 321 321 320 320 319 319 321 319 317 318 319 319 319 320 319 317 319 321 321 320 320 319 318 320 320 321 321 321 321 321 321 321 318 318 319 318 316 317 319 321 321 319 319 320 319 318 317 315 314 309 309
329 331 331 328 328 328 328 326 325 323 321 319 320 319 318 319 320 318 318 318 317 317 318 317 317 319 320 320 321 322 319 320 319 321 320 319 319 322 320 318 317 317 317 316 316 315 314 315 314 312 314 319 320 320 317 316 316 316 314 312 311 311
327 328 328 327 327 327 327 326 326 323 321 321 320 320 319 319 317 317 318 317 316 316 316 317 318 316 317 318 318 317 319 318 317 316 318 318 317 317 316 317 316 315 315 315 315 315 313 313 312 310 310 310 312 317 320 320 319 318 315 314 312 310
326 326 326 326 326 326 326 325 326 323 322 322 321 320 320 318 317 317 318 315 314 315 315 314 314 315 315 319 320 319 318 316 315 318 316 315 316 317 317 316 316 315 315 315 314 313 311 311 312 310 308 309 310 313 318 320 321 319 318 316 313 309
325 325 324 324 325 325 324 324 325 325 323 321 320 320 319 318 318 319 316 315 315 315 314 313 315 316 317 318 317 317 317 317 316 315 315 315 315 314 314 314 313 313 313 313 314 313 312 311 311 310 310 308 309 310 311 316 319 319 318 315 309 308
324 324 324 323 322 322 323 324 325 325 322 321 321 320 319 319 320 318 316 315 315 316 315 316 316 315 316 316 317 317 316 314 315 314 314 313 314 313 313 313 313 313 313 313 313 313 312 312 313 310 309 308 309 309 310 312 313 316 319 317 311 309
325 325 324 323 321 322 322 323 324 323 322 322 322 320 320 320 320 318 317 316 316 315 316 315 315 316 317 316 315 316 316 316 316 315 315 315 314 314 314 314 313 312 313 318 313 313 312 312 311 310 309 309 310 309 310 311 312 312 314 315 313 311
325 325 324 322 322 322 323 322 322 322 321 320 320 319 319 319 318 318 318 317 316 317 315 315 317 316 315 314 315 315 316 317 316 314 314 314 314 313 312 312 312 312 313 313 313 311 311 311 310 309 309 309 309 310 311 310 310 311 312 311 313 313

ECMWFFLT2_sfc_thetae_066.txt.gz
Theta_e
345 345 345 345 344 342 343 345 344 345 345 344 344 344 344 343 343 344 343 344 343 342 343 344 345 344 346 344 345 345 344 343 343 343 342 342 342 342 342 341 341 340 340 339 339 339 340 340 341 340 341 343 340 333 335 333 333 335 334 336 337 336
343 344 344 344 344 343 343 343 340 340 340 341 343 343 341 340 343 338 343 340 339 343 342 342 342 345 343 345 343 344 343 343 342 342 342 342 341 342 342 341 341 341 340 341 341 329 332 335 337 339 342 342 332 331 334 334 334 335 336 335 337 340
342 342 342 341 340 340 339 338 337 337 339 341 341 339 338 339 336 338 338 339 339 341 341 343 344 345 345 345 343 344 343 342 342 342 342 342 342 342 342 341 342 342 342 340 330 327 328 326 325 335 338 332 329 330 333 333 333 334 334 336 335 343
339 339 338 337 337 337 337 338 337 337 336 335 335 336 336 336 337 337 337 337 337 340 340 342 346 347 346 342 342 344 343 342 342 342 342 341 341 341 342 340 340 340 336 334 328 327 327 325 325 325 325 327 328 330 333 333 333 333 335 339 337 344
338 337 336 336 335 335 336 337 336 335 334 333 333 333 334 336 336 336 337 337 338 339 338 338 339 341 339 339 338 338 338 337 338 337 342 334 332 334 332 330 330 330 328 329 328 328 329 328 327 326 327 326 329 331 332 333 333 334 335 336 338 344
336 335 335 334 335 338 336 334 334 333 332 332 331 332 334 336 336 335 336 338 337 335 336 337 338 338 338 338 338 337 336 336 336 337 338 330 330 329 329 330 330 330 329 330 329 330 332 330 328 326 325 326 329 331 332 333 334 335 335 335 340 344
335 335 335 336 336 336 334 333 333 332 331 331 330 331 333 335 336 336 335 336 335 334 334 335 336 337 337 337 337 336 336 336 334 334 334 330 329 329 330 330 330 328 328 331 332 333 333 330 328 327 326 325 329 332 332 333 334 335 335 336 340 344
336 335 336 337 336 335 333 333 333 336 332 334 331 331 332 334 335 334 335 335 337 335 335 334 331 334 334 335 336 336 336 334 334 331 331 330 328 328 329 329 329 329 332 332 335 335 334 332 329 328 327 327 330 332 332 332 334 335 335 336 338 342
337 337 337 337 335 334 333 333 334 332 331 336 330 331 332 333 332 332 334 336 339 334 332 331 331 333 333 334 334 334 333 331 331 330 330 328 328 326 326 329 330 329 329 330 333 335 334 333 331 330 328 327 328 329 330 332 334 335 335 335 337 341
337 337 336 335 334 333 333 332 332 331 332 334 330 331 333 332 331 332 333 336 338 336 333 332 331 331 334 335 333 333 332 331 331 330 328 328 330 330 328 328 328 330 330 331 333 334 332 332 331 330 329 327 327 327 328 329 332 333 334 335 335 339
338 338 335 333 332 332 332 332 332 331 333 331 331 333 333 332 332 333 335 336 338 338 335 332 332 332 333 333 333 332 332 331 329 329 330 330 331 330 327 327 327 328 329 331 331 331 331 331 330 330 330 329 328 328 329 331 332 333 333 333 332 330
337 336 334 333 333 332 332 332 332 331 331 331 333 332 332 333 335 335 337 336 336 337 336 333 333 332 332 333 333 332 331 330 329 329 330 331 331 329 328 328 328 329 330 331 331 331 330 329 330 330 330 330 329 329 329 330 332 333 333 333 331 331
338 336 334 333 333 333 332 332 331 331 332 333 333 333 332 333 335 336 336 335 335 336 336 334 334 334 336 332 331 331 330 330 330 330 330 330 329 329 329 328 325 327 328 329 329 329 330 329 329 329 330 330 330 329 330 331 332 332 333 333 332 332
336 335 335 334 333 332 332 331 331 331 334 333 333 332 334 334 336 335 335 334 334 335 334 334 333 332 332 331 330 329 329 329 329 329 329 329 327 325 328 328 326 328 331 327 327 326 326 327 328 329 329 328 328 328 330 332 332 332 332 332 332 331
336 334 335 333 333 331 331 331 330 331 332 332 332 332 333 334 335 335 334 333 334 334 334 334 333 333 331 330 329 328 328 328 330 328 328 327 326 325 327 325 323 326 326 327 328 328 326 326 327 329 328 328 329 330 330 331 332 332 332 331 331 332
334 334 333 333 331 331 331 330 331 333 331 332 332 331 332 333 334 334 334 332 332 334 334 333 333 332 330 329 329 328 328 329 330 330 329 327 327 327 325 324 323 323 326 327 328 327 326 326 326 328 327 328 328 329 329 328 331 332 331 331 331 331
333 333 332 332 331 330 330 330 331 332 331 331 331 331 330 330 333 333 333 332 333 334 333 332 333 332 329 328 327 328 327 330 331 329 329 328 326 327 326 326 322 324 322 323 328 326 325 324 325 326 328 327 328 329 329 329 329 329 330 328 329 331
333 333 333 332 331 330 330 330 330 329 332 330 330 330 330 330 331 332 332 332 333 334 333 332 332 332 329 329 328 327 328 329 330 329 328 327 326 325 325 325 324 324 325 325 323 325 324 324 326 326 327 328 328 329 328 328 329 332 328 328 328 329
333 333 332 332 331 330 328 327 327 328 328 326 327 329 329 329 331 332 331 332 333 334 335 333 333 332 329 330 328 328 329 329 330 329 329 326 326 326 325 322 323 324 325 325 324 324 324 325 326 326 325 325 328 328 327 328 327 326 327 329 332 333
334 334 332 331 330 328 327 326 326 327 326 325 323 327 329 330 332 331 332 333 333 333 334 333 333 332 331 330 329 329 330 328 329 329 327 326 325 325 325 324 323 324 325 326 326 326 325 325 324 325 325 327 327 328 328 327 327 327 327 329 330 330
334 334 332 330 329 328 326 325 325 326 326 325 325 326 328 330 332 332 334 334 334 333 333 333 333 331 330 333 330 329 328 327 328 328 327 326 325 325 324 324 325 325 324 321 322 324 325 325 323 321 322 322 324 327 328 328 328 328 328 328 328 328
334 333 332 331 330 329 328 327 326 325 324 324 326 326 326 328 331 333 333 333 333 333 333 332 332 331 331 330 329 328 328 328 328 328 327 326 325 328 326 325 324 323 324 320 320 323 325 320 320 319 318 319 323 324 325 324 325 325 325 324 324 327
333 332 332 332 331 329 328 328 327 325 326 324 326 327 328 329 331 332 331 331 331 331 332 331 331 331 329 329 329 328 329 328 327 329 327 326 325 325 326 325 324 322 320 321 324 324 323 320 317 320 322 320 316 315 318 320 322 324 325 324 324 327
331 331 331 331 331 330 330 328 327 327 327 325 324 327 325 326 328 329 328 329 328 329 330 330 330 330 328 328 327 326 324 325 324 326 325 324 323 324 324 323 323 322 321 322 318 319 323 321 319 319 312 310 313 314 311 314 318 321 323 323 325 327
330 330 330 331 331 330 330 326 325 325 325 324 324 323 323 322 324 326 326 325 325 326 328 328 327 327 328 326 324 324 324 323 323 324 323 322 322 324 325 324 323 323 320 320 317 317 320 324 323 320 315 312 311 309 311 315 317 317 321 320 322 326
328 329 330 331 331 330 327 325 323 322 321 320 319 320 320 321 320 321 323 322 323 324 324 323 324 325 327 326 322 322 320 322 322 322 322 321 321 320 320 323 323 324 321 319 319 318 316 320 321 323 317 313 312 312 314 316 315 311 318 320 321 322
328 329 331 332 331 328 326 325 324 323 322 320 319 318 318 319 319 318 320 320 321 322 324 323 322 322 323 323 322 321 322 322 323 322 322 321 321 321 321 321 322 322 322 322 320 315 318 318 318 320 320 320 321 318 320 315 310 313 311 315 317 317
327 329 329 330 329 328 326 323 322 321 321 320 319 317 318 318 318 320 319 320 321 321 321 322 321 321 321 321 320 321 321 321 321 321 323 321 320 321 323 323 323 322 321 320 320 319 317 318 315 316 319 319 320 320 317 316 314 312 311 309 309 314
326 327 327 329 326 324 323 322 321 320 319 319 319 318 320 321 319 319 318 318 319 318 318 318 317 317 317 320 321 320 320 320 320 320 322 321 320 321 320 319 319 320 319 318 318 317 319 316 317 318 318 317 319 317 317 316 315 312 309 308 306 308
325 325 325 326 326 323 323 322 320 319 320 319 320 319 318 317 317 316 316 315 316 316 315 315 315 315 317 317 318 321 320 319 317 320 321 319 318 317 317 317 316 315 314 314 313 315 314 314 317 318 318 319 318 315 315 314 312 311 312 309 308 308
324 324 325 325 325 324 323 322 320 321 321 319 319 318 316 316 315 314 315 313 314 314 314 314 317 317 317 317 318 320 316 316 318 322 320 318 316 315 314 314 314 314 313 312 311 311 311 311 312 314 317 319 319 318 315 312 312 311 309 307 308 307
322 323 323 323 323 323 323 321 322 321 320 320 319 318 317 316 315 314 313 313 313 314 314 315 314 314 314 315 316 315 317 315 317 315 314 314 314 314 314 313 312 312 311 311 311 311 309 307 308 309 310 313 317 316 316 315 315 314 311 310 310 308
322 321 321 322 322 321 322 322 321 320 319 320 319 318 318 316 315 315 313 313 313 313 312 313 312 314 313 314 315 313 314 314 314 315 314 314 313 314 313 313 313 312 311 310 309 309 308 307 307 308 307 308 312 316 317 316 317 314 313 311 311 308
323 322 321 321 321 321 321 321 320 319 320 320 318 319 318 316 316 315 314 313 314 312 312 312 313 314 314 314 314 314 314 313 313 314 314 312 312 311 311 311 310 310 310 308 309 308 307 307 307 306 308 308 309 314 314 317 316 315 313 310 308 308
324 322 322 321 320 320 321 321 320 320 320 319 319 319 317 317 316 314 314 314 314 312 312 313 314 313 314 313 312 311 312 312 312 312 312 312 313 310 310 311 311 310 310 309 310 310 307 308 309 307 307 307 309 310 312 316 317 315 314 312 310 309
324 322 322 320 319 320 320 322 320 319 318 319 319 317 317 317 315 314 314 314 313 312 313 313 312 313 313 313 312 312 312 311 310 310 310 309 310 310 310 310 309 310 311 313 309 308 306 307 307 306 306 306 308 307 310 314 316 315 314 312 310 308
322 322 321 320 319 319 321 320 319 318 318 318 317 316 317 315 314 314 314 314 313 313 313 312 314 313 312 311 311 312 312 311 311 311 310 310 310 309 309 309 309 309 309 308 309 306 307 307 305 307 307 307 307 306 306 308 311 314 316 313 310 308

ECMWFFLT2_sfc_thetae_069.txt.gz
Theta_e
346 346 346 344 342 343 346 348 347 346 346 345 346 346 347 347 346 346 346 345 344 342 342 342 343 343 346 344 345 345 344 343 343 343 342 342 342 341 342 341 340 340 340 341 340 340 338 338 338 341 342 341 342 333 331 331 331 333 332 335 337 333
345 345 344 343 342 342 345 344 340 341 342 343 344 345 343 342 345 341 345 342 340 343 340 340 342 346 343 344 343 344 343 342 342 342 342 342 342 342 341 341 341 341 339 339 337 326 327 333 335 340 342 340 333 331 331 331 331 332 334 333 336 337
344 344 343 342 341 341 339 338 337 338 341 343 343 341 339 340 336 337 337 338 340 339 340 341 341 343 343 344 343 343 343 342 342 342 342 342 342 342 341 340 340 338 337 337 327 323 323 322 324 336 338 330 328 331 331 332 332 333 333 333 333 341
343 342 341 339 339 337 336 335 335 336 336 335 335 336 336 336 336 336 336 336 338 340 340 340 346 346 346 341 342 344 343 342 342 342 343 340 341 339 338 337 337 335 331 331 325 326 326 323 323 324 324 325 326 330 331 332 332 332 332 337 334 343
342 340 339 338 337 336 335 335 335 334 333 332 332 333 334 335 335 335 336 336 338 339 337 338 340 340 338 338 337 338 338 337 337 338 338 332 332 332 331 329 328 329 326 327 327 328 327 326 326 326 326 327 329 330 331 332 332 332 333 335 334 344
340 338 337 336 335 337 337 335 334 334 332 331 332 333 334 334 334 336 337 338 337 334 334 337 337 337 337 336 337 336 335 336 335 335 335 330 330 330 329 328 328 329 329 330 329 330 327 326 324 323 325 326 329 331 331 331 333 333 333 333 337 343
337 336 335 335 335 337 335 334 334 333 331 331 332 334 335 335 335 337 338 338 335 333 333 333 335 336 336 336 335 335 335 335 334 333 333 330 329 330 330 328 328 327 329 331 332 331 329 327 324 325 327 330 330 330 330 331 332 332 332 334 339 343
335 335 334 335 335 334 332 331 332 335 332 334 333 334 335 336 337 337 336 336 336 334 333 332 333 335 334 335 335 335 334 334 333 332 332 331 329 329 329 330 330 328 331 331 332 331 329 329 326 325 329 330 331 330 330 330 332 331 332 333 337 342
335 334 334 335 334 333 331 331 333 332 331 336 332 334 336 337 336 335 334 336 338 332 331 330 330 331 332 334 334 334 333 332 331 330 329 328 329 327 328 331 331 330 329 328 328 329 329 329 326 326 328 330 331 331 331 332 332 332 332 333 335 340
335 335 335 334 333 332 331 331 332 330 332 335 332 334 336 335 335 334 334 335 335 331 330 330 331 331 332 331 332 332 332 330 329 327 328 328 329 329 329 328 328 330 329 326 329 330 328 328 328 327 326 328 329 331 331 332 333 333 334 334 335 338
336 337 335 334 332 332 332 330 331 329 332 331 333 335 334 333 332 333 333 334 333 333 331 331 331 331 331 332 331 331 331 329 328 327 328 329 330 329 328 328 330 330 328 328 327 327 327 327 326 328 327 327 327 329 331 332 333 333 334 333 333 334
335 336 334 333 333 331 331 330 330 331 331 331 333 333 333 332 333 332 333 333 333 333 333 331 331 329 330 331 330 330 330 329 328 329 330 330 330 328 328 328 330 331 330 329 327 326 326 327 326 327 326 327 327 328 330 332 333 333 333 332 331 330
335 335 333 332 331 331 330 330 330 332 331 332 333 333 332 331 331 332 332 332 332 334 333 331 330 331 333 331 330 330 330 329 329 329 330 330 330 329 327 327 327 328 327 326 326 326 328 326 326 325 325 326 327 328 328 331 332 332 333 331 330 329
335 334 332 331 331 330 329 329 330 332 333 333 333 331 332 331 333 333 333 332 333 334 333 332 332 331 332 331 330 330 329 329 329 330 330 329 328 328 327 328 327 328 329 325 324 323 324 325 324 324 325 324 326 325 326 328 328 329 331 331 330 330
336 333 333 332 332 331 330 331 332 333 333 332 332 331 332 334 336 334 332 332 333 334 333 333 333 332 331 330 329 327 328 328 329 330 329 326 327 327 326 326 326 326 326 326 326 325 323 323 324 325 325 326 326 327 328 327 328 330 331 330 330 329
335 333 332 332 331 331 331 331 332 334 332 332 332 332 333 335 335 333 331 331 331 333 333 333 333 332 330 328 327 326 326 328 330 329 327 326 327 328 324 323 324 326 325 324 326 325 326 322 323 324 324 325 326 327 328 329 329 329 330 330 329 328
333 333 332 332 330 330 330 331 332 332 331 331 330 332 332 332 333 331 329 329 329 332 331 332 332 330 329 327 326 327 326 329 330 328 328 327 324 325 324 324 323 325 326 325 324 325 324 322 324 325 326 326 326 327 329 330 329 328 329 328 327 328
332 333 333 331 330 330 330 331 331 330 332 330 329 329 329 331 332 330 329 329 329 331 331 331 330 329 327 327 327 327 327 328 328 327 328 327 323 321 322 324 324 325 327 326 324 323 323 324 326 326 326 327 326 326 326 327 329 330 327 328 327 328
333 333 332 329 329 329 330 330 330 329 329 329 329 327 326 329 332 331 330 330 331 332 332 330 330 329 328 328 326 326 327 327 328 327 327 325 323 324 323 321 324 325 325 323 323 322 324 326 326 327 326 326 327 327 327 328 328 328 329 330 332 333
333 333 331 328 329 329 329 328 327 328 328 328 327 328 325 327 330 330 330 330 331 331 332 331 330 329 329 328 327 327 327 327 326 326 327 326 322 323 323 323 323 324 323 324 324 324 325 326 325 325 325 325 326 327 328 328 328 328 329 330 330 330
332 332 330 328 328 328 326 325 326 326 325 325 326 325 326 326 329 329 330 331 332 331 331 332 331 329 328 332 328 327 327 327 328 328 326 325 325 324 323 324 324 323 323 321 322 323 323 323 322 321 324 324 324 326 327 326 326 327 327 328 330 330
332 332 330 328 327 327 327 326 325 324 322 323 325 325 324 324 327 330 330 331 332 331 330 331 331 328 329 329 327 327 327 327 327 327 326 324 322 327 324 323 324 323 323 321 320 323 323 320 316 317 318 318 321 323 324 323 324 326 326 328 329 330
332 331 329 328 327 326 325 325 324 322 325 321 323 324 326 327 329 329 328 330 331 330 330 329 329 329 328 328 327 327 327 326 326 328 325 323 324 323 324 324 323 323 321 322 323 322 322 318 316 316 316 315 313 313 317 320 322 324 326 327 329 330
332 330 328 328 328 327 328 327 325 325 324 322 323 326 325 327 327 328 326 328 327 329 329 329 328 328 327 326 326 326 325 324 323 325 324 323 320 323 323 323 322 322 323 321 317 319 322 319 319 318 311 307 309 312 312 315 318 321 324 325 327 328
331 329 328 330 328 329 327 325 324 324 325 325 325 324 325 323 324 327 325 324 324 326 328 328 327 326 328 325 323 322 324 323 322 322 323 322 321 324 325 324 323 323 323 322 317 317 319 320 321 317 315 310 307 308 311 315 317 317 321 322 325 327
329 327 328 328 329 329 327 325 324 323 322 321 321 321 322 322 322 322 323 320 323 324 326 325 324 326 327 325 323 321 321 322 322 323 322 321 321 319 320 321 323 324 320 318 320 316 316 319 319 322 318 314 313 310 312 315 314 311 317 320 322 324
328 327 327 328 329 328 325 324 324 323 322 322 321 318 317 317 319 316 320 320 320 320 322 322 320 321 321 322 318 318 319 320 321 318 320 318 319 320 320 321 321 321 321 320 318 316 318 318 316 319 319 318 319 315 318 314 309 314 312 316 317 317
327 327 327 328 327 328 325 324 323 322 322 320 320 317 317 316 317 319 318 318 318 318 319 319 320 319 319 321 319 318 319 319 319 318 321 317 317 317 320 320 319 318 320 320 320 319 317 316 319 317 318 317 316 317 313 311 313 313 313 311 312 318
325 325 325 326 326 326 325 324 322 322 321 320 318 318 318 318 317 318 317 316 317 316 316 315 316 317 317 321 322 319 318 318 318 318 320 319 317 316 316 317 318 318 317 315 317 317 318 316 314 315 316 314 316 314 314 313 312 312 311 311 310 313
322 324 323 324 324 323 323 322 321 320 320 318 319 317 316 315 316 317 316 313 314 314 313 313 313 314 316 318 319 318 317 317 316 318 319 316 315 314 314 313 313 314 314 314 313 317 318 315 314 315 316 317 314 311 312 311 309 311 310 310 311 312
322 323 324 323 323 322 322 321 320 320 319 317 317 317 316 315 315 315 314 312 313 312 312 314 314 314 314 316 316 317 315 315 317 320 317 314 313 313 312 312 312 311 310 310 310 311 312 313 314 314 315 316 316 315 312 309 310 309 307 308 310 311
321 323 323 323 322 321 321 321 321 321 320 319 317 317 316 314 314 314 313 312 311 312 311 312 311 312 313 314 316 314 315 314 314 312 312 312 312 312 311 311 310 310 309 308 308 310 310 312 311 312 312 313 313 313 313 313 312 310 311 311 312 310
320 321 322 322 321 321 320 320 321 320 320 319 318 317 315 314 313 313 312 311 311 311 310 312 310 312 311 312 315 313 313 312 311 312 311 312 310 311 311 310 310 308 307 306 306 306 308 307 310 314 310 309 312 314 313 313 313 312 311 311 312 310
320 320 320 320 320 320 319 320 320 320 320 319 318 317 315 314 313 313 313 312 312 311 311 311 310 311 311 312 313 313 312 311 310 310 311 310 309 309 309 309 308 308 307 305 305 306 305 305 306 306 308 311 312 313 313 314 313 313 312 312 310 310
322 321 321 320 319 319 319 318 319 319 319 319 318 316 315 315 313 312 312 312 311 310 311 311 312 311 312 311 311 311 311 311 310 309 310 310 311 309 309 310 310 309 308 306 307 307 305 306 307 306 307 309 311 312 314 313 313 312 313 313 312 310
323 322 321 320 319 319 319 318 318 318 318 319 318 316 315 314 312 312 312 312 310 310 312 311 311 311 310 311 311 311 310 309 308 308 307 308 308 308 307 308 307 308 308 310 306 305 304 305 305 304 305 307 312 310 314 314 313 312 311 311 311 310
321 320 320 319 318 318 319 317 317 317 317 317 316 315 315 313 312 311 312 311 311 311 310 311 312 310 310 309 310 310 309 308 307 307 307 307 307 306 306 307 307 306 306 305 307 305 305 306 303 304 305 306 308 308 310 314 314 312 310 309 309 309

ECMWFFLT2_sfc_thetae_072.txt.gz
Theta_e
345 346 346 346 345 345 347 347 347 348 347 348 348 348 348 348 346 345 345 345 344 342 342 342 343 342 344 345 345 345 344 343 343 343 342 342 341 343 342 341 341 339 339 339 337 336 337 337 340 342 344 345 343 335 333 334 334 335 334 337 338 334
345 345 345 345 345 346 346 346 344 344 344 345 347 346 345 344 345 342 345 343 341 343 340 340 343 346 343 344 343 344 343 343 342 342 342 341 342 341 341 340 339 339 339 337 334 327 330 338 340 342 343 346 336 332 333 333 333 334 336 336 337 337
344 344 344 344 344 345 343 342 341 342 344 345 346 344 342 342 338 339 339 340 341 340 340 340 341 343 343 344 342 343 343 342 342 342 342 342 340 340 340 339 338 337 336 334 328 327 325 325 332 342 341 336 332 332 333 333 333 335 335 336 335 340
343 343 342 342 342 340 339 338 339 340 339 339 339 338 337 337 337 338 338 338 338 340 339 340 345 346 346 340 341 343 343 342 342 342 341 340 339 338 338 338 337 335 332 331 328 328 327 325 326 327 329 332 332 332 333 333 334 334 334 338 335 341
343 342 341 340 339 338 336 336 337 337 337 337 336 336 335 336 336 337 338 339 338 339 337 338 339 338 337 338 338 337 338 338 338 337 337 332 331 331 331 329 330 331 329 330 329 328 327 327 328 328 329 331 332 332 333 334 334 334 335 338 338 342
342 341 340 340 338 338 337 335 335 334 335 335 336 336 337 336 337 337 338 339 338 335 336 337 337 337 337 337 336 336 336 336 336 334 335 331 331 330 329 329 330 331 331 331 331 329 330 328 326 327 329 331 332 332 332 333 334 334 335 336 340 342
340 340 339 339 338 338 336 336 334 334 333 334 336 336 336 337 337 338 338 338 335 334 335 336 336 336 336 336 335 335 335 335 334 332 333 331 330 330 329 330 330 330 331 332 331 330 328 326 326 327 329 332 332 332 332 333 334 335 335 336 340 343
339 339 338 337 337 336 335 334 334 335 334 336 336 336 337 338 338 337 337 337 337 335 335 335 335 336 336 336 335 335 334 334 334 333 333 331 329 329 329 331 331 330 332 331 331 330 329 328 328 330 331 331 332 332 332 333 334 334 335 336 340 342
338 338 337 336 335 334 333 334 335 333 333 338 335 337 338 338 337 336 336 337 337 334 333 333 334 335 336 336 335 334 333 332 332 331 330 329 329 328 330 331 331 331 329 329 330 330 329 328 328 330 331 332 332 331 332 333 334 334 335 337 339 342
338 337 336 335 334 332 332 333 333 332 335 336 335 337 337 335 335 335 334 335 335 333 332 333 334 333 335 334 334 333 332 331 330 330 330 329 329 330 330 330 330 330 330 329 331 332 329 328 328 329 330 332 332 332 333 334 334 335 336 337 338 341
338 338 336 334 333 331 331 331 332 333 335 334 336 337 335 334 334 334 334 333 332 333 331 331 333 333 334 334 332 332 330 330 329 328 329 329 330 329 330 331 330 330 329 328 329 329 329 328 328 328 329 330 331 333 334 335 335 336 336 337 337 339
337 337 335 333 332 330 330 332 332 333 333 334 337 336 335 333 335 334 334 332 332 332 332 331 332 332 333 333 332 331 331 330 329 329 330 330 329 329 330 331 331 330 329 329 328 328 328 328 328 328 328 329 331 332 334 335 335 336 337 336 335 337
336 335 334 332 330 330 331 332 332 332 333 335 336 335 334 333 332 333 332 332 331 332 333 331 331 333 335 332 332 331 330 329 329 329 330 330 330 329 330 330 328 329 328 326 328 328 328 327 327 327 328 329 330 331 333 334 334 335 335 334 334 335
335 334 332 331 330 330 330 331 332 332 334 334 334 334 334 333 333 334 334 333 332 333 332 332 331 331 332 331 330 330 330 329 329 330 329 329 328 329 330 329 328 328 329 326 325 325 325 326 326 327 327 328 328 328 330 332 333 333 333 333 333 334
335 333 332 330 330 330 331 332 332 332 333 333 333 333 333 334 334 334 334 332 333 334 333 333 333 332 331 330 329 329 329 329 329 330 328 328 329 328 329 328 327 325 325 326 326 327 325 325 326 326 326 328 329 330 330 331 333 333 333 332 331 332
334 332 330 330 329 330 331 332 332 333 332 333 333 333 333 334 335 333 333 331 332 335 334 333 333 332 331 330 329 329 329 329 331 330 328 329 330 328 326 326 326 325 324 324 326 325 326 325 326 326 328 329 330 331 331 331 332 333 332 332 329 329
332 331 330 330 330 331 331 332 333 332 332 332 332 332 334 334 335 332 331 330 331 334 332 332 332 331 330 329 329 329 329 330 330 329 329 328 328 327 326 326 326 327 325 324 325 325 326 326 326 327 328 328 328 329 330 331 331 331 332 330 329 330
332 332 331 331 331 331 332 332 332 332 332 331 332 333 333 334 333 331 330 329 331 332 331 331 330 329 328 328 328 329 329 330 329 329 329 328 326 324 325 327 325 327 327 325 325 325 325 327 327 327 327 326 327 328 329 330 331 332 331 330 330 329
333 332 331 331 331 331 331 331 331 331 330 330 331 331 333 333 333 330 328 329 331 332 332 330 329 329 328 329 327 328 329 329 330 330 330 327 326 325 324 325 326 325 326 326 326 326 327 327 326 326 326 326 327 327 329 330 330 331 332 333 331 330
333 331 331 330 330 330 329 329 327 329 329 329 330 330 332 332 332 330 330 330 331 331 332 331 329 328 329 327 327 328 328 329 330 330 329 327 325 324 324 324 324 325 325 327 328 328 328 327 326 325 325 326 327 328 328 329 329 330 331 331 330 330
331 331 330 329 329 328 326 327 328 328 327 328 329 329 330 331 331 329 330 330 331 331 331 331 330 328 328 330 327 328 329 329 329 329 330 329 327 325 324 325 325 325 325 325 325 327 327 326 324 322 324 324 324 326 327 328 328 328 329 330 331 330
331 330 330 329 329 328 328 328 327 327 326 327 328 328 328 329 329 329 329 330 331 330 330 330 331 329 329 328 327 327 328 329 329 328 329 327 325 328 326 325 325 324 324 325 324 326 325 321 320 321 319 319 321 323 325 325 326 327 329 330 330 330
331 330 329 330 329 327 328 328 327 325 326 323 325 327 327 328 330 328 328 329 329 329 329 329 329 329 328 328 328 328 328 328 327 329 327 325 326 325 325 325 324 324 323 325 325 325 324 319 318 320 319 318 315 316 320 322 324 325 328 329 331 330
330 330 329 330 329 328 327 324 323 324 322 322 323 326 326 327 327 328 328 329 329 329 329 329 329 329 328 328 327 327 326 327 326 328 326 325 325 325 325 324 324 324 325 323 323 324 325 322 321 320 314 311 313 315 312 315 318 321 326 327 328 328
330 329 330 330 329 328 326 323 324 324 326 326 326 325 325 325 326 327 326 327 327 327 328 328 327 328 329 326 326 326 326 325 325 325 325 325 324 325 326 326 324 324 324 324 321 321 323 322 323 321 317 312 310 310 311 316 318 318 323 324 326 328
330 330 329 329 328 326 325 323 323 323 322 322 322 323 323 324 325 325 324 321 325 327 328 327 326 326 328 326 324 324 324 324 324 324 325 325 323 323 324 324 325 324 323 323 323 318 320 322 323 324 321 317 313 313 313 318 317 311 320 321 323 326
329 329 329 329 328 326 323 324 324 324 323 323 322 318 318 320 323 320 322 322 321 323 325 325 323 324 325 326 322 321 322 323 324 322 325 322 322 323 324 325 325 324 324 323 321 321 320 321 321 321 319 320 321 320 321 317 313 315 312 317 320 321
329 329 329 328 327 326 324 323 323 323 323 322 322 319 319 318 319 321 320 319 320 319 320 321 321 321 321 322 319 318 319 319 319 320 323 320 321 320 321 323 324 324 323 323 323 322 321 320 321 320 320 319 319 319 316 314 319 317 315 312 314 320
329 329 328 327 326 324 325 324 323 323 322 320 319 318 319 320 319 320 317 317 317 316 315 315 317 319 319 320 323 318 318 319 319 321 322 318 319 320 322 322 321 321 322 321 322 322 321 320 320 319 317 317 317 316 316 316 316 318 316 314 312 315
327 328 327 325 324 323 323 324 322 322 320 318 318 317 317 317 317 317 316 314 314 313 313 315 315 316 318 319 319 319 318 318 318 321 321 317 317 317 318 320 321 322 321 321 320 321 321 319 319 318 319 318 315 315 315 315 314 316 316 317 314 313
325 326 326 325 324 322 323 323 322 322 320 318 317 316 315 315 315 316 315 313 313 312 313 313 315 315 316 317 318 320 317 317 320 323 318 315 315 316 315 316 315 317 318 320 318 318 318 318 318 319 318 319 318 317 315 313 314 315 316 315 314 314
323 323 323 322 322 322 322 322 322 321 319 319 317 317 316 316 316 316 314 312 312 313 311 311 312 314 315 316 318 317 318 315 315 314 313 313 313 313 313 312 312 312 312 312 314 318 317 317 318 318 318 317 317 314 313 316 315 315 317 316 316 313
321 321 321 321 319 319 320 320 320 320 319 318 318 317 316 315 315 315 313 312 313 312 311 312 312 314 313 314 316 314 313 314 313 314 313 313 312 312 311 311 310 309 309 310 311 314 317 317 318 319 318 316 316 315 316 315 315 317 318 318 316 312
319 321 321 320 318 317 318 319 320 320 319 318 316 316 315 315 314 314 314 313 313 313 312 313 312 314 313 314 315 315 313 312 312 313 312 311 311 311 310 309 309 308 308 307 308 311 312 312 313 314 316 317 316 316 315 316 317 318 317 315 314 312
318 319 320 318 317 317 317 318 319 319 319 318 317 316 315 315 314 313 313 313 313 312 312 311 312 312 314 313 313 312 313 312 311 312 312 312 311 311 311 311 310 310 309 307 308 309 308 310 311 312 315 317 316 316 315 315 317 318 318 317 315 313
319 319 319 319 317 317 317 318 318 318 318 318 317 315 315 314 313 314 313 313 312 311 312 311 311 312 312 313 312 313 312 310 309 309 310 310 310 310 309 309 309 309 309 311 307 307 307 308 308 310 313 315 316 315 315 315 317 317 318 317 316 314
319 319 318 318 318 317 317 317 317 318 317 317 316 315 314 313 313 312 313 312 312 311 311 311 311 311 311 311 311 311 310 309 308 309 309 309 309 309 309 309 307 307 308 308 309 306 307 307 306 308 312 315 316 315 314 315 315 315 315 315 316 315

ECMWFFLT2_sfc_thetae_075.txt.gz
Theta_e
350 350 350 351 352 351 351 350 350 349 349 350 350 349 349 348 348 347 348 347 346 350 351 349 348 347 343 344 345 345 345 344 344 343 343 344 343 342 340 340 340 340 339 338 339 339 340 342 344 345 343 343 342 342 342 342 342 341 341 339 340 337
348 349 349 349 350 350 350 348 351 351 349 349 349 348 349 349 348 350 347 349 350 350 350 349 349 345 347 345 345 344 343 343 343 343 343 342 341 340 340 340 340 340 338 337 336 339 340 342 343 345 344 343 342 342 343 343 343 341 340 340 339 339
347 348 349 349 349 350 351 351 350 349 348 347 349 350 351 349 350 350 350 350 351 351 350 350 349 346 345 344 344 343 343 342 342 343 341 341 341 340 340 339 339 338 337 335 339 339 337 339 343 345 345 344 343 341 343 343 343 342 341 340 339 339
346 346 347 347 348 348 348 348 348 347 347 348 348 350 349 348 348 348 349 349 350 348 348 348 345 345 345 344 344 343 342 342 342 343 342 340 339 339 339 339 338 337 338 340 339 337 336 338 342 345 345 343 341 342 342 342 341 342 342 340 339 340
346 346 346 346 346 345 345 345 344 345 345 345 346 346 347 347 346 346 346 346 345 345 345 345 344 344 343 343 343 343 343 343 343 341 339 340 340 337 339 339 340 338 339 339 338 339 338 337 339 342 345 342 340 341 342 342 341 341 343 342 342 340
345 346 345 344 344 344 343 342 342 343 345 345 344 345 344 345 346 346 345 345 345 345 345 343 343 343 343 342 342 341 342 342 341 340 341 340 340 342 341 341 340 338 337 337 338 340 340 339 338 340 342 341 340 341 341 340 341 343 343 342 342 340
344 344 344 345 344 343 342 341 342 343 342 342 343 343 344 344 345 345 344 345 344 344 342 341 340 341 340 341 341 340 340 342 341 341 342 341 341 343 342 341 341 340 339 337 336 337 338 338 339 339 339 338 339 340 342 340 341 341 343 342 342 342
344 343 343 342 341 339 339 340 340 342 341 341 341 342 343 344 345 346 346 345 345 343 341 339 341 340 339 340 340 340 341 341 340 339 339 338 340 341 340 339 337 338 339 338 337 337 336 336 338 340 340 339 340 342 342 340 342 342 343 343 343 342
343 342 341 341 339 338 338 339 340 339 339 341 341 342 343 343 343 344 345 345 345 343 341 341 340 339 341 340 340 340 340 340 340 338 337 336 337 337 338 339 337 336 340 341 341 339 337 337 339 342 341 341 341 341 341 342 342 341 343 343 344 341
343 341 340 340 338 337 337 337 337 338 341 341 341 342 343 342 344 343 344 344 345 342 341 339 340 341 342 339 340 340 339 339 339 340 340 337 336 337 337 338 338 337 338 340 341 340 339 338 337 339 340 341 341 341 342 340 341 340 342 344 345 342
342 341 341 338 336 335 336 336 336 339 341 341 342 342 341 342 342 343 344 343 343 341 340 340 339 339 341 339 339 340 340 340 340 339 339 336 335 335 336 335 336 338 338 338 339 339 339 339 339 338 339 340 342 343 342 342 341 340 340 344 344 344
340 340 339 337 336 334 335 336 335 339 339 341 343 342 341 341 342 341 343 342 342 342 342 340 340 341 341 340 340 339 339 340 338 337 337 337 337 336 336 335 336 337 338 339 338 337 338 339 338 338 339 339 341 342 342 343 340 341 343 344 345 345
340 339 338 336 335 335 334 335 336 337 338 339 342 341 339 339 340 340 342 342 342 342 342 341 340 341 341 341 340 338 337 337 337 338 337 337 337 337 337 336 336 337 339 338 337 336 337 338 337 337 339 339 341 340 340 340 341 341 343 343 344 345
340 337 336 335 335 333 334 334 336 337 338 341 340 340 339 339 339 340 342 343 342 342 342 343 340 341 341 339 339 338 336 335 336 337 338 338 337 338 337 337 336 336 334 335 334 335 336 335 334 336 336 337 337 338 340 338 339 339 340 344 344 341
337 337 335 335 334 334 335 335 335 336 338 339 339 339 339 340 340 341 342 342 342 343 343 343 343 343 343 341 340 339 338 337 337 337 337 336 336 336 337 337 336 335 333 333 334 333 333 333 333 333 335 337 336 337 339 338 339 339 340 341 340 339
336 334 334 334 334 334 334 335 335 336 338 339 338 339 339 341 339 340 342 341 342 343 343 344 344 344 343 342 341 340 339 338 337 336 336 336 336 335 335 334 333 335 333 333 334 332 332 332 333 333 335 336 337 338 337 338 337 338 340 337 336 338
334 333 333 334 334 334 334 334 335 336 338 337 337 337 338 339 339 339 340 341 342 343 342 344 344 343 342 341 337 338 336 337 338 337 336 336 336 336 335 333 333 334 336 333 332 331 331 332 331 332 333 334 334 335 336 337 337 338 338 336 336 338
333 334 334 334 334 334 334 335 335 336 336 336 336 338 338 338 338 338 340 342 343 342 340 342 342 341 341 339 338 338 336 337 338 337 336 336 336 336 335 335 333 333 333 333 332 332 331 331 331 331 331 331 333 334 335 336 337 337 337 335 332 334
333 333 333 333 334 334 334 334 334 335 334 335 336 337 337 336 337 339 340 341 343 343 342 342 342 342 342 341 339 338 337 337 337 337 336 335 334 335 335 335 333 331 333 333 333 332 332 331 331 331 330 331 333 334 334 335 335 337 336 335 333 332
334 334 333 333 333 332 332 332 331 331 331 332 333 334 336 336 337 338 340 341 341 342 341 343 342 342 342 340 339 337 336 336 336 336 335 333 333 333 333 333 332 331 331 331 333 332 332 331 330 329 328 331 332 333 332 333 334 334 334 334 333 333
333 334 333 331 331 330 329 330 331 330 330 331 332 334 335 337 337 339 340 341 341 341 341 342 341 341 341 338 338 337 337 336 336 336 335 334 334 335 335 334 331 332 331 329 329 331 332 332 328 325 328 329 329 331 332 332 332 333 334 336 336 333
331 331 331 332 331 331 332 332 331 331 331 331 332 331 332 334 336 338 339 339 340 340 341 340 340 341 339 339 337 336 336 336 336 336 336 335 334 334 333 333 333 330 332 329 328 331 332 331 327 325 322 322 325 328 330 330 330 332 335 336 334 333
330 330 330 332 331 331 334 335 334 332 332 331 334 335 335 335 337 336 338 339 339 339 339 339 339 340 339 340 340 337 336 336 337 337 336 335 334 334 335 334 334 331 328 331 329 331 332 334 327 328 327 324 321 320 324 326 328 330 332 333 334 333
330 331 331 333 332 334 335 337 336 333 333 333 332 334 336 336 336 336 336 338 338 338 338 339 339 339 339 340 339 338 337 337 337 337 336 333 333 333 334 334 334 333 331 327 326 327 332 332 331 327 321 321 320 320 316 318 321 326 333 332 333 332
331 331 333 333 333 334 334 333 331 331 332 332 333 333 332 332 334 335 335 336 337 339 339 339 339 340 339 338 338 338 338 340 338 337 337 335 334 334 334 334 334 333 331 329 326 328 329 332 332 333 326 319 318 317 318 320 321 321 328 328 331 331
332 333 332 332 333 333 331 329 328 328 327 328 327 328 329 329 331 332 334 336 337 338 338 338 338 339 338 338 338 339 339 338 338 337 338 337 337 336 337 335 335 335 333 333 331 328 327 330 332 331 330 330 329 322 319 321 321 314 324 326 328 330
332 332 332 332 333 332 331 331 331 331 331 329 328 330 333 334 334 335 336 336 336 339 338 338 338 339 339 338 339 338 339 340 339 340 339 338 337 337 337 336 336 335 334 334 333 329 328 328 329 329 329 330 332 331 329 322 318 319 314 321 324 325
332 332 332 332 333 334 332 333 333 333 332 331 331 330 332 333 335 335 335 336 336 337 337 338 337 337 339 338 338 338 339 340 337 336 335 335 337 338 338 338 337 336 336 335 334 332 331 330 328 327 328 329 330 331 332 329 327 322 319 315 316 322
332 331 332 332 332 334 335 334 333 332 331 332 333 332 333 333 333 334 334 335 336 335 336 336 336 337 337 337 337 337 338 337 337 336 335 334 336 336 337 337 336 335 335 335 336 336 334 331 332 329 327 329 329 328 327 329 329 327 321 317 316 317
330 332 332 332 333 334 334 333 332 333 332 330 331 331 333 332 333 335 334 334 334 333 333 334 334 335 335 335 335 336 335 336 336 335 333 334 335 336 337 337 337 337 337 335 336 335 334 334 333 333 331 329 326 326 325 325 325 324 325 323 316 316
330 332 332 330 328 331 332 333 333 334 332 331 330 331 331 331 332 332 332 331 331 331 332 332 333 333 333 333 334 334 334 334 335 335 332 333 335 334 335 336 336 335 336 335 334 335 334 334 334 331 331 329 328 327 326 323 323 323 323 320 318 318
329 329 326 325 328 330 332 332 332 332 332 332 331 331 331 330 331 331 330 329 328 329 329 329 332 331 331 332 333 333 334 334 332 333 332 333 333 332 333 332 333 333 334 334 335 334 334 333 333 333 332 331 331 331 329 327 326 327 324 322 320 318
324 325 326 326 327 327 327 327 328 328 329 329 329 330 331 330 331 329 328 326 326 327 327 328 330 331 331 332 333 332 332 332 331 331 330 329 329 329 331 331 332 331 332 332 332 334 332 333 333 332 332 331 330 328 328 330 329 328 327 326 323 318
323 326 327 330 330 329 328 328 328 327 327 327 326 327 328 326 326 327 328 328 329 328 328 330 329 331 331 331 332 333 332 331 329 328 328 328 327 327 328 326 327 328 327 327 329 332 333 333 333 333 333 329 329 328 328 329 330 329 326 325 321 319
321 324 326 328 329 329 330 331 331 330 328 329 329 329 328 327 326 327 330 330 330 329 329 328 329 330 328 330 329 329 330 328 327 327 326 326 325 325 325 322 322 324 323 323 326 329 330 331 331 331 332 330 329 328 328 328 329 329 328 327 324 321
323 325 326 327 328 330 330 330 330 330 330 329 328 329 327 326 327 329 330 330 329 329 329 328 328 328 327 328 327 327 326 326 325 325 325 324 324 323 324 324 322 324 322 321 325 328 328 330 331 332 332 331 329 327 329 329 329 329 327 328 326 324
326 328 326 326 328 328 329 329 330 330 329 329 328 328 327 326 326 328 330 330 329 327 327 328 326 327 326 326 327 326 325 324 325 325 325 324 324 323 324 324 324 323 322 322 324 323 325 328 329 330 331 330 329 327 327 330 329 329 329 328 326 324

ECMWFFLT2_sfc_thetae_078.txt.gz
Theta_e
350 354 352 356 355 351 354 351 351 350 350 350 350 350 350 350 349 348 348 347 346 351 349 346 348 348 345 348 345 345 346 345 345 345 344 344 343 342 341 340 341 340 340 340 341 343 344 345 344 343 343 342 341 343 345 344 344 343 342 342 340 338
351 350 352 347 351 348 351 350 354 354 350 351 350 349 351 349 349 351 346 348 349 347 347 346 348 346 347 347 346 345 345 345 345 345 344 342 341 341 341 341 340 341 340 340 340 343 346 345 345 343 343 343 342 345 346 346 345 342 341 341 341 340
351 353 354 349 348 352 352 351 353 352 348 346 349 350 351 351 351 349 351 346 345 344 344 342 349 349 347 345 346 344 344 344 344 344 342 341 341 341 341 341 341 341 341 338 341 342 343 345 346 344 343 343 345 343 345 345 345 344 342 341 341 339
350 352 351 351 348 347 350 349 350 350 346 346 349 352 352 351 349 346 348 351 350 348 346 344 342 344 344 346 346 344 343 342 343 342 342 341 341 341 341 340 340 339 341 340 341 340 341 344 346 346 348 346 344 344 343 344 342 344 343 341 339 338
348 350 348 351 351 347 346 348 349 346 345 347 349 349 349 349 350 351 350 351 349 349 349 348 347 344 344 344 345 344 344 342 342 341 341 340 341 336 340 337 339 339 339 340 339 340 341 344 346 347 347 346 345 346 345 343 341 342 344 342 340 339
348 349 349 348 346 344 344 346 348 345 347 350 349 348 348 348 349 351 351 350 350 350 348 346 347 346 345 345 343 341 342 342 340 340 341 340 339 339 339 339 338 337 339 341 340 340 341 342 344 345 345 346 344 345 343 340 341 342 344 342 341 339
347 349 345 349 350 349 349 348 347 345 347 347 348 348 346 346 347 349 349 349 349 347 346 345 345 345 344 344 343 343 343 342 341 341 342 340 341 341 339 339 340 338 337 338 338 339 339 340 342 343 344 342 343 342 342 339 339 343 344 342 341 340
347 348 349 349 348 349 348 347 347 345 345 346 346 343 348 347 348 348 348 349 348 346 343 342 343 343 344 344 342 343 342 339 339 340 344 343 342 341 341 342 342 342 338 336 335 337 337 337 339 342 341 342 342 342 343 341 343 345 343 342 343 342
346 345 346 345 343 344 345 344 345 344 344 346 349 347 347 347 347 348 350 350 348 346 344 342 341 341 343 341 341 341 340 340 341 341 344 342 343 343 345 343 343 342 343 341 336 336 335 337 339 341 341 340 341 342 342 343 344 344 345 345 342 343
346 345 345 343 342 344 344 343 345 345 344 346 349 348 344 344 346 344 348 349 345 344 343 340 340 341 340 340 340 342 340 340 341 341 341 339 342 341 341 341 341 341 341 342 339 339 336 337 336 339 340 342 342 342 343 342 343 342 344 345 344 341
345 345 343 339 341 342 342 342 343 345 345 347 348 347 342 339 342 347 349 348 345 342 343 343 342 344 342 340 340 341 341 342 341 341 342 340 341 340 343 343 344 341 340 340 340 339 337 337 337 337 340 340 342 343 342 344 342 341 341 343 342 341
346 344 340 338 340 340 342 341 343 344 345 344 345 346 342 341 344 347 348 346 344 343 344 344 345 345 342 342 341 341 343 343 342 342 344 343 341 340 339 339 341 341 342 341 340 341 340 338 338 338 339 339 342 342 342 343 339 340 342 343 344 341
344 344 342 340 339 338 341 339 340 346 345 340 343 346 345 344 344 346 348 346 346 346 346 344 344 342 342 342 343 343 343 344 344 344 344 342 341 341 341 341 343 343 341 340 340 340 340 342 341 342 344 343 343 340 340 340 341 342 343 343 344 341
343 342 342 341 338 339 338 338 340 340 344 345 345 344 344 343 341 344 347 346 347 346 345 343 342 345 346 345 344 342 342 339 340 341 342 342 341 342 341 341 340 340 338 339 338 339 338 339 339 341 344 344 345 346 343 339 341 343 344 342 344 342
342 342 341 340 338 337 338 338 340 341 343 345 344 343 343 343 345 344 344 344 345 345 344 345 345 346 346 345 343 342 340 338 340 341 340 340 340 340 340 339 337 336 338 337 338 338 338 339 339 339 341 343 341 342 344 341 343 343 344 343 343 341
340 339 341 339 337 338 339 340 340 340 344 345 343 342 342 335 337 343 342 344 345 345 343 344 345 346 344 343 342 342 340 340 340 340 339 340 340 338 338 338 339 339 335 335 337 337 340 339 339 338 340 341 342 342 342 339 336 341 341 341 342 341
341 341 339 338 337 337 338 339 339 340 341 344 343 342 341 342 341 339 343 342 345 344 342 342 342 342 344 343 343 343 342 342 341 341 340 340 339 340 340 338 339 339 338 336 336 337 338 338 337 337 338 339 341 341 340 338 334 336 338 337 339 340
341 339 338 337 338 337 337 338 338 339 341 343 343 342 339 340 341 342 342 343 345 344 343 343 344 344 345 344 344 344 343 344 343 342 342 342 342 343 343 341 339 339 340 339 337 338 337 338 337 337 336 337 339 338 339 339 338 337 339 338 340 339
337 335 335 336 336 337 337 339 339 339 341 343 342 342 342 341 341 342 342 342 343 344 343 344 346 346 346 345 344 344 344 345 344 342 342 340 340 341 341 342 340 339 340 340 339 339 338 337 336 337 336 336 338 339 339 338 339 337 336 336 340 338
336 336 338 337 336 335 336 335 334 335 336 338 341 340 342 342 342 342 343 342 343 344 344 346 346 346 346 345 344 343 344 344 344 343 341 339 338 338 339 338 339 337 336 336 338 338 338 336 335 336 336 337 339 339 339 339 336 337 339 337 337 338
335 337 337 335 335 334 334 333 334 334 334 336 339 341 341 342 342 342 344 343 344 343 345 345 344 344 344 342 344 344 343 343 342 342 340 339 339 339 340 340 337 337 336 335 336 338 337 337 332 333 336 336 337 338 338 335 333 334 337 339 336 336
338 337 336 337 337 337 337 335 335 335 335 336 338 338 339 342 343 344 344 343 344 344 344 344 343 343 344 345 344 342 343 342 342 341 342 341 339 339 340 339 338 336 338 335 334 335 335 336 331 330 329 330 331 334 334 334 332 333 333 335 336 336
337 337 338 338 338 336 338 339 339 337 336 336 339 341 341 341 342 342 344 344 345 345 344 343 344 344 344 344 344 343 343 342 343 342 341 340 339 338 338 338 338 335 333 336 335 337 337 337 329 332 333 328 324 325 329 331 332 331 335 334 336 334
338 338 338 338 338 339 340 341 341 341 339 338 337 339 340 340 340 342 341 343 343 343 342 342 342 342 342 342 343 343 342 342 342 342 341 339 339 338 340 340 338 336 335 332 332 334 339 338 333 332 324 325 327 324 318 322 325 330 334 331 334 333
338 337 337 337 337 339 340 340 340 339 340 339 340 339 338 337 338 339 340 341 341 343 343 342 343 343 341 342 343 342 341 340 340 341 342 340 339 338 338 338 339 337 336 333 331 334 337 338 334 335 329 324 323 321 321 324 326 326 332 330 333 332
338 337 336 337 338 337 337 338 335 332 331 331 331 332 333 333 336 336 337 342 342 343 343 344 343 343 342 342 342 342 342 340 340 340 340 339 339 340 339 337 337 338 335 336 334 332 333 335 335 336 337 334 333 323 324 327 325 316 329 332 331 330
337 337 338 337 337 336 335 336 334 334 333 332 330 333 336 338 338 337 339 340 341 344 344 343 343 344 343 342 344 344 343 341 339 339 338 339 338 339 338 337 338 336 334 335 335 330 331 331 333 336 337 337 338 336 333 327 322 322 317 325 328 328
338 336 333 331 331 335 334 335 335 336 335 335 334 335 338 339 341 339 339 340 342 343 342 340 342 343 344 342 343 342 342 342 341 340 339 339 339 340 340 340 340 338 336 336 335 332 329 330 328 330 335 334 335 336 335 333 331 326 323 320 321 326
334 330 330 330 331 333 335 337 337 335 335 336 337 336 337 338 338 339 339 339 339 338 339 339 338 339 339 338 339 339 341 341 339 336 335 334 339 341 341 341 339 337 336 335 335 334 331 331 331 331 332 331 331 330 331 332 331 329 324 322 320 322
330 331 331 332 333 334 335 336 335 336 335 335 336 336 337 335 336 338 338 338 336 335 336 337 339 338 337 337 336 336 336 335 336 334 332 332 333 336 341 341 340 338 337 335 336 335 333 330 331 330 331 330 329 328 327 327 328 326 325 327 319 319
331 331 331 332 335 332 330 333 332 333 336 336 336 336 335 335 336 338 336 334 335 334 334 334 336 337 337 335 336 335 334 334 335 335 332 331 333 331 334 337 341 341 339 337 336 337 336 334 333 332 331 331 330 329 326 324 324 324 324 323 322 321
328 328 328 332 334 333 336 337 335 337 336 335 334 335 336 337 337 336 333 332 333 333 333 334 334 334 335 335 336 335 335 335 333 334 333 333 333 331 333 334 335 337 339 340 339 337 338 336 335 333 334 334 334 331 329 327 326 326 326 325 324 321
327 327 328 331 330 333 333 333 334 336 337 336 336 336 336 336 335 333 332 332 332 330 331 332 332 333 334 336 335 335 334 333 333 334 334 332 333 333 333 333 334 335 336 337 338 338 336 337 336 334 333 334 332 330 330 331 330 328 328 329 326 321
330 331 331 332 332 333 333 335 337 338 337 336 337 338 336 334 334 334 333 332 331 331 330 331 332 332 333 334 334 334 335 334 334 334 334 334 334 334 334 330 332 333 335 337 339 339 338 339 338 337 337 334 334 332 332 333 332 331 329 328 324 323
331 331 332 332 333 332 333 334 336 336 335 335 337 336 336 336 335 334 334 332 332 331 330 331 331 334 334 335 335 335 334 333 332 334 334 334 333 333 333 328 329 332 331 332 336 337 337 338 337 337 337 335 334 333 333 332 333 331 329 329 326 325
332 332 332 333 333 332 333 334 332 331 334 336 335 335 334 335 336 335 333 331 331 332 332 332 333 334 335 335 334 333 332 331 331 332 332 331 330 329 330 328 327 330 329 329 333 335 334 336 338 338 338 337 334 332 334 333 333 331 328 329 329 328
333 333 333 333 332 332 332 333 329 330 335 336 336 334 333 334 334 334 333 332 331 331 334 333 333 335 335 334 334 333 330 330 330 330 330 329 328 328 328 329 329 330 330 331 330 329 330 332 338 338 338 336 334 334 333 335 332 332 332 332 330 329

ECMWFFLT2_sfc_thetae_081.txt.gz
Theta_e
347 344 346 344 349 349 352 352 352 351 351 351 351 351 350 349 349 348 348 348 347 350 349 349 348 349 348 348 347 347 347 346 346 345 345 344 344 342 341 339 339 342 342 345 346 346 345 344 344 342 342 344 342 341 345 342 342 341 340 339 338 336
344 347 347 344 348 346 349 349 350 351 351 351 351 351 351 352 348 349 346 348 349 347 348 350 349 346 346 346 347 345 346 346 345 344 344 344 343 342 340 339 339 341 342 343 344 346 346 344 343 343 344 342 343 345 346 345 341 339 340 339 339 338
343 342 342 340 344 347 347 350 348 347 348 348 350 351 349 348 348 347 349 345 346 345 347 345 348 347 344 345 346 345 345 345 345 344 343 342 342 342 342 340 341 338 340 342 342 344 346 344 346 343 344 344 346 344 343 344 343 341 340 340 338 338
344 344 344 346 345 347 351 348 347 347 346 346 347 348 345 347 350 349 348 348 348 347 349 346 344 344 345 345 345 344 344 344 344 343 342 341 340 341 341 342 340 341 341 340 342 343 341 345 345 346 345 346 343 344 343 343 342 338 341 339 337 338
344 343 342 344 343 349 349 349 346 343 345 343 343 345 347 347 345 346 348 345 345 345 346 346 344 345 347 345 344 343 343 343 344 343 342 341 338 335 338 336 337 336 338 338 340 341 343 342 347 345 345 344 344 344 343 344 340 339 339 339 338 340
343 343 343 342 341 346 348 347 345 342 343 342 346 346 344 345 344 345 344 344 343 342 342 341 344 344 346 344 341 341 341 341 340 341 342 339 338 336 337 337 337 336 339 340 341 342 342 343 343 344 343 343 342 342 343 341 340 340 342 340 340 340
342 341 341 345 345 347 347 350 347 344 345 346 348 345 343 344 344 344 343 342 340 341 342 346 345 344 343 341 340 340 342 340 339 338 339 339 338 338 338 338 338 339 340 339 339 341 340 340 342 339 341 342 343 341 342 341 338 341 341 340 341 340
341 341 340 342 342 345 348 347 345 346 346 346 347 348 346 344 342 340 343 343 341 340 339 341 343 342 346 343 343 341 342 339 340 339 340 341 340 338 338 339 340 339 338 338 338 339 338 337 338 342 342 342 342 342 342 339 342 341 340 340 340 342
341 341 340 341 343 345 346 346 345 346 344 344 347 347 346 343 341 341 342 343 343 342 342 338 340 341 342 343 342 341 341 340 342 342 345 342 342 342 341 339 340 339 339 337 336 338 336 336 338 340 341 340 340 339 340 341 343 343 342 341 340 341
344 343 342 343 343 343 345 342 346 343 345 344 345 343 347 346 347 351 353 348 347 349 344 341 343 344 344 343 342 343 343 341 340 340 343 343 342 342 342 342 344 344 340 339 337 336 334 335 334 337 340 340 339 339 340 339 344 341 342 341 341 341
344 343 344 343 344 342 343 343 345 344 344 341 342 341 345 347 347 349 350 348 346 344 343 342 340 342 340 341 342 341 341 340 339 341 342 342 344 342 340 339 341 340 339 340 340 338 336 337 335 334 338 338 339 342 340 340 340 339 344 343 341 340
342 345 344 343 344 343 341 343 346 346 347 342 343 344 345 347 346 347 346 345 344 344 344 343 344 342 340 339 339 341 342 342 340 340 341 340 341 342 341 342 344 342 341 341 340 338 339 337 336 335 338 336 340 343 342 338 340 341 339 342 341 341
345 344 344 344 343 345 344 344 346 345 345 344 345 345 344 345 345 343 341 343 343 343 344 346 346 344 342 341 342 342 342 343 343 344 345 344 343 343 341 341 342 342 340 339 337 338 339 340 338 339 340 337 342 338 339 340 339 337 338 339 340 342
346 345 345 345 342 342 343 344 345 345 343 346 344 346 344 343 344 343 342 342 345 344 344 344 344 343 343 344 345 344 341 342 344 345 345 344 341 342 340 339 339 338 337 339 338 339 338 339 339 340 343 344 339 338 341 341 338 338 340 340 341 341
343 344 343 342 343 342 343 344 344 344 343 343 342 342 342 342 346 341 342 343 341 343 339 343 343 343 343 343 343 345 342 342 344 345 343 344 342 342 341 340 339 338 340 338 339 340 340 340 338 338 340 343 343 339 342 339 341 338 340 340 341 338
338 339 340 341 342 343 342 342 344 344 343 343 340 341 345 347 346 345 343 340 338 341 343 342 344 346 346 343 341 341 341 343 343 342 343 344 345 342 342 342 342 342 338 338 338 338 339 338 339 339 341 342 342 339 341 339 340 338 336 339 338 338
336 337 339 340 341 341 341 342 344 344 344 344 342 342 346 347 346 345 343 339 339 343 341 342 344 342 347 342 340 341 342 343 343 341 341 342 341 341 341 341 342 341 340 339 336 336 337 338 339 340 341 341 340 340 337 340 342 342 339 337 338 338
338 339 340 340 340 341 341 343 342 342 342 343 343 343 345 345 343 343 344 341 342 343 344 342 341 339 340 338 340 341 343 342 342 343 343 342 341 340 341 341 339 341 340 339 336 335 337 336 338 339 339 338 339 339 340 339 340 340 340 337 336 336
340 340 340 340 340 341 341 341 342 341 341 343 342 342 344 342 341 344 343 341 340 343 343 343 343 341 340 339 341 341 342 340 340 342 342 340 340 340 340 341 341 339 341 338 336 335 337 336 337 338 337 338 337 336 339 338 339 340 340 340 338 337
340 340 340 340 339 338 338 338 337 338 338 338 339 340 343 343 341 340 341 340 341 344 343 344 341 340 340 336 338 341 338 338 342 343 341 340 339 339 339 340 340 339 338 338 338 339 337 336 336 335 335 337 335 336 337 339 338 338 338 338 335 337
340 340 339 337 337 336 336 336 337 335 337 336 337 341 340 341 340 342 340 341 340 342 344 340 338 338 335 336 337 337 340 339 339 341 340 341 341 340 341 341 339 339 338 336 337 339 338 338 334 331 332 331 332 336 335 339 339 337 335 337 339 337
340 339 338 338 338 337 338 336 335 335 337 335 337 336 338 340 340 339 338 341 342 341 341 340 339 336 336 338 336 340 337 342 341 341 341 341 341 339 340 340 340 337 339 336 335 338 338 336 330 330 329 326 330 334 336 338 336 338 339 337 336 335
339 337 339 340 339 338 339 339 339 338 338 336 340 338 338 340 342 338 339 341 342 342 339 339 338 337 339 341 340 343 340 343 341 340 340 338 339 339 339 339 339 337 335 337 336 338 338 339 330 330 329 326 321 323 328 332 335 336 336 337 336 333
338 339 339 340 339 341 341 341 339 339 340 339 336 339 340 340 338 340 338 339 341 339 338 339 339 340 338 339 339 341 339 339 336 339 340 340 336 336 339 338 338 338 336 332 332 334 336 338 333 331 320 322 323 325 319 320 326 331 336 332 333 332
340 339 341 341 341 341 342 340 339 339 341 340 340 338 335 337 340 337 337 339 338 339 339 340 341 340 339 338 340 341 341 340 340 340 337 337 337 337 334 336 337 336 336 331 330 332 334 334 334 335 330 325 320 316 318 323 324 326 333 332 332 334
341 340 339 337 337 338 340 338 335 334 330 334 333 331 333 331 334 335 337 339 339 341 342 340 340 340 337 341 341 341 340 337 342 340 338 337 337 338 336 335 335 337 334 335 333 330 330 335 336 336 336 333 331 324 322 325 324 318 327 331 332 333
334 335 336 337 340 338 339 336 339 337 335 334 333 333 334 336 339 336 337 340 340 342 340 341 340 339 339 340 342 341 341 339 339 340 340 338 338 336 336 335 335 336 334 335 335 330 330 330 333 335 335 334 333 333 333 328 322 323 317 324 329 330
333 333 337 339 337 339 337 340 337 334 332 332 334 334 335 337 339 338 338 339 341 341 342 341 340 339 339 340 340 341 340 340 338 339 337 338 338 338 337 336 337 337 337 335 335 333 331 330 330 330 334 333 333 333 334 331 328 324 322 319 321 328
329 331 335 338 337 339 339 338 336 333 332 334 333 335 333 336 337 338 341 339 338 340 341 341 340 339 339 340 340 341 340 340 339 339 335 337 339 336 337 338 338 338 338 335 334 335 334 332 330 331 330 331 331 330 331 331 331 328 324 320 320 321
329 330 332 337 337 338 339 339 339 337 335 335 334 332 335 335 338 338 338 338 338 339 339 340 341 340 340 339 339 341 342 341 340 339 333 335 338 337 338 338 338 338 337 335 336 336 334 334 337 333 334 330 329 328 328 328 327 326 326 326 320 320
329 330 333 335 336 336 338 337 336 336 335 332 332 332 332 331 333 334 332 333 335 336 337 336 338 338 338 337 336 336 336 336 335 335 332 332 333 337 339 338 340 340 339 338 337 336 336 335 335 332 332 334 330 328 326 326 326 327 325 323 321 320
330 330 332 334 335 335 336 336 336 338 335 334 331 331 331 327 331 332 330 332 334 333 333 335 336 335 336 336 336 334 335 334 333 334 332 332 332 331 333 336 338 338 337 339 337 336 335 336 335 333 334 333 336 331 330 330 326 327 326 325 324 322
329 331 331 334 334 335 335 336 336 339 337 333 330 330 330 333 334 335 334 333 332 332 333 333 333 334 335 335 334 334 334 332 333 333 333 332 332 332 332 332 332 337 337 335 334 334 333 334 334 333 329 334 333 330 331 333 331 328 329 332 325 323
330 332 332 334 336 336 335 335 336 336 335 333 331 332 330 332 332 333 334 333 332 333 332 333 332 333 334 333 333 334 334 334 333 334 333 334 333 332 333 330 333 333 336 337 337 338 335 334 335 331 335 334 331 330 333 333 331 329 329 326 324 322
331 333 333 334 335 336 336 338 335 335 334 331 332 333 332 332 333 333 334 332 332 332 331 332 332 333 333 334 334 334 334 333 333 334 334 334 334 334 333 331 331 332 332 335 338 336 335 336 335 333 333 333 335 333 334 336 334 329 329 327 325 324
332 333 333 334 335 335 337 337 336 334 333 332 332 332 332 333 334 334 333 332 332 332 332 331 333 333 334 334 332 332 331 331 332 333 333 333 332 331 331 330 329 331 330 330 335 336 335 338 337 337 336 335 332 333 334 331 330 331 330 330 329 327
333 333 333 334 335 335 336 336 336 335 334 334 333 331 330 334 336 334 333 333 331 331 332 334 331 333 333 332 332 331 330 330 332 333 333 331 331 331 330 330 330 329 329 330 330 329 331 336 337 338 335 334 333 331 332 332 331 330 331 331 330 328

ECMWFFLT2_sfc_thetae_084.txt.gz
Theta_e
347 347 347 348 348 350 351 352 351 351 351 351 350 350 349 348 347 348 348 349 348 348 348 347 347 346 349 348 348 348 347 347 347 346 346 345 344 343 342 342 342 345 347 347 346 346 345 344 344 344 344 345 347 339 341 338 337 337 335 334 335 334
345 344 344 349 348 349 350 350 350 350 349 349 348 349 347 348 349 347 348 348 347 348 347 347 347 346 346 346 346 347 346 346 346 345 345 344 343 343 341 341 342 342 346 346 345 343 344 343 344 344 344 345 341 341 341 340 337 336 335 334 335 336
345 344 345 347 349 348 349 348 349 348 348 349 348 348 348 348 346 346 347 345 346 347 345 345 347 346 346 346 346 347 346 346 345 344 344 344 342 342 342 341 341 342 343 346 344 344 342 342 341 345 343 342 341 344 341 337 337 336 334 334 334 338
344 343 343 346 349 348 346 348 346 346 347 347 348 347 347 346 346 345 346 346 346 345 346 348 345 346 345 344 345 346 346 345 344 344 344 342 342 341 342 342 340 340 341 340 339 342 343 341 342 341 342 344 346 341 339 336 336 335 334 335 334 341
344 343 342 345 345 344 345 347 346 344 346 346 346 346 345 346 346 346 346 345 344 345 345 345 344 343 344 343 343 343 343 343 342 342 343 339 338 337 338 335 336 337 334 335 335 338 340 342 343 341 344 346 343 342 337 338 337 335 334 334 335 340
343 344 345 343 344 344 346 347 344 345 343 341 344 346 347 344 345 345 346 346 346 345 344 344 344 342 342 344 342 342 342 342 342 341 340 338 336 335 334 334 334 332 334 336 336 342 341 340 342 343 343 343 344 340 338 337 338 336 336 336 336 338
342 343 344 345 346 346 343 342 342 341 340 343 343 343 344 344 344 343 344 345 345 344 343 344 343 342 343 341 341 342 341 340 341 339 339 339 336 336 333 334 334 334 335 336 336 337 341 340 341 341 341 341 339 335 336 337 338 337 336 337 339 341
343 343 344 345 345 345 343 342 344 344 343 343 343 344 343 344 345 344 345 344 344 343 343 341 341 342 340 341 339 339 339 338 338 337 340 339 337 335 334 338 336 336 335 336 334 336 336 335 337 339 339 341 335 334 337 340 339 338 337 337 338 339
343 343 343 345 347 346 344 344 343 342 341 343 338 342 344 344 343 344 345 343 342 340 342 342 341 342 342 344 342 340 341 340 339 337 336 338 338 337 337 339 340 341 342 338 338 339 336 336 336 341 337 334 335 337 339 338 341 340 338 338 338 339
342 342 342 344 346 345 345 343 343 341 341 341 339 344 343 342 342 342 342 343 342 341 341 341 343 346 343 340 340 342 341 341 342 345 345 344 345 348 345 344 344 344 339 337 334 338 340 336 334 334 333 335 337 337 339 340 340 340 341 339 339 339
342 342 342 343 344 343 344 344 344 341 342 341 343 343 342 342 341 342 341 341 341 341 340 340 342 342 340 340 339 341 341 345 343 344 344 344 345 344 345 343 346 343 341 340 339 337 334 336 335 330 336 337 335 335 338 339 340 340 341 341 339 338
341 342 343 345 344 343 343 342 343 343 341 342 342 342 341 341 340 340 342 341 339 339 341 340 338 339 337 338 338 339 341 341 343 343 344 344 345 345 342 340 343 341 342 343 341 340 339 337 335 333 337 335 337 337 337 338 340 340 341 340 338 338
339 342 342 343 344 344 343 340 340 341 341 342 344 342 340 339 339 341 341 339 339 339 338 339 340 337 335 336 338 342 341 341 339 340 342 344 343 343 343 341 342 343 342 341 338 337 338 339 333 332 336 337 338 337 338 338 339 339 340 340 339 338
340 338 340 341 340 340 339 339 339 341 341 343 343 342 340 342 342 342 343 343 344 341 342 341 339 341 338 338 340 340 339 340 341 345 344 344 342 342 341 339 338 339 337 337 337 336 339 338 331 333 335 336 336 337 338 337 336 338 339 338 338 337
337 336 337 338 338 341 340 337 340 341 343 343 344 342 342 341 342 343 342 343 344 345 338 336 339 340 343 342 339 342 341 343 344 343 342 343 343 343 342 341 339 337 338 339 337 339 339 335 330 331 335 336 337 339 338 336 336 337 338 338 338 337
338 336 336 338 340 341 340 339 340 340 341 343 343 341 342 341 341 340 342 341 344 341 341 339 341 342 343 341 339 340 342 344 345 343 344 344 344 341 342 342 341 341 338 337 336 335 338 332 330 331 335 335 336 338 336 335 336 337 337 337 337 336
340 340 340 341 342 342 340 339 339 338 341 342 342 341 342 344 341 341 342 342 342 342 337 339 340 343 344 340 338 336 336 339 345 343 343 345 343 342 341 341 342 343 340 339 335 336 334 333 329 333 335 336 337 335 333 332 334 335 337 336 336 334
342 343 342 342 342 341 340 339 338 338 341 342 341 340 341 340 339 341 339 339 340 339 339 338 341 341 339 338 339 337 336 338 343 344 344 344 342 341 340 343 339 342 340 339 336 335 336 335 332 331 332 331 333 333 332 331 334 334 333 335 335 334
339 341 341 342 342 341 339 337 338 338 339 339 341 341 341 340 340 341 341 340 339 341 340 340 340 341 339 339 338 340 340 342 339 340 339 338 339 338 340 340 338 337 338 339 337 336 335 332 331 331 331 331 334 334 332 332 334 336 333 335 335 334
339 340 340 339 340 339 338 334 333 336 336 336 337 338 339 340 342 339 340 339 339 340 340 341 341 341 340 338 337 337 340 339 339 337 336 335 336 337 337 337 336 337 335 335 337 337 335 331 330 331 330 331 334 334 331 331 332 334 335 334 335 335
339 339 337 337 337 336 335 334 335 332 332 334 336 337 339 339 341 340 340 339 338 341 340 339 340 340 340 338 338 338 338 338 339 336 333 334 337 336 339 336 336 336 334 332 334 337 334 333 329 328 330 331 331 331 333 334 331 333 333 334 334 332
339 337 338 338 337 338 337 336 335 334 334 334 335 335 335 338 338 339 339 338 340 341 341 340 339 339 339 338 337 337 336 339 339 337 336 334 335 335 337 336 335 335 333 333 334 336 333 330 327 326 324 324 327 330 330 332 330 330 332 332 332 332
335 337 337 336 339 338 341 340 338 335 335 336 340 337 340 338 339 339 340 340 341 339 340 339 339 338 337 337 337 336 336 338 337 335 336 333 334 335 336 335 337 333 332 336 332 335 335 333 325 327 329 324 321 320 324 329 332 330 331 333 332 331
335 336 336 337 340 341 335 335 337 341 337 337 338 338 339 338 339 340 338 339 339 343 340 338 338 337 336 337 337 337 337 337 333 334 337 333 330 332 333 336 334 335 335 330 331 333 334 334 331 326 319 320 320 321 316 320 323 326 331 330 331 330
333 332 333 334 337 336 332 335 339 340 338 337 339 338 335 335 336 337 338 338 338 341 339 339 338 337 337 339 339 340 338 336 333 335 339 338 336 334 335 336 335 333 335 334 329 331 334 335 335 335 325 320 317 316 318 320 322 322 328 328 328 330
333 334 333 334 337 333 334 335 335 335 330 332 330 332 331 331 333 334 336 339 338 338 339 339 339 337 337 339 338 339 338 336 338 338 339 339 340 341 338 335 336 334 334 337 332 329 330 334 335 333 332 333 330 321 319 322 321 314 325 328 328 330
331 334 334 334 337 334 333 334 333 336 335 332 331 333 335 336 337 337 338 337 338 340 339 340 336 335 336 336 338 340 340 338 337 338 337 340 338 338 336 334 336 335 334 337 334 329 329 330 333 335 335 334 332 330 329 323 317 319 315 321 326 327
331 333 333 334 336 338 335 334 333 334 334 335 334 332 334 334 338 337 336 337 338 340 340 339 336 335 337 338 338 340 338 339 338 338 338 338 338 339 337 337 336 337 337 337 334 329 329 328 327 328 332 331 330 332 330 329 325 322 318 315 318 324
329 331 334 334 336 337 337 336 336 335 334 335 336 335 335 335 334 336 334 335 334 335 335 336 336 336 336 339 338 339 338 339 339 338 336 337 342 336 338 335 335 337 335 334 336 335 332 330 328 327 329 329 330 329 330 330 329 326 320 317 317 318
329 330 335 335 336 337 337 334 332 334 334 332 333 334 335 334 334 333 331 332 333 333 335 333 333 332 334 337 340 339 341 339 341 338 335 337 339 338 337 337 336 336 335 334 336 335 333 333 333 332 333 331 328 326 325 326 327 325 324 322 317 318
330 330 334 335 334 336 335 330 331 334 334 332 332 333 331 330 331 330 331 332 330 330 333 333 333 335 335 338 338 338 338 336 338 337 333 334 335 338 338 337 337 337 336 335 334 334 334 333 334 332 331 332 330 327 324 320 323 324 323 321 319 319
329 330 333 336 335 336 334 332 333 333 335 334 333 332 330 329 329 331 333 333 334 333 334 333 334 333 337 336 337 336 336 336 336 338 334 334 334 335 337 337 337 340 336 336 336 335 334 332 332 332 332 332 331 331 330 328 327 327 323 323 320 318
328 330 333 335 336 335 332 331 331 330 331 334 334 332 331 330 330 332 332 331 330 330 332 333 335 334 335 337 336 336 336 337 338 341 339 336 335 334 335 335 335 337 336 334 335 334 334 332 332 331 331 333 332 331 330 330 328 328 329 326 322 318
329 330 333 334 335 335 334 332 334 334 334 334 333 332 331 330 333 335 334 333 333 332 331 333 333 334 335 335 336 337 337 336 336 336 336 336 335 335 334 330 333 334 336 336 336 334 334 334 334 333 334 331 332 330 332 333 329 329 327 325 321 319
329 330 332 333 334 335 335 335 336 336 334 333 333 332 333 335 334 334 334 334 334 334 333 332 332 334 335 335 336 336 335 335 336 337 335 335 335 334 334 331 330 333 334 334 335 336 334 333 334 333 333 332 333 331 332 332 332 327 328 328 324 321
330 330 331 333 334 334 334 335 335 334 334 334 333 333 334 335 337 336 333 333 334 334 334 334 333 334 336 334 334 333 333 334 334 335 335 334 333 332 334 331 330 332 331 333 332 333 333 335 333 334 334 333 332 331 332 331 331 329 327 328 327 324
331 332 331 333 334 334 334 334 334 334 334 333 333 333 332 334 334 332 331 332 336 335 335 334 334 336 334 334 333 333 331 333 336 335 334 334 333 334 334 330 330 332 330 331 331 330 329 334 334 336 335 333 332 332 330 331 330 332 330 327 328 326

ECMWFFLT2_sfc_thetae_087.txt.gz
Theta_e
345 345 346 347 348 348 350 352 352 352 352 351 350 350 350 349 349 350 349 349 348 344 344 345 346 345 349 347 348 349 348 348 347 347 346 345 345 344 344 345 346 346 346 346 345 347 345 345 346 346 347 347 346 337 334 333 333 334 333 333 334 333
343 344 345 346 348 349 349 350 348 349 349 349 350 350 348 346 350 346 349 347 344 346 342 342 344 349 346 346 346 348 348 347 347 346 346 345 344 344 343 344 345 347 347 346 346 337 339 344 345 345 347 348 339 335 333 333 332 333 333 332 334 336
341 343 344 345 347 347 347 346 347 347 348 349 349 347 344 347 345 344 344 343 344 343 342 343 343 346 346 347 347 348 347 347 346 345 345 344 344 343 343 343 343 344 346 346 340 336 336 336 334 345 345 338 339 334 334 333 333 332 332 333 331 337
341 343 343 344 345 345 345 345 345 345 345 346 345 344 344 344 344 343 342 342 341 342 342 341 348 347 347 344 345 347 346 346 345 344 344 343 343 342 343 343 343 343 343 344 338 338 340 336 335 334 335 336 336 333 333 333 333 332 333 335 334 340
340 341 343 344 344 343 343 344 344 344 344 344 344 343 343 342 343 342 342 341 341 342 342 341 341 342 340 341 340 340 341 340 339 339 344 335 334 337 336 335 336 338 332 333 335 336 338 337 336 336 337 335 334 334 334 333 333 333 332 332 336 340
339 340 342 342 342 344 344 341 341 343 342 342 342 341 341 341 341 341 341 341 341 340 340 339 339 339 340 340 339 339 339 338 338 338 340 334 332 331 330 330 332 331 329 330 331 332 336 339 336 336 333 332 333 334 334 333 333 333 333 333 335 339
338 339 340 341 341 342 340 339 340 341 339 340 340 340 340 341 341 341 341 342 341 339 339 339 338 338 339 339 338 338 338 339 338 337 338 334 331 330 329 329 329 328 328 329 332 333 338 340 337 334 333 334 334 335 335 334 334 334 334 335 339 340
338 339 339 340 341 340 338 338 340 343 340 342 340 340 340 340 340 340 341 341 341 339 339 338 338 338 338 338 338 339 339 337 337 336 336 336 332 330 328 329 330 330 331 333 333 334 338 340 334 333 333 334 335 335 336 337 336 335 335 335 336 338
339 340 340 341 341 339 338 339 338 337 339 344 339 340 340 340 339 340 341 340 341 339 338 338 338 337 337 337 336 336 336 334 336 335 335 334 334 330 328 329 331 331 333 334 335 334 334 332 331 332 333 334 335 336 337 337 336 336 336 336 336 337
340 340 340 341 340 339 338 337 337 338 338 341 337 339 340 339 339 340 339 339 339 338 338 337 338 338 336 336 336 335 335 334 333 333 333 333 334 332 332 333 335 338 338 335 334 335 331 331 332 334 335 335 336 337 338 338 337 337 337 336 337 337
341 341 341 340 339 339 339 338 337 338 337 335 337 340 339 338 338 339 339 338 338 338 338 338 338 336 336 336 335 334 335 337 335 336 335 337 337 338 338 338 338 337 336 337 335 333 331 331 332 334 335 335 336 337 339 339 338 338 337 337 336 335
340 340 340 338 340 340 339 337 338 338 337 337 339 338 338 337 338 337 338 337 336 337 337 336 336 335 334 334 333 334 335 334 334 335 337 337 337 338 335 337 338 337 339 338 334 332 331 332 332 333 333 334 335 336 337 338 338 338 337 336 335 334
339 339 337 336 337 339 338 338 337 337 337 339 339 338 336 336 337 338 337 336 336 337 338 336 335 335 335 333 333 334 334 335 335 335 336 337 336 337 337 337 338 339 335 336 331 331 332 331 331 332 333 335 335 336 337 337 337 337 337 336 335 334
338 337 338 338 339 338 337 336 338 338 339 340 339 337 337 336 338 338 336 336 336 336 337 338 337 336 335 335 335 334 333 334 334 335 336 336 335 335 334 336 336 334 338 332 330 329 329 330 332 333 333 335 335 335 336 336 336 337 336 335 335 334
337 337 338 337 338 337 336 336 337 338 339 340 339 337 338 338 338 338 339 337 338 338 336 337 338 336 333 334 334 333 332 331 333 336 336 335 334 335 332 331 331 332 331 330 328 330 330 330 330 332 333 335 335 335 335 335 335 336 336 335 335 335
336 337 336 336 336 336 336 336 337 340 338 340 339 338 338 338 339 338 338 338 338 337 334 336 337 336 332 333 334 333 334 335 334 334 334 336 335 333 334 334 333 333 329 328 330 329 330 329 331 332 333 334 334 334 333 333 334 334 335 335 333 333
335 336 336 334 335 334 334 335 336 336 338 339 338 338 337 338 337 337 338 338 337 337 333 336 336 336 333 334 334 332 333 333 336 334 336 334 333 334 335 335 335 336 330 329 328 328 328 328 330 331 332 332 331 330 330 331 331 332 335 333 330 330
334 335 333 332 333 333 334 334 333 335 335 336 337 337 338 338 337 337 336 335 337 336 335 336 336 337 335 335 333 333 332 333 336 336 336 333 332 335 335 335 335 332 330 329 328 328 328 329 331 330 329 330 330 329 329 330 332 332 330 331 330 331
335 334 334 332 334 332 334 334 334 335 334 335 335 336 337 336 336 335 334 335 337 336 337 337 336 336 334 335 334 333 332 334 336 335 334 335 334 334 335 334 333 330 329 329 329 328 328 328 329 329 329 331 331 330 329 329 330 330 330 330 331 332
332 331 332 332 331 331 332 331 331 333 333 332 333 334 335 335 336 334 335 335 337 336 337 337 337 335 334 334 333 334 335 335 332 332 331 331 331 331 332 331 332 329 330 331 331 329 329 329 328 326 325 328 328 328 328 329 330 331 329 330 330 330
330 330 329 330 330 329 328 328 329 329 330 332 332 334 335 333 334 334 335 337 337 336 337 338 338 336 334 336 333 333 334 334 333 331 330 330 332 333 333 331 330 330 330 330 329 329 329 328 326 325 327 325 325 328 330 331 330 330 330 329 329 329
329 330 330 331 331 328 329 329 328 329 331 330 332 332 333 334 334 334 335 335 335 336 336 336 337 336 334 333 332 332 332 333 332 330 331 331 330 333 333 333 331 328 328 329 328 329 329 328 323 323 320 319 322 326 328 327 328 328 330 330 328 328
329 330 330 332 332 329 329 331 330 329 331 330 334 334 335 335 336 335 335 335 335 337 336 336 336 336 334 333 332 332 331 332 331 333 329 328 330 329 330 330 330 328 326 327 328 331 328 325 322 323 324 321 318 318 322 324 326 328 330 330 329 327
328 329 330 332 334 332 332 331 331 331 332 332 331 334 334 335 335 335 335 337 336 337 337 336 336 336 335 333 332 331 332 331 330 330 330 327 327 329 329 330 329 330 328 323 324 327 330 328 326 324 317 315 317 318 315 318 321 325 328 328 328 326
329 329 330 333 334 332 332 332 331 330 331 331 333 332 333 333 334 334 333 333 334 336 337 336 335 335 334 332 332 332 332 330 329 329 331 328 326 327 329 330 331 330 328 325 325 324 327 329 327 325 320 315 312 313 314 318 321 321 327 326 326 327
330 331 331 333 332 331 331 331 329 327 326 326 327 328 328 329 331 331 331 333 334 336 336 335 334 335 335 334 333 333 333 331 329 330 332 330 329 329 326 327 330 330 329 327 327 326 325 327 328 327 324 321 318 312 316 318 318 314 323 325 326 328
330 330 331 332 331 331 331 332 329 328 328 327 327 328 330 331 331 332 333 333 334 335 335 334 333 333 333 335 334 334 333 331 332 331 334 330 328 328 329 329 330 329 329 328 328 326 326 326 327 327 328 327 325 323 324 319 314 319 315 321 325 325
330 331 330 332 331 331 332 332 330 329 329 329 328 329 330 331 332 334 332 333 333 332 334 334 332 331 332 334 334 335 334 332 333 334 333 331 328 331 331 330 329 329 330 330 329 327 325 327 325 324 326 325 325 326 325 321 322 319 317 315 317 323
329 329 329 328 330 330 331 333 332 330 329 330 330 330 330 331 331 331 330 330 331 330 330 331 333 332 331 332 332 332 332 331 332 334 334 333 332 331 330 329 328 328 328 329 328 327 327 325 325 324 325 322 324 323 324 323 323 321 318 316 316 317
325 327 330 328 329 331 330 329 331 330 328 328 330 330 330 329 329 328 328 327 327 327 328 328 329 330 330 331 331 330 332 332 330 332 333 333 332 332 332 329 330 329 329 329 328 328 326 325 326 325 325 324 322 319 320 321 320 320 319 320 316 316
327 329 331 330 331 332 330 328 326 329 328 328 329 329 328 327 327 325 326 326 325 326 327 326 327 328 330 331 330 330 331 331 331 333 332 333 332 331 330 331 332 331 330 330 329 327 327 327 327 326 326 325 322 321 319 317 319 320 319 316 317 317
327 329 331 332 332 333 330 328 327 328 329 330 330 329 327 326 326 325 325 325 324 325 326 326 327 328 328 331 330 330 330 329 329 330 330 331 333 332 332 332 331 331 331 329 328 328 326 327 327 326 325 324 323 322 321 321 322 322 319 319 318 317
327 329 330 333 332 331 329 328 328 327 328 331 330 328 327 326 326 327 327 326 326 325 326 325 326 326 327 328 327 327 327 327 328 330 329 330 332 333 332 330 330 331 329 329 328 328 326 325 326 325 324 325 325 326 324 323 324 322 321 321 319 316
327 329 331 331 331 329 328 327 327 326 327 327 328 327 326 326 327 328 328 327 326 327 326 326 326 325 328 328 329 329 330 329 327 328 329 329 330 331 330 330 330 330 330 328 329 326 326 325 326 327 327 326 325 325 323 323 324 324 321 320 317 316
326 328 330 329 330 329 326 326 328 326 327 327 327 327 326 328 329 328 327 327 326 327 327 328 328 329 330 330 330 329 328 327 327 326 327 328 329 329 328 329 329 328 330 330 329 327 325 327 327 326 324 324 324 323 324 326 325 324 323 321 319 317
326 326 326 326 328 328 326 329 328 328 327 327 328 328 328 329 328 328 328 328 327 327 328 328 329 329 329 329 327 327 328 328 327 326 326 324 324 324 326 327 327 328 328 330 329 328 325 327 326 324 323 324 326 325 325 325 325 324 324 322 320 318
327 326 326 327 327 327 326 327 328 328 329 326 326 328 329 328 328 326 327 327 327 328 328 328 328 329 327 326 325 325 326 326 326 326 325 324 325 325 325 326 326 326 326 327 328 327 326 327 327 326 325 325 324 325 324 324 325 324 324 322 321 320

ECMWFFLT2_sfc_thetae_090.txt.gz
Theta_e
347 347 348 347 347 347 350 352 351 352 352 351 351 351 351 351 351 350 350 350 347 345 345 346 347 347 349 347 348 348 348 348 347 347 346 346 346 346 346 347 347 346 346 346 345 346 345 346 347 347 346 341 339 331 331 331 331 332 331 332 334 331
345 346 347 347 347 347 349 349 347 348 349 349 350 350 349 348 350 347 349 347 343 345 343 342 345 350 346 347 348 348 348 347 347 347 345 345 345 345 345 346 347 347 346 345 345 332 335 342 344 346 342 339 333 331 331 331 331 331 331 331 334 335
344 345 346 347 347 347 346 345 346 347 347 349 348 348 345 347 344 345 344 343 344 342 342 343 344 346 346 348 347 348 347 347 346 346 345 344 344 344 344 345 346 346 346 345 334 331 333 331 334 343 341 333 331 331 331 331 330 330 330 331 330 337
342 343 344 346 346 346 345 346 346 345 344 344 344 343 342 343 343 342 342 341 341 342 341 341 350 350 348 346 346 347 347 346 346 345 344 344 343 343 343 343 344 346 342 339 332 332 335 333 333 333 333 331 331 331 331 330 330 329 330 334 332 338
342 342 343 345 346 345 345 345 345 344 343 343 341 341 341 341 342 342 341 340 340 341 340 340 341 342 341 342 342 341 342 339 338 338 342 332 332 338 335 333 334 335 328 330 331 330 333 334 333 332 331 331 331 331 331 331 330 330 331 333 335 337
341 341 343 345 344 345 345 343 342 342 343 342 341 339 340 340 340 340 340 340 340 338 338 338 339 339 340 339 338 337 336 335 334 335 336 332 330 330 328 329 332 330 329 328 329 329 333 334 331 330 330 331 331 331 330 330 330 330 332 333 335 337
339 341 343 344 343 345 343 342 340 341 342 341 339 338 339 339 340 340 339 340 338 337 337 337 337 338 338 338 337 336 336 336 335 335 335 331 328 327 327 327 326 327 326 327 329 330 333 336 332 331 332 332 332 331 330 330 331 331 332 333 338 339
339 342 341 342 342 342 340 338 339 344 341 342 338 337 338 339 340 339 339 340 339 337 337 336 336 337 337 337 337 337 336 336 334 334 335 332 328 326 326 326 326 326 327 327 328 330 333 336 332 331 332 333 333 332 332 333 333 333 333 334 335 338
340 340 340 341 341 339 337 337 339 338 338 344 337 337 338 338 338 339 340 340 340 337 337 336 336 337 337 336 336 336 336 335 335 334 333 331 329 327 325 326 327 327 327 328 329 329 335 332 330 330 332 333 334 334 334 334 334 334 333 332 333 335
338 338 338 339 338 337 336 335 337 337 338 341 337 338 339 337 337 339 339 339 339 338 337 336 336 336 336 335 335 335 335 333 334 333 332 331 331 328 326 325 327 331 332 329 330 332 332 330 330 332 333 333 334 335 335 334 334 334 334 333 333 334
338 339 338 338 337 337 336 334 336 338 338 336 337 339 338 337 337 337 338 339 339 339 338 337 336 336 335 335 334 333 333 333 331 331 332 331 332 330 328 327 330 330 330 328 328 330 330 329 330 333 335 335 335 336 335 335 336 336 335 333 331 331
337 338 337 337 338 336 335 335 336 337 336 337 338 337 337 337 337 337 337 337 338 338 338 337 336 335 335 334 333 333 331 333 332 332 332 333 333 334 333 333 334 333 330 328 327 329 329 330 331 332 334 335 335 335 334 335 335 335 334 330 330 331
338 336 335 335 336 335 334 335 335 335 336 339 338 337 336 336 336 337 337 335 337 338 338 336 334 335 336 333 332 331 331 332 332 333 334 335 335 334 334 335 334 333 330 328 328 328 331 330 331 331 332 333 334 334 335 335 335 334 333 332 331 331
338 334 335 335 334 335 334 334 335 336 338 337 335 335 336 335 337 336 336 336 337 337 336 335 334 333 333 332 332 332 332 331 331 333 334 334 333 331 331 333 333 332 332 328 328 329 330 330 329 330 331 332 333 334 335 335 334 333 332 332 331 331
337 333 335 334 335 334 335 335 335 335 336 337 334 333 334 335 336 335 335 335 335 336 336 336 335 334 333 332 332 331 331 331 334 333 333 333 333 329 330 330 329 327 327 327 327 329 328 328 329 331 332 332 334 335 334 334 333 333 333 332 332 331
333 332 333 334 333 332 332 333 334 335 334 335 335 335 335 334 335 335 335 334 335 336 336 336 335 333 332 332 332 331 331 331 332 332 333 333 332 331 330 330 328 327 326 326 327 326 327 327 329 331 333 332 332 333 331 332 333 333 332 332 330 330
331 332 331 331 332 331 332 333 334 334 336 335 335 334 335 335 337 336 335 335 335 335 334 335 334 333 332 332 331 330 331 331 332 332 333 331 331 332 332 329 327 328 327 326 326 325 325 327 330 331 331 330 330 331 330 330 330 331 331 329 328 328
332 332 331 331 331 331 332 332 332 332 334 334 334 334 337 336 335 336 335 334 334 334 334 334 333 333 332 332 331 331 330 332 332 332 332 330 331 332 330 328 326 326 328 327 325 325 326 328 329 328 328 328 329 330 330 329 328 330 328 328 327 328
331 331 330 331 331 331 332 332 332 332 333 334 335 336 337 336 335 335 334 335 334 333 335 334 333 333 332 332 331 330 331 332 332 331 331 331 332 329 329 328 327 325 327 327 325 326 327 327 328 328 327 327 329 329 329 330 329 328 328 329 331 330
330 331 330 330 331 331 331 330 330 331 331 332 332 334 335 335 335 334 334 335 334 334 335 334 333 333 333 331 330 330 331 333 331 331 331 331 329 327 327 326 326 325 325 327 327 327 327 326 326 326 325 326 328 329 330 329 328 328 328 329 329 328
329 330 330 329 328 329 328 328 329 329 329 331 332 333 334 333 334 334 334 335 334 334 335 334 333 332 332 334 331 332 332 331 331 331 330 330 329 328 329 327 326 324 325 324 323 326 326 327 325 323 324 324 327 329 328 329 329 329 329 329 329 328
329 330 330 330 330 329 330 330 330 329 329 330 331 332 331 331 332 333 334 335 335 335 335 334 333 332 333 332 332 332 331 330 329 329 330 330 328 330 329 328 327 326 326 324 323 325 326 326 321 320 319 320 323 326 327 326 328 328 328 328 327 326
328 329 330 331 330 329 330 330 329 329 329 329 331 332 333 332 333 331 333 335 335 335 335 335 334 333 332 332 332 331 331 330 328 330 329 328 328 327 327 327 328 327 325 323 324 324 326 321 320 320 320 319 317 317 321 324 326 327 328 328 328 326
328 329 329 331 331 330 331 330 329 330 330 330 330 333 333 333 332 331 331 332 333 335 335 335 334 333 332 331 331 331 331 329 329 328 327 326 327 327 327 327 327 327 326 323 320 323 325 324 324 321 313 312 317 318 314 317 320 324 326 327 328 328
328 328 329 331 331 329 330 327 328 329 331 330 330 331 331 330 331 332 332 331 331 333 334 334 334 333 332 330 330 331 330 329 328 328 327 326 327 327 327 328 328 327 326 324 321 320 325 324 324 322 319 315 313 313 314 318 321 321 325 325 326 327
328 329 329 330 330 329 329 327 326 326 326 326 326 327 328 328 330 331 331 331 333 334 334 333 332 332 332 332 331 331 330 328 327 328 327 326 326 326 326 327 329 327 326 325 325 323 322 323 325 325 320 317 318 314 315 319 319 313 323 324 324 327
328 328 329 330 330 330 328 327 326 326 326 326 326 329 331 331 331 331 331 330 332 333 333 332 331 331 331 332 331 331 329 328 327 328 329 326 325 325 325 326 328 327 326 326 325 323 322 323 322 324 323 323 322 318 322 319 314 318 315 320 323 324
328 328 329 330 330 330 328 327 326 325 326 325 326 328 330 330 330 330 330 330 330 329 332 332 331 329 331 332 332 331 330 328 328 330 329 327 325 326 326 326 327 327 326 327 326 324 323 324 322 321 322 321 321 322 322 316 319 318 317 315 317 322
328 327 327 329 329 329 329 328 326 325 324 326 327 327 328 329 329 330 329 328 328 329 330 330 330 329 331 332 332 330 330 329 329 331 330 327 327 328 327 325 324 325 325 325 326 325 325 324 323 321 321 318 320 320 318 318 320 317 316 315 315 317
328 329 328 329 329 328 328 328 326 325 324 325 328 328 328 328 328 328 328 327 327 327 328 328 328 328 328 329 328 329 330 330 330 331 331 328 328 328 327 325 325 325 324 323 324 326 326 324 324 321 322 322 319 318 317 317 316 316 317 317 316 316
329 330 330 331 331 328 328 326 325 325 325 326 327 327 328 327 327 327 327 327 327 325 325 325 325 324 326 328 327 328 328 329 329 332 332 329 328 328 327 327 327 326 326 325 323 324 323 323 323 322 321 322 321 321 318 316 316 317 315 314 316 317
328 330 330 331 331 329 328 326 325 326 326 326 328 327 325 326 327 326 326 325 324 324 323 324 324 325 325 326 326 325 327 327 328 328 329 330 329 329 328 328 327 327 326 326 326 325 323 322 322 323 321 320 320 318 317 319 319 319 317 316 318 317
326 329 329 331 330 328 325 324 325 325 326 327 328 326 325 325 326 325 324 323 323 323 322 323 323 324 324 326 326 325 325 324 325 327 328 330 329 329 329 329 328 327 327 326 326 325 324 323 324 323 323 322 321 320 319 320 321 319 318 319 319 316
323 328 330 330 328 325 324 324 325 324 325 326 327 327 325 323 323 325 325 324 324 324 323 324 324 324 326 326 326 326 326 326 326 327 327 329 329 330 330 329 329 328 327 326 326 325 326 324 324 324 323 322 321 321 319 322 321 320 319 318 317 316
323 325 328 329 327 324 322 324 325 325 325 325 327 327 325 325 324 325 325 325 324 325 324 324 325 325 326 326 325 325 326 326 326 327 327 328 330 329 328 329 329 328 327 326 326 325 324 324 325 323 321 323 322 322 320 321 322 321 322 320 319 318
325 325 326 327 325 323 322 324 325 325 326 326 326 325 325 325 325 325 326 325 325 325 325 326 325 325 326 326 326 326 327 326 325 327 327 328 328 327 326 327 325 326 326 329 326 325 324 324 324 323 323 320 321 321 322 322 322 322 322 321 320 319
326 327 326 326 324 324 323 322 323 325 326 326 325 325 324 325 326 327 326 325 326 326 326 326 326 326 326 326 326 326 326 324 324 326 326 326 326 326 325 326 325 324 326 324 326 325 323 324 323 323 321 321 322 321 321 322 322 322 321 320 320 320

ECMWFFLT2_sfc_thetae_093.txt.gz
Theta_e
349 348 348 346 345 346 349 350 351 352 352 351 351 351 351 351 351 350 350 349 347 345 345 347 347 346 349 347 347 348 348 348 347 347 346 347 347 347 347 347 347 346 346 345 344 344 344 344 343 342 341 341 339 329 328 328 328 331 329 330 332 329
347 348 347 347 346 346 346 348 345 347 348 348 349 349 348 347 349 346 349 347 344 345 343 343 345 348 346 347 347 348 347 348 347 346 346 346 346 346 347 347 347 345 346 344 340 333 339 344 343 342 341 338 330 328 328 329 329 329 330 329 332 334
347 347 347 347 346 345 344 344 344 344 346 348 347 347 345 346 342 343 342 341 343 343 342 343 344 346 346 348 347 347 347 347 347 346 345 345 344 345 346 346 347 346 344 341 334 333 333 334 336 341 338 331 328 328 328 328 328 329 329 330 328 337
346 347 347 346 345 344 343 344 344 343 344 345 344 343 341 341 341 341 341 340 341 342 342 342 348 350 348 345 345 347 347 346 346 345 345 343 343 344 344 345 346 343 339 336 332 332 333 332 331 329 328 328 327 328 328 328 328 328 329 333 330 338
345 346 346 346 346 345 345 346 346 345 345 344 342 340 340 339 339 339 339 340 340 341 341 342 343 343 341 341 339 341 342 340 337 335 341 330 330 334 333 330 330 330 328 331 330 331 332 331 330 329 328 328 328 328 329 329 328 327 327 330 332 337
344 345 345 345 345 346 346 345 344 344 344 343 342 340 338 338 338 338 338 339 340 338 338 339 339 340 341 340 339 336 336 335 333 333 334 328 328 327 325 327 329 328 326 327 328 330 332 331 328 328 328 328 329 329 328 328 328 328 330 330 334 337
343 344 344 345 345 345 344 344 343 344 342 341 341 340 340 338 336 336 337 339 337 336 336 338 340 340 340 338 336 334 334 334 334 332 330 328 327 326 325 324 324 324 322 326 327 330 332 329 328 329 329 330 330 329 328 327 328 328 329 330 335 336
342 343 343 344 344 343 342 342 343 345 342 343 341 340 340 339 335 334 335 336 337 335 336 337 339 339 339 336 335 335 334 332 333 332 330 327 325 324 324 323 323 323 325 326 327 328 333 330 329 329 329 329 329 328 328 329 330 331 331 331 332 337
342 342 342 343 342 341 341 341 342 340 340 343 339 339 340 337 334 336 336 336 337 335 335 336 337 338 337 336 335 335 333 332 332 330 329 328 326 324 324 323 324 324 323 324 324 327 332 330 329 329 329 329 329 329 330 330 332 332 331 329 331 334
341 341 341 342 340 339 338 338 338 339 339 342 337 336 337 336 335 335 335 335 336 336 335 335 337 337 335 334 334 333 333 332 332 329 328 328 327 325 324 322 324 325 327 325 326 329 330 329 329 330 329 331 330 330 330 330 331 330 330 330 330 334
339 340 340 339 337 334 335 336 337 338 340 337 336 337 337 335 335 335 336 336 336 336 335 334 337 337 334 334 334 334 333 331 329 328 328 329 327 326 325 324 325 326 325 325 326 329 329 328 330 331 332 332 331 331 331 331 332 332 331 330 329 329
338 339 338 337 335 333 331 333 337 337 336 335 337 336 336 336 336 334 335 336 336 335 336 335 336 336 334 334 333 333 332 331 330 329 330 329 328 327 326 326 328 328 325 325 327 327 328 329 330 331 332 332 332 331 331 331 332 331 330 328 328 328
338 337 336 335 335 335 334 334 333 333 334 336 337 335 335 335 334 335 335 336 336 337 338 336 335 335 336 335 334 333 331 332 332 332 331 330 329 328 328 329 328 327 326 327 328 328 330 328 329 330 332 332 332 331 332 332 331 330 329 329 328 328
337 335 335 334 335 334 334 333 334 334 335 334 334 334 334 335 335 334 335 334 334 335 336 336 335 334 335 334 333 332 331 330 331 332 331 331 331 329 329 329 327 327 331 327 327 327 329 329 330 331 331 332 331 331 331 331 330 329 328 329 328 329
335 333 335 334 334 334 333 333 333 333 334 334 334 334 334 334 335 334 334 333 333 334 334 335 335 334 333 333 332 330 330 329 330 330 331 331 331 329 329 328 327 326 325 326 327 329 329 330 331 332 333 334 334 334 332 331 330 329 329 328 328 327
333 331 332 332 331 333 333 332 333 336 334 334 333 333 334 334 334 334 335 333 333 334 334 334 334 333 332 331 331 330 330 329 331 331 331 330 330 329 328 327 326 326 325 326 328 327 329 330 331 332 333 334 334 333 332 331 330 329 329 329 328 327
332 331 331 331 331 331 332 332 332 334 334 334 333 333 334 334 334 333 334 333 334 335 332 333 332 333 332 331 331 330 329 330 332 332 331 330 329 329 328 327 325 326 327 324 325 327 329 331 331 331 332 332 332 333 332 331 330 329 329 327 326 326
332 330 330 330 330 331 332 332 332 333 334 333 333 334 335 334 332 333 333 333 333 334 334 332 332 332 331 332 331 330 330 330 331 331 330 330 329 328 327 326 324 324 324 325 325 328 329 330 330 330 330 331 331 331 331 330 329 329 326 326 326 327
330 329 329 329 330 330 332 332 332 331 332 333 333 334 335 334 333 334 334 333 334 333 333 332 332 332 331 332 330 330 330 330 330 330 330 329 328 327 326 325 325 324 325 325 327 329 329 329 328 328 328 329 330 330 330 330 328 326 327 329 330 331
330 329 329 329 330 329 331 331 330 330 331 332 332 333 335 335 335 335 335 334 333 332 333 332 331 331 332 331 330 330 330 330 329 330 329 328 327 326 325 324 324 325 324 326 327 328 328 327 327 326 327 328 329 329 329 329 328 327 327 328 328 329
330 329 328 328 328 329 328 329 330 329 329 331 332 332 334 335 335 335 335 334 333 332 332 333 332 331 331 333 330 329 330 329 329 329 329 327 326 325 325 325 324 324 325 324 325 327 326 326 324 323 326 325 326 329 329 329 328 327 326 326 326 327
330 329 328 328 328 329 330 330 330 329 329 331 332 332 332 334 334 335 334 333 332 332 331 331 331 329 331 330 329 330 330 329 329 328 329 327 325 329 325 324 325 323 322 323 324 326 325 324 319 320 320 320 322 325 327 327 327 327 328 328 328 327
329 329 328 329 328 328 329 329 328 329 331 331 334 334 334 334 335 332 331 333 333 333 332 330 331 331 330 330 330 330 329 329 329 330 327 326 326 325 324 325 325 324 322 320 323 326 324 319 319 321 322 319 317 317 321 324 326 327 328 327 328 327
328 328 327 329 330 328 330 329 330 330 331 331 331 333 333 333 332 331 331 332 333 333 333 332 331 332 331 331 330 330 329 328 329 329 328 326 325 325 325 325 325 325 325 322 322 324 324 320 322 321 313 312 317 318 313 317 320 323 327 328 328 326
328 328 329 330 328 327 329 328 329 330 331 331 332 331 330 329 329 330 330 331 331 333 333 332 332 331 331 330 330 330 329 328 328 326 327 326 325 325 326 326 326 325 324 323 321 319 323 321 323 320 318 315 313 313 314 318 320 320 325 325 326 328
328 329 329 329 328 326 326 326 326 326 326 326 326 328 327 327 328 328 329 331 332 333 333 332 332 331 331 331 330 330 328 328 326 326 326 327 326 324 324 325 326 326 323 321 323 321 320 320 322 320 316 316 317 313 315 319 319 312 322 324 325 327
327 325 326 328 329 327 325 326 327 328 328 327 327 329 331 331 330 329 330 330 332 333 333 332 331 331 330 331 330 330 328 328 327 326 327 326 325 325 325 326 327 325 324 323 322 321 321 320 320 322 321 321 320 316 321 318 314 317 314 319 323 324
327 326 324 326 327 328 327 326 327 327 328 327 328 329 330 330 328 328 328 329 331 332 331 331 330 330 330 331 330 329 328 327 327 327 327 326 326 325 325 324 326 326 324 324 323 322 320 321 321 319 321 318 318 320 318 314 317 316 316 314 316 322
326 327 326 328 328 328 328 326 326 327 327 328 329 329 330 330 328 329 327 328 330 330 329 329 330 330 330 331 331 329 327 326 327 327 328 325 325 326 325 325 325 324 323 323 323 322 322 321 320 318 318 314 318 317 315 316 317 313 316 315 315 317
326 327 328 328 329 329 328 327 325 325 325 325 327 328 328 329 329 329 328 327 328 327 328 329 328 329 329 330 330 329 327 327 327 328 327 325 325 325 325 324 325 325 324 323 322 323 323 321 322 319 319 318 314 314 314 314 313 315 316 315 314 315
328 329 329 328 330 328 327 326 325 325 325 325 327 328 328 328 328 329 327 326 326 326 327 327 326 325 328 329 328 329 327 327 328 330 328 325 325 326 324 324 324 324 324 324 323 323 322 320 321 321 319 319 319 319 317 313 315 315 313 311 316 316
328 329 330 330 328 327 327 326 324 325 325 325 326 327 328 327 328 328 328 326 326 326 326 324 323 323 324 326 327 326 327 327 328 328 328 326 326 326 325 324 324 324 323 323 322 323 321 321 320 320 319 319 319 319 316 317 318 317 316 315 317 317
327 329 330 330 327 327 326 324 323 324 324 326 326 326 327 328 329 328 328 327 326 325 325 324 323 323 323 324 326 325 325 326 326 328 329 327 327 327 325 325 325 324 323 323 323 323 321 321 321 322 321 318 319 318 317 317 319 316 316 317 318 316
325 328 329 328 327 327 326 323 323 322 324 326 326 326 326 327 327 328 328 327 327 326 325 325 323 323 325 325 325 326 327 326 326 326 327 328 327 327 326 325 325 324 323 323 323 322 322 322 321 321 321 319 318 318 316 319 319 318 318 317 316 316
324 327 328 327 326 326 325 324 324 324 324 325 325 325 325 326 326 326 326 327 327 326 325 324 324 324 325 325 325 325 325 325 324 324 325 326 327 326 326 326 325 325 324 323 323 323 320 321 322 320 318 321 319 317 318 320 320 319 320 319 318 317
323 324 326 326 325 325 323 324 324 323 323 324 325 324 324 324 325 326 326 326 327 326 325 324 324 323 324 325 324 324 324 324 324 324 324 325 326 326 325 326 324 324 324 325 323 321 321 321 321 319 319 317 319 317 319 320 320 320 320 320 319 318
324 324 324 325 324 325 324 323 323 323 323 324 325 324 324 324 324 324 324 325 326 326 325 325 324 324 324 324 324 323 324 323 323 323 323 324 325 325 324 325 325 323 324 323 323 322 320 322 320 319 317 318 319 318 318 320 319 320 320 319 320 319

ECMWFFLT2_sfc_thetae_096.txt.gz
Theta_e
348 348 348 346 346 346 349 351 351 351 351 351 351 351 351 351 350 350 349 349 347 346 346 346 347 347 349 347 347 348 347 346 346 347 346 347 347 346 346 346 346 345 344 345 344 344 343 342 341 340 340 340 337 330 330 329 330 335 334 334 334 333
347 348 347 346 346 346 348 349 347 348 348 349 350 350 348 347 348 345 348 346 344 346 343 343 345 348 346 347 348 348 347 347 346 346 346 346 346 346 346 346 345 343 343 344 344 340 341 342 342 341 340 336 330 329 330 330 331 332 332 333 335 336
347 347 346 346 346 346 346 345 344 345 347 348 347 346 343 346 343 343 342 343 344 342 342 343 345 346 346 348 347 347 347 347 346 346 346 345 345 346 346 346 344 342 341 341 338 337 337 338 340 340 336 331 329 329 330 330 331 330 331 335 332 336
346 346 346 345 345 345 344 344 343 344 344 343 342 343 341 342 341 341 341 341 341 342 342 342 348 349 348 346 346 347 347 347 346 346 345 344 344 345 345 344 342 339 337 336 335 335 335 334 330 329 329 329 329 329 330 330 330 330 332 336 333 337
346 346 346 346 345 344 345 345 345 345 344 343 342 341 340 340 339 339 339 340 341 342 341 341 342 343 342 343 342 342 342 340 337 337 338 332 333 335 334 332 332 333 332 334 334 333 333 331 330 329 329 330 330 330 331 331 331 331 332 334 337 337
345 345 345 345 345 346 346 345 344 345 344 344 342 340 339 338 338 338 339 340 341 340 339 341 340 341 342 342 340 338 337 335 333 333 335 331 330 329 329 329 329 329 329 332 333 332 332 331 329 329 329 330 330 330 330 330 331 332 333 335 337 337
344 344 345 346 346 346 345 345 344 344 343 342 341 339 337 337 336 336 337 337 336 336 337 340 341 342 341 341 339 336 335 335 333 332 332 330 328 327 326 327 327 326 327 331 332 331 330 329 329 329 330 330 330 330 330 330 331 332 333 334 337 337
344 344 344 345 345 344 344 343 344 346 343 343 341 339 340 335 333 334 335 335 336 337 339 340 340 341 340 340 339 336 334 334 333 332 331 329 327 325 324 325 326 325 327 330 331 331 330 330 329 330 330 330 330 330 330 331 332 333 333 334 336 337
343 344 343 345 343 343 343 343 343 342 342 344 339 337 337 333 332 334 335 335 336 336 338 340 340 340 340 339 338 335 334 333 332 332 331 328 327 326 324 325 326 326 326 327 330 330 330 330 330 330 330 330 330 330 331 332 333 334 334 334 334 337
343 343 343 343 341 341 342 342 341 341 342 340 336 336 334 331 331 333 333 334 336 336 337 339 339 339 338 337 336 335 334 333 333 332 331 330 328 327 325 325 326 327 327 327 330 332 331 330 330 330 330 330 331 331 332 333 333 332 332 333 335 337
342 342 342 341 339 339 340 340 341 340 340 338 336 334 334 333 332 333 333 335 336 337 336 337 339 339 338 337 336 335 333 332 332 331 331 330 328 327 326 326 326 328 328 327 329 332 330 330 330 331 332 331 331 332 333 334 334 333 333 333 333 335
341 341 340 339 338 337 338 338 339 339 339 338 337 333 333 333 334 333 334 334 336 336 337 336 338 338 337 336 335 335 333 332 333 331 331 330 329 328 327 326 329 328 327 329 329 329 330 330 330 331 332 332 332 333 333 334 334 333 332 332 332 333
340 340 339 337 337 336 335 337 337 336 336 338 336 333 332 332 333 332 333 335 336 336 337 336 338 338 338 336 335 334 333 333 333 332 331 330 330 329 330 329 327 328 328 329 329 329 330 331 331 332 332 332 332 332 333 333 332 332 332 331 332 332
339 338 337 336 336 334 334 334 335 333 334 336 336 334 333 333 334 333 333 335 336 336 337 337 337 337 337 335 334 334 333 333 333 332 331 331 330 330 330 328 327 329 332 329 328 329 330 330 332 333 332 332 332 332 332 332 332 331 331 331 331 332
338 337 337 335 335 334 333 333 332 331 331 334 335 335 333 333 333 333 334 334 335 336 336 335 335 335 334 333 332 333 332 332 331 332 331 331 330 330 330 327 327 327 327 328 329 330 330 331 332 332 332 333 333 333 332 331 331 331 331 331 331 331
336 336 335 335 334 333 332 332 332 334 332 333 334 334 334 333 334 334 334 333 334 335 334 334 334 334 333 333 332 332 332 330 331 331 331 331 331 329 328 327 327 328 327 328 329 330 332 331 332 332 333 333 334 334 332 331 330 330 330 331 331 331
334 334 334 334 333 331 331 331 331 332 331 332 333 333 333 334 334 334 334 333 333 334 333 333 333 333 332 332 332 331 330 330 331 331 331 331 330 329 328 326 326 329 329 328 329 329 331 332 332 332 333 333 333 333 332 331 330 330 330 329 329 330
334 334 333 333 332 330 331 330 330 331 333 332 332 333 334 334 334 334 334 333 332 333 333 332 332 332 332 332 331 331 330 330 331 331 331 330 329 328 328 327 325 326 328 329 328 329 330 331 331 331 332 332 333 333 331 331 331 330 329 329 330 331
333 332 331 330 329 329 329 330 330 330 331 332 333 334 335 334 334 334 333 333 332 332 333 332 332 332 331 331 330 330 330 330 331 331 330 329 328 327 327 327 326 325 328 330 330 330 330 331 330 330 330 331 331 330 331 331 329 329 329 329 330 331
332 332 331 329 329 329 330 330 329 329 330 332 333 334 335 334 334 334 334 334 333 333 333 333 332 332 332 331 329 329 329 330 331 331 329 328 326 326 326 325 325 327 327 329 331 330 330 329 329 328 327 328 330 330 329 330 329 329 329 330 331 331
331 330 330 329 328 328 328 329 330 329 329 331 332 333 333 334 334 334 334 333 333 333 333 332 332 332 331 332 330 329 329 329 330 330 329 328 327 326 327 326 326 328 327 326 327 329 330 330 327 325 326 326 326 329 330 329 327 328 327 327 328 328
330 329 329 329 328 328 328 328 330 330 330 331 331 331 331 334 334 334 333 333 333 333 332 331 332 331 332 331 329 329 330 329 330 330 329 328 327 328 326 326 326 326 328 326 325 328 328 328 323 323 321 321 323 326 328 328 327 327 327 327 327 326
330 329 328 329 328 327 328 329 329 328 331 331 334 334 334 334 333 332 333 333 333 333 332 332 332 332 330 330 330 330 330 330 330 331 328 327 327 325 326 326 326 325 324 327 327 328 327 323 322 324 324 321 318 317 321 324 327 327 328 328 328 327
329 330 329 330 330 330 330 331 331 332 332 332 331 334 334 333 331 331 331 332 333 332 332 331 331 331 331 330 330 330 329 330 330 331 328 326 325 325 325 326 326 326 326 323 324 325 326 324 326 323 317 316 318 319 315 317 320 324 329 328 328 327
329 329 330 331 330 330 330 329 330 331 332 331 332 332 331 327 327 330 330 330 331 333 332 331 331 331 331 330 330 330 329 329 329 329 328 327 326 325 326 326 326 326 326 325 323 324 325 325 326 324 321 316 314 314 315 318 320 320 326 326 327 327
329 329 329 330 330 330 329 328 327 327 326 327 327 328 327 327 325 327 328 330 332 332 332 332 331 331 331 331 330 330 329 328 328 328 328 327 327 325 325 326 327 327 325 326 325 324 323 325 325 322 319 321 320 316 315 320 319 312 323 325 327 327
329 327 328 329 330 329 328 328 327 327 327 327 327 329 330 330 327 327 329 329 331 332 332 331 331 331 331 331 330 329 329 329 328 328 329 327 326 325 326 327 327 326 326 325 326 323 323 323 323 323 322 322 322 319 323 320 315 317 314 320 324 324
328 327 326 328 328 329 328 328 327 325 326 326 327 328 330 330 329 329 328 329 331 331 331 331 331 331 331 331 330 329 328 328 327 327 329 327 326 325 326 327 328 327 326 326 326 324 323 323 321 321 323 321 320 321 321 318 322 319 317 314 317 323
328 327 326 328 328 327 328 328 327 326 324 325 327 328 330 330 328 329 327 329 330 331 331 332 331 331 330 330 331 330 328 327 327 327 329 327 326 326 326 326 326 325 325 325 325 325 324 323 322 320 319 318 320 320 320 320 321 319 318 316 315 317
326 325 326 328 328 328 329 328 327 325 324 324 327 328 330 328 328 327 327 327 328 330 329 329 330 330 329 330 330 330 328 327 327 328 328 327 327 326 325 326 327 326 325 324 325 325 325 324 324 322 323 320 319 318 319 319 318 319 320 319 316 316
326 327 328 327 327 328 328 327 327 326 325 325 326 328 327 327 327 327 326 326 327 328 328 328 328 328 329 330 329 330 328 327 328 330 328 326 327 326 326 326 326 326 325 325 324 324 323 323 323 322 322 322 321 321 320 317 318 318 317 316 317 317
327 328 328 328 327 326 327 326 326 325 324 325 327 327 327 327 327 326 326 325 327 326 326 327 327 327 328 329 329 329 328 327 328 329 327 327 327 327 326 326 326 326 325 325 325 325 324 323 323 323 322 322 322 322 319 320 321 320 319 318 319 317
326 328 328 328 327 327 324 324 325 325 325 326 327 328 328 328 328 328 328 326 326 324 325 325 325 326 327 328 329 328 327 326 327 328 328 326 326 327 326 325 325 325 325 324 325 325 324 324 324 323 323 322 322 321 320 320 321 319 319 321 320 317
326 328 329 329 328 326 324 323 324 325 325 325 325 326 327 327 328 329 329 328 327 326 325 326 326 327 328 328 328 329 328 328 328 328 328 327 326 326 325 325 325 325 324 325 325 325 325 324 324 324 324 322 321 321 320 321 321 321 320 320 319 318
325 327 328 328 327 326 325 324 324 324 324 325 325 325 326 327 328 329 329 329 329 328 327 328 327 327 327 327 327 327 327 327 327 327 328 327 327 326 326 326 326 325 325 324 325 325 324 324 323 322 322 323 321 320 320 321 322 322 322 321 321 320
325 324 326 327 326 326 326 325 324 323 323 324 325 325 324 326 328 329 329 329 328 328 328 329 328 326 325 326 326 326 327 326 325 325 326 327 326 326 325 325 325 325 324 325 324 324 323 324 324 323 323 321 322 321 321 321 322 322 322 322 322 322
324 323 322 324 325 325 325 324 323 322 323 324 325 325 325 324 326 327 328 328 328 327 327 327 326 326 325 325 325 325 325 325 324 324 325 326 326 326 325 326 325 324 324 325 324 324 322 323 323 323 322 322 323 321 321 322 322 322 323 322 322 323

ECMWFFLT2_sfc_thetae_102.txt.gz
Theta_e
352 353 353 353 352 350 350 352 352 351 351 351 351 350 350 349 348 347 348 348 347 350 350 349 351 350 348 349 347 347 347 347 347 346 345 346 347 347 347 348 348 348 345 344 343 342 341 341 341 339 339 338 338 344 343 342 342 341 340 339 339 336
350 353 353 351 352 351 351 351 351 351 351 351 351 351 352 351 349 351 346 347 349 347 346 348 349 348 350 350 348 346 346 346 346 346 345 345 346 347 346 347 347 347 345 344 343 343 344 342 340 340 339 339 342 342 345 343 343 340 340 340 339 337
352 352 353 353 351 351 352 351 351 350 350 350 351 353 351 351 350 351 350 348 350 349 348 348 350 349 348 346 348 346 346 346 346 346 345 345 346 346 346 345 347 346 343 343 344 344 344 342 341 340 339 341 343 343 344 344 343 343 341 340 339 337
353 352 352 352 351 352 351 351 351 350 351 350 350 350 351 351 352 352 351 352 351 348 349 350 347 348 349 349 348 347 346 345 345 345 345 345 345 346 345 345 346 345 343 343 348 344 343 342 338 340 344 343 341 342 344 343 340 342 342 339 338 337
352 353 353 353 352 351 351 352 351 349 350 349 350 350 353 353 352 351 349 351 352 350 352 351 350 349 346 347 347 348 347 346 346 347 345 341 341 344 347 348 348 344 345 345 344 345 344 343 344 343 343 342 343 344 343 344 342 343 342 340 338 336
352 353 352 352 350 352 352 350 350 352 351 351 351 353 352 352 349 348 352 350 350 352 353 351 351 348 346 345 345 344 342 344 344 344 345 342 340 340 344 345 346 345 345 347 345 345 344 343 342 342 342 343 343 344 342 341 342 341 341 341 339 336
352 353 353 352 351 352 351 351 351 350 350 348 351 351 351 351 352 352 350 349 349 350 351 350 349 349 348 348 344 343 344 344 344 342 344 342 343 343 342 343 344 344 345 344 344 344 343 342 342 341 342 341 342 342 342 341 340 340 341 340 339 336
353 353 354 354 353 351 352 352 352 350 350 349 351 351 351 352 352 352 345 350 350 350 349 348 349 349 349 349 346 346 345 343 342 341 343 342 340 341 342 344 346 344 343 343 341 341 340 340 341 342 340 341 341 342 343 341 341 341 340 340 339 337
353 353 354 354 352 351 352 352 352 352 351 348 351 352 353 351 351 352 351 348 346 349 348 348 348 348 349 348 346 345 343 343 343 343 343 340 337 338 341 343 345 344 345 344 342 341 340 340 341 342 341 340 340 341 342 342 341 339 341 341 340 339
353 353 353 353 351 351 352 352 352 352 351 350 350 351 350 349 350 350 350 350 349 349 350 348 347 347 347 348 346 346 344 344 344 344 343 341 339 338 340 341 344 344 344 343 342 341 340 340 338 341 340 340 340 341 342 340 340 340 341 342 341 339
354 353 354 352 352 353 353 352 352 351 349 349 351 350 348 347 348 349 349 349 348 348 342 350 348 349 347 349 346 347 345 345 344 343 343 341 341 339 341 341 344 341 343 342 342 341 340 340 339 337 340 339 341 342 341 342 341 341 342 342 341 340
352 353 352 351 352 352 352 351 350 350 350 348 348 347 347 349 347 348 348 348 347 345 344 347 346 343 344 342 344 344 345 346 344 344 343 342 341 341 341 342 344 344 345 345 343 343 343 340 340 338 339 339 340 341 341 342 341 342 342 342 340 341
351 353 352 351 351 352 352 349 348 343 348 348 349 348 347 349 349 348 347 348 342 346 345 344 341 343 343 342 345 343 344 345 346 346 344 344 343 343 341 341 343 343 343 344 343 343 341 343 342 341 341 340 342 340 342 341 342 342 341 341 341 342
349 350 352 352 351 351 351 352 347 348 349 349 349 350 348 349 349 348 348 346 344 346 347 343 341 342 341 347 344 344 344 344 344 345 344 344 342 342 339 339 339 340 340 341 341 343 341 341 341 342 342 343 342 341 340 339 340 340 340 341 341 341
347 348 349 350 349 348 350 350 350 349 349 349 349 349 348 348 348 348 347 346 347 346 342 341 341 342 341 341 341 346 346 344 344 343 342 342 343 343 342 339 337 337 341 341 341 342 341 342 342 340 342 343 341 342 342 341 342 341 339 341 342 341
345 346 348 350 350 348 348 348 348 346 347 348 348 347 344 345 345 346 345 344 344 343 341 341 341 341 341 341 340 340 342 339 343 344 344 344 344 341 342 341 340 339 340 339 340 341 342 342 342 341 343 342 341 340 341 341 341 341 341 341 341 341
344 345 346 350 349 346 348 346 346 344 343 347 347 346 346 347 346 345 344 343 343 340 339 335 340 342 341 340 342 340 339 341 342 344 344 345 342 342 343 342 341 342 342 338 337 339 341 342 342 342 342 342 342 342 341 342 342 341 341 341 341 341
345 345 347 347 347 346 347 347 346 343 346 346 346 346 347 346 346 345 345 344 342 340 339 339 338 339 340 343 344 342 340 340 341 340 345 345 344 343 343 343 340 340 337 338 336 338 341 342 341 340 340 340 341 341 340 341 342 340 340 339 338 338
343 345 344 346 342 342 346 346 345 345 344 344 345 346 347 344 344 345 344 345 344 341 338 339 339 340 342 343 342 342 337 341 343 343 342 342 343 342 340 340 340 340 341 340 337 340 341 340 339 339 338 339 340 339 339 339 341 340 339 339 338 338
343 343 345 345 343 342 339 340 340 342 340 338 342 342 342 340 341 341 342 344 344 342 340 339 340 341 340 343 341 338 338 341 343 339 336 336 340 339 339 340 340 340 340 341 340 340 341 339 338 338 337 338 338 339 337 337 339 339 338 338 337 338
343 343 341 339 337 337 335 337 337 335 334 337 338 341 340 339 341 341 343 343 343 342 342 342 340 341 342 341 340 337 336 340 339 337 336 334 339 341 343 341 339 341 340 338 337 339 339 339 335 333 335 333 335 337 337 337 336 337 337 337 337 336
340 341 341 342 339 338 338 337 337 336 336 336 338 337 339 341 341 341 343 341 341 340 342 342 341 341 341 341 340 341 343 341 339 339 337 339 341 341 343 341 338 336 339 337 334 338 336 336 329 328 324 327 327 333 335 334 334 336 338 339 337 336
341 341 340 339 339 338 341 339 338 337 335 338 341 341 342 343 341 341 341 342 341 340 340 340 341 340 340 340 340 340 340 341 340 338 339 339 340 339 340 339 341 338 335 335 335 339 340 335 332 333 332 325 322 321 327 330 333 335 336 336 337 338
340 340 341 341 341 340 338 339 338 337 338 339 337 340 342 343 342 341 340 340 339 339 339 339 340 340 339 339 339 338 340 339 339 338 338 336 337 336 338 338 339 339 338 331 331 331 338 337 334 332 323 324 323 322 319 320 325 331 335 334 335 335
339 340 342 341 339 339 339 338 338 339 340 338 339 340 341 339 340 340 341 341 340 340 340 341 341 340 337 337 339 338 337 337 339 338 338 337 336 337 338 338 337 337 333 333 331 330 332 335 337 338 331 322 321 319 320 323 326 325 331 331 332 333
338 339 337 338 340 338 336 335 335 334 334 334 333 336 336 337 337 337 337 341 342 341 340 340 340 339 337 338 338 338 337 335 337 337 337 338 337 338 336 337 338 336 333 333 333 333 332 337 339 337 334 331 331 324 325 326 324 319 329 333 336 334
337 338 338 339 340 338 337 337 337 336 336 335 334 337 341 341 340 340 341 342 341 341 340 339 339 338 338 338 338 338 336 337 337 338 337 338 339 339 336 337 337 334 336 334 335 332 334 334 335 336 336 337 337 334 334 328 324 324 320 328 330 331
337 338 339 338 337 338 337 336 336 337 337 337 337 338 341 342 342 341 340 339 340 340 340 339 339 337 337 338 338 337 337 337 339 336 337 337 338 338 339 338 338 338 334 336 337 334 334 334 331 331 334 336 334 336 337 335 334 326 323 321 324 332
338 337 338 338 338 338 337 337 336 336 336 337 339 339 341 342 341 342 339 339 340 340 339 339 338 338 337 338 337 338 337 337 338 336 335 339 337 340 340 337 337 333 331 336 336 335 334 333 334 332 332 333 333 332 331 334 334 332 325 322 319 322
337 339 339 338 337 337 338 337 336 336 336 336 337 337 339 338 340 342 339 338 339 339 339 337 337 337 337 337 338 338 338 338 337 338 338 336 337 339 340 337 340 340 340 338 338 336 337 334 335 336 334 332 329 332 327 327 330 329 329 328 321 322
336 337 338 338 338 337 337 338 337 336 336 335 337 337 338 337 337 338 339 339 338 338 338 338 339 337 339 337 337 338 339 339 339 337 337 338 337 338 339 340 340 342 342 341 338 337 336 337 337 332 332 333 332 331 328 326 327 328 328 326 324 323
335 335 336 337 338 337 337 337 337 337 336 337 336 335 336 335 338 337 337 336 337 337 337 336 334 335 337 339 339 339 339 338 339 340 340 337 336 337 339 340 340 339 339 340 340 339 337 336 336 332 335 335 335 332 332 331 330 328 328 327 326 324
334 335 335 336 337 337 337 337 337 337 337 337 337 337 336 337 338 336 335 336 336 336 334 334 334 331 336 336 338 340 338 337 338 340 340 337 337 338 336 338 339 338 337 338 339 338 337 333 332 335 336 338 337 332 331 335 333 328 330 330 328 325
333 334 335 335 335 335 336 336 337 336 336 337 336 337 337 335 338 338 337 336 338 335 334 334 334 333 336 336 336 336 337 337 339 339 340 334 335 335 336 335 335 335 337 338 338 334 338 339 338 338 339 336 336 333 333 334 332 334 331 330 327 327
330 332 333 334 335 336 335 337 338 337 337 336 336 336 336 337 338 335 336 339 339 336 334 335 334 335 336 336 335 336 336 336 338 340 339 334 335 336 336 335 335 336 334 336 334 337 335 334 336 337 336 334 334 336 333 331 333 334 332 332 330 330
328 330 332 332 334 334 334 335 336 335 335 336 335 335 335 336 338 336 336 335 337 336 335 336 336 335 335 336 336 337 336 335 339 341 336 335 334 334 336 336 336 337 331 331 333 333 335 338 337 337 338 338 333 333 334 333 334 334 332 332 332 333
328 330 331 331 332 332 332 332 333 334 334 334 332 332 333 335 335 334 335 335 336 337 337 337 336 336 336 336 337 336 335 335 334 338 334 335 339 335 334 338 334 333 330 332 334 333 336 337 338 338 337 335 336 336 337 337 335 335 335 334 333 333

ECMWFFLT2_sfc_thetae_108.txt.gz
Theta_e
347 347 346 347 347 348 349 350 350 350 350 350 350 350 349 349 349 348 348 348 349 347 349 349 347 346 348 347 348 348 347 346 346 347 346 346 347 347 347 347 346 346 345 343 342 341 339 339 339 340 342 342 342 338 339 336 336 337 335 334 335 335
348 347 349 348 348 349 349 349 348 349 349 350 350 349 348 348 347 347 349 348 348 348 348 348 348 349 348 347 347 347 347 346 345 346 346 347 347 347 347 346 346 345 344 343 342 338 339 340 341 340 342 341 338 336 345 339 336 334 333 333 334 336
349 350 350 350 348 348 348 347 346 348 348 350 350 349 347 347 346 346 346 344 347 348 347 348 348 349 349 347 347 346 346 346 345 345 346 347 347 346 346 346 346 345 344 343 341 337 334 333 334 340 342 338 337 338 345 339 337 335 333 333 332 339
348 348 348 347 349 348 347 347 345 346 347 348 348 347 347 347 347 346 346 346 351 351 349 349 346 349 345 346 346 347 346 345 345 345 346 346 347 347 347 346 346 346 344 341 336 338 333 332 335 334 333 337 339 339 342 337 335 334 333 334 333 341
347 347 347 347 346 348 349 350 350 350 349 348 347 346 346 348 348 350 347 351 351 349 348 349 352 348 346 345 343 343 343 343 344 344 346 342 343 344 345 344 345 344 341 338 337 340 335 334 337 336 337 339 341 345 339 338 336 333 332 333 335 340
347 347 348 346 345 347 346 345 346 346 347 346 347 344 345 343 342 344 349 347 349 347 350 348 346 347 345 347 342 340 340 341 342 340 343 339 339 343 343 344 344 342 340 339 339 340 339 336 336 338 340 340 343 342 337 337 335 334 333 333 334 336
346 346 346 346 345 344 344 344 345 344 344 343 345 343 344 339 342 341 346 344 345 340 346 346 346 345 345 342 342 344 340 340 341 339 339 336 336 339 341 343 344 342 340 340 340 340 340 338 337 337 339 337 338 338 337 337 335 334 333 333 335 337
346 346 343 344 345 345 345 343 344 343 343 342 341 342 344 341 343 341 342 343 346 343 342 343 344 344 344 342 341 339 342 340 340 339 335 333 334 335 339 341 343 343 340 339 339 339 340 335 337 339 335 337 340 337 338 337 335 334 333 333 334 336
346 346 343 344 342 343 344 344 342 343 340 343 341 342 342 342 340 342 341 342 343 341 341 339 340 343 343 341 341 340 339 338 339 342 336 334 334 335 335 338 341 341 340 339 341 338 334 335 339 340 336 335 337 338 338 337 336 335 333 333 333 334
345 344 344 345 345 343 343 341 342 341 343 341 342 344 343 340 341 342 343 343 340 341 339 339 338 342 342 341 341 342 343 340 338 338 336 336 338 339 336 334 338 339 338 338 339 337 336 337 332 335 336 333 339 338 342 337 337 336 335 333 333 334
346 346 345 345 345 343 344 343 344 344 343 341 342 343 342 340 340 342 342 341 342 342 339 340 340 341 343 342 341 341 341 343 342 340 338 334 334 337 337 334 337 339 339 337 340 339 337 334 332 330 334 335 337 338 340 337 337 337 335 333 333 333
346 346 347 346 344 343 345 345 346 345 344 343 341 340 339 338 339 342 344 341 341 342 343 340 341 342 341 341 341 341 340 340 340 342 340 338 337 337 338 337 339 341 340 347 338 334 335 334 332 329 333 334 336 336 338 338 337 338 336 334 332 332
348 347 346 345 345 344 347 345 343 346 345 342 340 339 340 343 343 343 343 342 341 340 340 339 339 341 342 341 342 341 341 342 342 341 340 340 339 338 338 338 339 340 340 343 339 337 336 333 332 333 335 333 337 334 338 337 339 337 337 335 333 332
348 348 344 344 345 346 346 345 346 346 346 343 341 341 340 342 343 342 340 339 338 338 339 341 340 340 343 342 336 337 339 339 339 340 341 340 338 339 337 335 334 335 339 337 333 339 336 334 331 335 337 336 339 338 336 336 338 338 338 337 335 333
348 346 347 347 348 348 347 345 346 345 342 342 340 338 339 341 342 340 340 339 338 338 340 341 340 341 342 340 336 337 338 339 340 343 343 343 341 340 339 336 335 334 336 338 337 334 335 334 333 330 338 336 339 340 342 337 339 338 338 336 337 336
347 347 347 348 349 346 345 346 348 346 347 346 344 340 340 341 340 339 340 339 339 341 342 342 341 341 341 341 338 337 340 341 341 343 342 342 343 340 339 342 340 336 333 334 334 336 335 334 334 337 337 338 339 339 338 337 337 337 338 338 336 336
346 344 344 345 348 347 349 347 347 347 347 347 346 341 338 339 339 338 339 339 341 342 341 343 343 342 343 340 341 339 343 342 343 342 342 341 342 343 339 338 336 336 336 334 332 332 328 334 332 337 334 332 337 338 337 338 338 337 338 339 335 336
347 346 346 347 349 348 348 348 347 347 347 345 345 344 340 339 336 338 338 340 342 341 342 342 343 343 344 342 337 340 340 342 342 342 341 339 341 342 339 336 335 336 337 334 327 332 329 331 331 332 332 336 335 338 338 337 340 339 336 335 339 335
347 347 347 347 349 348 348 348 348 348 346 345 346 345 345 342 338 339 341 343 342 342 342 342 342 342 342 340 338 337 340 342 342 341 340 339 339 340 339 337 335 335 338 336 335 334 335 332 331 332 334 333 335 335 341 341 337 337 336 335 336 338
347 348 348 347 346 344 344 342 341 344 343 344 345 342 344 342 342 342 342 342 342 343 342 341 342 342 340 339 339 337 337 341 341 341 339 337 337 338 337 336 335 334 334 336 335 335 334 333 332 332 334 333 333 337 339 338 337 336 335 336 335 335
346 347 346 343 343 343 342 341 343 343 343 343 342 343 343 343 343 342 342 342 342 341 342 341 342 343 340 339 339 340 340 339 341 340 338 337 338 339 339 338 336 335 335 334 336 335 334 333 329 326 331 331 332 334 336 338 335 336 335 336 335 335
346 348 349 348 347 344 345 347 344 343 344 342 340 340 339 341 343 343 344 343 343 342 342 342 343 340 341 339 339 339 339 339 339 339 338 339 339 339 339 338 337 334 335 334 333 333 334 329 326 326 325 323 326 332 334 333 334 336 336 335 335 333
346 345 346 346 344 344 347 345 345 344 341 344 350 347 343 342 343 343 343 343 345 343 342 342 340 340 340 340 339 339 338 340 339 339 338 337 337 336 336 336 336 334 332 333 333 334 332 329 325 329 329 325 322 322 326 329 332 333 333 335 335 333
345 346 346 346 343 346 345 345 347 345 346 344 342 344 345 346 344 343 342 344 342 343 342 341 340 339 339 339 338 338 339 339 339 339 338 336 335 335 335 334 335 335 334 329 330 330 334 331 332 329 320 321 321 322 318 321 325 330 333 334 333 334
344 345 346 344 345 346 346 342 344 343 344 344 343 341 341 340 341 341 342 341 342 343 342 342 341 341 339 339 338 337 338 338 339 338 337 336 334 335 335 335 335 334 333 330 328 330 333 333 331 332 327 322 319 316 317 321 325 325 332 330 332 332
344 346 345 344 345 344 342 341 341 339 337 337 337 337 336 338 339 339 339 342 342 342 342 341 341 341 339 340 338 337 336 336 337 337 337 336 336 333 331 333 335 334 332 332 330 329 329 332 332 332 332 333 331 320 320 324 322 317 326 331 331 333
343 344 344 342 343 342 340 340 340 338 338 339 340 341 344 344 345 343 344 343 343 343 342 341 341 341 341 340 339 338 336 336 336 337 336 335 335 334 333 334 336 334 334 332 331 325 327 327 330 330 331 332 335 333 333 325 319 322 317 324 328 329
342 342 344 344 343 343 340 341 339 339 339 338 339 342 344 345 345 344 342 342 342 344 344 342 342 341 341 341 340 339 339 336 335 335 335 334 334 334 334 334 335 335 334 332 331 329 328 330 325 328 333 331 333 332 331 330 330 324 321 318 320 326
341 341 343 344 343 342 341 341 340 340 339 339 340 343 342 343 344 342 340 341 342 341 343 343 342 341 341 340 339 340 339 338 336 334 334 333 334 334 332 332 332 333 332 332 332 331 330 329 329 329 329 330 331 329 330 331 329 329 324 320 319 321
339 341 344 343 343 342 342 341 340 339 338 338 340 342 341 341 339 340 339 341 340 342 342 343 342 341 341 340 340 339 339 338 337 337 335 334 334 333 333 332 332 332 332 331 332 331 330 331 330 332 332 330 328 327 328 328 327 327 326 326 320 320
340 343 343 343 342 341 341 341 339 339 338 338 338 338 338 336 337 336 336 337 338 338 340 340 341 341 341 340 340 340 339 339 338 338 338 337 334 333 334 334 333 332 331 331 332 331 331 331 331 332 331 331 328 327 324 325 325 326 324 323 322 321
338 340 341 342 343 341 340 341 341 340 339 339 338 337 336 332 332 331 333 336 339 339 336 337 340 340 340 340 340 340 339 339 338 336 336 337 336 335 335 335 333 332 332 333 334 331 331 329 331 330 331 329 328 329 328 325 327 328 324 325 323 321
335 338 339 340 340 340 341 340 341 340 340 340 338 338 335 335 335 331 331 333 335 335 336 336 337 335 335 334 334 338 338 337 337 336 336 336 336 336 336 335 333 332 332 332 333 332 332 332 332 329 330 331 330 329 328 330 333 330 330 331 327 322
332 336 336 338 338 338 339 340 340 340 340 339 338 337 339 334 334 334 333 333 334 334 334 335 335 330 331 335 335 338 339 338 336 336 336 337 336 336 336 336 334 333 333 333 334 334 333 333 332 332 334 330 330 329 331 333 333 332 328 326 325 323
330 331 333 333 334 334 335 337 338 339 338 338 338 337 336 337 337 336 336 335 335 336 335 335 334 333 333 332 332 334 337 337 337 334 334 335 336 336 335 335 334 333 333 334 334 333 333 333 331 330 331 331 331 333 332 332 332 331 330 328 327 324
328 330 331 332 333 333 334 335 336 336 337 336 336 336 335 336 337 339 338 337 335 336 336 336 334 333 332 333 332 332 334 335 336 335 335 335 334 335 335 333 333 332 331 334 333 332 332 332 331 331 330 334 333 332 333 333 332 333 331 331 333 327
327 329 329 330 331 332 333 334 335 335 336 336 335 334 334 335 336 336 337 338 335 335 336 335 333 331 329 331 331 333 332 333 335 333 332 334 334 334 334 333 333 332 331 332 331 331 332 331 330 332 333 332 331 332 333 334 336 335 330 329 331 334

ECMWFFLT2_sfc_thetae_111.txt.gz
Theta_e
343 343 343 344 346 346 347 348 348 349 349 349 349 349 349 350 350 349 349 350 348 345 345 346 347 346 349 346 347 348 348 347 347 347 346 347 346 347 347 347 346 345 344 343 342 341 342 342 343 343 344 344 344 334 334 333 333 334 333 334 336 335
342 342 342 344 346 347 347 347 345 346 348 347 349 348 347 344 349 345 349 347 344 346 344 344 344 349 346 347 347 348 347 347 347 346 345 346 347 347 347 346 346 345 344 343 342 334 336 341 343 344 343 345 336 334 335 332 332 332 333 332 335 339
341 342 343 344 346 347 345 344 345 346 347 347 348 347 343 345 341 342 343 343 344 343 343 344 344 347 347 348 347 348 347 347 346 346 346 346 346 347 346 346 346 345 344 344 336 334 332 331 330 339 341 336 332 334 333 332 331 331 331 333 332 338
345 345 343 344 345 344 343 342 344 344 345 345 344 344 341 341 341 341 341 341 341 344 344 343 350 351 350 345 346 348 347 347 347 346 346 347 347 346 347 346 346 346 345 343 335 333 332 329 327 328 330 330 332 336 332 331 331 330 332 336 335 340
345 344 344 346 344 342 342 341 342 343 344 344 343 342 342 342 340 339 340 342 343 344 344 343 344 345 341 342 339 339 341 341 340 339 346 338 340 343 342 340 340 342 339 338 335 332 333 328 329 331 331 331 335 334 332 331 331 330 330 333 335 338
344 343 343 343 343 345 342 341 342 343 343 342 342 340 338 335 336 336 340 341 342 340 343 342 341 341 340 340 339 336 336 338 339 338 344 339 338 338 339 339 340 340 339 338 336 334 335 333 329 331 332 333 336 333 331 331 331 331 332 333 336 338
343 343 342 342 341 340 340 340 340 342 341 339 340 339 335 335 336 336 338 340 338 335 338 340 340 339 338 338 338 336 335 335 336 336 340 336 335 336 339 339 338 339 339 338 337 337 336 336 332 331 333 335 336 333 331 331 331 331 330 331 336 338
342 341 341 342 340 339 339 340 343 343 339 342 339 338 335 334 335 335 337 337 341 336 336 337 339 338 338 335 336 336 336 335 336 335 336 334 332 332 337 337 339 339 339 338 338 338 338 337 334 333 334 334 334 333 331 331 331 331 331 331 333 336
342 340 340 341 340 340 340 339 337 337 338 344 338 338 337 336 335 336 337 337 339 336 336 335 335 338 337 335 335 335 336 334 333 334 333 331 330 330 333 336 336 338 339 338 336 336 334 334 332 333 332 333 334 333 331 331 331 331 331 330 331 334
342 340 340 340 340 339 339 337 337 338 340 341 337 337 337 335 335 335 334 336 337 336 335 334 334 336 337 336 336 336 336 335 335 335 334 334 332 332 331 332 333 334 336 337 336 335 333 331 332 331 331 332 334 333 332 331 331 331 331 330 331 333
342 342 341 341 341 339 339 338 338 338 339 337 338 339 337 334 333 335 337 335 336 337 335 335 335 335 336 336 336 336 335 335 335 335 336 334 332 332 333 332 331 330 332 333 334 334 334 333 330 329 330 332 334 334 333 331 331 331 330 330 330 332
341 342 342 342 342 339 338 340 340 339 338 337 339 337 335 333 335 334 336 335 334 335 337 334 335 335 335 336 336 336 335 335 335 335 336 335 333 333 333 334 334 333 332 334 334 332 332 331 329 329 328 333 334 334 336 333 331 331 331 330 330 330
342 342 342 341 340 340 341 342 341 339 338 338 337 335 333 333 333 333 336 337 334 335 335 335 334 335 337 336 336 336 336 336 336 335 335 336 335 333 334 334 334 337 336 335 335 333 333 331 329 328 327 332 333 333 335 333 332 331 330 330 329 330
342 342 342 341 340 341 342 340 341 339 339 337 337 334 334 334 336 337 337 336 334 334 334 335 337 338 339 337 336 335 335 334 335 336 335 334 334 333 334 335 334 333 337 334 331 332 329 328 329 330 332 331 331 332 334 334 332 331 330 329 329 330
343 341 342 341 342 342 341 341 341 338 336 335 336 334 333 334 334 336 335 334 333 334 334 335 336 336 337 337 334 333 333 334 335 335 336 336 335 334 334 335 335 333 333 332 331 331 329 331 331 330 332 331 333 331 333 335 333 332 331 330 330 329
342 341 340 341 342 343 341 340 340 340 337 336 335 333 333 335 335 335 335 333 334 334 334 336 336 336 336 336 333 332 334 335 336 336 337 338 338 335 334 335 337 336 332 332 331 328 331 331 331 330 330 331 332 333 334 335 334 333 332 331 330 330
341 341 341 343 342 341 340 340 341 339 337 336 335 334 334 336 337 336 335 333 334 336 336 337 338 337 337 335 334 332 333 336 337 336 336 336 337 337 336 336 335 335 333 330 329 328 329 332 330 329 330 332 334 334 334 334 332 332 334 332 331 330
341 341 341 342 341 341 341 341 341 340 340 338 336 335 333 335 336 335 335 335 337 337 337 338 339 339 337 335 333 333 334 336 338 337 336 335 335 337 336 335 333 334 334 330 328 327 328 329 328 326 328 331 332 333 333 332 332 335 331 331 332 332
340 340 340 341 342 343 343 342 340 341 338 336 334 334 333 333 334 334 334 335 337 338 338 337 338 337 335 334 332 331 332 334 336 337 336 335 334 336 335 334 333 332 332 331 332 331 329 329 327 327 328 330 331 331 333 333 332 332 333 332 332 335
340 341 340 341 342 341 340 339 338 337 338 337 335 336 334 333 333 332 334 336 338 337 338 338 337 337 337 335 332 331 331 333 334 335 335 334 334 334 334 333 333 332 329 330 332 333 330 329 327 326 326 329 330 331 333 331 330 331 331 332 332 331
340 341 340 339 339 337 336 335 334 335 335 336 336 337 335 334 333 335 336 338 338 338 337 337 338 337 336 337 334 332 330 331 335 336 335 334 334 334 334 334 332 331 329 329 329 332 331 330 326 323 326 327 328 332 332 333 329 330 330 331 331 331
339 339 339 338 337 336 337 335 334 334 336 336 336 336 335 335 335 337 338 338 338 337 337 336 337 336 335 333 333 333 332 331 335 336 335 335 333 335 335 334 333 330 332 331 328 332 331 328 322 322 322 321 323 327 330 329 329 329 330 331 331 331
338 337 337 339 335 335 335 334 334 334 333 335 337 337 337 337 338 337 337 337 338 337 337 337 336 337 335 333 333 333 334 334 334 336 334 333 334 333 333 334 333 331 330 330 329 332 330 329 323 325 322 320 319 319 322 325 328 329 328 331 330 330
336 337 336 338 336 336 336 336 336 335 335 333 335 340 337 337 337 336 336 337 337 337 337 337 337 337 336 335 333 333 334 334 334 335 334 332 332 332 333 333 333 332 331 327 328 327 331 329 327 323 316 318 319 319 315 318 321 325 328 328 327 328
335 337 335 336 335 336 333 332 334 335 334 333 334 333 332 333 335 335 336 335 336 338 337 337 337 336 336 335 334 334 333 333 334 334 334 333 332 333 333 333 333 333 331 329 326 326 330 330 327 328 322 320 316 315 315 316 320 320 326 327 328 327
336 336 336 336 337 337 335 334 332 330 329 328 328 329 330 331 332 332 334 336 337 337 338 337 337 336 336 335 334 333 332 332 332 333 333 334 334 333 333 332 333 333 332 331 329 325 325 329 329 328 328 326 324 317 317 319 320 313 324 327 327 327
337 336 337 338 338 335 335 335 332 332 332 332 331 333 334 334 334 334 335 335 336 337 338 337 337 336 336 336 334 331 330 331 333 332 333 333 334 333 333 332 333 333 332 331 330 323 324 325 328 327 328 328 328 328 328 321 315 317 316 323 326 326
333 336 336 338 338 335 334 335 332 330 331 331 332 333 335 336 335 336 335 336 336 337 338 338 337 336 335 331 329 329 331 329 330 332 333 332 333 333 332 332 332 333 332 331 330 326 324 327 324 324 327 326 327 329 326 324 322 320 319 317 320 326
332 332 334 336 337 338 337 337 336 335 333 333 333 333 335 336 334 334 333 334 335 336 337 335 334 334 333 330 330 331 330 330 329 331 333 332 331 332 332 331 331 331 330 330 330 328 327 326 326 325 324 324 326 325 324 326 324 322 318 317 318 320
333 334 335 335 335 334 334 334 335 334 333 332 332 332 333 334 332 332 330 330 331 333 333 332 331 332 330 331 330 330 331 330 329 332 333 331 331 332 332 332 331 331 331 330 330 329 327 327 328 327 327 326 323 324 323 324 321 321 321 322 318 319
333 334 336 336 335 333 335 336 335 335 333 331 331 330 330 329 327 327 328 330 330 332 333 331 328 328 328 332 331 331 330 330 331 333 330 329 330 328 330 331 331 332 331 328 329 329 328 328 328 327 327 327 325 324 322 320 322 321 319 319 319 318
334 334 335 335 334 333 335 336 336 336 335 335 333 331 330 329 327 326 325 327 330 331 332 330 327 328 329 329 328 330 331 331 332 332 330 330 331 331 330 330 329 330 330 328 330 329 328 328 328 327 327 328 327 327 325 325 325 324 321 320 321 319
330 331 332 333 333 335 335 335 335 336 334 334 335 335 333 331 330 328 327 326 326 327 329 328 325 325 326 327 328 328 328 330 331 331 330 329 330 332 331 330 330 329 328 328 329 329 328 328 327 326 326 328 328 327 326 325 326 326 324 324 322 319
327 329 330 330 330 330 331 333 334 335 336 335 333 331 329 331 331 329 329 327 327 327 327 327 326 325 326 327 328 330 331 329 329 329 329 328 330 331 331 330 331 329 329 329 330 329 328 329 328 327 328 327 327 327 326 327 326 327 325 324 321 321
325 326 327 327 329 329 330 331 332 331 330 330 328 328 328 332 333 333 330 329 329 327 327 327 325 327 327 327 327 327 327 328 329 330 330 329 330 330 331 331 332 330 329 329 330 330 328 328 328 327 327 327 327 327 326 329 328 328 328 326 324 323
324 324 325 325 325 327 327 328 328 328 328 327 327 327 327 328 329 330 329 329 327 327 327 328 326 327 328 327 327 327 327 327 328 330 330 330 330 329 330 331 330 330 329 330 329 330 329 329 328 328 328 328 327 327 328 329 330 329 328 327 326 325
323 323 323 323 323 326 328 327 326 327 327 328 329 328 328 328 328 329 327 327 327 327 327 327 326 325 326 327 327 327 326 327 328 329 330 330 330 330 330 329 328 329 329 330 329 328 329 329 328 328 328 328 327 328 330 330 330 330 328 328 327 326

ECMWFFLT2_sfc_thetae_114.txt.gz
Theta_e
343 343 343 343 343 343 346 347 347 348 348 349 350 351 350 350 350 349 349 350 349 345 344 344 346 343 349 346 348 348 348 347 346 347 347 347 347 347 347 346 345 344 343 343 343 342 344 344 344 344 345 342 339 330 330 331 332 334 334 336 338 338
342 342 343 344 344 344 345 346 342 343 345 346 348 349 347 345 350 343 349 347 342 344 340 340 340 349 343 345 346 348 347 347 347 347 346 346 347 346 347 346 345 345 344 343 343 332 333 338 340 343 343 340 332 329 330 331 331 332 333 332 335 337
340 341 342 343 344 344 343 342 342 343 344 347 347 348 343 346 341 342 342 341 342 341 339 340 340 345 343 348 346 348 348 347 347 346 346 346 346 346 346 345 345 345 344 344 335 330 329 328 328 339 337 332 330 329 330 330 330 331 330 332 331 338
340 341 342 342 344 342 342 342 342 342 342 342 342 343 340 341 340 339 340 337 337 338 339 338 348 350 348 342 344 348 347 347 347 346 346 346 346 346 346 346 345 345 343 339 331 329 330 329 328 326 327 331 329 329 329 329 329 329 331 335 333 339
341 341 342 343 343 341 341 341 341 341 341 340 339 339 338 338 337 335 335 336 336 341 339 340 339 341 340 338 336 338 339 338 339 337 346 336 336 341 340 338 338 339 331 332 333 330 329 330 330 328 328 331 330 329 329 330 329 331 331 333 335 338
342 342 342 342 340 342 341 339 339 340 339 340 339 337 336 336 335 334 335 338 340 336 338 336 337 339 340 337 335 334 335 336 335 336 341 335 335 334 335 338 338 335 334 332 332 331 330 333 332 329 329 331 330 329 329 328 330 330 331 332 336 338
341 341 341 341 341 340 338 339 338 339 339 338 337 337 333 333 334 334 336 337 333 334 336 338 337 336 337 336 335 333 333 334 335 333 338 334 334 335 337 338 338 338 335 334 335 335 333 333 333 333 330 333 330 329 328 328 329 330 331 332 336 337
340 340 339 339 338 337 336 338 339 344 340 340 337 335 332 332 335 333 335 334 337 332 335 336 337 335 335 335 335 334 333 331 331 332 333 334 333 331 335 337 339 338 337 337 337 335 334 335 335 334 331 332 330 329 328 328 329 330 330 331 333 336
340 339 339 338 337 337 336 338 339 337 336 344 336 333 333 333 334 334 335 334 338 332 332 333 333 335 333 334 334 334 332 331 330 329 330 332 331 330 332 335 337 338 337 335 335 334 334 334 335 331 331 332 330 329 328 329 329 329 329 330 331 334
339 339 338 338 337 337 336 336 335 336 335 342 334 334 333 332 332 334 334 334 335 333 332 333 333 334 335 333 333 333 333 332 332 331 330 329 329 328 327 329 332 335 337 336 335 334 334 332 330 328 330 333 332 331 329 329 329 329 329 329 330 333
339 341 338 337 337 336 336 335 335 334 336 337 334 336 334 331 331 333 334 334 335 335 333 332 333 334 335 334 333 333 332 332 332 331 330 329 329 329 330 330 330 331 333 334 333 333 334 329 327 327 330 333 331 330 329 329 329 329 329 328 329 330
340 340 339 337 338 336 336 335 336 335 336 336 336 333 332 331 334 332 334 334 334 335 336 333 333 333 335 333 333 333 332 331 332 332 332 331 330 330 331 332 332 332 332 331 331 329 329 327 328 329 330 332 331 331 332 331 329 330 329 328 329 330
340 340 338 337 337 336 336 337 336 336 336 336 334 333 332 332 332 332 333 335 334 334 336 334 334 334 336 334 334 333 331 333 333 333 332 332 331 331 332 332 330 332 333 332 329 327 330 328 327 330 330 330 331 332 334 333 332 329 329 328 327 328
339 339 338 338 337 336 337 337 338 336 337 334 333 332 333 332 333 333 334 334 335 335 335 335 334 333 334 334 333 333 333 332 334 334 333 333 332 331 331 331 331 331 334 331 328 326 327 327 328 330 329 329 330 331 334 332 331 331 331 329 328 328
341 339 340 337 337 337 338 338 337 336 335 334 334 333 331 333 334 336 336 336 337 336 336 334 334 333 334 336 335 333 333 334 334 334 334 334 333 331 330 331 331 331 329 329 328 329 327 326 328 328 328 329 329 331 333 332 331 332 332 331 329 328
340 339 338 338 338 338 338 336 336 339 334 334 334 333 332 333 334 335 335 335 336 336 336 334 334 333 332 335 335 334 333 331 331 332 333 333 333 332 331 331 332 332 329 329 328 327 328 327 328 328 328 329 329 330 330 332 332 332 331 331 330 329
339 339 338 338 338 337 336 336 336 337 335 334 333 331 331 332 333 334 334 333 332 333 334 333 333 334 333 335 335 334 333 331 332 332 333 332 333 333 331 332 331 331 330 328 329 327 328 328 327 327 327 327 329 330 331 332 332 332 332 330 329 328
338 338 338 338 338 337 336 336 335 335 337 334 333 332 332 333 333 333 331 332 331 332 334 333 333 334 333 334 335 335 334 333 333 333 333 333 333 333 333 332 331 329 329 328 327 326 327 327 327 325 326 328 329 330 331 331 331 335 330 329 329 328
339 338 337 338 337 336 335 336 335 334 333 333 333 332 331 331 332 331 330 331 331 333 334 332 333 334 335 335 333 333 333 332 332 335 334 333 332 333 332 330 329 327 329 329 328 327 327 327 325 325 325 326 327 328 330 330 329 330 330 330 331 330
337 338 338 338 337 335 334 335 334 332 332 333 333 333 332 330 329 329 332 331 332 332 332 333 332 332 333 334 333 331 331 330 331 334 335 333 333 332 332 330 329 328 326 328 329 329 328 327 325 324 324 324 326 328 330 330 329 329 330 330 332 332
336 337 338 338 338 337 335 333 331 333 333 333 333 332 332 330 328 331 331 332 331 332 332 332 334 332 330 333 331 329 329 331 331 332 334 334 335 333 332 332 329 328 327 325 326 329 328 328 325 322 325 324 324 328 332 331 329 328 329 329 331 331
336 337 338 338 337 336 334 333 333 333 333 333 333 332 332 332 332 332 332 332 332 332 332 332 333 332 332 330 328 329 328 327 329 333 334 335 334 335 334 330 328 326 329 326 325 329 329 327 321 321 321 321 321 325 329 328 328 327 327 327 328 329
336 336 336 337 335 335 334 333 332 331 332 332 333 332 332 334 333 333 332 332 334 333 332 332 332 333 331 329 328 328 330 329 329 331 333 333 333 333 332 331 330 327 326 328 327 329 329 328 322 324 323 319 318 318 322 324 326 327 328 326 326 328
334 334 333 336 335 333 333 332 332 332 331 329 331 334 333 334 332 331 333 333 332 332 332 331 332 332 331 329 330 330 330 331 331 331 333 334 333 332 331 332 332 331 328 326 327 327 330 328 326 323 316 317 317 318 314 317 321 324 326 327 328 329
333 333 333 335 333 332 331 330 329 330 328 329 329 327 327 328 329 332 334 331 332 332 333 331 330 330 331 331 330 331 331 332 332 331 333 334 333 332 332 332 333 332 329 328 327 326 328 329 327 328 323 317 314 313 315 318 320 320 325 325 327 328
332 332 332 332 332 332 329 327 328 327 326 324 325 324 324 327 329 329 331 331 332 334 331 330 331 330 330 330 329 329 329 329 330 331 332 333 333 332 330 331 332 332 331 330 328 326 326 328 327 327 327 324 322 317 317 318 319 313 323 326 326 327
333 331 332 331 331 330 329 328 327 325 325 326 325 326 328 331 331 332 331 331 332 331 332 333 331 330 329 329 329 329 328 328 329 330 333 333 332 333 333 332 333 332 333 332 328 325 326 324 325 326 327 326 326 325 324 320 316 317 314 320 324 325
334 333 331 331 330 331 329 328 327 325 327 328 328 330 332 333 334 333 331 331 331 331 332 333 333 331 331 330 329 328 328 328 329 329 331 333 333 334 334 334 334 334 333 332 330 327 325 325 323 322 326 325 325 326 325 323 321 319 317 315 317 324
332 331 333 332 330 330 330 330 329 329 328 329 329 331 332 332 329 328 328 329 330 329 329 328 330 331 329 329 329 328 328 329 329 329 330 331 332 333 333 333 332 332 331 331 330 329 327 326 325 323 323 324 324 324 323 323 323 321 319 317 318 319
331 331 333 333 333 333 331 332 331 330 328 327 326 327 329 328 327 327 328 327 328 327 328 328 328 330 329 329 328 328 327 327 328 329 330 329 331 332 332 333 333 332 332 330 330 329 327 327 326 326 325 324 322 322 321 320 321 320 319 321 318 319
333 333 335 335 335 335 335 334 332 331 330 328 327 327 327 327 325 324 323 324 325 328 327 327 326 326 326 327 326 328 327 327 327 328 329 329 329 330 331 332 332 332 332 330 329 328 327 327 327 326 326 325 323 323 321 319 319 320 319 316 317 320
330 332 333 335 334 334 334 334 335 334 334 333 331 330 328 326 326 324 324 324 324 325 327 325 325 325 324 325 326 326 328 328 328 328 327 328 329 330 330 330 330 329 330 330 330 328 327 326 326 326 326 326 325 325 324 323 323 323 321 319 319 319
327 329 329 330 330 331 331 332 334 335 334 333 334 333 331 328 327 326 326 325 323 324 323 324 323 323 324 324 325 325 326 326 327 329 329 329 330 331 330 329 328 328 327 328 328 328 327 326 326 326 326 327 327 326 325 325 326 324 323 322 320 318
325 327 327 328 329 329 330 330 332 332 334 333 332 331 330 330 330 329 328 325 324 324 324 324 323 323 324 324 325 326 326 326 327 327 328 328 329 330 329 329 328 326 327 328 328 328 327 327 327 327 327 326 326 326 326 327 327 325 322 321 319 319
324 325 325 326 327 327 328 329 329 329 328 328 328 328 328 328 328 327 327 327 326 324 325 325 324 325 325 324 324 324 325 325 326 327 327 327 327 328 329 329 329 328 328 328 327 328 328 328 327 326 326 326 326 327 327 327 326 326 325 324 322 321
323 323 324 324 325 326 327 327 327 327 326 326 325 324 324 325 324 323 324 323 324 323 325 324 324 325 325 325 324 324 324 325 326 326 327 327 327 327 328 327 327 328 327 329 328 328 327 328 327 327 326 326 326 326 327 327 327 327 326 325 323 323
322 322 322 323 324 325 325 324 323 323 323 322 323 322 322 323 324 324 323 323 322 323 322 323 324 323 325 326 325 325 324 325 326 327 327 328 328 328 328 327 326 327 327 328 328 327 328 328 327 327 326 326 325 325 326 327 328 327 327 325 325 325

ECMWFFLT2_sfc_thetae_117.txt.gz
Theta_e
343 341 341 341 340 340 345 347 346 347 349 349 350 350 350 350 350 351 350 350 347 344 343 344 344 342 348 345 347 347 347 346 346 346 346 347 346 346 345 345 344 344 344 343 344 343 343 344 344 343 342 341 339 329 329 329 331 333 332 334 336 335
342 341 341 341 341 342 343 345 340 342 343 346 348 349 347 344 349 344 349 345 342 346 340 338 340 348 342 345 345 347 346 347 346 346 346 346 346 346 346 345 344 344 344 344 342 330 331 340 344 343 340 338 330 328 329 330 331 332 332 331 333 338
342 342 340 340 341 342 340 339 339 340 343 346 346 347 342 343 340 342 341 341 343 342 338 339 339 344 343 348 344 347 347 347 346 346 346 346 346 346 346 345 345 344 343 342 330 327 327 325 329 342 340 331 328 328 329 329 329 331 330 330 329 339
342 342 340 339 340 340 339 339 338 340 340 341 341 342 340 339 339 339 339 338 337 337 337 334 347 349 348 341 341 347 347 347 346 346 346 345 346 345 346 345 345 344 338 336 330 326 328 325 324 327 328 327 327 328 329 329 328 328 328 334 330 338
342 342 341 341 342 340 339 339 339 339 339 338 339 339 338 337 336 334 334 335 333 338 335 333 335 337 338 336 335 336 338 338 337 336 345 334 334 336 338 333 332 335 331 333 332 328 329 327 328 329 328 327 328 328 328 329 328 327 328 329 333 338
341 342 342 341 342 343 342 340 341 340 338 337 337 335 334 333 333 333 334 334 336 334 334 334 334 335 336 334 334 334 333 333 333 333 339 335 333 332 332 331 333 334 335 335 333 330 331 330 327 328 328 327 328 328 327 327 328 328 328 329 334 337
339 340 341 342 341 342 340 340 340 339 337 337 336 334 332 331 332 334 336 338 334 332 334 336 334 334 334 333 332 332 332 331 331 331 337 335 334 331 332 333 331 332 331 334 335 334 330 331 329 329 329 328 328 327 327 327 328 328 327 329 336 337
339 340 341 341 339 339 337 337 339 343 339 341 336 333 331 331 332 332 335 337 337 330 334 335 333 332 334 331 332 331 330 330 329 330 333 332 330 329 331 332 334 333 334 334 335 335 333 332 331 330 330 329 328 327 327 327 329 329 328 328 331 337
339 340 340 339 337 335 335 335 337 338 337 343 334 332 332 332 332 332 335 337 336 330 330 333 332 331 333 332 331 330 329 330 328 330 327 331 329 328 329 332 333 334 333 333 330 331 333 330 327 330 330 329 328 327 327 327 327 328 328 328 329 334
339 338 338 337 335 334 334 335 337 339 338 341 334 333 331 331 331 332 332 333 334 331 330 330 331 331 330 331 331 329 330 328 329 328 327 328 329 327 327 327 331 333 334 333 333 331 332 329 327 328 330 329 328 327 327 327 327 327 327 327 327 331
338 340 336 336 334 334 335 334 335 335 336 336 334 335 333 330 330 332 334 333 334 334 331 330 329 331 334 332 330 330 330 329 329 330 328 328 326 328 326 326 329 331 333 333 333 333 333 327 327 329 331 329 328 328 327 328 328 328 328 328 328 329
338 339 337 335 337 334 334 334 334 333 335 334 335 334 333 331 333 331 333 334 332 331 334 330 330 330 332 331 330 330 331 330 331 331 330 330 328 328 328 328 329 331 331 331 332 329 329 327 327 328 329 329 329 328 328 329 329 329 329 329 328 329
338 338 335 335 335 334 334 334 334 333 334 335 335 333 332 332 330 329 331 335 334 333 333 330 330 330 333 332 332 330 330 332 332 332 331 331 330 328 329 330 331 332 332 331 331 328 329 327 328 328 328 328 328 328 329 329 329 329 330 330 330 329
337 336 335 334 334 334 334 332 333 333 336 334 333 332 333 329 331 330 331 334 335 335 334 332 330 330 331 332 332 332 332 332 332 332 332 330 331 329 329 329 331 331 334 332 330 328 328 327 328 328 328 328 328 328 328 329 329 329 330 329 328 328
338 335 338 334 335 334 332 334 333 332 333 332 332 331 330 329 330 331 331 330 334 336 337 336 335 333 332 333 333 333 332 333 332 332 331 331 332 331 330 330 330 330 329 330 330 329 328 327 328 327 327 327 327 328 328 328 328 329 329 328 327 328
336 335 335 335 333 333 334 333 333 337 333 331 331 331 329 329 330 332 335 335 336 337 337 336 336 336 335 335 335 334 334 333 332 331 330 330 332 331 331 330 330 330 328 328 329 328 328 327 327 327 326 327 327 329 327 327 328 328 328 328 328 329
336 335 335 334 333 332 333 334 334 335 333 330 330 329 329 329 330 330 332 334 336 337 338 336 336 336 335 335 336 336 335 334 332 330 330 330 333 332 330 330 329 330 329 327 328 328 327 327 327 327 328 327 327 328 327 327 327 327 328 328 328 328
336 336 334 332 332 333 334 334 332 332 337 332 329 328 329 329 329 330 330 330 331 334 335 335 335 336 335 336 336 336 336 336 334 333 332 332 332 333 331 329 328 328 329 327 326 325 326 326 326 326 327 327 328 328 328 327 327 331 327 327 327 326
337 335 333 332 332 333 334 333 332 334 334 334 332 330 328 329 331 332 331 329 329 333 335 335 335 336 335 335 335 335 335 335 335 335 334 333 332 333 332 330 328 327 328 327 327 327 327 327 326 325 325 326 327 327 326 326 328 328 327 327 328 328
335 333 333 332 332 334 336 335 335 334 334 334 333 333 330 329 329 329 330 330 330 331 334 335 335 335 336 336 335 334 334 334 333 333 333 332 333 333 332 330 329 329 327 327 327 327 327 326 325 324 325 325 325 326 326 326 326 327 327 327 329 329
337 336 337 337 337 337 335 335 334 334 334 331 329 330 330 328 327 328 329 330 330 331 331 333 333 332 334 336 335 334 333 333 333 333 332 332 334 334 333 332 331 330 327 325 324 327 327 326 323 322 323 323 324 326 329 328 325 326 326 327 328 328
337 336 336 336 337 337 335 332 333 333 332 329 327 327 327 329 329 331 330 330 331 331 331 331 333 331 332 333 334 332 332 331 332 332 332 333 334 335 334 333 330 325 327 325 323 326 327 325 320 320 320 320 322 324 328 329 327 326 325 326 327 328
336 335 334 335 336 336 334 331 329 328 328 328 328 331 330 331 333 330 330 331 331 331 331 331 331 333 332 331 332 333 332 331 331 332 332 332 333 333 334 333 331 327 325 326 325 327 328 326 320 322 322 320 317 318 322 324 326 326 326 325 326 327
335 333 332 334 336 331 330 330 329 329 327 329 328 330 328 329 329 329 329 331 331 330 331 331 330 331 333 332 331 331 331 331 331 331 331 331 332 332 333 332 331 329 327 323 324 324 328 328 325 321 314 317 317 318 313 317 321 324 325 325 326 327
332 332 331 333 333 329 330 329 324 325 325 325 324 323 323 323 325 329 329 326 330 331 331 330 330 330 329 328 329 331 331 331 331 331 332 332 332 333 333 334 333 331 328 326 325 325 327 328 326 327 321 316 313 313 314 317 320 320 324 324 326 328
329 328 330 329 328 327 327 326 324 323 322 321 322 323 323 324 325 326 326 328 329 330 329 329 329 329 326 328 327 329 330 330 330 332 332 333 333 333 333 332 333 333 331 330 328 325 325 328 328 327 326 322 320 315 316 318 319 313 323 326 326 328
329 327 328 328 328 327 325 324 324 323 322 322 322 322 323 326 327 327 328 328 328 329 330 329 329 328 327 327 328 328 329 329 329 329 330 331 332 333 333 333 333 333 332 331 328 323 323 325 326 326 326 325 325 324 324 319 315 315 313 320 324 325
330 330 329 328 327 326 327 324 324 322 323 323 323 324 326 327 328 330 329 328 327 328 328 328 329 329 329 328 328 327 328 329 328 329 329 329 329 332 333 334 334 333 332 332 329 325 325 327 322 322 325 324 324 325 324 324 322 319 316 314 317 323
330 331 332 330 327 326 327 324 323 324 323 324 324 325 327 327 327 328 328 328 326 327 327 326 327 328 329 328 328 327 327 328 328 328 330 329 329 330 331 331 332 332 332 331 330 330 327 327 325 323 322 322 323 322 323 324 323 320 315 315 314 317
328 328 329 328 327 327 326 326 325 324 324 324 322 322 324 324 324 323 327 327 325 325 326 326 326 326 327 328 327 326 326 326 325 326 328 329 329 329 330 330 331 332 332 331 331 330 328 327 327 325 324 323 321 321 321 321 321 319 318 317 315 316
329 328 328 328 329 328 327 328 326 325 324 324 324 324 322 323 322 322 322 322 325 325 325 325 325 326 325 326 326 326 325 325 325 326 327 326 326 327 328 329 330 331 331 331 330 330 329 329 328 325 325 324 322 321 319 318 319 319 319 317 315 315
327 327 328 330 330 329 328 328 330 329 329 329 328 327 324 323 323 322 321 322 322 326 328 327 327 326 326 325 324 324 325 325 325 326 326 326 327 327 328 329 329 329 329 330 329 328 327 327 327 326 325 325 324 324 323 322 322 322 320 320 319 318
323 325 326 328 328 329 328 327 329 331 332 331 331 330 329 326 326 325 323 322 322 323 325 325 326 325 325 324 324 323 323 323 324 325 326 327 328 329 329 329 328 328 327 327 326 326 326 326 327 325 324 325 325 324 324 325 324 323 323 322 321 318
323 325 326 327 328 327 328 327 326 326 327 326 326 326 326 326 326 325 324 324 323 322 321 321 322 322 324 324 323 324 324 324 324 324 324 325 326 328 329 329 329 328 327 327 327 327 327 327 326 326 327 325 325 325 325 326 325 324 323 321 319 318
323 323 324 325 326 326 325 326 326 325 325 325 324 322 322 324 323 323 322 320 321 319 320 322 322 324 325 323 323 324 324 323 323 324 326 326 327 328 328 328 328 328 328 328 327 327 326 326 326 327 326 325 325 325 326 326 326 325 325 323 322 320
323 323 323 325 325 324 324 324 325 325 325 325 324 322 321 321 321 320 320 319 321 320 322 322 323 323 324 324 323 323 323 323 325 326 327 328 327 327 327 327 327 327 327 328 327 326 326 326 326 326 326 326 325 325 327 327 327 327 326 325 324 323
321 322 323 323 323 323 323 323 323 323 322 321 322 320 319 318 318 319 318 319 319 320 320 320 322 323 323 323 323 323 323 324 326 327 327 327 327 327 327 327 327 326 326 327 327 327 327 326 326 327 327 326 325 325 326 327 327 327 326 325 325 324

ECMWFFLT2_sfc_thetae_120.txt.gz
Theta_e
343 340 340 340 339 340 344 347 347 347 349 350 350 350 350 351 350 350 349 350 347 346 345 346 345 345 349 346 346 346 345 345 346 345 345 346 346 346 346 345 345 344 344 343 342 343 344 343 343 342 342 341 339 332 332 333 334 337 338 339 340 336
341 339 339 339 339 341 343 344 341 343 345 347 348 348 347 346 350 345 350 346 344 346 341 341 344 348 345 347 346 347 346 345 345 345 346 345 346 346 346 346 345 345 342 339 336 330 338 343 343 342 342 339 332 331 332 333 335 336 337 337 339 340
342 340 338 338 339 341 340 339 339 341 344 347 347 346 343 344 343 343 341 341 343 341 340 342 343 345 346 347 346 347 347 346 345 345 345 345 345 346 346 345 345 343 339 336 329 328 327 331 339 342 340 333 330 331 332 333 334 335 335 337 336 340
342 341 339 338 339 338 337 337 338 339 340 341 341 341 338 339 340 339 338 338 337 340 339 338 347 348 349 342 343 346 346 347 346 345 345 342 343 344 345 344 344 342 337 334 331 329 328 328 332 331 329 330 330 331 332 332 333 333 334 338 333 339
343 342 340 339 341 341 340 338 338 338 338 339 338 337 337 336 336 335 336 336 337 340 336 336 336 339 338 339 339 339 338 338 337 336 343 335 336 336 337 335 335 337 335 335 332 329 329 329 331 330 329 330 330 331 331 332 332 332 333 335 336 338
342 342 341 339 341 342 342 341 341 340 339 339 337 335 335 334 334 335 335 336 339 335 335 335 335 336 339 337 338 338 337 335 335 337 341 337 336 336 335 335 335 336 336 336 335 332 334 331 330 330 329 330 330 331 331 330 332 332 333 333 338 338
341 341 341 342 342 342 341 342 342 341 340 339 337 336 335 332 333 334 336 339 334 333 332 334 334 335 336 338 337 335 335 335 335 335 339 337 335 334 335 336 335 335 334 337 336 334 332 330 330 330 329 329 330 330 330 330 331 332 332 333 337 338
340 340 341 341 341 341 340 341 341 343 340 342 339 336 333 331 333 334 336 337 337 333 333 332 333 334 335 336 336 333 333 334 333 333 336 337 335 333 333 334 335 335 336 336 337 336 333 332 330 331 330 329 329 329 329 330 331 331 332 333 335 338
340 341 341 341 339 340 340 340 340 339 339 342 336 334 332 332 333 334 336 337 336 332 332 332 333 334 333 336 336 334 332 332 331 331 331 334 334 332 331 332 334 335 335 335 335 335 333 332 331 330 330 329 329 328 329 330 331 331 332 332 333 337
340 341 340 340 339 338 339 339 340 340 339 340 334 332 330 331 332 333 333 335 335 331 331 332 332 333 331 332 333 333 332 330 331 330 330 331 332 331 331 330 331 333 334 334 335 336 333 329 328 330 331 330 329 329 329 330 331 331 331 332 333 337
339 341 340 339 338 337 338 338 340 340 341 337 334 334 332 329 330 333 333 333 335 336 330 330 331 332 334 333 331 332 331 330 330 330 330 329 328 330 329 329 330 331 332 333 334 336 334 329 328 330 332 330 329 329 329 330 331 331 331 332 332 333
338 340 339 338 338 336 337 338 339 338 339 337 336 334 332 329 332 332 333 333 334 335 336 329 329 331 333 332 332 331 331 330 332 332 331 331 330 329 329 329 330 331 332 332 332 332 332 329 328 330 331 330 330 330 330 331 331 332 332 332 331 332
338 339 337 337 336 335 335 337 337 337 337 337 336 334 333 332 330 331 333 335 335 335 336 332 330 331 335 333 333 333 331 332 332 332 332 332 331 330 330 331 331 333 332 332 332 330 330 330 328 330 331 330 330 330 330 331 331 331 332 332 332 332
338 337 336 335 333 333 334 335 335 335 338 336 334 334 334 333 332 331 333 335 335 335 336 335 333 330 331 333 332 333 333 332 333 333 332 332 331 331 331 330 330 331 333 333 331 330 330 329 330 330 330 330 330 330 330 330 331 331 332 332 332 332
338 337 337 335 333 332 333 334 333 334 334 334 333 332 331 331 331 331 332 334 335 335 336 336 336 335 333 333 333 333 333 334 333 333 332 332 332 332 331 330 330 330 330 330 331 330 329 329 330 329 329 330 329 329 330 330 331 330 331 331 332 331
336 335 335 334 332 333 332 332 333 335 333 333 332 330 329 330 331 334 335 334 335 335 336 337 336 336 335 335 335 335 335 334 334 333 332 332 332 331 331 330 331 330 329 329 329 328 329 328 329 329 329 329 329 330 329 330 330 330 331 331 331 331
334 334 335 334 333 332 332 332 334 335 334 334 332 330 329 329 330 333 334 335 336 337 337 337 337 337 335 335 336 336 337 336 335 334 332 331 332 332 331 330 329 330 331 330 329 328 328 328 328 328 328 328 329 330 329 329 329 330 331 330 330 330
334 334 334 333 333 332 334 335 335 336 337 334 333 330 329 329 329 331 332 333 334 335 336 337 337 337 336 336 336 336 336 337 337 335 334 333 333 334 333 331 330 330 330 329 327 327 327 327 328 328 328 328 328 329 330 329 329 331 329 329 329 329
335 335 334 333 334 334 335 335 336 336 336 334 333 332 329 328 331 332 332 332 332 333 335 335 336 336 335 335 336 336 336 336 336 336 335 334 333 333 333 332 330 330 330 329 329 327 328 327 327 327 326 327 328 329 330 329 329 329 328 329 329 330
336 336 335 334 335 336 336 335 334 334 334 334 334 334 332 332 332 331 332 332 332 332 334 335 335 335 335 335 335 335 335 336 335 335 334 333 333 333 332 332 331 330 329 329 329 329 328 327 326 325 325 326 327 328 329 329 329 329 329 328 329 330
336 337 337 336 336 336 335 335 335 335 334 334 333 334 333 332 331 332 332 332 332 332 333 334 335 335 334 335 335 335 335 335 335 334 333 333 334 334 334 333 332 331 329 327 326 328 327 327 324 322 324 324 325 327 329 330 329 329 328 329 329 329
337 337 338 337 337 337 336 336 335 335 334 333 334 333 331 331 330 331 331 330 331 331 332 332 334 334 334 334 334 335 334 333 333 333 333 334 334 334 334 333 332 329 329 328 326 327 326 325 321 321 319 320 323 326 328 330 328 328 329 328 328 329
337 337 337 338 337 336 336 335 334 332 334 330 330 332 331 331 332 330 329 330 330 330 330 330 331 334 333 333 334 334 333 333 333 333 333 332 333 332 333 334 332 329 327 327 327 327 326 327 321 321 320 319 317 317 322 325 328 328 329 329 328 328
337 336 336 338 338 337 337 335 334 332 330 329 328 331 329 329 329 329 329 329 329 330 330 330 331 332 333 333 333 333 334 333 333 333 332 332 332 332 333 333 333 332 330 325 324 325 328 327 323 321 316 317 318 319 315 318 321 325 328 328 328 328
336 336 335 338 337 336 335 331 328 328 328 327 327 323 325 326 326 329 330 328 330 330 331 332 332 333 334 333 333 333 333 332 332 332 332 332 331 332 333 334 334 332 329 327 325 325 326 328 326 326 323 318 315 314 315 318 320 322 325 325 326 328
335 335 334 335 335 335 334 329 325 325 324 322 323 322 324 325 324 324 324 326 330 331 331 331 331 330 330 331 329 330 330 330 331 332 332 332 332 333 333 333 334 332 331 331 328 327 325 327 327 327 327 325 322 318 317 319 319 314 323 326 326 327
333 332 331 331 331 330 326 325 323 324 323 323 323 321 320 322 325 326 327 328 328 329 329 329 328 328 328 328 328 329 329 330 330 330 330 330 330 331 333 334 334 333 332 331 329 326 326 325 326 327 327 327 324 324 323 319 316 317 314 321 325 325
329 330 329 329 328 329 327 324 323 322 323 322 321 325 323 324 325 329 328 328 327 326 327 327 327 327 327 327 329 329 329 329 329 329 329 329 329 330 331 333 334 334 332 332 331 328 327 326 323 323 327 325 325 325 325 324 323 319 317 314 317 325
327 328 328 328 328 325 326 323 322 321 322 323 322 323 325 328 328 328 326 326 326 326 326 326 326 326 326 327 330 328 329 329 329 329 330 329 329 330 330 330 330 331 330 330 330 330 328 327 326 325 325 324 324 323 323 323 323 322 317 314 315 318
326 326 326 325 325 325 326 326 323 322 322 321 321 322 323 323 323 321 323 324 325 325 325 325 326 326 326 326 326 327 326 326 326 327 328 329 329 329 329 329 330 330 331 330 330 329 328 329 328 328 328 326 323 323 322 321 321 320 320 319 315 316
327 327 326 326 327 327 327 327 326 324 323 323 324 323 322 323 321 323 323 323 324 325 325 326 326 327 326 326 325 327 326 325 325 327 327 327 326 327 328 328 329 329 329 329 329 330 329 328 329 328 327 326 324 323 321 319 319 320 319 317 317 317
326 326 325 326 326 326 327 327 327 327 326 325 325 325 323 322 323 324 323 324 324 324 326 327 327 327 327 326 326 325 325 324 324 324 324 326 327 328 328 328 328 328 328 329 329 329 329 328 328 327 326 327 326 325 324 323 323 322 320 319 319 318
323 324 325 326 325 325 325 325 326 325 325 327 327 326 324 324 323 324 324 324 325 324 324 324 325 324 325 325 325 324 325 325 325 325 325 325 326 328 328 328 328 328 328 328 328 328 327 327 327 325 324 325 324 325 325 326 324 322 322 322 321 318
323 324 324 324 324 325 325 325 324 324 324 324 323 323 323 324 324 325 325 324 324 323 322 322 322 323 324 325 325 324 324 324 324 324 325 325 325 326 327 327 328 328 327 328 329 328 327 327 327 327 326 324 325 325 325 325 324 324 323 321 320 319
322 322 322 322 322 322 323 324 323 323 323 322 321 320 320 321 322 323 322 322 322 321 322 322 322 323 324 324 324 324 325 325 325 325 325 325 326 327 328 328 328 328 328 328 328 328 327 326 326 326 326 326 326 326 326 326 325 324 324 323 322 321
321 321 321 321 320 321 321 322 322 322 323 323 323 321 321 322 322 321 321 321 321 321 322 321 321 322 323 323 323 324 325 325 326 326 326 326 327 327 328 327 327 327 327 328 327 326 327 327 326 326 326 327 326 325 327 327 326 326 325 325 324 323
320 320 320 320 320 321 321 320 320 322 322 321 320 319 319 319 320 321 321 321 321 321 320 320 322 323 323 324 324 324 325 326 326 327 327 327 327 327 328 327 327 326 326 327 327 326 327 326 326 327 326 326 326 326 326 327 326 326 326 325 325 325

ECMWFFLT2_sfc_thetae_123.txt.gz
Theta_e
348 347 347 347 347 348 347 347 347 348 349 350 350 350 351 351 351 351 351 350 349 351 352 351 350 350 347 348 345 345 346 346 346 346 346 346 345 345 344 344 343 342 341 343 345 344 345 343 343 342 342 341 340 340 339 338 338 339 340 339 340 339
346 346 347 346 347 347 347 348 349 349 350 350 350 351 351 352 350 352 350 351 352 350 350 350 350 349 349 349 347 345 345 345 346 346 346 346 346 345 345 344 342 340 337 338 341 346 345 344 343 342 342 341 339 339 340 340 340 339 340 340 340 340
346 346 345 345 346 347 347 348 348 349 349 349 350 351 351 351 351 350 350 350 350 350 349 349 349 348 349 347 348 346 345 345 345 346 345 345 346 346 346 344 341 338 339 336 343 345 344 342 342 343 342 340 340 340 341 341 341 342 340 341 340 339
344 345 344 343 344 345 346 347 347 348 349 349 350 350 350 350 350 350 349 350 350 349 349 349 349 348 348 348 348 347 346 346 346 346 345 344 345 345 343 342 340 337 340 340 339 341 342 342 342 343 343 340 339 340 340 341 340 341 341 339 338 338
344 345 343 343 344 343 345 345 346 347 348 348 348 348 349 349 349 349 348 348 349 348 347 347 347 348 347 346 346 346 347 347 347 346 343 345 345 343 344 342 342 341 341 339 338 339 341 342 343 341 340 339 340 341 340 340 340 340 341 341 340 340
344 344 343 343 343 343 344 343 345 345 347 347 346 347 347 347 346 346 348 348 348 346 346 345 346 345 346 346 345 344 344 345 345 344 345 344 343 343 344 343 344 342 341 341 340 340 340 341 340 338 337 339 340 341 340 339 339 340 341 342 341 339
342 343 343 343 343 343 342 343 345 345 345 345 347 345 345 345 344 346 347 348 346 346 345 345 345 345 345 346 345 345 344 345 345 344 344 343 343 342 344 344 343 342 341 341 338 339 339 339 338 337 336 337 340 339 340 339 339 340 341 341 341 338
342 342 342 342 343 342 343 343 343 344 345 345 345 345 345 345 344 345 345 347 345 345 345 344 344 344 345 346 347 345 346 345 345 344 345 343 344 343 343 343 344 342 342 341 339 338 338 337 338 340 336 336 338 339 340 339 340 341 341 342 341 339
342 342 342 342 341 342 342 343 343 344 344 345 344 344 345 344 343 344 345 345 345 344 344 345 344 344 345 345 345 345 344 345 345 346 345 344 344 344 344 343 343 342 343 343 342 342 339 338 339 339 337 335 335 337 339 340 341 340 341 341 341 340
342 341 342 342 341 341 340 341 341 342 343 345 344 343 344 345 344 344 344 344 345 344 345 344 345 345 344 345 345 345 344 346 346 346 345 345 344 344 342 344 343 342 341 342 341 343 341 340 338 338 337 336 334 335 338 339 340 339 340 341 342 342
342 343 342 341 341 341 341 341 342 343 343 343 343 344 343 344 343 343 343 343 344 344 345 345 344 344 345 346 344 344 345 345 346 345 345 345 345 344 343 342 343 341 341 339 341 341 340 340 340 338 337 337 337 336 336 338 339 340 340 341 342 342
342 343 342 341 340 340 341 342 343 343 342 342 342 342 343 344 344 344 343 343 343 344 344 344 345 344 344 344 344 343 344 344 345 346 344 345 343 344 344 343 343 342 342 343 342 341 342 340 339 338 339 337 337 335 334 337 338 340 340 341 342 342
341 342 341 340 340 339 340 341 341 341 343 342 343 343 342 343 343 343 342 343 343 342 342 343 344 344 343 343 343 344 343 344 343 344 344 343 343 343 343 342 342 343 342 342 342 341 339 341 340 339 340 339 340 336 336 336 337 339 340 341 341 342
342 341 341 341 341 339 339 340 341 341 342 342 344 342 342 342 343 342 342 342 341 341 341 341 341 341 341 340 339 339 340 341 343 341 341 342 341 341 341 341 341 341 340 340 340 341 339 339 339 339 340 342 342 341 338 335 336 337 339 340 341 341
342 342 341 341 340 340 340 340 340 341 341 342 341 341 341 341 343 342 342 342 342 342 342 341 341 340 339 338 338 340 339 340 340 340 340 339 338 338 338 339 340 338 339 339 340 340 340 339 340 338 340 342 340 341 339 338 339 338 338 340 342 341
342 341 341 341 341 341 341 341 341 341 341 341 341 342 342 343 343 343 342 341 341 341 341 341 340 340 339 340 340 339 340 340 340 340 340 339 338 337 338 337 339 338 336 336 336 338 340 339 340 339 342 341 343 340 337 337 337 339 339 338 339 340
341 341 340 341 342 342 341 341 342 341 341 341 341 342 342 343 342 342 342 342 342 341 342 341 341 340 339 339 340 340 341 341 341 340 339 338 337 337 337 336 336 337 336 334 334 335 338 339 338 339 340 340 340 340 338 335 335 336 337 335 335 337
342 341 341 341 342 341 341 341 341 341 341 340 341 342 342 343 342 342 341 341 341 341 341 341 341 341 341 340 340 340 340 341 340 340 339 339 338 338 339 338 337 338 337 336 336 334 335 337 338 338 337 337 337 336 337 336 334 334 334 334 334 335
341 340 340 341 340 340 340 341 341 341 340 340 341 342 343 342 343 343 342 342 340 340 340 340 340 340 339 340 340 340 340 340 340 339 338 338 338 338 338 338 337 336 337 336 336 336 334 335 335 336 335 336 337 337 337 336 335 333 332 334 334 334
340 340 340 340 339 338 339 339 338 339 339 341 343 343 344 342 343 341 341 339 339 339 339 340 340 339 339 339 339 339 339 339 338 337 337 336 337 337 337 336 335 335 335 336 336 335 335 334 333 333 332 333 335 335 334 335 335 334 333 332 332 333
339 340 339 338 338 338 338 338 339 339 339 341 341 342 342 343 342 342 341 340 339 339 340 339 339 339 338 338 339 339 338 338 338 337 336 335 336 336 337 338 337 337 334 333 333 335 336 333 329 329 330 330 331 333 334 335 335 336 333 332 334 332
340 340 339 340 340 340 340 339 339 339 340 339 340 340 340 342 342 341 341 340 341 341 340 339 339 339 338 338 338 339 339 338 339 337 337 337 337 336 336 337 336 335 336 334 332 334 332 329 326 325 325 325 329 331 333 333 333 335 335 333 332 332
339 339 340 341 341 340 341 341 341 339 340 340 343 344 344 343 344 343 343 343 343 342 341 339 339 339 338 338 338 338 338 339 338 338 336 336 337 335 336 336 336 335 334 334 333 334 333 331 327 329 328 323 321 322 328 330 333 334 334 334 333 331
340 340 340 341 341 342 341 341 342 342 342 343 342 343 342 342 342 342 342 343 342 342 341 340 340 339 338 338 337 337 338 339 338 338 337 336 336 335 336 337 337 336 335 331 332 331 333 332 329 326 320 321 323 322 319 324 326 330 335 335 333 331
340 340 340 341 341 341 341 339 339 338 340 340 340 340 340 340 341 342 342 344 344 342 341 340 339 339 339 339 339 338 338 338 338 339 337 336 335 335 336 336 336 336 335 332 330 332 332 332 331 332 327 323 321 319 320 324 327 327 333 330 332 331
340 340 339 341 341 341 340 338 336 336 335 335 334 336 335 335 337 339 340 344 343 341 340 339 339 339 338 338 339 338 338 336 336 336 335 335 335 335 335 335 337 337 336 337 334 330 331 332 332 332 332 332 331 324 324 327 325 320 331 331 331 332
339 338 339 341 341 341 340 339 340 339 338 336 335 337 339 340 341 342 342 341 340 338 338 338 338 338 338 337 337 336 335 335 334 335 334 333 332 332 334 334 336 335 335 336 335 330 331 332 332 330 331 331 332 333 331 325 321 324 321 329 330 331
339 338 339 341 342 343 341 341 340 339 339 337 336 337 339 341 340 339 338 338 338 337 336 337 338 337 338 337 336 335 335 335 334 334 334 333 333 334 334 334 335 336 337 337 334 329 329 331 329 329 331 328 329 331 331 330 329 324 322 320 325 330
338 339 340 341 342 342 342 341 340 339 336 337 339 339 339 338 337 337 337 337 337 337 337 337 338 337 337 336 336 336 335 334 334 334 333 334 333 333 333 332 332 333 332 333 333 333 331 329 330 329 330 327 328 328 328 328 327 327 322 320 322 323
337 339 340 340 340 339 339 338 337 337 337 337 338 338 338 337 337 336 338 338 338 336 336 338 337 336 336 335 336 336 335 335 334 334 333 333 333 332 332 332 332 332 333 332 333 334 331 331 332 331 331 329 328 327 327 326 325 325 325 324 320 321
337 338 339 339 339 339 340 340 339 339 339 337 337 336 335 335 336 336 335 336 336 336 337 336 337 337 337 335 335 335 335 334 334 334 333 333 332 333 332 332 331 331 331 330 330 332 332 331 331 330 330 328 328 327 327 324 325 325 324 321 321 319
335 337 339 338 339 338 339 339 340 340 338 337 336 336 335 334 334 334 334 333 334 335 335 336 335 335 335 335 334 334 334 334 333 333 333 334 333 332 332 332 332 332 331 331 331 331 331 331 331 330 330 330 327 329 329 329 330 330 326 325 323 322
331 331 332 335 336 337 338 337 337 337 336 336 336 336 334 334 334 333 332 332 332 330 331 331 331 330 331 331 331 331 331 331 332 332 332 331 332 332 332 331 331 330 330 329 330 330 330 331 331 329 329 331 331 328 326 328 327 326 329 329 326 322
329 330 331 333 334 334 334 335 336 336 335 334 333 333 333 332 332 332 332 331 330 329 329 329 329 329 329 329 329 330 331 331 331 330 330 330 330 330 330 330 330 330 330 331 332 332 331 329 332 329 330 331 332 329 328 329 330 329 327 325 324 323
329 330 330 330 331 332 332 332 333 333 332 333 332 331 331 331 331 330 330 330 329 329 328 328 327 328 329 329 329 330 330 330 330 329 329 330 330 330 330 330 330 330 330 331 331 332 332 331 329 330 329 329 331 332 331 331 331 329 329 327 326 325
329 328 328 328 328 329 329 330 331 331 331 331 331 331 330 330 330 330 329 328 328 328 327 327 328 328 328 328 329 329 330 330 330 329 329 329 329 330 330 330 331 331 330 331 330 330 330 331 331 331 330 331 331 330 331 330 331 328 328 328 327 328
327 327 327 327 327 328 329 329 329 330 331 330 329 328 328 328 329 329 328 328 327 327 327 328 327 328 328 328 328 328 328 329 329 329 329 329 329 330 330 330 330 330 330 332 331 329 331 331 331 333 332 331 330 329 330 331 331 329 328 328 329 328